<?xml version="1.0" encoding="UTF-8" standalone="no" ?>
<gpx xmlns="http://www.topografix.com/GPX/1/1" xmlns:xsi="http://www.w3.org/2001/XMLSchema-instance" xsi:schemaLocation="http://www.topografix.com/GPX/1/1 http://www.topografix.com/GPX/1/1/gpx.xsd" version="1.1" creator="VisuGPX - https://www.visugpx.com">
  <metadata>
    <name>Velo_Rando_2013_E5_Voiron-Chanay</name>
    <desc><![CDATA[[b]Velo_Rando_2013_E5_Voiron-Chanay[/b]]]></desc>
  </metadata>
  <trk>
    <name><![CDATA[2013-05-30 06:33]]></name>
    <desc><![CDATA[<h1>OruxMaps</h1><br /><hr align="center" width="480" style="height: 2px; width: 517px"/><h2>Nom: 2013-05-30 06:33</h2><br /><p>Temps de départ: 05/30/2013 06:33</p><p>Temps d'arrivée: 05/30/2013 17:29</p><p>Distance: 110,9 km (10:56)</p><p>Temps déplacement: 08:16</p><p>Vitesse moyenne: 10,1 km/h</p><p>Vitesse moyenne: 13,4 km/h</p><p>Vitess Max.: 45,1 km/h</p><p>Altitude minimale: 272 m</p><p>Altitude maximale: 691 m</p><p>Vitesse d'élévation: 368,9 m/h</p><p>Vitesse de descente: -553,8 m/h</p><p>Gain Altitude: 1731 m</p><p>Perte Altitude: -1555 m</p><p>Temps d'élévation: 04:41</p><p>Temps de descente: 02:48</p><hr align="center" width="480" style="height: 2px; width: 517px"/>]]></desc>
    <trkseg>
      <trkpt lat="45.36097" lon="5.59046">
        <ele>353.4</ele>
        <time>2013-05-30T04:32:44Z</time>
      </trkpt>
      <trkpt lat="45.36079" lon="5.59042">
        <ele>348.70358</ele>
        <time>2013-05-30T04:33:02Z</time>
      </trkpt>
      <trkpt lat="45.36097" lon="5.59051">
        <ele>348.71582</ele>
        <time>2013-05-30T04:33:16Z</time>
      </trkpt>
      <trkpt lat="45.36115" lon="5.59059">
        <ele>346.2456</ele>
        <time>2013-05-30T04:33:26Z</time>
      </trkpt>
      <trkpt lat="45.36134" lon="5.59056">
        <ele>344.0614</ele>
        <time>2013-05-30T04:33:36Z</time>
      </trkpt>
      <trkpt lat="45.36154" lon="5.59061">
        <ele>344.7225</ele>
        <time>2013-05-30T04:33:45Z</time>
      </trkpt>
      <trkpt lat="45.36174" lon="5.59063">
        <ele>344.9755</ele>
        <time>2013-05-30T04:33:53Z</time>
      </trkpt>
      <trkpt lat="45.36192" lon="5.59062">
        <ele>346.11108</ele>
        <time>2013-05-30T04:34:02Z</time>
      </trkpt>
      <trkpt lat="45.36211" lon="5.59062">
        <ele>338.8009</ele>
        <time>2013-05-30T04:36:03Z</time>
      </trkpt>
      <trkpt lat="45.36229" lon="5.59063">
        <ele>339.72632</ele>
        <time>2013-05-30T04:36:10Z</time>
      </trkpt>
      <trkpt lat="45.36248" lon="5.59067">
        <ele>342.04547</ele>
        <time>2013-05-30T04:36:18Z</time>
      </trkpt>
      <trkpt lat="45.36267" lon="5.59067">
        <ele>342.08386</ele>
        <time>2013-05-30T04:36:26Z</time>
      </trkpt>
      <trkpt lat="45.36285" lon="5.5908">
        <ele>343.40686</ele>
        <time>2013-05-30T04:36:40Z</time>
      </trkpt>
      <trkpt lat="45.36304" lon="5.59086">
        <ele>344.8501</ele>
        <time>2013-05-30T04:36:46Z</time>
      </trkpt>
      <trkpt lat="45.3632" lon="5.591">
        <ele>346.35028</ele>
        <time>2013-05-30T04:36:53Z</time>
      </trkpt>
      <trkpt lat="45.36326" lon="5.59126">
        <ele>346.75787</ele>
        <time>2013-05-30T04:37:03Z</time>
      </trkpt>
      <trkpt lat="45.36331" lon="5.59151">
        <ele>346.4568</ele>
        <time>2013-05-30T04:37:22Z</time>
      </trkpt>
      <trkpt lat="45.36341" lon="5.5913">
        <ele>344.95792</ele>
        <time>2013-05-30T04:37:51Z</time>
      </trkpt>
      <trkpt lat="45.36362" lon="5.59131">
        <ele>343.87296</ele>
        <time>2013-05-30T04:38:01Z</time>
      </trkpt>
      <trkpt lat="45.36381" lon="5.59133">
        <ele>344.94763</ele>
        <time>2013-05-30T04:38:09Z</time>
      </trkpt>
      <trkpt lat="45.364" lon="5.59134">
        <ele>346.6834</ele>
        <time>2013-05-30T04:38:17Z</time>
      </trkpt>
      <trkpt lat="45.36418" lon="5.59139">
        <ele>339.2953</ele>
        <time>2013-05-30T04:38:27Z</time>
      </trkpt>
      <trkpt lat="45.3644" lon="5.59135">
        <ele>339.6498</ele>
        <time>2013-05-30T04:38:35Z</time>
      </trkpt>
      <trkpt lat="45.36461" lon="5.59136">
        <ele>340.191</ele>
        <time>2013-05-30T04:38:40Z</time>
      </trkpt>
      <trkpt lat="45.36479" lon="5.59139">
        <ele>339.5969</ele>
        <time>2013-05-30T04:38:45Z</time>
      </trkpt>
      <trkpt lat="45.36497" lon="5.59145">
        <ele>339.08752</ele>
        <time>2013-05-30T04:38:53Z</time>
      </trkpt>
      <trkpt lat="45.36507" lon="5.5917">
        <ele>339.2817</ele>
        <time>2013-05-30T04:39:01Z</time>
      </trkpt>
      <trkpt lat="45.36526" lon="5.59169">
        <ele>343.45703</ele>
        <time>2013-05-30T04:39:20Z</time>
      </trkpt>
      <trkpt lat="45.36544" lon="5.59157">
        <ele>343.79694</ele>
        <time>2013-05-30T04:39:27Z</time>
      </trkpt>
      <trkpt lat="45.36562" lon="5.59152">
        <ele>345.32782</ele>
        <time>2013-05-30T04:39:35Z</time>
      </trkpt>
      <trkpt lat="45.36581" lon="5.59154">
        <ele>344.94006</ele>
        <time>2013-05-30T04:40:52Z</time>
      </trkpt>
      <trkpt lat="45.366" lon="5.59153">
        <ele>349.28366</ele>
        <time>2013-05-30T04:40:58Z</time>
      </trkpt>
      <trkpt lat="45.3662" lon="5.59151">
        <ele>349.43127</ele>
        <time>2013-05-30T04:41:06Z</time>
      </trkpt>
      <trkpt lat="45.3664" lon="5.59151">
        <ele>350.04846</ele>
        <time>2013-05-30T04:41:14Z</time>
      </trkpt>
      <trkpt lat="45.3666" lon="5.59148">
        <ele>349.9624</ele>
        <time>2013-05-30T04:41:22Z</time>
      </trkpt>
      <trkpt lat="45.36678" lon="5.5915">
        <ele>351.52927</ele>
        <time>2013-05-30T04:41:29Z</time>
      </trkpt>
      <trkpt lat="45.36697" lon="5.59147">
        <ele>353.44754</ele>
        <time>2013-05-30T04:41:38Z</time>
      </trkpt>
      <trkpt lat="45.36717" lon="5.59148">
        <ele>352.38916</ele>
        <time>2013-05-30T04:41:46Z</time>
      </trkpt>
      <trkpt lat="45.36736" lon="5.59152">
        <ele>351.17398</ele>
        <time>2013-05-30T04:41:54Z</time>
      </trkpt>
      <trkpt lat="45.36754" lon="5.59148">
        <ele>350.81955</ele>
        <time>2013-05-30T04:42:04Z</time>
      </trkpt>
      <trkpt lat="45.36753" lon="5.59121">
        <ele>351.67496</ele>
        <time>2013-05-30T04:42:14Z</time>
      </trkpt>
      <trkpt lat="45.3676" lon="5.59146">
        <ele>353.62976</ele>
        <time>2013-05-30T04:45:41Z</time>
      </trkpt>
      <trkpt lat="45.36747" lon="5.59125">
        <ele>362.07404</ele>
        <time>2013-05-30T04:50:03Z</time>
      </trkpt>
      <trkpt lat="45.36735" lon="5.59105">
        <ele>352.57748</ele>
        <time>2013-05-30T04:50:40Z</time>
      </trkpt>
      <trkpt lat="45.36714" lon="5.59104">
        <ele>350.41238</ele>
        <time>2013-05-30T04:50:44Z</time>
      </trkpt>
      <trkpt lat="45.36691" lon="5.59103">
        <ele>349.1309</ele>
        <time>2013-05-30T04:50:48Z</time>
      </trkpt>
      <trkpt lat="45.36671" lon="5.59103">
        <ele>348.10352</ele>
        <time>2013-05-30T04:50:52Z</time>
      </trkpt>
      <trkpt lat="45.36652" lon="5.59102">
        <ele>347.17688</ele>
        <time>2013-05-30T04:50:56Z</time>
      </trkpt>
      <trkpt lat="45.3663" lon="5.59102">
        <ele>346.8911</ele>
        <time>2013-05-30T04:51:01Z</time>
      </trkpt>
      <trkpt lat="45.36608" lon="5.59103">
        <ele>347.10687</ele>
        <time>2013-05-30T04:51:06Z</time>
      </trkpt>
      <trkpt lat="45.36587" lon="5.591">
        <ele>346.6895</ele>
        <time>2013-05-30T04:51:11Z</time>
      </trkpt>
      <trkpt lat="45.36569" lon="5.59098">
        <ele>345.65878</ele>
        <time>2013-05-30T04:51:15Z</time>
      </trkpt>
      <trkpt lat="45.3655" lon="5.59096">
        <ele>344.81705</ele>
        <time>2013-05-30T04:51:19Z</time>
      </trkpt>
      <trkpt lat="45.36528" lon="5.59095">
        <ele>344.89642</ele>
        <time>2013-05-30T04:51:23Z</time>
      </trkpt>
      <trkpt lat="45.3651" lon="5.59092">
        <ele>344.71255</ele>
        <time>2013-05-30T04:51:27Z</time>
      </trkpt>
      <trkpt lat="45.36492" lon="5.59083">
        <ele>343.98218</ele>
        <time>2013-05-30T04:51:32Z</time>
      </trkpt>
      <trkpt lat="45.36474" lon="5.5907">
        <ele>343.97885</ele>
        <time>2013-05-30T04:51:38Z</time>
      </trkpt>
      <trkpt lat="45.36458" lon="5.59086">
        <ele>344.45673</ele>
        <time>2013-05-30T04:51:50Z</time>
      </trkpt>
      <trkpt lat="45.36439" lon="5.59083">
        <ele>343.78427</ele>
        <time>2013-05-30T04:51:56Z</time>
      </trkpt>
      <trkpt lat="45.36419" lon="5.59083">
        <ele>342.6782</ele>
        <time>2013-05-30T04:52:08Z</time>
      </trkpt>
      <trkpt lat="45.36399" lon="5.59081">
        <ele>340.1714</ele>
        <time>2013-05-30T04:52:13Z</time>
      </trkpt>
      <trkpt lat="45.36377" lon="5.59079">
        <ele>338.55826</ele>
        <time>2013-05-30T04:52:18Z</time>
      </trkpt>
      <trkpt lat="45.36359" lon="5.59079">
        <ele>336.0903</ele>
        <time>2013-05-30T04:52:24Z</time>
      </trkpt>
      <trkpt lat="45.36346" lon="5.59099">
        <ele>337.28802</ele>
        <time>2013-05-30T04:52:30Z</time>
      </trkpt>
      <trkpt lat="45.3634" lon="5.59126">
        <ele>338.69238</ele>
        <time>2013-05-30T04:52:35Z</time>
      </trkpt>
      <trkpt lat="45.36342" lon="5.59156">
        <ele>339.1428</ele>
        <time>2013-05-30T04:52:41Z</time>
      </trkpt>
      <trkpt lat="45.36342" lon="5.59185">
        <ele>339.01517</ele>
        <time>2013-05-30T04:52:47Z</time>
      </trkpt>
      <trkpt lat="45.3634" lon="5.59216">
        <ele>339.79184</ele>
        <time>2013-05-30T04:53:15Z</time>
      </trkpt>
      <trkpt lat="45.3634" lon="5.59245">
        <ele>339.68567</ele>
        <time>2013-05-30T04:53:20Z</time>
      </trkpt>
      <trkpt lat="45.36339" lon="5.59275">
        <ele>339.3172</ele>
        <time>2013-05-30T04:53:25Z</time>
      </trkpt>
      <trkpt lat="45.36339" lon="5.59305">
        <ele>338.93494</ele>
        <time>2013-05-30T04:53:30Z</time>
      </trkpt>
      <trkpt lat="45.36338" lon="5.59334">
        <ele>339.1792</ele>
        <time>2013-05-30T04:53:35Z</time>
      </trkpt>
      <trkpt lat="45.36336" lon="5.59363">
        <ele>339.17416</ele>
        <time>2013-05-30T04:53:40Z</time>
      </trkpt>
      <trkpt lat="45.36335" lon="5.59393">
        <ele>338.18793</ele>
        <time>2013-05-30T04:53:45Z</time>
      </trkpt>
      <trkpt lat="45.36335" lon="5.59422">
        <ele>338.3407</ele>
        <time>2013-05-30T04:53:50Z</time>
      </trkpt>
      <trkpt lat="45.36332" lon="5.59449">
        <ele>338.8735</ele>
        <time>2013-05-30T04:53:56Z</time>
      </trkpt>
      <trkpt lat="45.36314" lon="5.5945">
        <ele>338.46774</ele>
        <time>2013-05-30T04:54:06Z</time>
      </trkpt>
      <trkpt lat="45.36293" lon="5.59451">
        <ele>337.65524</ele>
        <time>2013-05-30T04:54:11Z</time>
      </trkpt>
      <trkpt lat="45.36272" lon="5.59453">
        <ele>337.15536</ele>
        <time>2013-05-30T04:54:15Z</time>
      </trkpt>
      <trkpt lat="45.36253" lon="5.59455">
        <ele>336.7941</ele>
        <time>2013-05-30T04:54:19Z</time>
      </trkpt>
      <trkpt lat="45.36233" lon="5.59455">
        <ele>336.60672</ele>
        <time>2013-05-30T04:54:23Z</time>
      </trkpt>
      <trkpt lat="45.36212" lon="5.59456">
        <ele>336.40448</ele>
        <time>2013-05-30T04:54:27Z</time>
      </trkpt>
      <trkpt lat="45.36193" lon="5.59458">
        <ele>336.36078</ele>
        <time>2013-05-30T04:54:31Z</time>
      </trkpt>
      <trkpt lat="45.36174" lon="5.5946">
        <ele>336.4247</ele>
        <time>2013-05-30T04:54:35Z</time>
      </trkpt>
      <trkpt lat="45.36153" lon="5.59462">
        <ele>336.56348</ele>
        <time>2013-05-30T04:54:40Z</time>
      </trkpt>
      <trkpt lat="45.36132" lon="5.59464">
        <ele>336.42404</ele>
        <time>2013-05-30T04:54:45Z</time>
      </trkpt>
      <trkpt lat="45.3611" lon="5.59466">
        <ele>336.61145</ele>
        <time>2013-05-30T04:54:50Z</time>
      </trkpt>
      <trkpt lat="45.36089" lon="5.59469">
        <ele>336.79138</ele>
        <time>2013-05-30T04:54:55Z</time>
      </trkpt>
      <trkpt lat="45.36067" lon="5.59472">
        <ele>337.44473</ele>
        <time>2013-05-30T04:55:00Z</time>
      </trkpt>
      <trkpt lat="45.36049" lon="5.59474">
        <ele>337.6876</ele>
        <time>2013-05-30T04:55:04Z</time>
      </trkpt>
      <trkpt lat="45.36028" lon="5.59475">
        <ele>338.11023</ele>
        <time>2013-05-30T04:55:09Z</time>
      </trkpt>
      <trkpt lat="45.36011" lon="5.59463">
        <ele>338.525</ele>
        <time>2013-05-30T04:55:18Z</time>
      </trkpt>
      <trkpt lat="45.35992" lon="5.59467">
        <ele>338.12778</ele>
        <time>2013-05-30T04:55:25Z</time>
      </trkpt>
      <trkpt lat="45.35991" lon="5.59493">
        <ele>338.124</ele>
        <time>2013-05-30T04:55:30Z</time>
      </trkpt>
      <trkpt lat="45.3601" lon="5.59496">
        <ele>338.22968</ele>
        <time>2013-05-30T04:55:40Z</time>
      </trkpt>
      <trkpt lat="45.36025" lon="5.59481">
        <ele>338.84396</ele>
        <time>2013-05-30T04:55:45Z</time>
      </trkpt>
      <trkpt lat="45.36046" lon="5.59477">
        <ele>339.2441</ele>
        <time>2013-05-30T04:55:50Z</time>
      </trkpt>
      <trkpt lat="45.36068" lon="5.59475">
        <ele>340.0956</ele>
        <time>2013-05-30T04:55:55Z</time>
      </trkpt>
      <trkpt lat="45.36088" lon="5.59473">
        <ele>340.9346</ele>
        <time>2013-05-30T04:56:00Z</time>
      </trkpt>
      <trkpt lat="45.36108" lon="5.59469">
        <ele>340.70224</ele>
        <time>2013-05-30T04:56:05Z</time>
      </trkpt>
      <trkpt lat="45.36127" lon="5.5947">
        <ele>340.36398</ele>
        <time>2013-05-30T04:56:09Z</time>
      </trkpt>
      <trkpt lat="45.36145" lon="5.59467">
        <ele>340.08273</ele>
        <time>2013-05-30T04:56:13Z</time>
      </trkpt>
      <trkpt lat="45.36164" lon="5.59466">
        <ele>340.0543</ele>
        <time>2013-05-30T04:56:17Z</time>
      </trkpt>
      <trkpt lat="45.36182" lon="5.59465">
        <ele>339.8449</ele>
        <time>2013-05-30T04:56:21Z</time>
      </trkpt>
      <trkpt lat="45.36201" lon="5.59463">
        <ele>339.4947</ele>
        <time>2013-05-30T04:56:25Z</time>
      </trkpt>
      <trkpt lat="45.36223" lon="5.5946">
        <ele>339.60077</ele>
        <time>2013-05-30T04:56:30Z</time>
      </trkpt>
      <trkpt lat="45.36245" lon="5.59457">
        <ele>339.6745</ele>
        <time>2013-05-30T04:56:35Z</time>
      </trkpt>
      <trkpt lat="45.36267" lon="5.59455">
        <ele>340.70206</ele>
        <time>2013-05-30T04:56:40Z</time>
      </trkpt>
      <trkpt lat="45.36288" lon="5.59453">
        <ele>340.99454</ele>
        <time>2013-05-30T04:56:45Z</time>
      </trkpt>
      <trkpt lat="45.36307" lon="5.59451">
        <ele>341.83044</ele>
        <time>2013-05-30T04:56:50Z</time>
      </trkpt>
      <trkpt lat="45.36328" lon="5.5945">
        <ele>342.21143</ele>
        <time>2013-05-30T04:56:57Z</time>
      </trkpt>
      <trkpt lat="45.36333" lon="5.59476">
        <ele>342.93924</ele>
        <time>2013-05-30T04:57:10Z</time>
      </trkpt>
      <trkpt lat="45.36338" lon="5.59451">
        <ele>341.58142</ele>
        <time>2013-05-30T04:59:25Z</time>
      </trkpt>
      <trkpt lat="45.36359" lon="5.59449">
        <ele>341.86215</ele>
        <time>2013-05-30T04:59:32Z</time>
      </trkpt>
      <trkpt lat="45.36376" lon="5.59442">
        <ele>342.06805</ele>
        <time>2013-05-30T04:59:38Z</time>
      </trkpt>
      <trkpt lat="45.36393" lon="5.59432">
        <ele>341.5468</ele>
        <time>2013-05-30T04:59:44Z</time>
      </trkpt>
      <trkpt lat="45.36427" lon="5.59436">
        <ele>342.3332</ele>
        <time>2013-05-30T04:59:57Z</time>
      </trkpt>
      <trkpt lat="45.36445" lon="5.5945">
        <ele>346.24615</ele>
        <time>2013-05-30T05:00:02Z</time>
      </trkpt>
      <trkpt lat="45.36453" lon="5.59474">
        <ele>348.12524</ele>
        <time>2013-05-30T05:00:14Z</time>
      </trkpt>
      <trkpt lat="45.36442" lon="5.59495">
        <ele>348.34464</ele>
        <time>2013-05-30T05:00:20Z</time>
      </trkpt>
      <trkpt lat="45.3643" lon="5.59515">
        <ele>349.3473</ele>
        <time>2013-05-30T05:00:27Z</time>
      </trkpt>
      <trkpt lat="45.36448" lon="5.59504">
        <ele>346.13287</ele>
        <time>2013-05-30T05:00:51Z</time>
      </trkpt>
      <trkpt lat="45.36459" lon="5.5948">
        <ele>345.25186</ele>
        <time>2013-05-30T05:01:00Z</time>
      </trkpt>
      <trkpt lat="45.36469" lon="5.59457">
        <ele>344.87308</ele>
        <time>2013-05-30T05:01:06Z</time>
      </trkpt>
      <trkpt lat="45.36478" lon="5.59435">
        <ele>344.37225</ele>
        <time>2013-05-30T05:01:12Z</time>
      </trkpt>
      <trkpt lat="45.36487" lon="5.59412">
        <ele>344.27087</ele>
        <time>2013-05-30T05:01:18Z</time>
      </trkpt>
      <trkpt lat="45.36495" lon="5.59388">
        <ele>344.7945</ele>
        <time>2013-05-30T05:01:26Z</time>
      </trkpt>
      <trkpt lat="45.365" lon="5.59363">
        <ele>347.45563</ele>
        <time>2013-05-30T05:36:42Z</time>
      </trkpt>
      <trkpt lat="45.36509" lon="5.59337">
        <ele>346.20477</ele>
        <time>2013-05-30T05:36:50Z</time>
      </trkpt>
      <trkpt lat="45.36516" lon="5.59313">
        <ele>345.65894</ele>
        <time>2013-05-30T05:36:57Z</time>
      </trkpt>
      <trkpt lat="45.36528" lon="5.59289">
        <ele>345.7201</ele>
        <time>2013-05-30T05:37:05Z</time>
      </trkpt>
      <trkpt lat="45.36546" lon="5.59282">
        <ele>348.8057</ele>
        <time>2013-05-30T05:37:13Z</time>
      </trkpt>
      <trkpt lat="45.36565" lon="5.59287">
        <ele>348.2796</ele>
        <time>2013-05-30T05:37:21Z</time>
      </trkpt>
      <trkpt lat="45.36584" lon="5.59284">
        <ele>355.98486</ele>
        <time>2013-05-30T05:37:29Z</time>
      </trkpt>
      <trkpt lat="45.36648" lon="5.59295">
        <ele>365.80844</ele>
        <time>2013-05-30T05:38:04Z</time>
      </trkpt>
      <trkpt lat="45.36666" lon="5.59296">
        <ele>354.41733</ele>
        <time>2013-05-30T05:38:12Z</time>
      </trkpt>
      <trkpt lat="45.36682" lon="5.59281">
        <ele>366.6558</ele>
        <time>2013-05-30T05:38:58Z</time>
      </trkpt>
      <trkpt lat="45.36697" lon="5.59295">
        <ele>360.8096</ele>
        <time>2013-05-30T05:39:07Z</time>
      </trkpt>
      <trkpt lat="45.36715" lon="5.59307">
        <ele>357.5669</ele>
        <time>2013-05-30T05:39:19Z</time>
      </trkpt>
      <trkpt lat="45.36727" lon="5.59327">
        <ele>355.68954</ele>
        <time>2013-05-30T05:39:38Z</time>
      </trkpt>
      <trkpt lat="45.36734" lon="5.59303">
        <ele>357.58875</ele>
        <time>2013-05-30T05:39:51Z</time>
      </trkpt>
      <trkpt lat="45.36743" lon="5.59275">
        <ele>357.48874</ele>
        <time>2013-05-30T05:39:57Z</time>
      </trkpt>
      <trkpt lat="45.36747" lon="5.59246">
        <ele>357.48767</ele>
        <time>2013-05-30T05:40:02Z</time>
      </trkpt>
      <trkpt lat="45.36747" lon="5.5922">
        <ele>359.02267</ele>
        <time>2013-05-30T05:40:06Z</time>
      </trkpt>
      <trkpt lat="45.36768" lon="5.59226">
        <ele>361.3145</ele>
        <time>2013-05-30T05:40:17Z</time>
      </trkpt>
      <trkpt lat="45.36785" lon="5.59235">
        <ele>356.80786</ele>
        <time>2013-05-30T05:40:24Z</time>
      </trkpt>
      <trkpt lat="45.36768" lon="5.59224">
        <ele>355.2769</ele>
        <time>2013-05-30T05:40:40Z</time>
      </trkpt>
      <trkpt lat="45.3675" lon="5.59212">
        <ele>350.6795</ele>
        <time>2013-05-30T05:40:48Z</time>
      </trkpt>
      <trkpt lat="45.36748" lon="5.59186">
        <ele>346.4508</ele>
        <time>2013-05-30T05:40:55Z</time>
      </trkpt>
      <trkpt lat="45.36754" lon="5.59159">
        <ele>346.5791</ele>
        <time>2013-05-30T05:41:01Z</time>
      </trkpt>
      <trkpt lat="45.36766" lon="5.59138">
        <ele>349.46567</ele>
        <time>2013-05-30T05:41:09Z</time>
      </trkpt>
      <trkpt lat="45.36784" lon="5.59128">
        <ele>356.3408</ele>
        <time>2013-05-30T05:41:18Z</time>
      </trkpt>
      <trkpt lat="45.36799" lon="5.59113">
        <ele>360.39026</ele>
        <time>2013-05-30T05:41:26Z</time>
      </trkpt>
      <trkpt lat="45.36813" lon="5.59093">
        <ele>361.38278</ele>
        <time>2013-05-30T05:41:34Z</time>
      </trkpt>
      <trkpt lat="45.36826" lon="5.59073">
        <ele>359.63354</ele>
        <time>2013-05-30T05:41:41Z</time>
      </trkpt>
      <trkpt lat="45.36839" lon="5.59052">
        <ele>361.79584</ele>
        <time>2013-05-30T05:41:50Z</time>
      </trkpt>
      <trkpt lat="45.36858" lon="5.59056">
        <ele>361.59244</ele>
        <time>2013-05-30T05:42:03Z</time>
      </trkpt>
      <trkpt lat="45.36872" lon="5.59072">
        <ele>369.60693</ele>
        <time>2013-05-30T05:42:14Z</time>
      </trkpt>
      <trkpt lat="45.36889" lon="5.59084">
        <ele>369.44058</ele>
        <time>2013-05-30T05:42:23Z</time>
      </trkpt>
      <trkpt lat="45.36908" lon="5.59092">
        <ele>365.59848</ele>
        <time>2013-05-30T05:42:34Z</time>
      </trkpt>
      <trkpt lat="45.36971" lon="5.59117">
        <ele>367.0228</ele>
        <time>2013-05-30T05:43:07Z</time>
      </trkpt>
      <trkpt lat="45.36984" lon="5.59134">
        <ele>360.8669</ele>
        <time>2013-05-30T05:43:20Z</time>
      </trkpt>
      <trkpt lat="45.36996" lon="5.59156">
        <ele>362.90662</ele>
        <time>2013-05-30T05:43:27Z</time>
      </trkpt>
      <trkpt lat="45.37003" lon="5.5918">
        <ele>365.03683</ele>
        <time>2013-05-30T05:43:34Z</time>
      </trkpt>
      <trkpt lat="45.37015" lon="5.59203">
        <ele>365.35968</ele>
        <time>2013-05-30T05:43:41Z</time>
      </trkpt>
      <trkpt lat="45.37027" lon="5.59225">
        <ele>365.99698</ele>
        <time>2013-05-30T05:43:48Z</time>
      </trkpt>
      <trkpt lat="45.37035" lon="5.59251">
        <ele>366.3881</ele>
        <time>2013-05-30T05:43:55Z</time>
      </trkpt>
      <trkpt lat="45.37041" lon="5.59278">
        <ele>367.04318</ele>
        <time>2013-05-30T05:44:02Z</time>
      </trkpt>
      <trkpt lat="45.37046" lon="5.59305">
        <ele>367.87686</ele>
        <time>2013-05-30T05:44:09Z</time>
      </trkpt>
      <trkpt lat="45.37047" lon="5.59331">
        <ele>368.2375</ele>
        <time>2013-05-30T05:44:16Z</time>
      </trkpt>
      <trkpt lat="45.37044" lon="5.59357">
        <ele>370.57904</ele>
        <time>2013-05-30T05:44:23Z</time>
      </trkpt>
      <trkpt lat="45.37041" lon="5.59385">
        <ele>370.1264</ele>
        <time>2013-05-30T05:44:32Z</time>
      </trkpt>
      <trkpt lat="45.37043" lon="5.59412">
        <ele>366.9794</ele>
        <time>2013-05-30T05:44:42Z</time>
      </trkpt>
      <trkpt lat="45.37051" lon="5.59437">
        <ele>369.48917</ele>
        <time>2013-05-30T05:44:52Z</time>
      </trkpt>
      <trkpt lat="45.37057" lon="5.59462">
        <ele>372.63696</ele>
        <time>2013-05-30T05:45:02Z</time>
      </trkpt>
      <trkpt lat="45.37063" lon="5.59487">
        <ele>375.82397</ele>
        <time>2013-05-30T05:45:12Z</time>
      </trkpt>
      <trkpt lat="45.37069" lon="5.59513">
        <ele>384.58197</ele>
        <time>2013-05-30T05:45:23Z</time>
      </trkpt>
      <trkpt lat="45.37075" lon="5.59539">
        <ele>385.90555</ele>
        <time>2013-05-30T05:45:31Z</time>
      </trkpt>
      <trkpt lat="45.37081" lon="5.59565">
        <ele>386.68427</ele>
        <time>2013-05-30T05:45:41Z</time>
      </trkpt>
      <trkpt lat="45.37089" lon="5.5959">
        <ele>385.35934</ele>
        <time>2013-05-30T05:45:50Z</time>
      </trkpt>
      <trkpt lat="45.37088" lon="5.59616">
        <ele>391.00827</ele>
        <time>2013-05-30T05:45:59Z</time>
      </trkpt>
      <trkpt lat="45.37092" lon="5.59644">
        <ele>393.0937</ele>
        <time>2013-05-30T05:46:09Z</time>
      </trkpt>
      <trkpt lat="45.37092" lon="5.59671">
        <ele>397.5074</ele>
        <time>2013-05-30T05:46:18Z</time>
      </trkpt>
      <trkpt lat="45.37094" lon="5.59698">
        <ele>397.1716</ele>
        <time>2013-05-30T05:46:28Z</time>
      </trkpt>
      <trkpt lat="45.37095" lon="5.59725">
        <ele>399.3934</ele>
        <time>2013-05-30T05:46:38Z</time>
      </trkpt>
      <trkpt lat="45.37091" lon="5.59751">
        <ele>402.40897</ele>
        <time>2013-05-30T05:46:48Z</time>
      </trkpt>
      <trkpt lat="45.37083" lon="5.59776">
        <ele>403.40033</ele>
        <time>2013-05-30T05:46:57Z</time>
      </trkpt>
      <trkpt lat="45.37073" lon="5.59801">
        <ele>400.42047</ele>
        <time>2013-05-30T05:47:07Z</time>
      </trkpt>
      <trkpt lat="45.37066" lon="5.59827">
        <ele>397.79556</ele>
        <time>2013-05-30T05:47:16Z</time>
      </trkpt>
      <trkpt lat="45.3706" lon="5.59852">
        <ele>400.31107</ele>
        <time>2013-05-30T05:47:25Z</time>
      </trkpt>
      <trkpt lat="45.37053" lon="5.59878">
        <ele>400.74448</ele>
        <time>2013-05-30T05:47:34Z</time>
      </trkpt>
      <trkpt lat="45.37045" lon="5.59901">
        <ele>398.36523</ele>
        <time>2013-05-30T05:47:41Z</time>
      </trkpt>
      <trkpt lat="45.37037" lon="5.59926">
        <ele>395.95236</ele>
        <time>2013-05-30T05:47:48Z</time>
      </trkpt>
      <trkpt lat="45.37028" lon="5.59949">
        <ele>397.218</ele>
        <time>2013-05-30T05:47:55Z</time>
      </trkpt>
      <trkpt lat="45.37019" lon="5.59974">
        <ele>398.61612</ele>
        <time>2013-05-30T05:48:03Z</time>
      </trkpt>
      <trkpt lat="45.37009" lon="5.59996">
        <ele>399.22525</ele>
        <time>2013-05-30T05:48:09Z</time>
      </trkpt>
      <trkpt lat="45.36996" lon="5.60018">
        <ele>401.81647</ele>
        <time>2013-05-30T05:48:15Z</time>
      </trkpt>
      <trkpt lat="45.36987" lon="5.60045">
        <ele>402.05426</ele>
        <time>2013-05-30T05:48:22Z</time>
      </trkpt>
      <trkpt lat="45.36986" lon="5.60071">
        <ele>400.40115</ele>
        <time>2013-05-30T05:48:26Z</time>
      </trkpt>
      <trkpt lat="45.36985" lon="5.60097">
        <ele>400.41248</ele>
        <time>2013-05-30T05:48:30Z</time>
      </trkpt>
      <trkpt lat="45.36981" lon="5.60126">
        <ele>400.59445</ele>
        <time>2013-05-30T05:48:35Z</time>
      </trkpt>
      <trkpt lat="45.36974" lon="5.60157">
        <ele>398.87592</ele>
        <time>2013-05-30T05:48:40Z</time>
      </trkpt>
      <trkpt lat="45.36966" lon="5.60182">
        <ele>397.57562</ele>
        <time>2013-05-30T05:48:45Z</time>
      </trkpt>
      <trkpt lat="45.36957" lon="5.60205">
        <ele>394.90262</ele>
        <time>2013-05-30T05:48:50Z</time>
      </trkpt>
      <trkpt lat="45.36944" lon="5.60225">
        <ele>391.5433</ele>
        <time>2013-05-30T05:48:55Z</time>
      </trkpt>
      <trkpt lat="45.36928" lon="5.60242">
        <ele>392.5181</ele>
        <time>2013-05-30T05:49:00Z</time>
      </trkpt>
      <trkpt lat="45.36913" lon="5.60257">
        <ele>394.24796</ele>
        <time>2013-05-30T05:49:05Z</time>
      </trkpt>
      <trkpt lat="45.36897" lon="5.60269">
        <ele>393.4057</ele>
        <time>2013-05-30T05:49:10Z</time>
      </trkpt>
      <trkpt lat="45.36878" lon="5.60283">
        <ele>391.45032</ele>
        <time>2013-05-30T05:49:16Z</time>
      </trkpt>
      <trkpt lat="45.36866" lon="5.60304">
        <ele>386.1301</ele>
        <time>2013-05-30T05:49:22Z</time>
      </trkpt>
      <trkpt lat="45.36856" lon="5.60329">
        <ele>387.5207</ele>
        <time>2013-05-30T05:49:28Z</time>
      </trkpt>
      <trkpt lat="45.36843" lon="5.6035">
        <ele>385.61838</ele>
        <time>2013-05-30T05:49:34Z</time>
      </trkpt>
      <trkpt lat="45.36827" lon="5.60367">
        <ele>383.80905</ele>
        <time>2013-05-30T05:49:39Z</time>
      </trkpt>
      <trkpt lat="45.36811" lon="5.60386">
        <ele>384.27435</ele>
        <time>2013-05-30T05:49:45Z</time>
      </trkpt>
      <trkpt lat="45.36806" lon="5.60415">
        <ele>384.78363</ele>
        <time>2013-05-30T05:49:51Z</time>
      </trkpt>
      <trkpt lat="45.36805" lon="5.60444">
        <ele>385.7968</ele>
        <time>2013-05-30T05:49:57Z</time>
      </trkpt>
      <trkpt lat="45.36815" lon="5.60469">
        <ele>388.30814</ele>
        <time>2013-05-30T05:50:03Z</time>
      </trkpt>
      <trkpt lat="45.36827" lon="5.6049">
        <ele>387.3578</ele>
        <time>2013-05-30T05:50:11Z</time>
      </trkpt>
      <trkpt lat="45.36838" lon="5.60514">
        <ele>390.659</ele>
        <time>2013-05-30T05:50:20Z</time>
      </trkpt>
      <trkpt lat="45.36845" lon="5.6054">
        <ele>395.05914</ele>
        <time>2013-05-30T05:50:31Z</time>
      </trkpt>
      <trkpt lat="45.36854" lon="5.60563">
        <ele>397.04736</ele>
        <time>2013-05-30T05:50:40Z</time>
      </trkpt>
      <trkpt lat="45.36864" lon="5.60585">
        <ele>399.2839</ele>
        <time>2013-05-30T05:50:49Z</time>
      </trkpt>
      <trkpt lat="45.36877" lon="5.60606">
        <ele>403.31448</ele>
        <time>2013-05-30T05:50:59Z</time>
      </trkpt>
      <trkpt lat="45.36888" lon="5.60628">
        <ele>405.47183</ele>
        <time>2013-05-30T05:51:08Z</time>
      </trkpt>
      <trkpt lat="45.369" lon="5.60651">
        <ele>407.48022</ele>
        <time>2013-05-30T05:51:17Z</time>
      </trkpt>
      <trkpt lat="45.3691" lon="5.60676">
        <ele>410.30975</ele>
        <time>2013-05-30T05:51:26Z</time>
      </trkpt>
      <trkpt lat="45.36916" lon="5.607">
        <ele>411.31958</ele>
        <time>2013-05-30T05:51:34Z</time>
      </trkpt>
      <trkpt lat="45.36922" lon="5.60726">
        <ele>410.24518</ele>
        <time>2013-05-30T05:51:43Z</time>
      </trkpt>
      <trkpt lat="45.36923" lon="5.60754">
        <ele>413.96823</ele>
        <time>2013-05-30T05:51:53Z</time>
      </trkpt>
      <trkpt lat="45.36925" lon="5.60781">
        <ele>415.6466</ele>
        <time>2013-05-30T05:52:02Z</time>
      </trkpt>
      <trkpt lat="45.36924" lon="5.60809">
        <ele>419.4879</ele>
        <time>2013-05-30T05:52:13Z</time>
      </trkpt>
      <trkpt lat="45.36924" lon="5.60836">
        <ele>431.18472</ele>
        <time>2013-05-30T05:52:25Z</time>
      </trkpt>
      <trkpt lat="45.36928" lon="5.60861">
        <ele>435.02148</ele>
        <time>2013-05-30T05:52:35Z</time>
      </trkpt>
      <trkpt lat="45.36936" lon="5.60885">
        <ele>432.88318</ele>
        <time>2013-05-30T05:52:42Z</time>
      </trkpt>
      <trkpt lat="45.36944" lon="5.6091">
        <ele>438.46152</ele>
        <time>2013-05-30T05:52:51Z</time>
      </trkpt>
      <trkpt lat="45.36955" lon="5.60931">
        <ele>439.35373</ele>
        <time>2013-05-30T05:53:01Z</time>
      </trkpt>
      <trkpt lat="45.3697" lon="5.6095">
        <ele>454.0867</ele>
        <time>2013-05-30T05:53:13Z</time>
      </trkpt>
      <trkpt lat="45.36989" lon="5.6096">
        <ele>462.05197</ele>
        <time>2013-05-30T05:53:24Z</time>
      </trkpt>
      <trkpt lat="45.37005" lon="5.60974">
        <ele>461.79178</ele>
        <time>2013-05-30T05:53:33Z</time>
      </trkpt>
      <trkpt lat="45.37021" lon="5.60988">
        <ele>462.41824</ele>
        <time>2013-05-30T05:53:44Z</time>
      </trkpt>
      <trkpt lat="45.37039" lon="5.60998">
        <ele>454.03604</ele>
        <time>2013-05-30T05:53:54Z</time>
      </trkpt>
      <trkpt lat="45.3705" lon="5.61021">
        <ele>457.27014</ele>
        <time>2013-05-30T05:54:04Z</time>
      </trkpt>
      <trkpt lat="45.37055" lon="5.61047">
        <ele>462.45236</ele>
        <time>2013-05-30T05:54:17Z</time>
      </trkpt>
      <trkpt lat="45.37061" lon="5.61071">
        <ele>456.0533</ele>
        <time>2013-05-30T05:54:28Z</time>
      </trkpt>
      <trkpt lat="45.3706" lon="5.61099">
        <ele>457.07822</ele>
        <time>2013-05-30T05:54:38Z</time>
      </trkpt>
      <trkpt lat="45.3706" lon="5.61126">
        <ele>449.92093</ele>
        <time>2013-05-30T05:54:49Z</time>
      </trkpt>
      <trkpt lat="45.37063" lon="5.61155">
        <ele>449.88812</ele>
        <time>2013-05-30T05:55:00Z</time>
      </trkpt>
      <trkpt lat="45.37073" lon="5.61179">
        <ele>449.67648</ele>
        <time>2013-05-30T05:55:10Z</time>
      </trkpt>
      <trkpt lat="45.37085" lon="5.61198">
        <ele>450.4019</ele>
        <time>2013-05-30T05:55:19Z</time>
      </trkpt>
      <trkpt lat="45.37099" lon="5.61217">
        <ele>448.3641</ele>
        <time>2013-05-30T05:55:28Z</time>
      </trkpt>
      <trkpt lat="45.37117" lon="5.61223">
        <ele>451.1766</ele>
        <time>2013-05-30T05:55:39Z</time>
      </trkpt>
      <trkpt lat="45.37134" lon="5.61233">
        <ele>459.75378</ele>
        <time>2013-05-30T05:55:51Z</time>
      </trkpt>
      <trkpt lat="45.37152" lon="5.61243">
        <ele>461.03458</ele>
        <time>2013-05-30T05:56:03Z</time>
      </trkpt>
      <trkpt lat="45.37167" lon="5.6126">
        <ele>464.02408</ele>
        <time>2013-05-30T05:56:14Z</time>
      </trkpt>
      <trkpt lat="45.37181" lon="5.61276">
        <ele>471.4264</ele>
        <time>2013-05-30T05:56:23Z</time>
      </trkpt>
      <trkpt lat="45.37192" lon="5.61297">
        <ele>482.04486</ele>
        <time>2013-05-30T05:56:35Z</time>
      </trkpt>
      <trkpt lat="45.37201" lon="5.6132">
        <ele>488.26175</ele>
        <time>2013-05-30T05:56:46Z</time>
      </trkpt>
      <trkpt lat="45.3721" lon="5.61343">
        <ele>488.02634</ele>
        <time>2013-05-30T05:56:55Z</time>
      </trkpt>
      <trkpt lat="45.37221" lon="5.61366">
        <ele>494.82727</ele>
        <time>2013-05-30T05:57:08Z</time>
      </trkpt>
      <trkpt lat="45.37232" lon="5.61386">
        <ele>491.33118</ele>
        <time>2013-05-30T05:57:18Z</time>
      </trkpt>
      <trkpt lat="45.3724" lon="5.6141">
        <ele>495.9982</ele>
        <time>2013-05-30T05:57:30Z</time>
      </trkpt>
      <trkpt lat="45.37239" lon="5.61437">
        <ele>507.5466</ele>
        <time>2013-05-30T05:57:42Z</time>
      </trkpt>
      <trkpt lat="45.37242" lon="5.61462">
        <ele>505.53754</ele>
        <time>2013-05-30T05:57:55Z</time>
      </trkpt>
      <trkpt lat="45.37245" lon="5.61489">
        <ele>499.63678</ele>
        <time>2013-05-30T05:58:07Z</time>
      </trkpt>
      <trkpt lat="45.37251" lon="5.61515">
        <ele>494.62177</ele>
        <time>2013-05-30T05:58:17Z</time>
      </trkpt>
      <trkpt lat="45.37243" lon="5.61539">
        <ele>497.06763</ele>
        <time>2013-05-30T05:58:28Z</time>
      </trkpt>
      <trkpt lat="45.37235" lon="5.61562">
        <ele>489.58942</ele>
        <time>2013-05-30T05:58:41Z</time>
      </trkpt>
      <trkpt lat="45.37233" lon="5.61588">
        <ele>489.116</ele>
        <time>2013-05-30T05:58:55Z</time>
      </trkpt>
      <trkpt lat="45.37233" lon="5.61615">
        <ele>485.97147</ele>
        <time>2013-05-30T05:59:07Z</time>
      </trkpt>
      <trkpt lat="45.37235" lon="5.61642">
        <ele>485.54315</ele>
        <time>2013-05-30T05:59:17Z</time>
      </trkpt>
      <trkpt lat="45.37238" lon="5.61668">
        <ele>488.22302</ele>
        <time>2013-05-30T05:59:28Z</time>
      </trkpt>
      <trkpt lat="45.37239" lon="5.61695">
        <ele>491.5846</ele>
        <time>2013-05-30T05:59:39Z</time>
      </trkpt>
      <trkpt lat="45.37242" lon="5.61722">
        <ele>490.02347</ele>
        <time>2013-05-30T05:59:52Z</time>
      </trkpt>
      <trkpt lat="45.37243" lon="5.61748">
        <ele>486.46313</ele>
        <time>2013-05-30T06:00:03Z</time>
      </trkpt>
      <trkpt lat="45.37244" lon="5.61774">
        <ele>488.62936</ele>
        <time>2013-05-30T06:00:14Z</time>
      </trkpt>
      <trkpt lat="45.37252" lon="5.61799">
        <ele>499.99216</ele>
        <time>2013-05-30T06:00:28Z</time>
      </trkpt>
      <trkpt lat="45.37255" lon="5.61825">
        <ele>510.172</ele>
        <time>2013-05-30T06:00:40Z</time>
      </trkpt>
      <trkpt lat="45.3725" lon="5.61851">
        <ele>501.70685</ele>
        <time>2013-05-30T06:00:52Z</time>
      </trkpt>
      <trkpt lat="45.37242" lon="5.61877">
        <ele>501.41113</ele>
        <time>2013-05-30T06:01:02Z</time>
      </trkpt>
      <trkpt lat="45.37232" lon="5.61899">
        <ele>504.0658</ele>
        <time>2013-05-30T06:01:12Z</time>
      </trkpt>
      <trkpt lat="45.37225" lon="5.61923">
        <ele>507.2332</ele>
        <time>2013-05-30T06:01:25Z</time>
      </trkpt>
      <trkpt lat="45.37228" lon="5.61949">
        <ele>509.3743</ele>
        <time>2013-05-30T06:03:22Z</time>
      </trkpt>
      <trkpt lat="45.37229" lon="5.61976">
        <ele>512.2909</ele>
        <time>2013-05-30T06:03:33Z</time>
      </trkpt>
      <trkpt lat="45.37226" lon="5.62001">
        <ele>511.31537</ele>
        <time>2013-05-30T06:03:43Z</time>
      </trkpt>
      <trkpt lat="45.3722" lon="5.62026">
        <ele>513.23517</ele>
        <time>2013-05-30T06:03:54Z</time>
      </trkpt>
      <trkpt lat="45.37218" lon="5.62052">
        <ele>515.0399</ele>
        <time>2013-05-30T06:04:06Z</time>
      </trkpt>
      <trkpt lat="45.37219" lon="5.62077">
        <ele>518.3614</ele>
        <time>2013-05-30T06:04:18Z</time>
      </trkpt>
      <trkpt lat="45.37221" lon="5.62105">
        <ele>521.54144</ele>
        <time>2013-05-30T06:04:31Z</time>
      </trkpt>
      <trkpt lat="45.37222" lon="5.6213">
        <ele>524.9103</ele>
        <time>2013-05-30T06:04:42Z</time>
      </trkpt>
      <trkpt lat="45.37219" lon="5.62157">
        <ele>525.6933</ele>
        <time>2013-05-30T06:04:54Z</time>
      </trkpt>
      <trkpt lat="45.37213" lon="5.62183">
        <ele>528.4903</ele>
        <time>2013-05-30T06:05:05Z</time>
      </trkpt>
      <trkpt lat="45.37203" lon="5.62206">
        <ele>529.0271</ele>
        <time>2013-05-30T06:05:17Z</time>
      </trkpt>
      <trkpt lat="45.37198" lon="5.62232">
        <ele>529.8863</ele>
        <time>2013-05-30T06:05:29Z</time>
      </trkpt>
      <trkpt lat="45.37211" lon="5.62253">
        <ele>530.4487</ele>
        <time>2013-05-30T06:05:40Z</time>
      </trkpt>
      <trkpt lat="45.37229" lon="5.62264">
        <ele>529.4665</ele>
        <time>2013-05-30T06:05:50Z</time>
      </trkpt>
      <trkpt lat="45.37246" lon="5.62275">
        <ele>530.1323</ele>
        <time>2013-05-30T06:05:58Z</time>
      </trkpt>
      <trkpt lat="45.37262" lon="5.6229">
        <ele>529.2048</ele>
        <time>2013-05-30T06:06:05Z</time>
      </trkpt>
      <trkpt lat="45.37277" lon="5.62306">
        <ele>529.1937</ele>
        <time>2013-05-30T06:06:11Z</time>
      </trkpt>
      <trkpt lat="45.37291" lon="5.62323">
        <ele>529.3666</ele>
        <time>2013-05-30T06:06:17Z</time>
      </trkpt>
      <trkpt lat="45.37303" lon="5.62342">
        <ele>529.67426</ele>
        <time>2013-05-30T06:06:23Z</time>
      </trkpt>
      <trkpt lat="45.37313" lon="5.62366">
        <ele>530.79486</ele>
        <time>2013-05-30T06:06:30Z</time>
      </trkpt>
      <trkpt lat="45.37322" lon="5.62389">
        <ele>531.4563</ele>
        <time>2013-05-30T06:06:36Z</time>
      </trkpt>
      <trkpt lat="45.37331" lon="5.62411">
        <ele>532.0023</ele>
        <time>2013-05-30T06:06:42Z</time>
      </trkpt>
      <trkpt lat="45.37338" lon="5.6244">
        <ele>532.5418</ele>
        <time>2013-05-30T06:06:49Z</time>
      </trkpt>
      <trkpt lat="45.37344" lon="5.62472">
        <ele>530.96234</ele>
        <time>2013-05-30T06:06:54Z</time>
      </trkpt>
      <trkpt lat="45.3736" lon="5.62496">
        <ele>529.7225</ele>
        <time>2013-05-30T06:06:58Z</time>
      </trkpt>
      <trkpt lat="45.37375" lon="5.62512">
        <ele>529.0298</ele>
        <time>2013-05-30T06:07:01Z</time>
      </trkpt>
      <trkpt lat="45.37393" lon="5.6253">
        <ele>528.4833</ele>
        <time>2013-05-30T06:07:05Z</time>
      </trkpt>
      <trkpt lat="45.37407" lon="5.62549">
        <ele>528.04004</ele>
        <time>2013-05-30T06:07:09Z</time>
      </trkpt>
      <trkpt lat="45.37422" lon="5.62564">
        <ele>527.9591</ele>
        <time>2013-05-30T06:07:13Z</time>
      </trkpt>
      <trkpt lat="45.37438" lon="5.62578">
        <ele>528.3175</ele>
        <time>2013-05-30T06:07:17Z</time>
      </trkpt>
      <trkpt lat="45.37455" lon="5.62591">
        <ele>526.77277</ele>
        <time>2013-05-30T06:07:21Z</time>
      </trkpt>
      <trkpt lat="45.3747" lon="5.62574">
        <ele>525.5043</ele>
        <time>2013-05-30T06:07:28Z</time>
      </trkpt>
      <trkpt lat="45.37485" lon="5.62558">
        <ele>527.42725</ele>
        <time>2013-05-30T06:07:36Z</time>
      </trkpt>
      <trkpt lat="45.37503" lon="5.6257">
        <ele>527.58044</ele>
        <time>2013-05-30T06:07:47Z</time>
      </trkpt>
      <trkpt lat="45.37515" lon="5.62593">
        <ele>526.91736</ele>
        <time>2013-05-30T06:07:52Z</time>
      </trkpt>
      <trkpt lat="45.37525" lon="5.62615">
        <ele>526.4823</ele>
        <time>2013-05-30T06:07:55Z</time>
      </trkpt>
      <trkpt lat="45.37539" lon="5.62639">
        <ele>526.70416</ele>
        <time>2013-05-30T06:07:59Z</time>
      </trkpt>
      <trkpt lat="45.37552" lon="5.62664">
        <ele>526.28723</ele>
        <time>2013-05-30T06:08:03Z</time>
      </trkpt>
      <trkpt lat="45.37565" lon="5.62686">
        <ele>524.5632</ele>
        <time>2013-05-30T06:08:07Z</time>
      </trkpt>
      <trkpt lat="45.3758" lon="5.62707">
        <ele>523.7571</ele>
        <time>2013-05-30T06:08:11Z</time>
      </trkpt>
      <trkpt lat="45.37599" lon="5.62727">
        <ele>523.8673</ele>
        <time>2013-05-30T06:08:15Z</time>
      </trkpt>
      <trkpt lat="45.37614" lon="5.62743">
        <ele>524.5425</ele>
        <time>2013-05-30T06:08:18Z</time>
      </trkpt>
      <trkpt lat="45.37629" lon="5.62767">
        <ele>524.55383</ele>
        <time>2013-05-30T06:08:22Z</time>
      </trkpt>
      <trkpt lat="45.37642" lon="5.62788">
        <ele>523.6373</ele>
        <time>2013-05-30T06:08:26Z</time>
      </trkpt>
      <trkpt lat="45.37658" lon="5.62807">
        <ele>523.445</ele>
        <time>2013-05-30T06:08:30Z</time>
      </trkpt>
      <trkpt lat="45.37678" lon="5.62823">
        <ele>522.26117</ele>
        <time>2013-05-30T06:08:33Z</time>
      </trkpt>
      <trkpt lat="45.37698" lon="5.6284">
        <ele>520.41486</ele>
        <time>2013-05-30T06:08:36Z</time>
      </trkpt>
      <trkpt lat="45.37719" lon="5.62858">
        <ele>518.3281</ele>
        <time>2013-05-30T06:08:39Z</time>
      </trkpt>
      <trkpt lat="45.37737" lon="5.62872">
        <ele>516.4978</ele>
        <time>2013-05-30T06:08:42Z</time>
      </trkpt>
      <trkpt lat="45.37755" lon="5.62884">
        <ele>515.11066</ele>
        <time>2013-05-30T06:08:46Z</time>
      </trkpt>
      <trkpt lat="45.37776" lon="5.62891">
        <ele>512.6378</ele>
        <time>2013-05-30T06:08:55Z</time>
      </trkpt>
      <trkpt lat="45.37798" lon="5.629">
        <ele>511.25336</ele>
        <time>2013-05-30T06:08:59Z</time>
      </trkpt>
      <trkpt lat="45.37819" lon="5.6291">
        <ele>509.58212</ele>
        <time>2013-05-30T06:09:03Z</time>
      </trkpt>
      <trkpt lat="45.3784" lon="5.62916">
        <ele>507.77988</ele>
        <time>2013-05-30T06:09:07Z</time>
      </trkpt>
      <trkpt lat="45.37861" lon="5.62902">
        <ele>506.76785</ele>
        <time>2013-05-30T06:09:11Z</time>
      </trkpt>
      <trkpt lat="45.37881" lon="5.62886">
        <ele>506.82147</ele>
        <time>2013-05-30T06:09:15Z</time>
      </trkpt>
      <trkpt lat="45.37901" lon="5.62867">
        <ele>506.75992</ele>
        <time>2013-05-30T06:09:19Z</time>
      </trkpt>
      <trkpt lat="45.37921" lon="5.62852">
        <ele>505.56592</ele>
        <time>2013-05-30T06:09:22Z</time>
      </trkpt>
      <trkpt lat="45.37939" lon="5.6284">
        <ele>504.19186</ele>
        <time>2013-05-30T06:09:25Z</time>
      </trkpt>
      <trkpt lat="45.37956" lon="5.62827">
        <ele>502.565</ele>
        <time>2013-05-30T06:09:29Z</time>
      </trkpt>
      <trkpt lat="45.37974" lon="5.6282">
        <ele>501.03268</ele>
        <time>2013-05-30T06:09:33Z</time>
      </trkpt>
      <trkpt lat="45.37994" lon="5.62811">
        <ele>500.31424</ele>
        <time>2013-05-30T06:09:37Z</time>
      </trkpt>
      <trkpt lat="45.38014" lon="5.62797">
        <ele>498.55334</ele>
        <time>2013-05-30T06:09:41Z</time>
      </trkpt>
      <trkpt lat="45.38033" lon="5.6279">
        <ele>496.24814</ele>
        <time>2013-05-30T06:09:45Z</time>
      </trkpt>
      <trkpt lat="45.38051" lon="5.62793">
        <ele>493.00098</ele>
        <time>2013-05-30T06:09:50Z</time>
      </trkpt>
      <trkpt lat="45.38054" lon="5.62819">
        <ele>489.31235</ele>
        <time>2013-05-30T06:09:55Z</time>
      </trkpt>
      <trkpt lat="45.38056" lon="5.62848">
        <ele>486.79883</ele>
        <time>2013-05-30T06:09:59Z</time>
      </trkpt>
      <trkpt lat="45.38056" lon="5.62878">
        <ele>484.6254</ele>
        <time>2013-05-30T06:10:03Z</time>
      </trkpt>
      <trkpt lat="45.38055" lon="5.62904">
        <ele>483.02322</ele>
        <time>2013-05-30T06:10:06Z</time>
      </trkpt>
      <trkpt lat="45.38051" lon="5.62932">
        <ele>481.49887</ele>
        <time>2013-05-30T06:10:09Z</time>
      </trkpt>
      <trkpt lat="45.38045" lon="5.62961">
        <ele>479.46204</ele>
        <time>2013-05-30T06:10:12Z</time>
      </trkpt>
      <trkpt lat="45.38034" lon="5.6299">
        <ele>477.32303</ele>
        <time>2013-05-30T06:10:15Z</time>
      </trkpt>
      <trkpt lat="45.38021" lon="5.63022">
        <ele>475.33002</ele>
        <time>2013-05-30T06:10:18Z</time>
      </trkpt>
      <trkpt lat="45.38014" lon="5.63056">
        <ele>473.75174</ele>
        <time>2013-05-30T06:10:21Z</time>
      </trkpt>
      <trkpt lat="45.3801" lon="5.63086">
        <ele>471.09683</ele>
        <time>2013-05-30T06:10:24Z</time>
      </trkpt>
      <trkpt lat="45.38008" lon="5.63115">
        <ele>469.85648</ele>
        <time>2013-05-30T06:10:27Z</time>
      </trkpt>
      <trkpt lat="45.38005" lon="5.63142">
        <ele>469.88788</ele>
        <time>2013-05-30T06:10:30Z</time>
      </trkpt>
      <trkpt lat="45.38002" lon="5.63167">
        <ele>470.83484</ele>
        <time>2013-05-30T06:10:34Z</time>
      </trkpt>
      <trkpt lat="45.37998" lon="5.63193">
        <ele>474.04416</ele>
        <time>2013-05-30T06:10:42Z</time>
      </trkpt>
      <trkpt lat="45.37998" lon="5.63219">
        <ele>477.87445</ele>
        <time>2013-05-30T06:10:52Z</time>
      </trkpt>
      <trkpt lat="45.38007" lon="5.63243">
        <ele>480.0287</ele>
        <time>2013-05-30T06:11:02Z</time>
      </trkpt>
      <trkpt lat="45.38017" lon="5.63266">
        <ele>480.69345</ele>
        <time>2013-05-30T06:11:12Z</time>
      </trkpt>
      <trkpt lat="45.38028" lon="5.63289">
        <ele>482.12238</ele>
        <time>2013-05-30T06:11:23Z</time>
      </trkpt>
      <trkpt lat="45.38038" lon="5.63311">
        <ele>485.62408</ele>
        <time>2013-05-30T06:11:35Z</time>
      </trkpt>
      <trkpt lat="45.38049" lon="5.63334">
        <ele>489.9039</ele>
        <time>2013-05-30T06:11:47Z</time>
      </trkpt>
      <trkpt lat="45.38057" lon="5.63358">
        <ele>489.53036</ele>
        <time>2013-05-30T06:12:00Z</time>
      </trkpt>
      <trkpt lat="45.38063" lon="5.63383">
        <ele>490.73804</ele>
        <time>2013-05-30T06:12:12Z</time>
      </trkpt>
      <trkpt lat="45.38067" lon="5.6341">
        <ele>491.49887</ele>
        <time>2013-05-30T06:12:23Z</time>
      </trkpt>
      <trkpt lat="45.38063" lon="5.63437">
        <ele>492.91473</ele>
        <time>2013-05-30T06:12:34Z</time>
      </trkpt>
      <trkpt lat="45.38059" lon="5.63463">
        <ele>494.88763</ele>
        <time>2013-05-30T06:12:43Z</time>
      </trkpt>
      <trkpt lat="45.38051" lon="5.63489">
        <ele>496.01556</ele>
        <time>2013-05-30T06:12:52Z</time>
      </trkpt>
      <trkpt lat="45.38042" lon="5.63515">
        <ele>496.3399</ele>
        <time>2013-05-30T06:13:00Z</time>
      </trkpt>
      <trkpt lat="45.38033" lon="5.63537">
        <ele>496.47873</ele>
        <time>2013-05-30T06:13:06Z</time>
      </trkpt>
      <trkpt lat="45.38024" lon="5.63561">
        <ele>495.64914</ele>
        <time>2013-05-30T06:13:13Z</time>
      </trkpt>
      <trkpt lat="45.38014" lon="5.63584">
        <ele>495.95435</ele>
        <time>2013-05-30T06:13:20Z</time>
      </trkpt>
      <trkpt lat="45.38004" lon="5.63609">
        <ele>496.41934</ele>
        <time>2013-05-30T06:13:27Z</time>
      </trkpt>
      <trkpt lat="45.37995" lon="5.63633">
        <ele>497.1276</ele>
        <time>2013-05-30T06:13:34Z</time>
      </trkpt>
      <trkpt lat="45.37986" lon="5.63659">
        <ele>498.65204</ele>
        <time>2013-05-30T06:13:41Z</time>
      </trkpt>
      <trkpt lat="45.37978" lon="5.63687">
        <ele>499.3924</ele>
        <time>2013-05-30T06:13:48Z</time>
      </trkpt>
      <trkpt lat="45.37971" lon="5.63712">
        <ele>499.89114</ele>
        <time>2013-05-30T06:13:54Z</time>
      </trkpt>
      <trkpt lat="45.37964" lon="5.6374">
        <ele>500.21387</ele>
        <time>2013-05-30T06:14:01Z</time>
      </trkpt>
      <trkpt lat="45.37957" lon="5.63768">
        <ele>500.2454</ele>
        <time>2013-05-30T06:14:08Z</time>
      </trkpt>
      <trkpt lat="45.37952" lon="5.63796">
        <ele>499.75043</ele>
        <time>2013-05-30T06:14:15Z</time>
      </trkpt>
      <trkpt lat="45.37947" lon="5.63821">
        <ele>500.0748</ele>
        <time>2013-05-30T06:14:21Z</time>
      </trkpt>
      <trkpt lat="45.37941" lon="5.63847">
        <ele>498.9008</ele>
        <time>2013-05-30T06:14:27Z</time>
      </trkpt>
      <trkpt lat="45.37935" lon="5.63872">
        <ele>498.37677</ele>
        <time>2013-05-30T06:14:33Z</time>
      </trkpt>
      <trkpt lat="45.37929" lon="5.63899">
        <ele>498.26364</ele>
        <time>2013-05-30T06:14:39Z</time>
      </trkpt>
      <trkpt lat="45.37924" lon="5.63924">
        <ele>498.5163</ele>
        <time>2013-05-30T06:14:45Z</time>
      </trkpt>
      <trkpt lat="45.3792" lon="5.6395">
        <ele>500.14285</ele>
        <time>2013-05-30T06:14:51Z</time>
      </trkpt>
      <trkpt lat="45.37916" lon="5.63976">
        <ele>500.55576</ele>
        <time>2013-05-30T06:14:57Z</time>
      </trkpt>
      <trkpt lat="45.37911" lon="5.64004">
        <ele>502.52255</ele>
        <time>2013-05-30T06:15:03Z</time>
      </trkpt>
      <trkpt lat="45.37907" lon="5.64031">
        <ele>503.14114</ele>
        <time>2013-05-30T06:15:09Z</time>
      </trkpt>
      <trkpt lat="45.37902" lon="5.64059">
        <ele>502.65482</ele>
        <time>2013-05-30T06:15:15Z</time>
      </trkpt>
      <trkpt lat="45.37899" lon="5.64084">
        <ele>503.15942</ele>
        <time>2013-05-30T06:15:21Z</time>
      </trkpt>
      <trkpt lat="45.37898" lon="5.6411">
        <ele>506.50214</ele>
        <time>2013-05-30T06:15:28Z</time>
      </trkpt>
      <trkpt lat="45.37914" lon="5.64123">
        <ele>505.80313</ele>
        <time>2013-05-30T06:16:51Z</time>
      </trkpt>
      <trkpt lat="45.37931" lon="5.64134">
        <ele>504.5911</ele>
        <time>2013-05-30T06:17:03Z</time>
      </trkpt>
      <trkpt lat="45.37947" lon="5.64147">
        <ele>504.44397</ele>
        <time>2013-05-30T06:17:08Z</time>
      </trkpt>
      <trkpt lat="45.37963" lon="5.64158">
        <ele>505.22928</ele>
        <time>2013-05-30T06:17:13Z</time>
      </trkpt>
      <trkpt lat="45.3798" lon="5.64172">
        <ele>505.7909</ele>
        <time>2013-05-30T06:17:19Z</time>
      </trkpt>
      <trkpt lat="45.37999" lon="5.64185">
        <ele>506.526</ele>
        <time>2013-05-30T06:17:26Z</time>
      </trkpt>
      <trkpt lat="45.38013" lon="5.64201">
        <ele>505.86856</ele>
        <time>2013-05-30T06:17:32Z</time>
      </trkpt>
      <trkpt lat="45.38031" lon="5.6421">
        <ele>505.65866</ele>
        <time>2013-05-30T06:17:37Z</time>
      </trkpt>
      <trkpt lat="45.3805" lon="5.64219">
        <ele>507.2859</ele>
        <time>2013-05-30T06:17:42Z</time>
      </trkpt>
      <trkpt lat="45.38068" lon="5.64231">
        <ele>508.37115</ele>
        <time>2013-05-30T06:17:47Z</time>
      </trkpt>
      <trkpt lat="45.38086" lon="5.64241">
        <ele>509.95135</ele>
        <time>2013-05-30T06:17:52Z</time>
      </trkpt>
      <trkpt lat="45.38101" lon="5.64255">
        <ele>508.60614</ele>
        <time>2013-05-30T06:17:57Z</time>
      </trkpt>
      <trkpt lat="45.38116" lon="5.64276">
        <ele>506.66064</ele>
        <time>2013-05-30T06:18:02Z</time>
      </trkpt>
      <trkpt lat="45.3813" lon="5.64297">
        <ele>503.14407</ele>
        <time>2013-05-30T06:18:07Z</time>
      </trkpt>
      <trkpt lat="45.38143" lon="5.6432">
        <ele>501.51495</ele>
        <time>2013-05-30T06:18:12Z</time>
      </trkpt>
      <trkpt lat="45.38155" lon="5.64343">
        <ele>499.95737</ele>
        <time>2013-05-30T06:18:17Z</time>
      </trkpt>
      <trkpt lat="45.38169" lon="5.64366">
        <ele>499.81763</ele>
        <time>2013-05-30T06:18:22Z</time>
      </trkpt>
      <trkpt lat="45.38183" lon="5.64388">
        <ele>499.61716</ele>
        <time>2013-05-30T06:18:27Z</time>
      </trkpt>
      <trkpt lat="45.38197" lon="5.64409">
        <ele>498.87653</ele>
        <time>2013-05-30T06:18:32Z</time>
      </trkpt>
      <trkpt lat="45.38211" lon="5.64428">
        <ele>499.36533</ele>
        <time>2013-05-30T06:18:37Z</time>
      </trkpt>
      <trkpt lat="45.38224" lon="5.64448">
        <ele>498.89987</ele>
        <time>2013-05-30T06:18:42Z</time>
      </trkpt>
      <trkpt lat="45.38237" lon="5.64468">
        <ele>500.6986</ele>
        <time>2013-05-30T06:18:47Z</time>
      </trkpt>
      <trkpt lat="45.38254" lon="5.64484">
        <ele>501.52115</ele>
        <time>2013-05-30T06:18:52Z</time>
      </trkpt>
      <trkpt lat="45.38272" lon="5.64498">
        <ele>502.59378</ele>
        <time>2013-05-30T06:18:57Z</time>
      </trkpt>
      <trkpt lat="45.38292" lon="5.64512">
        <ele>502.44678</ele>
        <time>2013-05-30T06:19:02Z</time>
      </trkpt>
      <trkpt lat="45.38311" lon="5.64523">
        <ele>501.98102</ele>
        <time>2013-05-30T06:19:07Z</time>
      </trkpt>
      <trkpt lat="45.38333" lon="5.64529">
        <ele>500.0749</ele>
        <time>2013-05-30T06:19:12Z</time>
      </trkpt>
      <trkpt lat="45.38355" lon="5.64531">
        <ele>499.116</ele>
        <time>2013-05-30T06:19:17Z</time>
      </trkpt>
      <trkpt lat="45.38376" lon="5.64534">
        <ele>497.9665</ele>
        <time>2013-05-30T06:19:22Z</time>
      </trkpt>
      <trkpt lat="45.38395" lon="5.64535">
        <ele>496.17923</ele>
        <time>2013-05-30T06:19:26Z</time>
      </trkpt>
      <trkpt lat="45.38414" lon="5.64537">
        <ele>496.1575</ele>
        <time>2013-05-30T06:19:30Z</time>
      </trkpt>
      <trkpt lat="45.38435" lon="5.64537">
        <ele>496.3721</ele>
        <time>2013-05-30T06:19:34Z</time>
      </trkpt>
      <trkpt lat="45.38456" lon="5.64539">
        <ele>495.9615</ele>
        <time>2013-05-30T06:19:38Z</time>
      </trkpt>
      <trkpt lat="45.38475" lon="5.64541">
        <ele>495.95657</ele>
        <time>2013-05-30T06:19:42Z</time>
      </trkpt>
      <trkpt lat="45.38495" lon="5.64547">
        <ele>494.71304</ele>
        <time>2013-05-30T06:19:47Z</time>
      </trkpt>
      <trkpt lat="45.38517" lon="5.64557">
        <ele>493.80994</ele>
        <time>2013-05-30T06:19:52Z</time>
      </trkpt>
      <trkpt lat="45.38533" lon="5.64581">
        <ele>494.43076</ele>
        <time>2013-05-30T06:19:55Z</time>
      </trkpt>
      <trkpt lat="45.38544" lon="5.64604">
        <ele>495.78174</ele>
        <time>2013-05-30T06:19:58Z</time>
      </trkpt>
      <trkpt lat="45.38553" lon="5.64634">
        <ele>494.88797</ele>
        <time>2013-05-30T06:20:02Z</time>
      </trkpt>
      <trkpt lat="45.38562" lon="5.64657">
        <ele>493.16837</ele>
        <time>2013-05-30T06:20:05Z</time>
      </trkpt>
      <trkpt lat="45.38572" lon="5.64683">
        <ele>491.32712</ele>
        <time>2013-05-30T06:20:09Z</time>
      </trkpt>
      <trkpt lat="45.3858" lon="5.64707">
        <ele>489.21246</ele>
        <time>2013-05-30T06:20:13Z</time>
      </trkpt>
      <trkpt lat="45.38591" lon="5.6473">
        <ele>489.09946</ele>
        <time>2013-05-30T06:20:18Z</time>
      </trkpt>
      <trkpt lat="45.38607" lon="5.64748">
        <ele>489.02277</ele>
        <time>2013-05-30T06:20:24Z</time>
      </trkpt>
      <trkpt lat="45.38625" lon="5.6476">
        <ele>490.91513</ele>
        <time>2013-05-30T06:20:30Z</time>
      </trkpt>
      <trkpt lat="45.38644" lon="5.64764">
        <ele>490.99338</ele>
        <time>2013-05-30T06:20:36Z</time>
      </trkpt>
      <trkpt lat="45.38665" lon="5.64767">
        <ele>491.9529</ele>
        <time>2013-05-30T06:20:42Z</time>
      </trkpt>
      <trkpt lat="45.38685" lon="5.6477">
        <ele>493.17505</ele>
        <time>2013-05-30T06:20:48Z</time>
      </trkpt>
      <trkpt lat="45.38704" lon="5.64773">
        <ele>494.0839</ele>
        <time>2013-05-30T06:20:54Z</time>
      </trkpt>
      <trkpt lat="45.38723" lon="5.64775">
        <ele>495.1027</ele>
        <time>2013-05-30T06:21:00Z</time>
      </trkpt>
      <trkpt lat="45.38744" lon="5.64777">
        <ele>496.06445</ele>
        <time>2013-05-30T06:21:07Z</time>
      </trkpt>
      <trkpt lat="45.38765" lon="5.64779">
        <ele>497.36655</ele>
        <time>2013-05-30T06:21:14Z</time>
      </trkpt>
      <trkpt lat="45.38783" lon="5.64782">
        <ele>498.3226</ele>
        <time>2013-05-30T06:21:20Z</time>
      </trkpt>
      <trkpt lat="45.38802" lon="5.64785">
        <ele>498.80865</ele>
        <time>2013-05-30T06:21:26Z</time>
      </trkpt>
      <trkpt lat="45.3882" lon="5.64787">
        <ele>498.94553</ele>
        <time>2013-05-30T06:21:32Z</time>
      </trkpt>
      <trkpt lat="45.38838" lon="5.64789">
        <ele>499.2571</ele>
        <time>2013-05-30T06:21:38Z</time>
      </trkpt>
      <trkpt lat="45.38859" lon="5.64791">
        <ele>500.02124</ele>
        <time>2013-05-30T06:21:45Z</time>
      </trkpt>
      <trkpt lat="45.38878" lon="5.64793">
        <ele>501.05692</ele>
        <time>2013-05-30T06:21:52Z</time>
      </trkpt>
      <trkpt lat="45.38899" lon="5.64795">
        <ele>502.56265</ele>
        <time>2013-05-30T06:21:59Z</time>
      </trkpt>
      <trkpt lat="45.38918" lon="5.64799">
        <ele>504.1875</ele>
        <time>2013-05-30T06:22:05Z</time>
      </trkpt>
      <trkpt lat="45.38937" lon="5.64801">
        <ele>505.12256</ele>
        <time>2013-05-30T06:22:11Z</time>
      </trkpt>
      <trkpt lat="45.38955" lon="5.64804">
        <ele>505.10825</ele>
        <time>2013-05-30T06:22:17Z</time>
      </trkpt>
      <trkpt lat="45.38976" lon="5.64805">
        <ele>507.43628</ele>
        <time>2013-05-30T06:22:24Z</time>
      </trkpt>
      <trkpt lat="45.38994" lon="5.64798">
        <ele>508.75272</ele>
        <time>2013-05-30T06:22:30Z</time>
      </trkpt>
      <trkpt lat="45.39012" lon="5.64791">
        <ele>508.12103</ele>
        <time>2013-05-30T06:22:36Z</time>
      </trkpt>
      <trkpt lat="45.3903" lon="5.64784">
        <ele>507.6086</ele>
        <time>2013-05-30T06:22:42Z</time>
      </trkpt>
      <trkpt lat="45.39048" lon="5.64776">
        <ele>507.5134</ele>
        <time>2013-05-30T06:22:48Z</time>
      </trkpt>
      <trkpt lat="45.39066" lon="5.64768">
        <ele>507.6441</ele>
        <time>2013-05-30T06:22:54Z</time>
      </trkpt>
      <trkpt lat="45.39085" lon="5.64762">
        <ele>507.70645</ele>
        <time>2013-05-30T06:23:00Z</time>
      </trkpt>
      <trkpt lat="45.39102" lon="5.64753">
        <ele>508.1132</ele>
        <time>2013-05-30T06:23:06Z</time>
      </trkpt>
      <trkpt lat="45.39119" lon="5.64744">
        <ele>508.51773</ele>
        <time>2013-05-30T06:23:12Z</time>
      </trkpt>
      <trkpt lat="45.39138" lon="5.64737">
        <ele>508.70044</ele>
        <time>2013-05-30T06:23:18Z</time>
      </trkpt>
      <trkpt lat="45.39157" lon="5.64733">
        <ele>510.02423</ele>
        <time>2013-05-30T06:23:24Z</time>
      </trkpt>
      <trkpt lat="45.39176" lon="5.6474">
        <ele>510.47238</ele>
        <time>2013-05-30T06:23:30Z</time>
      </trkpt>
      <trkpt lat="45.39185" lon="5.64764">
        <ele>510.77316</ele>
        <time>2013-05-30T06:23:36Z</time>
      </trkpt>
      <trkpt lat="45.39188" lon="5.64792">
        <ele>510.28455</ele>
        <time>2013-05-30T06:23:42Z</time>
      </trkpt>
      <trkpt lat="45.39192" lon="5.64819">
        <ele>510.02338</ele>
        <time>2013-05-30T06:23:48Z</time>
      </trkpt>
      <trkpt lat="45.39196" lon="5.64844">
        <ele>510.1225</ele>
        <time>2013-05-30T06:23:54Z</time>
      </trkpt>
      <trkpt lat="45.39199" lon="5.64872">
        <ele>510.50836</ele>
        <time>2013-05-30T06:24:00Z</time>
      </trkpt>
      <trkpt lat="45.39203" lon="5.64899">
        <ele>511.41476</ele>
        <time>2013-05-30T06:24:06Z</time>
      </trkpt>
      <trkpt lat="45.39206" lon="5.64925">
        <ele>511.87183</ele>
        <time>2013-05-30T06:24:12Z</time>
      </trkpt>
      <trkpt lat="45.3921" lon="5.64953">
        <ele>513.29065</ele>
        <time>2013-05-30T06:24:18Z</time>
      </trkpt>
      <trkpt lat="45.39215" lon="5.64979">
        <ele>513.82513</ele>
        <time>2013-05-30T06:24:24Z</time>
      </trkpt>
      <trkpt lat="45.3922" lon="5.65006">
        <ele>514.4899</ele>
        <time>2013-05-30T06:24:30Z</time>
      </trkpt>
      <trkpt lat="45.39224" lon="5.65034">
        <ele>514.0164</ele>
        <time>2013-05-30T06:24:36Z</time>
      </trkpt>
      <trkpt lat="45.39228" lon="5.65063">
        <ele>515.17413</ele>
        <time>2013-05-30T06:24:42Z</time>
      </trkpt>
      <trkpt lat="45.39231" lon="5.65093">
        <ele>515.8891</ele>
        <time>2013-05-30T06:24:48Z</time>
      </trkpt>
      <trkpt lat="45.39236" lon="5.65122">
        <ele>515.7071</ele>
        <time>2013-05-30T06:24:54Z</time>
      </trkpt>
      <trkpt lat="45.39239" lon="5.65148">
        <ele>516.5665</ele>
        <time>2013-05-30T06:24:59Z</time>
      </trkpt>
      <trkpt lat="45.3924" lon="5.65176">
        <ele>517.10657</ele>
        <time>2013-05-30T06:25:03Z</time>
      </trkpt>
      <trkpt lat="45.39238" lon="5.65209">
        <ele>516.6775</ele>
        <time>2013-05-30T06:25:07Z</time>
      </trkpt>
      <trkpt lat="45.39237" lon="5.65234">
        <ele>515.5811</ele>
        <time>2013-05-30T06:25:10Z</time>
      </trkpt>
      <trkpt lat="45.39236" lon="5.65266">
        <ele>514.369</ele>
        <time>2013-05-30T06:25:14Z</time>
      </trkpt>
      <trkpt lat="45.3924" lon="5.65299">
        <ele>512.6109</ele>
        <time>2013-05-30T06:25:18Z</time>
      </trkpt>
      <trkpt lat="45.39248" lon="5.65331">
        <ele>510.72495</ele>
        <time>2013-05-30T06:25:22Z</time>
      </trkpt>
      <trkpt lat="45.39257" lon="5.6536">
        <ele>509.61142</ele>
        <time>2013-05-30T06:25:26Z</time>
      </trkpt>
      <trkpt lat="45.39267" lon="5.65388">
        <ele>509.32</ele>
        <time>2013-05-30T06:25:30Z</time>
      </trkpt>
      <trkpt lat="45.39275" lon="5.65411">
        <ele>508.33344</ele>
        <time>2013-05-30T06:25:33Z</time>
      </trkpt>
      <trkpt lat="45.39289" lon="5.65436">
        <ele>506.86682</ele>
        <time>2013-05-30T06:25:37Z</time>
      </trkpt>
      <trkpt lat="45.39305" lon="5.65462">
        <ele>506.861</ele>
        <time>2013-05-30T06:25:41Z</time>
      </trkpt>
      <trkpt lat="45.39322" lon="5.65484">
        <ele>507.25055</ele>
        <time>2013-05-30T06:25:45Z</time>
      </trkpt>
      <trkpt lat="45.39339" lon="5.65501">
        <ele>507.6574</ele>
        <time>2013-05-30T06:25:49Z</time>
      </trkpt>
      <trkpt lat="45.39357" lon="5.65516">
        <ele>506.79263</ele>
        <time>2013-05-30T06:25:54Z</time>
      </trkpt>
      <trkpt lat="45.39375" lon="5.65529">
        <ele>506.88196</ele>
        <time>2013-05-30T06:25:59Z</time>
      </trkpt>
      <trkpt lat="45.3939" lon="5.65547">
        <ele>508.04776</ele>
        <time>2013-05-30T06:26:04Z</time>
      </trkpt>
      <trkpt lat="45.394" lon="5.65569">
        <ele>508.96603</ele>
        <time>2013-05-30T06:26:09Z</time>
      </trkpt>
      <trkpt lat="45.39413" lon="5.65592">
        <ele>512.81104</ele>
        <time>2013-05-30T06:26:15Z</time>
      </trkpt>
      <trkpt lat="45.39419" lon="5.65619">
        <ele>514.94275</ele>
        <time>2013-05-30T06:26:22Z</time>
      </trkpt>
      <trkpt lat="45.39421" lon="5.65646">
        <ele>515.211</ele>
        <time>2013-05-30T06:26:29Z</time>
      </trkpt>
      <trkpt lat="45.39425" lon="5.65671">
        <ele>515.6098</ele>
        <time>2013-05-30T06:26:36Z</time>
      </trkpt>
      <trkpt lat="45.39428" lon="5.65697">
        <ele>516.0369</ele>
        <time>2013-05-30T06:26:43Z</time>
      </trkpt>
      <trkpt lat="45.39433" lon="5.65725">
        <ele>516.7084</ele>
        <time>2013-05-30T06:26:50Z</time>
      </trkpt>
      <trkpt lat="45.39438" lon="5.65753">
        <ele>517.51263</ele>
        <time>2013-05-30T06:26:57Z</time>
      </trkpt>
      <trkpt lat="45.39443" lon="5.65781">
        <ele>517.3832</ele>
        <time>2013-05-30T06:27:04Z</time>
      </trkpt>
      <trkpt lat="45.39448" lon="5.65806">
        <ele>517.4801</ele>
        <time>2013-05-30T06:27:10Z</time>
      </trkpt>
      <trkpt lat="45.39453" lon="5.65834">
        <ele>517.1731</ele>
        <time>2013-05-30T06:27:16Z</time>
      </trkpt>
      <trkpt lat="45.39455" lon="5.6586">
        <ele>516.7541</ele>
        <time>2013-05-30T06:27:21Z</time>
      </trkpt>
      <trkpt lat="45.39457" lon="5.65888">
        <ele>516.3438</ele>
        <time>2013-05-30T06:27:26Z</time>
      </trkpt>
      <trkpt lat="45.3946" lon="5.65915">
        <ele>516.11945</ele>
        <time>2013-05-30T06:27:31Z</time>
      </trkpt>
      <trkpt lat="45.39464" lon="5.65942">
        <ele>515.3185</ele>
        <time>2013-05-30T06:27:36Z</time>
      </trkpt>
      <trkpt lat="45.39471" lon="5.65971">
        <ele>514.1655</ele>
        <time>2013-05-30T06:27:41Z</time>
      </trkpt>
      <trkpt lat="45.39481" lon="5.65999">
        <ele>512.80743</ele>
        <time>2013-05-30T06:27:45Z</time>
      </trkpt>
      <trkpt lat="45.39491" lon="5.66022">
        <ele>511.73752</ele>
        <time>2013-05-30T06:27:48Z</time>
      </trkpt>
      <trkpt lat="45.39504" lon="5.66043">
        <ele>510.7002</ele>
        <time>2013-05-30T06:27:51Z</time>
      </trkpt>
      <trkpt lat="45.39517" lon="5.6606">
        <ele>510.0829</ele>
        <time>2013-05-30T06:27:54Z</time>
      </trkpt>
      <trkpt lat="45.39534" lon="5.66079">
        <ele>510.09927</ele>
        <time>2013-05-30T06:27:58Z</time>
      </trkpt>
      <trkpt lat="45.3955" lon="5.66097">
        <ele>510.78726</ele>
        <time>2013-05-30T06:28:02Z</time>
      </trkpt>
      <trkpt lat="45.39564" lon="5.66115">
        <ele>510.70612</ele>
        <time>2013-05-30T06:28:06Z</time>
      </trkpt>
      <trkpt lat="45.3958" lon="5.66137">
        <ele>511.12762</ele>
        <time>2013-05-30T06:28:11Z</time>
      </trkpt>
      <trkpt lat="45.39594" lon="5.66155">
        <ele>510.9728</ele>
        <time>2013-05-30T06:28:15Z</time>
      </trkpt>
      <trkpt lat="45.39606" lon="5.66174">
        <ele>510.9621</ele>
        <time>2013-05-30T06:28:19Z</time>
      </trkpt>
      <trkpt lat="45.3962" lon="5.66192">
        <ele>511.15988</ele>
        <time>2013-05-30T06:28:23Z</time>
      </trkpt>
      <trkpt lat="45.39633" lon="5.66211">
        <ele>510.61426</ele>
        <time>2013-05-30T06:28:27Z</time>
      </trkpt>
      <trkpt lat="45.39647" lon="5.66231">
        <ele>509.49722</ele>
        <time>2013-05-30T06:28:32Z</time>
      </trkpt>
      <trkpt lat="45.39661" lon="5.66251">
        <ele>508.54767</ele>
        <time>2013-05-30T06:28:37Z</time>
      </trkpt>
      <trkpt lat="45.39677" lon="5.66265">
        <ele>509.53006</ele>
        <time>2013-05-30T06:28:42Z</time>
      </trkpt>
      <trkpt lat="45.39694" lon="5.66275">
        <ele>509.33078</ele>
        <time>2013-05-30T06:28:47Z</time>
      </trkpt>
      <trkpt lat="45.39712" lon="5.66286">
        <ele>510.19528</ele>
        <time>2013-05-30T06:28:52Z</time>
      </trkpt>
      <trkpt lat="45.39729" lon="5.66296">
        <ele>509.4602</ele>
        <time>2013-05-30T06:28:57Z</time>
      </trkpt>
      <trkpt lat="45.39747" lon="5.66306">
        <ele>510.35812</ele>
        <time>2013-05-30T06:29:02Z</time>
      </trkpt>
      <trkpt lat="45.39764" lon="5.66314">
        <ele>511.58508</ele>
        <time>2013-05-30T06:29:07Z</time>
      </trkpt>
      <trkpt lat="45.39782" lon="5.6632">
        <ele>513.7259</ele>
        <time>2013-05-30T06:29:12Z</time>
      </trkpt>
      <trkpt lat="45.39801" lon="5.66327">
        <ele>515.7728</ele>
        <time>2013-05-30T06:29:18Z</time>
      </trkpt>
      <trkpt lat="45.39819" lon="5.66333">
        <ele>518.7544</ele>
        <time>2013-05-30T06:29:24Z</time>
      </trkpt>
      <trkpt lat="45.39837" lon="5.66342">
        <ele>519.88574</ele>
        <time>2013-05-30T06:29:30Z</time>
      </trkpt>
      <trkpt lat="45.39855" lon="5.6635">
        <ele>520.14795</ele>
        <time>2013-05-30T06:29:36Z</time>
      </trkpt>
      <trkpt lat="45.39873" lon="5.66361">
        <ele>519.44775</ele>
        <time>2013-05-30T06:29:42Z</time>
      </trkpt>
      <trkpt lat="45.3989" lon="5.66372">
        <ele>518.7732</ele>
        <time>2013-05-30T06:29:48Z</time>
      </trkpt>
      <trkpt lat="45.39907" lon="5.66384">
        <ele>517.9423</ele>
        <time>2013-05-30T06:29:54Z</time>
      </trkpt>
      <trkpt lat="45.39925" lon="5.66395">
        <ele>517.89685</ele>
        <time>2013-05-30T06:30:00Z</time>
      </trkpt>
      <trkpt lat="45.39944" lon="5.66404">
        <ele>517.94476</ele>
        <time>2013-05-30T06:30:06Z</time>
      </trkpt>
      <trkpt lat="45.39963" lon="5.66413">
        <ele>517.8561</ele>
        <time>2013-05-30T06:30:12Z</time>
      </trkpt>
      <trkpt lat="45.39981" lon="5.66422">
        <ele>517.69965</ele>
        <time>2013-05-30T06:30:18Z</time>
      </trkpt>
      <trkpt lat="45.39998" lon="5.66429">
        <ele>517.95636</ele>
        <time>2013-05-30T06:30:24Z</time>
      </trkpt>
      <trkpt lat="45.40016" lon="5.66438">
        <ele>517.7818</ele>
        <time>2013-05-30T06:30:30Z</time>
      </trkpt>
      <trkpt lat="45.40034" lon="5.6645">
        <ele>517.98065</ele>
        <time>2013-05-30T06:30:36Z</time>
      </trkpt>
      <trkpt lat="45.40052" lon="5.66463">
        <ele>518.25464</ele>
        <time>2013-05-30T06:30:42Z</time>
      </trkpt>
      <trkpt lat="45.40067" lon="5.66478">
        <ele>518.9122</ele>
        <time>2013-05-30T06:30:48Z</time>
      </trkpt>
      <trkpt lat="45.40082" lon="5.66494">
        <ele>519.6281</ele>
        <time>2013-05-30T06:30:54Z</time>
      </trkpt>
      <trkpt lat="45.40097" lon="5.66512">
        <ele>520.2741</ele>
        <time>2013-05-30T06:31:00Z</time>
      </trkpt>
      <trkpt lat="45.40112" lon="5.66528">
        <ele>521.11</ele>
        <time>2013-05-30T06:31:06Z</time>
      </trkpt>
      <trkpt lat="45.40128" lon="5.66542">
        <ele>521.9477</ele>
        <time>2013-05-30T06:31:12Z</time>
      </trkpt>
      <trkpt lat="45.40146" lon="5.66555">
        <ele>522.53577</ele>
        <time>2013-05-30T06:31:18Z</time>
      </trkpt>
      <trkpt lat="45.40162" lon="5.66568">
        <ele>522.3565</ele>
        <time>2013-05-30T06:31:24Z</time>
      </trkpt>
      <trkpt lat="45.40178" lon="5.66583">
        <ele>522.6714</ele>
        <time>2013-05-30T06:31:30Z</time>
      </trkpt>
      <trkpt lat="45.40193" lon="5.66601">
        <ele>523.2339</ele>
        <time>2013-05-30T06:31:36Z</time>
      </trkpt>
      <trkpt lat="45.40207" lon="5.6662">
        <ele>523.553</ele>
        <time>2013-05-30T06:31:42Z</time>
      </trkpt>
      <trkpt lat="45.40221" lon="5.66641">
        <ele>524.8462</ele>
        <time>2013-05-30T06:31:49Z</time>
      </trkpt>
      <trkpt lat="45.40234" lon="5.66659">
        <ele>526.1476</ele>
        <time>2013-05-30T06:31:56Z</time>
      </trkpt>
      <trkpt lat="45.40248" lon="5.66678">
        <ele>527.2276</ele>
        <time>2013-05-30T06:32:04Z</time>
      </trkpt>
      <trkpt lat="45.40262" lon="5.66698">
        <ele>527.93475</ele>
        <time>2013-05-30T06:32:13Z</time>
      </trkpt>
      <trkpt lat="45.40278" lon="5.66712">
        <ele>527.3075</ele>
        <time>2013-05-30T06:32:20Z</time>
      </trkpt>
      <trkpt lat="45.40296" lon="5.66721">
        <ele>526.6362</ele>
        <time>2013-05-30T06:32:26Z</time>
      </trkpt>
      <trkpt lat="45.40316" lon="5.66728">
        <ele>526.24603</ele>
        <time>2013-05-30T06:32:32Z</time>
      </trkpt>
      <trkpt lat="45.40334" lon="5.66733">
        <ele>525.6701</ele>
        <time>2013-05-30T06:32:37Z</time>
      </trkpt>
      <trkpt lat="45.40352" lon="5.66742">
        <ele>525.16956</ele>
        <time>2013-05-30T06:32:42Z</time>
      </trkpt>
      <trkpt lat="45.40367" lon="5.66758">
        <ele>524.77167</ele>
        <time>2013-05-30T06:32:47Z</time>
      </trkpt>
      <trkpt lat="45.40385" lon="5.66776">
        <ele>525.0842</ele>
        <time>2013-05-30T06:32:53Z</time>
      </trkpt>
      <trkpt lat="45.40401" lon="5.66793">
        <ele>525.99567</ele>
        <time>2013-05-30T06:32:59Z</time>
      </trkpt>
      <trkpt lat="45.40417" lon="5.66809">
        <ele>526.75964</ele>
        <time>2013-05-30T06:33:05Z</time>
      </trkpt>
      <trkpt lat="45.40433" lon="5.66828">
        <ele>527.6439</ele>
        <time>2013-05-30T06:33:11Z</time>
      </trkpt>
      <trkpt lat="45.4045" lon="5.66844">
        <ele>527.82</ele>
        <time>2013-05-30T06:33:17Z</time>
      </trkpt>
      <trkpt lat="45.40467" lon="5.66861">
        <ele>529.889</ele>
        <time>2013-05-30T06:33:23Z</time>
      </trkpt>
      <trkpt lat="45.40483" lon="5.66877">
        <ele>530.66534</ele>
        <time>2013-05-30T06:33:29Z</time>
      </trkpt>
      <trkpt lat="45.40499" lon="5.66894">
        <ele>531.4195</ele>
        <time>2013-05-30T06:33:35Z</time>
      </trkpt>
      <trkpt lat="45.40516" lon="5.66911">
        <ele>531.9066</ele>
        <time>2013-05-30T06:33:42Z</time>
      </trkpt>
      <trkpt lat="45.40533" lon="5.66929">
        <ele>531.71326</ele>
        <time>2013-05-30T06:33:49Z</time>
      </trkpt>
      <trkpt lat="45.40549" lon="5.66947">
        <ele>531.7251</ele>
        <time>2013-05-30T06:33:56Z</time>
      </trkpt>
      <trkpt lat="45.40564" lon="5.66968">
        <ele>532.91614</ele>
        <time>2013-05-30T06:34:03Z</time>
      </trkpt>
      <trkpt lat="45.40579" lon="5.66986">
        <ele>533.6479</ele>
        <time>2013-05-30T06:34:10Z</time>
      </trkpt>
      <trkpt lat="45.40596" lon="5.67001">
        <ele>534.6487</ele>
        <time>2013-05-30T06:34:18Z</time>
      </trkpt>
      <trkpt lat="45.40613" lon="5.67012">
        <ele>535.3318</ele>
        <time>2013-05-30T06:34:26Z</time>
      </trkpt>
      <trkpt lat="45.40633" lon="5.67017">
        <ele>536.28107</ele>
        <time>2013-05-30T06:34:34Z</time>
      </trkpt>
      <trkpt lat="45.40652" lon="5.67022">
        <ele>537.30994</ele>
        <time>2013-05-30T06:34:42Z</time>
      </trkpt>
      <trkpt lat="45.40671" lon="5.67027">
        <ele>538.32404</ele>
        <time>2013-05-30T06:34:50Z</time>
      </trkpt>
      <trkpt lat="45.40689" lon="5.67032">
        <ele>539.29144</ele>
        <time>2013-05-30T06:34:58Z</time>
      </trkpt>
      <trkpt lat="45.40709" lon="5.67037">
        <ele>540.42096</ele>
        <time>2013-05-30T06:35:06Z</time>
      </trkpt>
      <trkpt lat="45.40729" lon="5.67043">
        <ele>541.236</ele>
        <time>2013-05-30T06:35:14Z</time>
      </trkpt>
      <trkpt lat="45.40748" lon="5.67049">
        <ele>541.5906</ele>
        <time>2013-05-30T06:35:22Z</time>
      </trkpt>
      <trkpt lat="45.40767" lon="5.67054">
        <ele>542.5613</ele>
        <time>2013-05-30T06:35:30Z</time>
      </trkpt>
      <trkpt lat="45.40785" lon="5.67064">
        <ele>543.6953</ele>
        <time>2013-05-30T06:35:38Z</time>
      </trkpt>
      <trkpt lat="45.40802" lon="5.67079">
        <ele>543.6732</ele>
        <time>2013-05-30T06:35:46Z</time>
      </trkpt>
      <trkpt lat="45.40816" lon="5.67097">
        <ele>543.72815</ele>
        <time>2013-05-30T06:35:54Z</time>
      </trkpt>
      <trkpt lat="45.4083" lon="5.67117">
        <ele>544.7367</ele>
        <time>2013-05-30T06:36:02Z</time>
      </trkpt>
      <trkpt lat="45.40844" lon="5.67136">
        <ele>545.8348</ele>
        <time>2013-05-30T06:36:10Z</time>
      </trkpt>
      <trkpt lat="45.40859" lon="5.67155">
        <ele>546.70624</ele>
        <time>2013-05-30T06:36:18Z</time>
      </trkpt>
      <trkpt lat="45.40874" lon="5.67172">
        <ele>547.7208</ele>
        <time>2013-05-30T06:36:26Z</time>
      </trkpt>
      <trkpt lat="45.40889" lon="5.67191">
        <ele>548.63214</ele>
        <time>2013-05-30T06:36:34Z</time>
      </trkpt>
      <trkpt lat="45.40899" lon="5.67212">
        <ele>549.81903</ele>
        <time>2013-05-30T06:36:41Z</time>
      </trkpt>
      <trkpt lat="45.4091" lon="5.67234">
        <ele>551.86615</ele>
        <time>2013-05-30T06:36:49Z</time>
      </trkpt>
      <trkpt lat="45.40921" lon="5.67256">
        <ele>552.0087</ele>
        <time>2013-05-30T06:36:57Z</time>
      </trkpt>
      <trkpt lat="45.40931" lon="5.67278">
        <ele>552.6986</ele>
        <time>2013-05-30T06:37:05Z</time>
      </trkpt>
      <trkpt lat="45.40945" lon="5.67296">
        <ele>553.9938</ele>
        <time>2013-05-30T06:37:13Z</time>
      </trkpt>
      <trkpt lat="45.40963" lon="5.67306">
        <ele>554.8883</ele>
        <time>2013-05-30T06:37:21Z</time>
      </trkpt>
      <trkpt lat="45.40982" lon="5.67316">
        <ele>555.88654</ele>
        <time>2013-05-30T06:37:29Z</time>
      </trkpt>
      <trkpt lat="45.40999" lon="5.67327">
        <ele>556.5657</ele>
        <time>2013-05-30T06:37:37Z</time>
      </trkpt>
      <trkpt lat="45.41015" lon="5.67341">
        <ele>556.4877</ele>
        <time>2013-05-30T06:37:45Z</time>
      </trkpt>
      <trkpt lat="45.41031" lon="5.67353">
        <ele>557.6203</ele>
        <time>2013-05-30T06:37:53Z</time>
      </trkpt>
      <trkpt lat="45.41049" lon="5.67366">
        <ele>558.99725</ele>
        <time>2013-05-30T06:38:02Z</time>
      </trkpt>
      <trkpt lat="45.41067" lon="5.67378">
        <ele>560.2529</ele>
        <time>2013-05-30T06:38:11Z</time>
      </trkpt>
      <trkpt lat="45.41084" lon="5.67389">
        <ele>561.08844</ele>
        <time>2013-05-30T06:38:19Z</time>
      </trkpt>
      <trkpt lat="45.41101" lon="5.674">
        <ele>561.7876</ele>
        <time>2013-05-30T06:38:27Z</time>
      </trkpt>
      <trkpt lat="45.41119" lon="5.67412">
        <ele>562.8373</ele>
        <time>2013-05-30T06:38:36Z</time>
      </trkpt>
      <trkpt lat="45.41137" lon="5.67423">
        <ele>563.7691</ele>
        <time>2013-05-30T06:38:44Z</time>
      </trkpt>
      <trkpt lat="45.41154" lon="5.67434">
        <ele>565.20544</ele>
        <time>2013-05-30T06:38:52Z</time>
      </trkpt>
      <trkpt lat="45.41171" lon="5.67446">
        <ele>566.8241</ele>
        <time>2013-05-30T06:39:00Z</time>
      </trkpt>
      <trkpt lat="45.41189" lon="5.67457">
        <ele>568.11237</ele>
        <time>2013-05-30T06:39:08Z</time>
      </trkpt>
      <trkpt lat="45.41206" lon="5.67468">
        <ele>569.2662</ele>
        <time>2013-05-30T06:39:15Z</time>
      </trkpt>
      <trkpt lat="45.41224" lon="5.67478">
        <ele>569.5411</ele>
        <time>2013-05-30T06:39:22Z</time>
      </trkpt>
      <trkpt lat="45.4124" lon="5.6749">
        <ele>569.6178</ele>
        <time>2013-05-30T06:39:29Z</time>
      </trkpt>
      <trkpt lat="45.41258" lon="5.67501">
        <ele>569.98987</ele>
        <time>2013-05-30T06:39:36Z</time>
      </trkpt>
      <trkpt lat="45.41275" lon="5.67512">
        <ele>571.0411</ele>
        <time>2013-05-30T06:39:43Z</time>
      </trkpt>
      <trkpt lat="45.41294" lon="5.67522">
        <ele>572.2178</ele>
        <time>2013-05-30T06:39:51Z</time>
      </trkpt>
      <trkpt lat="45.4131" lon="5.67535">
        <ele>572.217</ele>
        <time>2013-05-30T06:39:59Z</time>
      </trkpt>
      <trkpt lat="45.41318" lon="5.67558">
        <ele>572.836</ele>
        <time>2013-05-30T06:40:07Z</time>
      </trkpt>
      <trkpt lat="45.41315" lon="5.67584">
        <ele>575.8893</ele>
        <time>2013-05-30T06:40:16Z</time>
      </trkpt>
      <trkpt lat="45.41311" lon="5.67611">
        <ele>581.9587</ele>
        <time>2013-05-30T06:40:26Z</time>
      </trkpt>
      <trkpt lat="45.41314" lon="5.67638">
        <ele>580.4596</ele>
        <time>2013-05-30T06:40:37Z</time>
      </trkpt>
      <trkpt lat="45.41313" lon="5.67666">
        <ele>580.5641</ele>
        <time>2013-05-30T06:40:48Z</time>
      </trkpt>
      <trkpt lat="45.41313" lon="5.67692">
        <ele>581.47455</ele>
        <time>2013-05-30T06:40:59Z</time>
      </trkpt>
      <trkpt lat="45.41316" lon="5.67719">
        <ele>583.1152</ele>
        <time>2013-05-30T06:41:10Z</time>
      </trkpt>
      <trkpt lat="45.41322" lon="5.67745">
        <ele>583.83795</ele>
        <time>2013-05-30T06:41:21Z</time>
      </trkpt>
      <trkpt lat="45.41329" lon="5.6777">
        <ele>584.7208</ele>
        <time>2013-05-30T06:41:32Z</time>
      </trkpt>
      <trkpt lat="45.41335" lon="5.67796">
        <ele>588.2944</ele>
        <time>2013-05-30T06:41:43Z</time>
      </trkpt>
      <trkpt lat="45.4134" lon="5.67822">
        <ele>590.7821</ele>
        <time>2013-05-30T06:41:54Z</time>
      </trkpt>
      <trkpt lat="45.41338" lon="5.67849">
        <ele>592.187</ele>
        <time>2013-05-30T06:42:05Z</time>
      </trkpt>
      <trkpt lat="45.41337" lon="5.67875">
        <ele>595.2264</ele>
        <time>2013-05-30T06:42:17Z</time>
      </trkpt>
      <trkpt lat="45.41336" lon="5.67901">
        <ele>597.3962</ele>
        <time>2013-05-30T06:42:27Z</time>
      </trkpt>
      <trkpt lat="45.41335" lon="5.67927">
        <ele>598.9713</ele>
        <time>2013-05-30T06:42:38Z</time>
      </trkpt>
      <trkpt lat="45.41335" lon="5.67954">
        <ele>603.2599</ele>
        <time>2013-05-30T06:42:51Z</time>
      </trkpt>
      <trkpt lat="45.41339" lon="5.6798">
        <ele>606.63403</ele>
        <time>2013-05-30T06:43:04Z</time>
      </trkpt>
      <trkpt lat="45.41344" lon="5.68008">
        <ele>605.6902</ele>
        <time>2013-05-30T06:43:16Z</time>
      </trkpt>
      <trkpt lat="45.41347" lon="5.68035">
        <ele>605.1018</ele>
        <time>2013-05-30T06:43:28Z</time>
      </trkpt>
      <trkpt lat="45.41351" lon="5.68062">
        <ele>606.15204</ele>
        <time>2013-05-30T06:43:40Z</time>
      </trkpt>
      <trkpt lat="45.41357" lon="5.68087">
        <ele>607.8319</ele>
        <time>2013-05-30T06:43:52Z</time>
      </trkpt>
      <trkpt lat="45.41362" lon="5.68113">
        <ele>609.73694</ele>
        <time>2013-05-30T06:44:04Z</time>
      </trkpt>
      <trkpt lat="45.41363" lon="5.6814">
        <ele>612.46533</ele>
        <time>2013-05-30T06:44:16Z</time>
      </trkpt>
      <trkpt lat="45.41355" lon="5.68164">
        <ele>616.9356</ele>
        <time>2013-05-30T06:44:28Z</time>
      </trkpt>
      <trkpt lat="45.41357" lon="5.68191">
        <ele>615.9894</ele>
        <time>2013-05-30T06:44:39Z</time>
      </trkpt>
      <trkpt lat="45.41361" lon="5.68217">
        <ele>616.56226</ele>
        <time>2013-05-30T06:44:50Z</time>
      </trkpt>
      <trkpt lat="45.41367" lon="5.68242">
        <ele>617.36926</ele>
        <time>2013-05-30T06:45:01Z</time>
      </trkpt>
      <trkpt lat="45.41379" lon="5.68264">
        <ele>620.69885</ele>
        <time>2013-05-30T06:45:55Z</time>
      </trkpt>
      <trkpt lat="45.41389" lon="5.68286">
        <ele>622.715</ele>
        <time>2013-05-30T06:46:05Z</time>
      </trkpt>
      <trkpt lat="45.41401" lon="5.68308">
        <ele>623.87195</ele>
        <time>2013-05-30T06:46:18Z</time>
      </trkpt>
      <trkpt lat="45.41406" lon="5.68333">
        <ele>626.38293</ele>
        <time>2013-05-30T06:46:28Z</time>
      </trkpt>
      <trkpt lat="45.41413" lon="5.68359">
        <ele>629.80493</ele>
        <time>2013-05-30T06:46:39Z</time>
      </trkpt>
      <trkpt lat="45.41431" lon="5.6836">
        <ele>631.88715</ele>
        <time>2013-05-30T06:46:52Z</time>
      </trkpt>
      <trkpt lat="45.41431" lon="5.68334">
        <ele>631.9773</ele>
        <time>2013-05-30T06:47:34Z</time>
      </trkpt>
      <trkpt lat="45.41422" lon="5.68311">
        <ele>633.92065</ele>
        <time>2013-05-30T06:47:44Z</time>
      </trkpt>
      <trkpt lat="45.41411" lon="5.6829">
        <ele>636.01776</ele>
        <time>2013-05-30T06:47:54Z</time>
      </trkpt>
      <trkpt lat="45.41392" lon="5.68297">
        <ele>637.6302</ele>
        <time>2013-05-30T06:48:04Z</time>
      </trkpt>
      <trkpt lat="45.41387" lon="5.68322">
        <ele>636.6499</ele>
        <time>2013-05-30T06:48:13Z</time>
      </trkpt>
      <trkpt lat="45.4139" lon="5.68348">
        <ele>637.8761</ele>
        <time>2013-05-30T06:48:23Z</time>
      </trkpt>
      <trkpt lat="45.41388" lon="5.68373">
        <ele>637.11926</ele>
        <time>2013-05-30T06:48:32Z</time>
      </trkpt>
      <trkpt lat="45.41386" lon="5.68402">
        <ele>639.4141</ele>
        <time>2013-05-30T06:48:40Z</time>
      </trkpt>
      <trkpt lat="45.41383" lon="5.68427">
        <ele>642.35455</ele>
        <time>2013-05-30T06:48:49Z</time>
      </trkpt>
      <trkpt lat="45.41377" lon="5.68455">
        <ele>646.6209</ele>
        <time>2013-05-30T06:48:57Z</time>
      </trkpt>
      <trkpt lat="45.41371" lon="5.68482">
        <ele>651.32306</ele>
        <time>2013-05-30T06:49:05Z</time>
      </trkpt>
      <trkpt lat="45.41366" lon="5.6851">
        <ele>656.031</ele>
        <time>2013-05-30T06:49:14Z</time>
      </trkpt>
      <trkpt lat="45.41368" lon="5.68537">
        <ele>656.65125</ele>
        <time>2013-05-30T06:49:21Z</time>
      </trkpt>
      <trkpt lat="45.41364" lon="5.68564">
        <ele>652.53595</ele>
        <time>2013-05-30T06:49:29Z</time>
      </trkpt>
      <trkpt lat="45.4135" lon="5.68581">
        <ele>649.45703</ele>
        <time>2013-05-30T06:49:36Z</time>
      </trkpt>
      <trkpt lat="45.41332" lon="5.68592">
        <ele>649.0697</ele>
        <time>2013-05-30T06:49:43Z</time>
      </trkpt>
      <trkpt lat="45.41316" lon="5.68607">
        <ele>655.34875</ele>
        <time>2013-05-30T06:49:51Z</time>
      </trkpt>
      <trkpt lat="45.41301" lon="5.68627">
        <ele>656.95886</ele>
        <time>2013-05-30T06:50:00Z</time>
      </trkpt>
      <trkpt lat="45.41294" lon="5.68651">
        <ele>657.8506</ele>
        <time>2013-05-30T06:50:06Z</time>
      </trkpt>
      <trkpt lat="45.4129" lon="5.68677">
        <ele>656.34064</ele>
        <time>2013-05-30T06:50:12Z</time>
      </trkpt>
      <trkpt lat="45.41288" lon="5.68705">
        <ele>654.2933</ele>
        <time>2013-05-30T06:50:19Z</time>
      </trkpt>
      <trkpt lat="45.41285" lon="5.68732">
        <ele>651.77625</ele>
        <time>2013-05-30T06:50:25Z</time>
      </trkpt>
      <trkpt lat="45.41284" lon="5.68759">
        <ele>649.2783</ele>
        <time>2013-05-30T06:50:31Z</time>
      </trkpt>
      <trkpt lat="45.41285" lon="5.68786">
        <ele>647.3247</ele>
        <time>2013-05-30T06:50:37Z</time>
      </trkpt>
      <trkpt lat="45.41287" lon="5.68813">
        <ele>646.52094</ele>
        <time>2013-05-30T06:50:43Z</time>
      </trkpt>
      <trkpt lat="45.4129" lon="5.68839">
        <ele>646.07745</ele>
        <time>2013-05-30T06:50:49Z</time>
      </trkpt>
      <trkpt lat="45.41293" lon="5.68866">
        <ele>646.17865</ele>
        <time>2013-05-30T06:50:55Z</time>
      </trkpt>
      <trkpt lat="45.41297" lon="5.68891">
        <ele>646.01306</ele>
        <time>2013-05-30T06:51:01Z</time>
      </trkpt>
      <trkpt lat="45.41304" lon="5.68918">
        <ele>646.07764</ele>
        <time>2013-05-30T06:51:07Z</time>
      </trkpt>
      <trkpt lat="45.4131" lon="5.68943">
        <ele>646.51953</ele>
        <time>2013-05-30T06:51:13Z</time>
      </trkpt>
      <trkpt lat="45.41317" lon="5.68968">
        <ele>646.4474</ele>
        <time>2013-05-30T06:51:19Z</time>
      </trkpt>
      <trkpt lat="45.41325" lon="5.68994">
        <ele>646.2485</ele>
        <time>2013-05-30T06:51:25Z</time>
      </trkpt>
      <trkpt lat="45.41333" lon="5.6902">
        <ele>645.85284</ele>
        <time>2013-05-30T06:51:31Z</time>
      </trkpt>
      <trkpt lat="45.41341" lon="5.69045">
        <ele>645.87476</ele>
        <time>2013-05-30T06:51:37Z</time>
      </trkpt>
      <trkpt lat="45.41349" lon="5.69071">
        <ele>646.09674</ele>
        <time>2013-05-30T06:51:43Z</time>
      </trkpt>
      <trkpt lat="45.41357" lon="5.69097">
        <ele>646.0602</ele>
        <time>2013-05-30T06:51:49Z</time>
      </trkpt>
      <trkpt lat="45.41364" lon="5.69122">
        <ele>646.0193</ele>
        <time>2013-05-30T06:51:55Z</time>
      </trkpt>
      <trkpt lat="45.4137" lon="5.69148">
        <ele>646.19604</ele>
        <time>2013-05-30T06:52:01Z</time>
      </trkpt>
      <trkpt lat="45.41372" lon="5.69176">
        <ele>646.8177</ele>
        <time>2013-05-30T06:52:07Z</time>
      </trkpt>
      <trkpt lat="45.41371" lon="5.69203">
        <ele>648.10974</ele>
        <time>2013-05-30T06:52:13Z</time>
      </trkpt>
      <trkpt lat="45.4137" lon="5.69231">
        <ele>649.0716</ele>
        <time>2013-05-30T06:52:19Z</time>
      </trkpt>
      <trkpt lat="45.41371" lon="5.69259">
        <ele>649.9304</ele>
        <time>2013-05-30T06:52:26Z</time>
      </trkpt>
      <trkpt lat="45.41384" lon="5.69277">
        <ele>651.20557</ele>
        <time>2013-05-30T06:52:33Z</time>
      </trkpt>
      <trkpt lat="45.41402" lon="5.69291">
        <ele>658.23883</ele>
        <time>2013-05-30T06:54:47Z</time>
      </trkpt>
      <trkpt lat="45.41417" lon="5.6931">
        <ele>656.72516</ele>
        <time>2013-05-30T06:54:55Z</time>
      </trkpt>
      <trkpt lat="45.41403" lon="5.69289">
        <ele>652.52826</ele>
        <time>2013-05-30T06:55:16Z</time>
      </trkpt>
      <trkpt lat="45.41387" lon="5.69271">
        <ele>651.36743</ele>
        <time>2013-05-30T06:55:22Z</time>
      </trkpt>
      <trkpt lat="45.41372" lon="5.69256">
        <ele>649.5825</ele>
        <time>2013-05-30T06:55:28Z</time>
      </trkpt>
      <trkpt lat="45.41358" lon="5.69276">
        <ele>649.34</ele>
        <time>2013-05-30T06:55:36Z</time>
      </trkpt>
      <trkpt lat="45.41353" lon="5.69301">
        <ele>649.7159</ele>
        <time>2013-05-30T06:55:42Z</time>
      </trkpt>
      <trkpt lat="45.41349" lon="5.6933">
        <ele>650.3853</ele>
        <time>2013-05-30T06:55:48Z</time>
      </trkpt>
      <trkpt lat="45.41346" lon="5.69356">
        <ele>650.37286</ele>
        <time>2013-05-30T06:55:53Z</time>
      </trkpt>
      <trkpt lat="45.41346" lon="5.69383">
        <ele>650.0165</ele>
        <time>2013-05-30T06:55:58Z</time>
      </trkpt>
      <trkpt lat="45.41348" lon="5.69412">
        <ele>649.61536</ele>
        <time>2013-05-30T06:56:03Z</time>
      </trkpt>
      <trkpt lat="45.41349" lon="5.69441">
        <ele>649.2517</ele>
        <time>2013-05-30T06:56:08Z</time>
      </trkpt>
      <trkpt lat="45.41351" lon="5.69469">
        <ele>649.5733</ele>
        <time>2013-05-30T06:56:13Z</time>
      </trkpt>
      <trkpt lat="45.41355" lon="5.69496">
        <ele>649.87274</ele>
        <time>2013-05-30T06:56:18Z</time>
      </trkpt>
      <trkpt lat="45.41357" lon="5.69522">
        <ele>649.97656</ele>
        <time>2013-05-30T06:56:23Z</time>
      </trkpt>
      <trkpt lat="45.41353" lon="5.6955">
        <ele>649.22064</ele>
        <time>2013-05-30T06:56:29Z</time>
      </trkpt>
      <trkpt lat="45.41348" lon="5.69584">
        <ele>648.09406</ele>
        <time>2013-05-30T06:56:34Z</time>
      </trkpt>
      <trkpt lat="45.41341" lon="5.69614">
        <ele>647.5751</ele>
        <time>2013-05-30T06:56:38Z</time>
      </trkpt>
      <trkpt lat="45.41331" lon="5.69643">
        <ele>645.948</ele>
        <time>2013-05-30T06:56:42Z</time>
      </trkpt>
      <trkpt lat="45.41325" lon="5.69674">
        <ele>644.62335</ele>
        <time>2013-05-30T06:56:46Z</time>
      </trkpt>
      <trkpt lat="45.41322" lon="5.69702">
        <ele>644.0402</ele>
        <time>2013-05-30T06:56:50Z</time>
      </trkpt>
      <trkpt lat="45.41329" lon="5.69727">
        <ele>642.50757</ele>
        <time>2013-05-30T06:56:53Z</time>
      </trkpt>
      <trkpt lat="45.41338" lon="5.69755">
        <ele>638.82196</ele>
        <time>2013-05-30T06:56:57Z</time>
      </trkpt>
      <trkpt lat="45.41345" lon="5.69786">
        <ele>635.49915</ele>
        <time>2013-05-30T06:57:01Z</time>
      </trkpt>
      <trkpt lat="45.41348" lon="5.69816">
        <ele>633.5587</ele>
        <time>2013-05-30T06:57:05Z</time>
      </trkpt>
      <trkpt lat="45.41355" lon="5.69845">
        <ele>630.9713</ele>
        <time>2013-05-30T06:57:09Z</time>
      </trkpt>
      <trkpt lat="45.4136" lon="5.69876">
        <ele>624.6886</ele>
        <time>2013-05-30T06:57:13Z</time>
      </trkpt>
      <trkpt lat="45.41365" lon="5.69907">
        <ele>620.78735</ele>
        <time>2013-05-30T06:57:16Z</time>
      </trkpt>
      <trkpt lat="45.4137" lon="5.69937">
        <ele>617.0726</ele>
        <time>2013-05-30T06:57:20Z</time>
      </trkpt>
      <trkpt lat="45.41373" lon="5.69963">
        <ele>613.91156</ele>
        <time>2013-05-30T06:57:27Z</time>
      </trkpt>
      <trkpt lat="45.41369" lon="5.69991">
        <ele>610.5786</ele>
        <time>2013-05-30T06:57:34Z</time>
      </trkpt>
      <trkpt lat="45.41369" lon="5.70018">
        <ele>606.87335</ele>
        <time>2013-05-30T06:57:39Z</time>
      </trkpt>
      <trkpt lat="45.41383" lon="5.70034">
        <ele>604.10596</ele>
        <time>2013-05-30T06:57:42Z</time>
      </trkpt>
      <trkpt lat="45.41401" lon="5.70056">
        <ele>600.1425</ele>
        <time>2013-05-30T06:57:46Z</time>
      </trkpt>
      <trkpt lat="45.41409" lon="5.70086">
        <ele>596.60645</ele>
        <time>2013-05-30T06:57:50Z</time>
      </trkpt>
      <trkpt lat="45.41404" lon="5.70112">
        <ele>594.4746</ele>
        <time>2013-05-30T06:57:53Z</time>
      </trkpt>
      <trkpt lat="45.41401" lon="5.70138">
        <ele>593.1627</ele>
        <time>2013-05-30T06:57:56Z</time>
      </trkpt>
      <trkpt lat="45.41399" lon="5.70167">
        <ele>590.90814</ele>
        <time>2013-05-30T06:58:00Z</time>
      </trkpt>
      <trkpt lat="45.41402" lon="5.70196">
        <ele>588.926</ele>
        <time>2013-05-30T06:58:04Z</time>
      </trkpt>
      <trkpt lat="45.41407" lon="5.70224">
        <ele>587.78986</ele>
        <time>2013-05-30T06:58:09Z</time>
      </trkpt>
      <trkpt lat="45.41422" lon="5.70241">
        <ele>586.1909</ele>
        <time>2013-05-30T06:58:13Z</time>
      </trkpt>
      <trkpt lat="45.41438" lon="5.70263">
        <ele>581.901</ele>
        <time>2013-05-30T06:58:18Z</time>
      </trkpt>
      <trkpt lat="45.41448" lon="5.70292">
        <ele>578.54895</ele>
        <time>2013-05-30T06:58:23Z</time>
      </trkpt>
      <trkpt lat="45.41461" lon="5.70321">
        <ele>574.8061</ele>
        <time>2013-05-30T06:58:27Z</time>
      </trkpt>
      <trkpt lat="45.41475" lon="5.70341">
        <ele>572.3932</ele>
        <time>2013-05-30T06:58:30Z</time>
      </trkpt>
      <trkpt lat="45.41489" lon="5.70361">
        <ele>571.3627</ele>
        <time>2013-05-30T06:58:34Z</time>
      </trkpt>
      <trkpt lat="45.41503" lon="5.70381">
        <ele>569.3946</ele>
        <time>2013-05-30T06:58:39Z</time>
      </trkpt>
      <trkpt lat="45.41483" lon="5.70383">
        <ele>564.36395</ele>
        <time>2013-05-30T06:59:16Z</time>
      </trkpt>
      <trkpt lat="45.41464" lon="5.70379">
        <ele>564.4227</ele>
        <time>2013-05-30T06:59:23Z</time>
      </trkpt>
      <trkpt lat="45.41446" lon="5.70373">
        <ele>564.1661</ele>
        <time>2013-05-30T06:59:29Z</time>
      </trkpt>
      <trkpt lat="45.41428" lon="5.70366">
        <ele>563.5749</ele>
        <time>2013-05-30T06:59:34Z</time>
      </trkpt>
      <trkpt lat="45.41411" lon="5.70358">
        <ele>564.62744</ele>
        <time>2013-05-30T06:59:39Z</time>
      </trkpt>
      <trkpt lat="45.41392" lon="5.70351">
        <ele>565.24146</ele>
        <time>2013-05-30T06:59:44Z</time>
      </trkpt>
      <trkpt lat="45.41401" lon="5.70379">
        <ele>562.755</ele>
        <time>2013-05-30T06:59:56Z</time>
      </trkpt>
      <trkpt lat="45.41414" lon="5.70397">
        <ele>561.04504</ele>
        <time>2013-05-30T06:59:59Z</time>
      </trkpt>
      <trkpt lat="45.41427" lon="5.70418">
        <ele>559.14404</ele>
        <time>2013-05-30T07:00:02Z</time>
      </trkpt>
      <trkpt lat="45.41437" lon="5.70448">
        <ele>557.6373</ele>
        <time>2013-05-30T07:00:05Z</time>
      </trkpt>
      <trkpt lat="45.41447" lon="5.70475">
        <ele>556.3033</ele>
        <time>2013-05-30T07:00:08Z</time>
      </trkpt>
      <trkpt lat="45.41462" lon="5.70498">
        <ele>555.34045</ele>
        <time>2013-05-30T07:00:11Z</time>
      </trkpt>
      <trkpt lat="45.41479" lon="5.70515">
        <ele>554.48267</ele>
        <time>2013-05-30T07:00:14Z</time>
      </trkpt>
      <trkpt lat="45.41497" lon="5.70529">
        <ele>553.6333</ele>
        <time>2013-05-30T07:00:17Z</time>
      </trkpt>
      <trkpt lat="45.41516" lon="5.70543">
        <ele>552.5203</ele>
        <time>2013-05-30T07:00:20Z</time>
      </trkpt>
      <trkpt lat="45.41535" lon="5.70554">
        <ele>550.69763</ele>
        <time>2013-05-30T07:00:23Z</time>
      </trkpt>
      <trkpt lat="45.41555" lon="5.70563">
        <ele>548.93805</ele>
        <time>2013-05-30T07:00:26Z</time>
      </trkpt>
      <trkpt lat="45.41575" lon="5.70574">
        <ele>547.0504</ele>
        <time>2013-05-30T07:00:29Z</time>
      </trkpt>
      <trkpt lat="45.41593" lon="5.70588">
        <ele>544.5744</ele>
        <time>2013-05-30T07:00:32Z</time>
      </trkpt>
      <trkpt lat="45.41607" lon="5.70612">
        <ele>542.36615</ele>
        <time>2013-05-30T07:00:36Z</time>
      </trkpt>
      <trkpt lat="45.41612" lon="5.70637">
        <ele>540.4607</ele>
        <time>2013-05-30T07:00:39Z</time>
      </trkpt>
      <trkpt lat="45.41615" lon="5.70663">
        <ele>537.77405</ele>
        <time>2013-05-30T07:00:42Z</time>
      </trkpt>
      <trkpt lat="45.41622" lon="5.70689">
        <ele>534.72345</ele>
        <time>2013-05-30T07:00:45Z</time>
      </trkpt>
      <trkpt lat="45.41631" lon="5.70718">
        <ele>531.54895</ele>
        <time>2013-05-30T07:00:48Z</time>
      </trkpt>
      <trkpt lat="45.41633" lon="5.70747">
        <ele>528.9097</ele>
        <time>2013-05-30T07:00:51Z</time>
      </trkpt>
      <trkpt lat="45.41632" lon="5.70781">
        <ele>526.97845</ele>
        <time>2013-05-30T07:00:55Z</time>
      </trkpt>
      <trkpt lat="45.41637" lon="5.70807">
        <ele>525.619</ele>
        <time>2013-05-30T07:00:58Z</time>
      </trkpt>
      <trkpt lat="45.41649" lon="5.70829">
        <ele>524.1518</ele>
        <time>2013-05-30T07:01:01Z</time>
      </trkpt>
      <trkpt lat="45.41661" lon="5.70852">
        <ele>522.7297</ele>
        <time>2013-05-30T07:01:04Z</time>
      </trkpt>
      <trkpt lat="45.4167" lon="5.70879">
        <ele>521.8641</ele>
        <time>2013-05-30T07:01:07Z</time>
      </trkpt>
      <trkpt lat="45.41678" lon="5.70903">
        <ele>521.115</ele>
        <time>2013-05-30T07:01:43Z</time>
      </trkpt>
      <trkpt lat="45.4169" lon="5.70927">
        <ele>520.7612</ele>
        <time>2013-05-30T07:01:50Z</time>
      </trkpt>
      <trkpt lat="45.41702" lon="5.70948">
        <ele>518.9975</ele>
        <time>2013-05-30T07:01:54Z</time>
      </trkpt>
      <trkpt lat="45.41717" lon="5.70968">
        <ele>517.1758</ele>
        <time>2013-05-30T07:01:58Z</time>
      </trkpt>
      <trkpt lat="45.41731" lon="5.70989">
        <ele>515.52106</ele>
        <time>2013-05-30T07:02:01Z</time>
      </trkpt>
      <trkpt lat="45.41746" lon="5.71016">
        <ele>514.14417</ele>
        <time>2013-05-30T07:02:05Z</time>
      </trkpt>
      <trkpt lat="45.4176" lon="5.71037">
        <ele>511.53583</ele>
        <time>2013-05-30T07:02:08Z</time>
      </trkpt>
      <trkpt lat="45.41771" lon="5.71058">
        <ele>508.1823</ele>
        <time>2013-05-30T07:02:11Z</time>
      </trkpt>
      <trkpt lat="45.41789" lon="5.71073">
        <ele>505.7941</ele>
        <time>2013-05-30T07:02:14Z</time>
      </trkpt>
      <trkpt lat="45.41808" lon="5.71085">
        <ele>504.44907</ele>
        <time>2013-05-30T07:02:17Z</time>
      </trkpt>
      <trkpt lat="45.41826" lon="5.7109">
        <ele>503.1651</ele>
        <time>2013-05-30T07:02:19Z</time>
      </trkpt>
      <trkpt lat="45.41845" lon="5.71097">
        <ele>502.44287</ele>
        <time>2013-05-30T07:02:21Z</time>
      </trkpt>
      <trkpt lat="45.41859" lon="5.71115">
        <ele>501.38214</ele>
        <time>2013-05-30T07:02:24Z</time>
      </trkpt>
      <trkpt lat="45.41869" lon="5.71137">
        <ele>500.33466</ele>
        <time>2013-05-30T07:02:27Z</time>
      </trkpt>
      <trkpt lat="45.4187" lon="5.71168">
        <ele>497.949</ele>
        <time>2013-05-30T07:02:30Z</time>
      </trkpt>
      <trkpt lat="45.41877" lon="5.71201">
        <ele>495.82224</ele>
        <time>2013-05-30T07:02:33Z</time>
      </trkpt>
      <trkpt lat="45.41894" lon="5.71226">
        <ele>494.96094</ele>
        <time>2013-05-30T07:02:36Z</time>
      </trkpt>
      <trkpt lat="45.41916" lon="5.71247">
        <ele>494.4804</ele>
        <time>2013-05-30T07:02:39Z</time>
      </trkpt>
      <trkpt lat="45.41931" lon="5.71262">
        <ele>493.83273</ele>
        <time>2013-05-30T07:02:41Z</time>
      </trkpt>
      <trkpt lat="45.41947" lon="5.71276">
        <ele>493.82465</ele>
        <time>2013-05-30T07:02:43Z</time>
      </trkpt>
      <trkpt lat="45.4197" lon="5.71297">
        <ele>493.77133</ele>
        <time>2013-05-30T07:02:46Z</time>
      </trkpt>
      <trkpt lat="45.4199" lon="5.71316">
        <ele>493.90668</ele>
        <time>2013-05-30T07:02:49Z</time>
      </trkpt>
      <trkpt lat="45.42005" lon="5.71341">
        <ele>493.66376</ele>
        <time>2013-05-30T07:02:52Z</time>
      </trkpt>
      <trkpt lat="45.42007" lon="5.71376">
        <ele>491.7472</ele>
        <time>2013-05-30T07:02:55Z</time>
      </trkpt>
      <trkpt lat="45.42014" lon="5.71401">
        <ele>490.04803</ele>
        <time>2013-05-30T07:02:58Z</time>
      </trkpt>
      <trkpt lat="45.42025" lon="5.71422">
        <ele>489.5359</ele>
        <time>2013-05-30T07:03:01Z</time>
      </trkpt>
      <trkpt lat="45.42039" lon="5.71445">
        <ele>489.3297</ele>
        <time>2013-05-30T07:03:05Z</time>
      </trkpt>
      <trkpt lat="45.42053" lon="5.71461">
        <ele>489.45316</ele>
        <time>2013-05-30T07:03:09Z</time>
      </trkpt>
      <trkpt lat="45.42066" lon="5.71485">
        <ele>486.96634</ele>
        <time>2013-05-30T07:03:16Z</time>
      </trkpt>
      <trkpt lat="45.42078" lon="5.71505">
        <ele>485.85382</ele>
        <time>2013-05-30T07:03:23Z</time>
      </trkpt>
      <trkpt lat="45.42089" lon="5.71526">
        <ele>473.36826</ele>
        <time>2013-05-30T07:05:58Z</time>
      </trkpt>
      <trkpt lat="45.42101" lon="5.71547">
        <ele>474.26962</ele>
        <time>2013-05-30T07:06:07Z</time>
      </trkpt>
      <trkpt lat="45.42106" lon="5.71574">
        <ele>484.3821</ele>
        <time>2013-05-30T07:06:24Z</time>
      </trkpt>
      <trkpt lat="45.42108" lon="5.71601">
        <ele>496.3482</ele>
        <time>2013-05-30T07:06:39Z</time>
      </trkpt>
      <trkpt lat="45.42105" lon="5.71627">
        <ele>498.86423</ele>
        <time>2013-05-30T07:06:52Z</time>
      </trkpt>
      <trkpt lat="45.421" lon="5.71652">
        <ele>497.29547</ele>
        <time>2013-05-30T07:07:02Z</time>
      </trkpt>
      <trkpt lat="45.42105" lon="5.71677">
        <ele>498.53455</ele>
        <time>2013-05-30T07:07:17Z</time>
      </trkpt>
      <trkpt lat="45.42113" lon="5.717">
        <ele>495.46893</ele>
        <time>2013-05-30T07:07:27Z</time>
      </trkpt>
      <trkpt lat="45.42128" lon="5.71717">
        <ele>500.79352</ele>
        <time>2013-05-30T07:07:42Z</time>
      </trkpt>
      <trkpt lat="45.42143" lon="5.71734">
        <ele>507.02557</ele>
        <time>2013-05-30T07:07:58Z</time>
      </trkpt>
      <trkpt lat="45.42156" lon="5.71752">
        <ele>512.5143</ele>
        <time>2013-05-30T07:08:14Z</time>
      </trkpt>
      <trkpt lat="45.42169" lon="5.71771">
        <ele>515.87164</ele>
        <time>2013-05-30T07:08:30Z</time>
      </trkpt>
      <trkpt lat="45.42181" lon="5.71792">
        <ele>517.8593</ele>
        <time>2013-05-30T07:08:45Z</time>
      </trkpt>
      <trkpt lat="45.42194" lon="5.7181">
        <ele>517.00555</ele>
        <time>2013-05-30T07:09:00Z</time>
      </trkpt>
      <trkpt lat="45.42204" lon="5.71833">
        <ele>517.51495</ele>
        <time>2013-05-30T07:09:12Z</time>
      </trkpt>
      <trkpt lat="45.42215" lon="5.71857">
        <ele>522.0203</ele>
        <time>2013-05-30T07:09:25Z</time>
      </trkpt>
      <trkpt lat="45.42225" lon="5.71882">
        <ele>525.26556</ele>
        <time>2013-05-30T07:09:31Z</time>
      </trkpt>
      <trkpt lat="45.42233" lon="5.71912">
        <ele>526.79095</ele>
        <time>2013-05-30T07:09:37Z</time>
      </trkpt>
      <trkpt lat="45.42244" lon="5.71947">
        <ele>524.8788</ele>
        <time>2013-05-30T07:09:41Z</time>
      </trkpt>
      <trkpt lat="45.42254" lon="5.71972">
        <ele>523.0155</ele>
        <time>2013-05-30T07:09:46Z</time>
      </trkpt>
      <trkpt lat="45.42266" lon="5.71997">
        <ele>524.49756</ele>
        <time>2013-05-30T07:09:52Z</time>
      </trkpt>
      <trkpt lat="45.42273" lon="5.72022">
        <ele>528.23016</ele>
        <time>2013-05-30T07:10:00Z</time>
      </trkpt>
      <trkpt lat="45.42279" lon="5.72046">
        <ele>523.5912</ele>
        <time>2013-05-30T07:10:04Z</time>
      </trkpt>
      <trkpt lat="45.42291" lon="5.72068">
        <ele>522.15564</ele>
        <time>2013-05-30T07:10:10Z</time>
      </trkpt>
      <trkpt lat="45.42301" lon="5.72092">
        <ele>522.4005</ele>
        <time>2013-05-30T07:10:15Z</time>
      </trkpt>
      <trkpt lat="45.4231" lon="5.72115">
        <ele>527.4915</ele>
        <time>2013-05-30T07:10:22Z</time>
      </trkpt>
      <trkpt lat="45.4232" lon="5.72138">
        <ele>530.35956</ele>
        <time>2013-05-30T07:10:28Z</time>
      </trkpt>
      <trkpt lat="45.42331" lon="5.72165">
        <ele>529.1796</ele>
        <time>2013-05-30T07:10:33Z</time>
      </trkpt>
      <trkpt lat="45.42344" lon="5.72183">
        <ele>535.8054</ele>
        <time>2013-05-30T07:10:39Z</time>
      </trkpt>
      <trkpt lat="45.42354" lon="5.72207">
        <ele>536.9415</ele>
        <time>2013-05-30T07:10:50Z</time>
      </trkpt>
      <trkpt lat="45.42365" lon="5.72229">
        <ele>537.6382</ele>
        <time>2013-05-30T07:10:56Z</time>
      </trkpt>
      <trkpt lat="45.42373" lon="5.72253">
        <ele>536.622</ele>
        <time>2013-05-30T07:11:04Z</time>
      </trkpt>
      <trkpt lat="45.4238" lon="5.72279">
        <ele>534.1459</ele>
        <time>2013-05-30T07:11:13Z</time>
      </trkpt>
      <trkpt lat="45.42387" lon="5.72303">
        <ele>533.00433</ele>
        <time>2013-05-30T07:11:21Z</time>
      </trkpt>
      <trkpt lat="45.4239" lon="5.7233">
        <ele>531.2233</ele>
        <time>2013-05-30T07:11:31Z</time>
      </trkpt>
      <trkpt lat="45.42388" lon="5.72356">
        <ele>530.8052</ele>
        <time>2013-05-30T07:11:41Z</time>
      </trkpt>
      <trkpt lat="45.42386" lon="5.72381">
        <ele>536.43414</ele>
        <time>2013-05-30T07:11:52Z</time>
      </trkpt>
      <trkpt lat="45.42381" lon="5.72407">
        <ele>534.67114</ele>
        <time>2013-05-30T07:12:00Z</time>
      </trkpt>
      <trkpt lat="45.42374" lon="5.72432">
        <ele>533.5546</ele>
        <time>2013-05-30T07:12:09Z</time>
      </trkpt>
      <trkpt lat="45.42368" lon="5.72457">
        <ele>531.7368</ele>
        <time>2013-05-30T07:12:18Z</time>
      </trkpt>
      <trkpt lat="45.42362" lon="5.72484">
        <ele>526.48395</ele>
        <time>2013-05-30T07:12:27Z</time>
      </trkpt>
      <trkpt lat="45.42357" lon="5.72512">
        <ele>526.4769</ele>
        <time>2013-05-30T07:12:35Z</time>
      </trkpt>
      <trkpt lat="45.42347" lon="5.72537">
        <ele>529.62665</ele>
        <time>2013-05-30T07:12:42Z</time>
      </trkpt>
      <trkpt lat="45.42346" lon="5.72567">
        <ele>530.2122</ele>
        <time>2013-05-30T07:12:48Z</time>
      </trkpt>
      <trkpt lat="45.42348" lon="5.72599">
        <ele>531.59674</ele>
        <time>2013-05-30T07:12:53Z</time>
      </trkpt>
      <trkpt lat="45.42349" lon="5.72626">
        <ele>531.2923</ele>
        <time>2013-05-30T07:12:57Z</time>
      </trkpt>
      <trkpt lat="45.42351" lon="5.72654">
        <ele>530.7648</ele>
        <time>2013-05-30T07:13:01Z</time>
      </trkpt>
      <trkpt lat="45.42355" lon="5.72683">
        <ele>527.5381</ele>
        <time>2013-05-30T07:13:05Z</time>
      </trkpt>
      <trkpt lat="45.42364" lon="5.72709">
        <ele>526.616</ele>
        <time>2013-05-30T07:13:08Z</time>
      </trkpt>
      <trkpt lat="45.42378" lon="5.72729">
        <ele>526.0052</ele>
        <time>2013-05-30T07:13:11Z</time>
      </trkpt>
      <trkpt lat="45.42397" lon="5.72745">
        <ele>526.46106</ele>
        <time>2013-05-30T07:13:15Z</time>
      </trkpt>
      <trkpt lat="45.42414" lon="5.72761">
        <ele>526.92004</ele>
        <time>2013-05-30T07:13:20Z</time>
      </trkpt>
      <trkpt lat="45.42428" lon="5.72778">
        <ele>528.5381</ele>
        <time>2013-05-30T07:13:25Z</time>
      </trkpt>
      <trkpt lat="45.42442" lon="5.72795">
        <ele>530.82306</ele>
        <time>2013-05-30T07:13:31Z</time>
      </trkpt>
      <trkpt lat="45.42457" lon="5.72814">
        <ele>535.1188</ele>
        <time>2013-05-30T07:13:38Z</time>
      </trkpt>
      <trkpt lat="45.42474" lon="5.72831">
        <ele>536.6813</ele>
        <time>2013-05-30T07:13:44Z</time>
      </trkpt>
      <trkpt lat="45.42489" lon="5.72849">
        <ele>535.69684</ele>
        <time>2013-05-30T07:13:49Z</time>
      </trkpt>
      <trkpt lat="45.42505" lon="5.7287">
        <ele>534.4635</ele>
        <time>2013-05-30T07:13:54Z</time>
      </trkpt>
      <trkpt lat="45.42519" lon="5.72887">
        <ele>533.7283</ele>
        <time>2013-05-30T07:13:58Z</time>
      </trkpt>
      <trkpt lat="45.42535" lon="5.72905">
        <ele>531.9851</ele>
        <time>2013-05-30T07:14:02Z</time>
      </trkpt>
      <trkpt lat="45.42552" lon="5.72926">
        <ele>529.95856</ele>
        <time>2013-05-30T07:14:06Z</time>
      </trkpt>
      <trkpt lat="45.42563" lon="5.72956">
        <ele>528.5549</ele>
        <time>2013-05-30T07:14:10Z</time>
      </trkpt>
      <trkpt lat="45.4257" lon="5.72981">
        <ele>528.2653</ele>
        <time>2013-05-30T07:14:13Z</time>
      </trkpt>
      <trkpt lat="45.42576" lon="5.73008">
        <ele>528.0213</ele>
        <time>2013-05-30T07:14:16Z</time>
      </trkpt>
      <trkpt lat="45.4258" lon="5.73037">
        <ele>527.3527</ele>
        <time>2013-05-30T07:14:19Z</time>
      </trkpt>
      <trkpt lat="45.42588" lon="5.73066">
        <ele>526.2207</ele>
        <time>2013-05-30T07:14:22Z</time>
      </trkpt>
      <trkpt lat="45.42597" lon="5.73096">
        <ele>525.39935</ele>
        <time>2013-05-30T07:14:25Z</time>
      </trkpt>
      <trkpt lat="45.42607" lon="5.73125">
        <ele>525.27783</ele>
        <time>2013-05-30T07:14:28Z</time>
      </trkpt>
      <trkpt lat="45.42616" lon="5.73153">
        <ele>525.175</ele>
        <time>2013-05-30T07:14:31Z</time>
      </trkpt>
      <trkpt lat="45.42624" lon="5.73179">
        <ele>525.44415</ele>
        <time>2013-05-30T07:14:34Z</time>
      </trkpt>
      <trkpt lat="45.42632" lon="5.73205">
        <ele>525.86395</ele>
        <time>2013-05-30T07:14:37Z</time>
      </trkpt>
      <trkpt lat="45.4264" lon="5.73234">
        <ele>525.8348</ele>
        <time>2013-05-30T07:14:40Z</time>
      </trkpt>
      <trkpt lat="45.42648" lon="5.73259">
        <ele>525.3006</ele>
        <time>2013-05-30T07:14:43Z</time>
      </trkpt>
      <trkpt lat="45.42645" lon="5.73287">
        <ele>523.1873</ele>
        <time>2013-05-30T07:14:47Z</time>
      </trkpt>
      <trkpt lat="45.4263" lon="5.73312">
        <ele>523.65967</ele>
        <time>2013-05-30T07:14:52Z</time>
      </trkpt>
      <trkpt lat="45.42615" lon="5.73328">
        <ele>524.2898</ele>
        <time>2013-05-30T07:14:54Z</time>
      </trkpt>
      <trkpt lat="45.42625" lon="5.73351">
        <ele>525.0374</ele>
        <time>2013-05-30T07:14:59Z</time>
      </trkpt>
      <trkpt lat="45.42644" lon="5.73367">
        <ele>526.0456</ele>
        <time>2013-05-30T07:15:06Z</time>
      </trkpt>
      <trkpt lat="45.42658" lon="5.73383">
        <ele>527.4992</ele>
        <time>2013-05-30T07:15:13Z</time>
      </trkpt>
      <trkpt lat="45.42673" lon="5.73404">
        <ele>524.54315</ele>
        <time>2013-05-30T07:15:20Z</time>
      </trkpt>
      <trkpt lat="45.42687" lon="5.73421">
        <ele>520.4727</ele>
        <time>2013-05-30T07:15:27Z</time>
      </trkpt>
      <trkpt lat="45.427" lon="5.73439">
        <ele>518.6887</ele>
        <time>2013-05-30T07:15:35Z</time>
      </trkpt>
      <trkpt lat="45.42702" lon="5.73466">
        <ele>522.0455</ele>
        <time>2013-05-30T07:15:42Z</time>
      </trkpt>
      <trkpt lat="45.42695" lon="5.73491">
        <ele>529.19574</ele>
        <time>2013-05-30T07:15:52Z</time>
      </trkpt>
      <trkpt lat="45.42683" lon="5.73514">
        <ele>533.7293</ele>
        <time>2013-05-30T07:16:01Z</time>
      </trkpt>
      <trkpt lat="45.42671" lon="5.73534">
        <ele>534.40814</ele>
        <time>2013-05-30T07:16:07Z</time>
      </trkpt>
      <trkpt lat="45.42661" lon="5.73556">
        <ele>534.5071</ele>
        <time>2013-05-30T07:16:13Z</time>
      </trkpt>
      <trkpt lat="45.42655" lon="5.73582">
        <ele>534.10516</ele>
        <time>2013-05-30T07:16:19Z</time>
      </trkpt>
      <trkpt lat="45.4265" lon="5.73607">
        <ele>534.1782</ele>
        <time>2013-05-30T07:16:25Z</time>
      </trkpt>
      <trkpt lat="45.42642" lon="5.73635">
        <ele>535.96893</ele>
        <time>2013-05-30T07:16:32Z</time>
      </trkpt>
      <trkpt lat="45.42636" lon="5.73661">
        <ele>536.6621</ele>
        <time>2013-05-30T07:16:38Z</time>
      </trkpt>
      <trkpt lat="45.42632" lon="5.73688">
        <ele>535.6388</ele>
        <time>2013-05-30T07:16:44Z</time>
      </trkpt>
      <trkpt lat="45.4263" lon="5.73714">
        <ele>534.2311</ele>
        <time>2013-05-30T07:16:49Z</time>
      </trkpt>
      <trkpt lat="45.42626" lon="5.73744">
        <ele>533.75604</ele>
        <time>2013-05-30T07:16:55Z</time>
      </trkpt>
      <trkpt lat="45.42624" lon="5.73771">
        <ele>532.8736</ele>
        <time>2013-05-30T07:16:59Z</time>
      </trkpt>
      <trkpt lat="45.42625" lon="5.738">
        <ele>531.7569</ele>
        <time>2013-05-30T07:17:03Z</time>
      </trkpt>
      <trkpt lat="45.42628" lon="5.7383">
        <ele>530.2848</ele>
        <time>2013-05-30T07:17:07Z</time>
      </trkpt>
      <trkpt lat="45.42626" lon="5.73857">
        <ele>529.5639</ele>
        <time>2013-05-30T07:17:11Z</time>
      </trkpt>
      <trkpt lat="45.42626" lon="5.73888">
        <ele>527.96747</ele>
        <time>2013-05-30T07:17:15Z</time>
      </trkpt>
      <trkpt lat="45.42629" lon="5.73916">
        <ele>525.95184</ele>
        <time>2013-05-30T07:17:19Z</time>
      </trkpt>
      <trkpt lat="45.42631" lon="5.73945">
        <ele>524.1333</ele>
        <time>2013-05-30T07:17:24Z</time>
      </trkpt>
      <trkpt lat="45.42636" lon="5.7397">
        <ele>522.0094</ele>
        <time>2013-05-30T07:18:10Z</time>
      </trkpt>
      <trkpt lat="45.42641" lon="5.73997">
        <ele>521.2362</ele>
        <time>2013-05-30T07:18:15Z</time>
      </trkpt>
      <trkpt lat="45.42648" lon="5.74027">
        <ele>520.1921</ele>
        <time>2013-05-30T07:18:20Z</time>
      </trkpt>
      <trkpt lat="45.42656" lon="5.74052">
        <ele>518.97833</ele>
        <time>2013-05-30T07:18:24Z</time>
      </trkpt>
      <trkpt lat="45.42666" lon="5.74079">
        <ele>518.1377</ele>
        <time>2013-05-30T07:18:28Z</time>
      </trkpt>
      <trkpt lat="45.42676" lon="5.74108">
        <ele>516.7889</ele>
        <time>2013-05-30T07:18:32Z</time>
      </trkpt>
      <trkpt lat="45.42687" lon="5.7413">
        <ele>515.42816</ele>
        <time>2013-05-30T07:18:35Z</time>
      </trkpt>
      <trkpt lat="45.42698" lon="5.74155">
        <ele>514.01654</ele>
        <time>2013-05-30T07:18:38Z</time>
      </trkpt>
      <trkpt lat="45.42712" lon="5.74182">
        <ele>512.3726</ele>
        <time>2013-05-30T07:18:41Z</time>
      </trkpt>
      <trkpt lat="45.42724" lon="5.74211">
        <ele>510.95563</ele>
        <time>2013-05-30T07:18:44Z</time>
      </trkpt>
      <trkpt lat="45.42736" lon="5.74238">
        <ele>509.84534</ele>
        <time>2013-05-30T07:18:47Z</time>
      </trkpt>
      <trkpt lat="45.42748" lon="5.7426">
        <ele>508.1191</ele>
        <time>2013-05-30T07:18:50Z</time>
      </trkpt>
      <trkpt lat="45.42756" lon="5.74287">
        <ele>506.2987</ele>
        <time>2013-05-30T07:18:53Z</time>
      </trkpt>
      <trkpt lat="45.42768" lon="5.74315">
        <ele>503.98538</ele>
        <time>2013-05-30T07:18:56Z</time>
      </trkpt>
      <trkpt lat="45.42786" lon="5.74336">
        <ele>501.55008</ele>
        <time>2013-05-30T07:18:59Z</time>
      </trkpt>
      <trkpt lat="45.42804" lon="5.7435">
        <ele>499.30862</ele>
        <time>2013-05-30T07:19:02Z</time>
      </trkpt>
      <trkpt lat="45.42824" lon="5.74349">
        <ele>497.3599</ele>
        <time>2013-05-30T07:19:05Z</time>
      </trkpt>
      <trkpt lat="45.42839" lon="5.74332">
        <ele>495.55496</ele>
        <time>2013-05-30T07:19:08Z</time>
      </trkpt>
      <trkpt lat="45.42855" lon="5.74319">
        <ele>494.52786</ele>
        <time>2013-05-30T07:19:11Z</time>
      </trkpt>
      <trkpt lat="45.42876" lon="5.74319">
        <ele>493.66644</ele>
        <time>2013-05-30T07:19:14Z</time>
      </trkpt>
      <trkpt lat="45.42896" lon="5.74319">
        <ele>492.56085</ele>
        <time>2013-05-30T07:19:17Z</time>
      </trkpt>
      <trkpt lat="45.42919" lon="5.74305">
        <ele>489.9134</ele>
        <time>2013-05-30T07:19:21Z</time>
      </trkpt>
      <trkpt lat="45.42935" lon="5.74282">
        <ele>487.17752</ele>
        <time>2013-05-30T07:19:24Z</time>
      </trkpt>
      <trkpt lat="45.42949" lon="5.7425">
        <ele>485.73428</ele>
        <time>2013-05-30T07:19:27Z</time>
      </trkpt>
      <trkpt lat="45.42958" lon="5.74217">
        <ele>483.42227</ele>
        <time>2013-05-30T07:19:30Z</time>
      </trkpt>
      <trkpt lat="45.42974" lon="5.7419">
        <ele>480.9844</ele>
        <time>2013-05-30T07:19:33Z</time>
      </trkpt>
      <trkpt lat="45.42997" lon="5.74156">
        <ele>478.87466</ele>
        <time>2013-05-30T07:19:37Z</time>
      </trkpt>
      <trkpt lat="45.43019" lon="5.74142">
        <ele>477.48618</ele>
        <time>2013-05-30T07:19:40Z</time>
      </trkpt>
      <trkpt lat="45.43038" lon="5.74128">
        <ele>476.39417</ele>
        <time>2013-05-30T07:19:43Z</time>
      </trkpt>
      <trkpt lat="45.43057" lon="5.74132">
        <ele>475.3288</ele>
        <time>2013-05-30T07:19:48Z</time>
      </trkpt>
      <trkpt lat="45.43047" lon="5.74157">
        <ele>473.77786</ele>
        <time>2013-05-30T07:19:52Z</time>
      </trkpt>
      <trkpt lat="45.43034" lon="5.74178">
        <ele>472.3766</ele>
        <time>2013-05-30T07:19:55Z</time>
      </trkpt>
      <trkpt lat="45.4302" lon="5.74202">
        <ele>470.8995</ele>
        <time>2013-05-30T07:19:58Z</time>
      </trkpt>
      <trkpt lat="45.43009" lon="5.74223">
        <ele>469.71387</ele>
        <time>2013-05-30T07:20:01Z</time>
      </trkpt>
      <trkpt lat="45.43009" lon="5.74251">
        <ele>468.1996</ele>
        <time>2013-05-30T07:20:04Z</time>
      </trkpt>
      <trkpt lat="45.4301" lon="5.74281">
        <ele>466.1592</ele>
        <time>2013-05-30T07:20:07Z</time>
      </trkpt>
      <trkpt lat="45.43011" lon="5.7431">
        <ele>463.65466</ele>
        <time>2013-05-30T07:20:10Z</time>
      </trkpt>
      <trkpt lat="45.43013" lon="5.74343">
        <ele>461.8168</ele>
        <time>2013-05-30T07:20:13Z</time>
      </trkpt>
      <trkpt lat="45.43014" lon="5.74373">
        <ele>460.71646</ele>
        <time>2013-05-30T07:20:16Z</time>
      </trkpt>
      <trkpt lat="45.43009" lon="5.74399">
        <ele>457.5335</ele>
        <time>2013-05-30T07:20:19Z</time>
      </trkpt>
      <trkpt lat="45.43002" lon="5.74429">
        <ele>454.16412</ele>
        <time>2013-05-30T07:20:22Z</time>
      </trkpt>
      <trkpt lat="45.42994" lon="5.7446">
        <ele>452.113</ele>
        <time>2013-05-30T07:20:25Z</time>
      </trkpt>
      <trkpt lat="45.42985" lon="5.74485">
        <ele>450.81796</ele>
        <time>2013-05-30T07:20:28Z</time>
      </trkpt>
      <trkpt lat="45.4298" lon="5.74516">
        <ele>448.03973</ele>
        <time>2013-05-30T07:20:33Z</time>
      </trkpt>
      <trkpt lat="45.42988" lon="5.74546">
        <ele>445.3032</ele>
        <time>2013-05-30T07:20:37Z</time>
      </trkpt>
      <trkpt lat="45.42982" lon="5.74578">
        <ele>443.52524</ele>
        <time>2013-05-30T07:20:41Z</time>
      </trkpt>
      <trkpt lat="45.42971" lon="5.74606">
        <ele>441.68655</ele>
        <time>2013-05-30T07:20:46Z</time>
      </trkpt>
      <trkpt lat="45.42967" lon="5.74632">
        <ele>441.54865</ele>
        <time>2013-05-30T07:20:53Z</time>
      </trkpt>
      <trkpt lat="45.42974" lon="5.74661">
        <ele>441.41013</ele>
        <time>2013-05-30T07:20:59Z</time>
      </trkpt>
      <trkpt lat="45.42982" lon="5.74685">
        <ele>440.75415</ele>
        <time>2013-05-30T07:21:04Z</time>
      </trkpt>
      <trkpt lat="45.42991" lon="5.7471">
        <ele>440.16068</ele>
        <time>2013-05-30T07:21:10Z</time>
      </trkpt>
      <trkpt lat="45.43" lon="5.74737">
        <ele>440.5117</ele>
        <time>2013-05-30T07:21:17Z</time>
      </trkpt>
      <trkpt lat="45.43009" lon="5.74761">
        <ele>440.7101</ele>
        <time>2013-05-30T07:21:23Z</time>
      </trkpt>
      <trkpt lat="45.4302" lon="5.74785">
        <ele>441.10092</ele>
        <time>2013-05-30T07:21:29Z</time>
      </trkpt>
      <trkpt lat="45.4303" lon="5.74811">
        <ele>440.856</ele>
        <time>2013-05-30T07:21:35Z</time>
      </trkpt>
      <trkpt lat="45.4304" lon="5.74833">
        <ele>440.70508</ele>
        <time>2013-05-30T07:21:40Z</time>
      </trkpt>
      <trkpt lat="45.4305" lon="5.74854">
        <ele>440.96722</ele>
        <time>2013-05-30T07:21:45Z</time>
      </trkpt>
      <trkpt lat="45.43061" lon="5.74877">
        <ele>440.7597</ele>
        <time>2013-05-30T07:21:50Z</time>
      </trkpt>
      <trkpt lat="45.43071" lon="5.74899">
        <ele>440.16562</ele>
        <time>2013-05-30T07:21:55Z</time>
      </trkpt>
      <trkpt lat="45.4308" lon="5.74921">
        <ele>440.3643</ele>
        <time>2013-05-30T07:22:00Z</time>
      </trkpt>
      <trkpt lat="45.4309" lon="5.74943">
        <ele>440.2733</ele>
        <time>2013-05-30T07:22:05Z</time>
      </trkpt>
      <trkpt lat="45.431" lon="5.74966">
        <ele>439.24152</ele>
        <time>2013-05-30T07:22:10Z</time>
      </trkpt>
      <trkpt lat="45.43109" lon="5.74988">
        <ele>439.28934</ele>
        <time>2013-05-30T07:22:15Z</time>
      </trkpt>
      <trkpt lat="45.43117" lon="5.75011">
        <ele>439.35556</ele>
        <time>2013-05-30T07:22:20Z</time>
      </trkpt>
      <trkpt lat="45.43126" lon="5.75034">
        <ele>439.6756</ele>
        <time>2013-05-30T07:22:25Z</time>
      </trkpt>
      <trkpt lat="45.43135" lon="5.75058">
        <ele>439.93973</ele>
        <time>2013-05-30T07:22:30Z</time>
      </trkpt>
      <trkpt lat="45.43144" lon="5.75081">
        <ele>440.14154</ele>
        <time>2013-05-30T07:22:35Z</time>
      </trkpt>
      <trkpt lat="45.43158" lon="5.75098">
        <ele>440.2952</ele>
        <time>2013-05-30T07:22:40Z</time>
      </trkpt>
      <trkpt lat="45.43176" lon="5.75108">
        <ele>440.3101</ele>
        <time>2013-05-30T07:22:45Z</time>
      </trkpt>
      <trkpt lat="45.43195" lon="5.75118">
        <ele>440.39624</ele>
        <time>2013-05-30T07:22:50Z</time>
      </trkpt>
      <trkpt lat="45.43215" lon="5.75128">
        <ele>440.90134</ele>
        <time>2013-05-30T07:22:55Z</time>
      </trkpt>
      <trkpt lat="45.43233" lon="5.75141">
        <ele>441.0977</ele>
        <time>2013-05-30T07:23:00Z</time>
      </trkpt>
      <trkpt lat="45.43248" lon="5.75157">
        <ele>440.81488</ele>
        <time>2013-05-30T07:23:04Z</time>
      </trkpt>
      <trkpt lat="45.43264" lon="5.75176">
        <ele>439.5969</ele>
        <time>2013-05-30T07:23:08Z</time>
      </trkpt>
      <trkpt lat="45.43278" lon="5.75196">
        <ele>438.05923</ele>
        <time>2013-05-30T07:23:13Z</time>
      </trkpt>
      <trkpt lat="45.43291" lon="5.75218">
        <ele>436.26602</ele>
        <time>2013-05-30T07:23:19Z</time>
      </trkpt>
      <trkpt lat="45.43293" lon="5.75247">
        <ele>435.7396</ele>
        <time>2013-05-30T07:23:26Z</time>
      </trkpt>
      <trkpt lat="45.43294" lon="5.75273">
        <ele>436.8329</ele>
        <time>2013-05-30T07:23:32Z</time>
      </trkpt>
      <trkpt lat="45.43294" lon="5.75303">
        <ele>436.86874</ele>
        <time>2013-05-30T07:23:39Z</time>
      </trkpt>
      <trkpt lat="45.4329" lon="5.75329">
        <ele>438.31357</ele>
        <time>2013-05-30T07:23:46Z</time>
      </trkpt>
      <trkpt lat="45.43297" lon="5.75356">
        <ele>438.74225</ele>
        <time>2013-05-30T07:23:53Z</time>
      </trkpt>
      <trkpt lat="45.43304" lon="5.75382">
        <ele>436.48096</ele>
        <time>2013-05-30T07:24:00Z</time>
      </trkpt>
      <trkpt lat="45.43314" lon="5.75408">
        <ele>436.336</ele>
        <time>2013-05-30T07:24:07Z</time>
      </trkpt>
      <trkpt lat="45.43322" lon="5.75432">
        <ele>437.32346</ele>
        <time>2013-05-30T07:24:13Z</time>
      </trkpt>
      <trkpt lat="45.4333" lon="5.75455">
        <ele>438.44562</ele>
        <time>2013-05-30T07:24:19Z</time>
      </trkpt>
      <trkpt lat="45.43337" lon="5.75479">
        <ele>438.90738</ele>
        <time>2013-05-30T07:24:26Z</time>
      </trkpt>
      <trkpt lat="45.43345" lon="5.75503">
        <ele>439.64035</ele>
        <time>2013-05-30T07:24:33Z</time>
      </trkpt>
      <trkpt lat="45.43353" lon="5.7553">
        <ele>439.34293</ele>
        <time>2013-05-30T07:24:40Z</time>
      </trkpt>
      <trkpt lat="45.43371" lon="5.75536">
        <ele>439.22302</ele>
        <time>2013-05-30T07:24:53Z</time>
      </trkpt>
      <trkpt lat="45.43387" lon="5.75521">
        <ele>439.82397</ele>
        <time>2013-05-30T07:25:02Z</time>
      </trkpt>
      <trkpt lat="45.43397" lon="5.75498">
        <ele>453.89722</ele>
        <time>2013-05-30T07:28:21Z</time>
      </trkpt>
      <trkpt lat="45.43415" lon="5.75491">
        <ele>453.58847</ele>
        <time>2013-05-30T07:28:32Z</time>
      </trkpt>
      <trkpt lat="45.43434" lon="5.75488">
        <ele>454.42062</ele>
        <time>2013-05-30T07:28:40Z</time>
      </trkpt>
      <trkpt lat="45.43452" lon="5.75483">
        <ele>451.78345</ele>
        <time>2013-05-30T07:28:46Z</time>
      </trkpt>
      <trkpt lat="45.43471" lon="5.75477">
        <ele>449.63144</ele>
        <time>2013-05-30T07:28:52Z</time>
      </trkpt>
      <trkpt lat="45.43489" lon="5.75469">
        <ele>448.3543</ele>
        <time>2013-05-30T07:28:58Z</time>
      </trkpt>
      <trkpt lat="45.43509" lon="5.7546">
        <ele>447.04147</ele>
        <time>2013-05-30T07:29:04Z</time>
      </trkpt>
      <trkpt lat="45.43529" lon="5.75453">
        <ele>443.11093</ele>
        <time>2013-05-30T07:29:10Z</time>
      </trkpt>
      <trkpt lat="45.43545" lon="5.75436">
        <ele>443.1959</ele>
        <time>2013-05-30T07:29:16Z</time>
      </trkpt>
      <trkpt lat="45.4356" lon="5.75419">
        <ele>442.4372</ele>
        <time>2013-05-30T07:29:23Z</time>
      </trkpt>
      <trkpt lat="45.43578" lon="5.75417">
        <ele>450.34488</ele>
        <time>2013-05-30T07:29:30Z</time>
      </trkpt>
      <trkpt lat="45.43596" lon="5.75415">
        <ele>455.74023</ele>
        <time>2013-05-30T07:29:38Z</time>
      </trkpt>
      <trkpt lat="45.43616" lon="5.75409">
        <ele>464.1284</ele>
        <time>2013-05-30T07:29:47Z</time>
      </trkpt>
      <trkpt lat="45.43598" lon="5.75397">
        <ele>448.18</ele>
        <time>2013-05-30T07:39:49Z</time>
      </trkpt>
      <trkpt lat="45.4358" lon="5.75402">
        <ele>440.59915</ele>
        <time>2013-05-30T07:39:54Z</time>
      </trkpt>
      <trkpt lat="45.43563" lon="5.75411">
        <ele>437.30716</ele>
        <time>2013-05-30T07:39:58Z</time>
      </trkpt>
      <trkpt lat="45.43546" lon="5.75424">
        <ele>436.4714</ele>
        <time>2013-05-30T07:40:02Z</time>
      </trkpt>
      <trkpt lat="45.43536" lon="5.75446">
        <ele>436.45657</ele>
        <time>2013-05-30T07:40:06Z</time>
      </trkpt>
      <trkpt lat="45.43515" lon="5.75456">
        <ele>439.7605</ele>
        <time>2013-05-30T07:40:11Z</time>
      </trkpt>
      <trkpt lat="45.43498" lon="5.75467">
        <ele>440.96265</ele>
        <time>2013-05-30T07:41:08Z</time>
      </trkpt>
      <trkpt lat="45.43481" lon="5.75475">
        <ele>440.50687</ele>
        <time>2013-05-30T07:41:15Z</time>
      </trkpt>
      <trkpt lat="45.43462" lon="5.75485">
        <ele>441.2056</ele>
        <time>2013-05-30T07:42:24Z</time>
      </trkpt>
      <trkpt lat="45.43443" lon="5.75496">
        <ele>440.63318</ele>
        <time>2013-05-30T07:42:30Z</time>
      </trkpt>
      <trkpt lat="45.43423" lon="5.75501">
        <ele>438.42218</ele>
        <time>2013-05-30T07:42:36Z</time>
      </trkpt>
      <trkpt lat="45.43405" lon="5.75507">
        <ele>437.42627</ele>
        <time>2013-05-30T07:42:41Z</time>
      </trkpt>
      <trkpt lat="45.43387" lon="5.75516">
        <ele>436.07288</ele>
        <time>2013-05-30T07:42:47Z</time>
      </trkpt>
      <trkpt lat="45.43371" lon="5.75532">
        <ele>437.81464</ele>
        <time>2013-05-30T07:42:55Z</time>
      </trkpt>
      <trkpt lat="45.43367" lon="5.75558">
        <ele>438.57443</ele>
        <time>2013-05-30T07:43:06Z</time>
      </trkpt>
      <trkpt lat="45.43366" lon="5.75584">
        <ele>440.28705</ele>
        <time>2013-05-30T07:43:16Z</time>
      </trkpt>
      <trkpt lat="45.43358" lon="5.75609">
        <ele>442.6685</ele>
        <time>2013-05-30T07:43:26Z</time>
      </trkpt>
      <trkpt lat="45.43363" lon="5.75636">
        <ele>446.29553</ele>
        <time>2013-05-30T07:43:36Z</time>
      </trkpt>
      <trkpt lat="45.43371" lon="5.75663">
        <ele>447.38382</ele>
        <time>2013-05-30T07:43:44Z</time>
      </trkpt>
      <trkpt lat="45.43378" lon="5.75687">
        <ele>447.7484</ele>
        <time>2013-05-30T07:43:51Z</time>
      </trkpt>
      <trkpt lat="45.43388" lon="5.75711">
        <ele>448.55154</ele>
        <time>2013-05-30T07:43:58Z</time>
      </trkpt>
      <trkpt lat="45.43395" lon="5.75738">
        <ele>448.71307</ele>
        <time>2013-05-30T07:44:05Z</time>
      </trkpt>
      <trkpt lat="45.43402" lon="5.75762">
        <ele>448.6067</ele>
        <time>2013-05-30T07:44:11Z</time>
      </trkpt>
      <trkpt lat="45.43406" lon="5.75788">
        <ele>448.95154</ele>
        <time>2013-05-30T07:44:17Z</time>
      </trkpt>
      <trkpt lat="45.43409" lon="5.75813">
        <ele>448.40198</ele>
        <time>2013-05-30T07:44:23Z</time>
      </trkpt>
      <trkpt lat="45.43418" lon="5.7584">
        <ele>448.3031</ele>
        <time>2013-05-30T07:44:30Z</time>
      </trkpt>
      <trkpt lat="45.43432" lon="5.75861">
        <ele>449.36502</ele>
        <time>2013-05-30T07:44:37Z</time>
      </trkpt>
      <trkpt lat="45.43444" lon="5.75883">
        <ele>449.92</ele>
        <time>2013-05-30T07:44:43Z</time>
      </trkpt>
      <trkpt lat="45.43453" lon="5.75906">
        <ele>449.9064</ele>
        <time>2013-05-30T07:44:49Z</time>
      </trkpt>
      <trkpt lat="45.43457" lon="5.75935">
        <ele>447.10165</ele>
        <time>2013-05-30T07:44:55Z</time>
      </trkpt>
      <trkpt lat="45.4346" lon="5.75962">
        <ele>447.13297</ele>
        <time>2013-05-30T07:45:01Z</time>
      </trkpt>
      <trkpt lat="45.43464" lon="5.7599">
        <ele>448.6115</ele>
        <time>2013-05-30T07:45:07Z</time>
      </trkpt>
      <trkpt lat="45.4347" lon="5.76018">
        <ele>449.34863</ele>
        <time>2013-05-30T07:45:13Z</time>
      </trkpt>
      <trkpt lat="45.43478" lon="5.76047">
        <ele>449.68896</ele>
        <time>2013-05-30T07:45:19Z</time>
      </trkpt>
      <trkpt lat="45.43485" lon="5.76072">
        <ele>449.44464</ele>
        <time>2013-05-30T07:45:24Z</time>
      </trkpt>
      <trkpt lat="45.43491" lon="5.76099">
        <ele>449.20377</ele>
        <time>2013-05-30T07:45:29Z</time>
      </trkpt>
      <trkpt lat="45.43494" lon="5.76128">
        <ele>449.13312</ele>
        <time>2013-05-30T07:45:34Z</time>
      </trkpt>
      <trkpt lat="45.43497" lon="5.76155">
        <ele>449.07944</ele>
        <time>2013-05-30T07:45:39Z</time>
      </trkpt>
      <trkpt lat="45.43499" lon="5.76184">
        <ele>449.27948</ele>
        <time>2013-05-30T07:45:45Z</time>
      </trkpt>
      <trkpt lat="45.43501" lon="5.76212">
        <ele>449.43835</ele>
        <time>2013-05-30T07:45:51Z</time>
      </trkpt>
      <trkpt lat="45.43504" lon="5.7624">
        <ele>449.8174</ele>
        <time>2013-05-30T07:45:57Z</time>
      </trkpt>
      <trkpt lat="45.43509" lon="5.76268">
        <ele>450.08023</ele>
        <time>2013-05-30T07:46:03Z</time>
      </trkpt>
      <trkpt lat="45.43518" lon="5.76294">
        <ele>450.6395</ele>
        <time>2013-05-30T07:46:09Z</time>
      </trkpt>
      <trkpt lat="45.4353" lon="5.76319">
        <ele>450.95602</ele>
        <time>2013-05-30T07:46:15Z</time>
      </trkpt>
      <trkpt lat="45.43543" lon="5.76343">
        <ele>451.34393</ele>
        <time>2013-05-30T07:46:21Z</time>
      </trkpt>
      <trkpt lat="45.43555" lon="5.76363">
        <ele>451.32068</ele>
        <time>2013-05-30T07:46:26Z</time>
      </trkpt>
      <trkpt lat="45.43567" lon="5.76387">
        <ele>451.34778</ele>
        <time>2013-05-30T07:46:32Z</time>
      </trkpt>
      <trkpt lat="45.43581" lon="5.76409">
        <ele>451.49628</ele>
        <time>2013-05-30T07:46:38Z</time>
      </trkpt>
      <trkpt lat="45.43594" lon="5.76427">
        <ele>451.50137</ele>
        <time>2013-05-30T07:46:43Z</time>
      </trkpt>
      <trkpt lat="45.4361" lon="5.76446">
        <ele>451.98584</ele>
        <time>2013-05-30T07:46:49Z</time>
      </trkpt>
      <trkpt lat="45.43628" lon="5.76461">
        <ele>452.15134</ele>
        <time>2013-05-30T07:46:55Z</time>
      </trkpt>
      <trkpt lat="45.43647" lon="5.76475">
        <ele>452.06693</ele>
        <time>2013-05-30T07:47:01Z</time>
      </trkpt>
      <trkpt lat="45.43662" lon="5.76489">
        <ele>452.11746</ele>
        <time>2013-05-30T07:47:06Z</time>
      </trkpt>
      <trkpt lat="45.43672" lon="5.76511">
        <ele>452.40002</ele>
        <time>2013-05-30T07:47:11Z</time>
      </trkpt>
      <trkpt lat="45.43678" lon="5.7654">
        <ele>452.7603</ele>
        <time>2013-05-30T07:47:17Z</time>
      </trkpt>
      <trkpt lat="45.43678" lon="5.76566">
        <ele>453.1275</ele>
        <time>2013-05-30T07:47:22Z</time>
      </trkpt>
      <trkpt lat="45.4368" lon="5.76596">
        <ele>453.23172</ele>
        <time>2013-05-30T07:47:28Z</time>
      </trkpt>
      <trkpt lat="45.43681" lon="5.76623">
        <ele>453.09143</ele>
        <time>2013-05-30T07:47:33Z</time>
      </trkpt>
      <trkpt lat="45.43683" lon="5.76649">
        <ele>452.94446</ele>
        <time>2013-05-30T07:47:38Z</time>
      </trkpt>
      <trkpt lat="45.43685" lon="5.76676">
        <ele>452.67178</ele>
        <time>2013-05-30T07:47:43Z</time>
      </trkpt>
      <trkpt lat="45.43689" lon="5.76702">
        <ele>452.5688</ele>
        <time>2013-05-30T07:47:48Z</time>
      </trkpt>
      <trkpt lat="45.43694" lon="5.76726">
        <ele>452.4716</ele>
        <time>2013-05-30T07:47:53Z</time>
      </trkpt>
      <trkpt lat="45.43698" lon="5.76752">
        <ele>451.1504</ele>
        <time>2013-05-30T07:47:58Z</time>
      </trkpt>
      <trkpt lat="45.437" lon="5.76779">
        <ele>449.73462</ele>
        <time>2013-05-30T07:48:03Z</time>
      </trkpt>
      <trkpt lat="45.437" lon="5.76807">
        <ele>451.0992</ele>
        <time>2013-05-30T07:48:08Z</time>
      </trkpt>
      <trkpt lat="45.437" lon="5.76834">
        <ele>451.91943</ele>
        <time>2013-05-30T07:48:13Z</time>
      </trkpt>
      <trkpt lat="45.437" lon="5.7686">
        <ele>453.74005</ele>
        <time>2013-05-30T07:48:18Z</time>
      </trkpt>
      <trkpt lat="45.43704" lon="5.76887">
        <ele>454.19525</ele>
        <time>2013-05-30T07:48:23Z</time>
      </trkpt>
      <trkpt lat="45.43708" lon="5.76914">
        <ele>454.57748</ele>
        <time>2013-05-30T07:48:28Z</time>
      </trkpt>
      <trkpt lat="45.43715" lon="5.76939">
        <ele>454.17758</ele>
        <time>2013-05-30T07:48:33Z</time>
      </trkpt>
      <trkpt lat="45.43727" lon="5.76964">
        <ele>454.0361</ele>
        <time>2013-05-30T07:48:39Z</time>
      </trkpt>
      <trkpt lat="45.43741" lon="5.7698">
        <ele>454.23972</ele>
        <time>2013-05-30T07:48:44Z</time>
      </trkpt>
      <trkpt lat="45.43759" lon="5.76994">
        <ele>454.90366</ele>
        <time>2013-05-30T07:48:49Z</time>
      </trkpt>
      <trkpt lat="45.43775" lon="5.77005">
        <ele>455.50525</ele>
        <time>2013-05-30T07:48:54Z</time>
      </trkpt>
      <trkpt lat="45.43792" lon="5.77015">
        <ele>455.72626</ele>
        <time>2013-05-30T07:48:59Z</time>
      </trkpt>
      <trkpt lat="45.43809" lon="5.77029">
        <ele>456.25818</ele>
        <time>2013-05-30T07:49:04Z</time>
      </trkpt>
      <trkpt lat="45.43822" lon="5.77048">
        <ele>456.84485</ele>
        <time>2013-05-30T07:49:09Z</time>
      </trkpt>
      <trkpt lat="45.4383" lon="5.77073">
        <ele>456.82657</ele>
        <time>2013-05-30T07:49:14Z</time>
      </trkpt>
      <trkpt lat="45.43834" lon="5.771">
        <ele>456.68198</ele>
        <time>2013-05-30T07:49:19Z</time>
      </trkpt>
      <trkpt lat="45.43839" lon="5.77127">
        <ele>456.25052</ele>
        <time>2013-05-30T07:49:24Z</time>
      </trkpt>
      <trkpt lat="45.43843" lon="5.77154">
        <ele>454.3791</ele>
        <time>2013-05-30T07:49:29Z</time>
      </trkpt>
      <trkpt lat="45.43843" lon="5.77181">
        <ele>454.69083</ele>
        <time>2013-05-30T07:49:34Z</time>
      </trkpt>
      <trkpt lat="45.43841" lon="5.77208">
        <ele>454.71628</ele>
        <time>2013-05-30T07:49:39Z</time>
      </trkpt>
      <trkpt lat="45.43838" lon="5.77238">
        <ele>456.27222</ele>
        <time>2013-05-30T07:49:45Z</time>
      </trkpt>
      <trkpt lat="45.43837" lon="5.77268">
        <ele>458.8893</ele>
        <time>2013-05-30T07:49:51Z</time>
      </trkpt>
      <trkpt lat="45.43846" lon="5.77295">
        <ele>460.75287</ele>
        <time>2013-05-30T07:49:57Z</time>
      </trkpt>
      <trkpt lat="45.43867" lon="5.77309">
        <ele>458.6608</ele>
        <time>2013-05-30T07:50:02Z</time>
      </trkpt>
      <trkpt lat="45.43884" lon="5.77328">
        <ele>457.38562</ele>
        <time>2013-05-30T07:50:07Z</time>
      </trkpt>
      <trkpt lat="45.43879" lon="5.77353">
        <ele>458.7964</ele>
        <time>2013-05-30T07:50:12Z</time>
      </trkpt>
      <trkpt lat="45.43873" lon="5.77377">
        <ele>460.7138</ele>
        <time>2013-05-30T07:50:17Z</time>
      </trkpt>
      <trkpt lat="45.43868" lon="5.77404">
        <ele>463.92535</ele>
        <time>2013-05-30T07:50:23Z</time>
      </trkpt>
      <trkpt lat="45.43861" lon="5.77428">
        <ele>466.80197</ele>
        <time>2013-05-30T07:50:29Z</time>
      </trkpt>
      <trkpt lat="45.43855" lon="5.77454">
        <ele>467.2766</ele>
        <time>2013-05-30T07:50:35Z</time>
      </trkpt>
      <trkpt lat="45.43852" lon="5.7748">
        <ele>467.1525</ele>
        <time>2013-05-30T07:50:43Z</time>
      </trkpt>
      <trkpt lat="45.43868" lon="5.77497">
        <ele>467.06235</ele>
        <time>2013-05-30T07:50:51Z</time>
      </trkpt>
      <trkpt lat="45.43881" lon="5.77514">
        <ele>464.10587</ele>
        <time>2013-05-30T07:50:57Z</time>
      </trkpt>
      <trkpt lat="45.43897" lon="5.7753">
        <ele>462.12115</ele>
        <time>2013-05-30T07:51:03Z</time>
      </trkpt>
      <trkpt lat="45.43914" lon="5.77546">
        <ele>461.57248</ele>
        <time>2013-05-30T07:51:09Z</time>
      </trkpt>
      <trkpt lat="45.4393" lon="5.77563">
        <ele>462.4059</ele>
        <time>2013-05-30T07:51:15Z</time>
      </trkpt>
      <trkpt lat="45.43943" lon="5.77582">
        <ele>463.3942</ele>
        <time>2013-05-30T07:51:21Z</time>
      </trkpt>
      <trkpt lat="45.43956" lon="5.77601">
        <ele>463.23923</ele>
        <time>2013-05-30T07:51:27Z</time>
      </trkpt>
      <trkpt lat="45.4397" lon="5.77621">
        <ele>463.49615</ele>
        <time>2013-05-30T07:51:33Z</time>
      </trkpt>
      <trkpt lat="45.43983" lon="5.77642">
        <ele>462.34933</ele>
        <time>2013-05-30T07:51:39Z</time>
      </trkpt>
      <trkpt lat="45.43993" lon="5.77663">
        <ele>463.47208</ele>
        <time>2013-05-30T07:51:45Z</time>
      </trkpt>
      <trkpt lat="45.44005" lon="5.77685">
        <ele>461.93747</ele>
        <time>2013-05-30T07:51:51Z</time>
      </trkpt>
      <trkpt lat="45.44017" lon="5.77708">
        <ele>460.1841</ele>
        <time>2013-05-30T07:51:57Z</time>
      </trkpt>
      <trkpt lat="45.44029" lon="5.77732">
        <ele>460.16315</ele>
        <time>2013-05-30T07:52:03Z</time>
      </trkpt>
      <trkpt lat="45.4404" lon="5.77757">
        <ele>459.5623</ele>
        <time>2013-05-30T07:52:09Z</time>
      </trkpt>
      <trkpt lat="45.44049" lon="5.77784">
        <ele>459.43405</ele>
        <time>2013-05-30T07:52:15Z</time>
      </trkpt>
      <trkpt lat="45.44057" lon="5.77809">
        <ele>458.9037</ele>
        <time>2013-05-30T07:52:21Z</time>
      </trkpt>
      <trkpt lat="45.44066" lon="5.77833">
        <ele>460.81036</ele>
        <time>2013-05-30T07:52:27Z</time>
      </trkpt>
      <trkpt lat="45.44073" lon="5.77859">
        <ele>461.3944</ele>
        <time>2013-05-30T07:52:33Z</time>
      </trkpt>
      <trkpt lat="45.44081" lon="5.77886">
        <ele>460.8889</ele>
        <time>2013-05-30T07:52:39Z</time>
      </trkpt>
      <trkpt lat="45.44088" lon="5.77909">
        <ele>460.87384</ele>
        <time>2013-05-30T07:52:45Z</time>
      </trkpt>
      <trkpt lat="45.44096" lon="5.77937">
        <ele>460.90793</ele>
        <time>2013-05-30T07:52:52Z</time>
      </trkpt>
      <trkpt lat="45.44104" lon="5.77966">
        <ele>461.51923</ele>
        <time>2013-05-30T07:52:58Z</time>
      </trkpt>
      <trkpt lat="45.4411" lon="5.77993">
        <ele>462.35986</ele>
        <time>2013-05-30T07:53:04Z</time>
      </trkpt>
      <trkpt lat="45.44117" lon="5.7802">
        <ele>463.3267</ele>
        <time>2013-05-30T07:53:10Z</time>
      </trkpt>
      <trkpt lat="45.44123" lon="5.78049">
        <ele>464.1056</ele>
        <time>2013-05-30T07:53:16Z</time>
      </trkpt>
      <trkpt lat="45.44129" lon="5.78077">
        <ele>463.93872</ele>
        <time>2013-05-30T07:53:22Z</time>
      </trkpt>
      <trkpt lat="45.44135" lon="5.78105">
        <ele>465.1841</ele>
        <time>2013-05-30T07:53:28Z</time>
      </trkpt>
      <trkpt lat="45.4414" lon="5.78133">
        <ele>466.1079</ele>
        <time>2013-05-30T07:53:34Z</time>
      </trkpt>
      <trkpt lat="45.44147" lon="5.7816">
        <ele>467.3413</ele>
        <time>2013-05-30T07:53:40Z</time>
      </trkpt>
      <trkpt lat="45.44156" lon="5.78182">
        <ele>471.64954</ele>
        <time>2013-05-30T07:54:27Z</time>
      </trkpt>
      <trkpt lat="45.44166" lon="5.78205">
        <ele>470.95862</ele>
        <time>2013-05-30T07:54:33Z</time>
      </trkpt>
      <trkpt lat="45.44181" lon="5.78222">
        <ele>470.09653</ele>
        <time>2013-05-30T07:54:38Z</time>
      </trkpt>
      <trkpt lat="45.44195" lon="5.7824">
        <ele>470.4774</ele>
        <time>2013-05-30T07:54:43Z</time>
      </trkpt>
      <trkpt lat="45.44208" lon="5.78258">
        <ele>467.96124</ele>
        <time>2013-05-30T07:54:48Z</time>
      </trkpt>
      <trkpt lat="45.44226" lon="5.78269">
        <ele>466.54794</ele>
        <time>2013-05-30T07:54:53Z</time>
      </trkpt>
      <trkpt lat="45.44243" lon="5.78277">
        <ele>469.3375</ele>
        <time>2013-05-30T07:55:49Z</time>
      </trkpt>
      <trkpt lat="45.44263" lon="5.78271">
        <ele>478.98514</ele>
        <time>2013-05-30T07:57:45Z</time>
      </trkpt>
      <trkpt lat="45.44278" lon="5.78253">
        <ele>480.5093</ele>
        <time>2013-05-30T07:57:53Z</time>
      </trkpt>
      <trkpt lat="45.44293" lon="5.78238">
        <ele>480.366</ele>
        <time>2013-05-30T07:58:00Z</time>
      </trkpt>
      <trkpt lat="45.44311" lon="5.78236">
        <ele>482.14435</ele>
        <time>2013-05-30T07:58:07Z</time>
      </trkpt>
      <trkpt lat="45.44332" lon="5.78236">
        <ele>481.76016</ele>
        <time>2013-05-30T07:58:14Z</time>
      </trkpt>
      <trkpt lat="45.44351" lon="5.78238">
        <ele>481.9273</ele>
        <time>2013-05-30T07:58:20Z</time>
      </trkpt>
      <trkpt lat="45.4437" lon="5.7824">
        <ele>480.01773</ele>
        <time>2013-05-30T07:58:26Z</time>
      </trkpt>
      <trkpt lat="45.44389" lon="5.78248">
        <ele>478.20795</ele>
        <time>2013-05-30T07:58:32Z</time>
      </trkpt>
      <trkpt lat="45.44408" lon="5.78255">
        <ele>477.74643</ele>
        <time>2013-05-30T07:58:38Z</time>
      </trkpt>
      <trkpt lat="45.44427" lon="5.78256">
        <ele>477.97128</ele>
        <time>2013-05-30T07:58:44Z</time>
      </trkpt>
      <trkpt lat="45.44448" lon="5.78256">
        <ele>477.33304</ele>
        <time>2013-05-30T07:58:50Z</time>
      </trkpt>
      <trkpt lat="45.44466" lon="5.78263">
        <ele>475.85107</ele>
        <time>2013-05-30T07:58:54Z</time>
      </trkpt>
      <trkpt lat="45.44486" lon="5.78274">
        <ele>474.66617</ele>
        <time>2013-05-30T07:58:58Z</time>
      </trkpt>
      <trkpt lat="45.44505" lon="5.78284">
        <ele>473.71936</ele>
        <time>2013-05-30T07:59:02Z</time>
      </trkpt>
      <trkpt lat="45.44523" lon="5.78293">
        <ele>473.28854</ele>
        <time>2013-05-30T07:59:06Z</time>
      </trkpt>
      <trkpt lat="45.44541" lon="5.783">
        <ele>472.94598</ele>
        <time>2013-05-30T07:59:10Z</time>
      </trkpt>
      <trkpt lat="45.44562" lon="5.78305">
        <ele>472.63083</ele>
        <time>2013-05-30T07:59:15Z</time>
      </trkpt>
      <trkpt lat="45.44583" lon="5.78308">
        <ele>473.3738</ele>
        <time>2013-05-30T07:59:20Z</time>
      </trkpt>
      <trkpt lat="45.44601" lon="5.78311">
        <ele>473.9812</ele>
        <time>2013-05-30T07:59:25Z</time>
      </trkpt>
      <trkpt lat="45.44622" lon="5.78321">
        <ele>474.56293</ele>
        <time>2013-05-30T07:59:31Z</time>
      </trkpt>
      <trkpt lat="45.44641" lon="5.7833">
        <ele>474.44278</ele>
        <time>2013-05-30T07:59:36Z</time>
      </trkpt>
      <trkpt lat="45.44661" lon="5.78338">
        <ele>472.46698</ele>
        <time>2013-05-30T07:59:41Z</time>
      </trkpt>
      <trkpt lat="45.4468" lon="5.78344">
        <ele>472.28836</ele>
        <time>2013-05-30T07:59:46Z</time>
      </trkpt>
      <trkpt lat="45.44698" lon="5.7835">
        <ele>472.6157</ele>
        <time>2013-05-30T07:59:51Z</time>
      </trkpt>
      <trkpt lat="45.44717" lon="5.78359">
        <ele>470.85156</ele>
        <time>2013-05-30T07:59:56Z</time>
      </trkpt>
      <trkpt lat="45.44736" lon="5.78369">
        <ele>470.78333</ele>
        <time>2013-05-30T08:00:01Z</time>
      </trkpt>
      <trkpt lat="45.44754" lon="5.78379">
        <ele>471.05807</ele>
        <time>2013-05-30T08:00:06Z</time>
      </trkpt>
      <trkpt lat="45.44772" lon="5.78387">
        <ele>471.64386</ele>
        <time>2013-05-30T08:00:11Z</time>
      </trkpt>
      <trkpt lat="45.44793" lon="5.78395">
        <ele>472.29852</ele>
        <time>2013-05-30T08:00:17Z</time>
      </trkpt>
      <trkpt lat="45.44813" lon="5.78403">
        <ele>473.12885</ele>
        <time>2013-05-30T08:00:23Z</time>
      </trkpt>
      <trkpt lat="45.44832" lon="5.78408">
        <ele>474.32986</ele>
        <time>2013-05-30T08:00:29Z</time>
      </trkpt>
      <trkpt lat="45.44813" lon="5.78406">
        <ele>478.409</ele>
        <time>2013-05-30T08:01:52Z</time>
      </trkpt>
      <trkpt lat="45.44832" lon="5.78406">
        <ele>474.99792</ele>
        <time>2013-05-30T08:02:19Z</time>
      </trkpt>
      <trkpt lat="45.44851" lon="5.7841">
        <ele>475.36093</ele>
        <time>2013-05-30T08:02:26Z</time>
      </trkpt>
      <trkpt lat="45.44869" lon="5.78419">
        <ele>472.70868</ele>
        <time>2013-05-30T08:02:34Z</time>
      </trkpt>
      <trkpt lat="45.44881" lon="5.78438">
        <ele>472.61246</ele>
        <time>2013-05-30T08:02:41Z</time>
      </trkpt>
      <trkpt lat="45.44888" lon="5.78462">
        <ele>471.24112</ele>
        <time>2013-05-30T08:02:51Z</time>
      </trkpt>
      <trkpt lat="45.44882" lon="5.78434">
        <ele>467.63065</ele>
        <time>2013-05-30T08:03:24Z</time>
      </trkpt>
      <trkpt lat="45.44868" lon="5.78412">
        <ele>469.33853</ele>
        <time>2013-05-30T08:03:29Z</time>
      </trkpt>
      <trkpt lat="45.44849" lon="5.78409">
        <ele>471.20425</ele>
        <time>2013-05-30T08:03:34Z</time>
      </trkpt>
      <trkpt lat="45.44829" lon="5.78406">
        <ele>472.2397</ele>
        <time>2013-05-30T08:03:39Z</time>
      </trkpt>
      <trkpt lat="45.44811" lon="5.784">
        <ele>472.27194</ele>
        <time>2013-05-30T08:03:43Z</time>
      </trkpt>
      <trkpt lat="45.44792" lon="5.78393">
        <ele>470.69073</ele>
        <time>2013-05-30T08:03:47Z</time>
      </trkpt>
      <trkpt lat="45.44772" lon="5.78384">
        <ele>470.6346</ele>
        <time>2013-05-30T08:03:52Z</time>
      </trkpt>
      <trkpt lat="45.44752" lon="5.78375">
        <ele>470.34006</ele>
        <time>2013-05-30T08:03:57Z</time>
      </trkpt>
      <trkpt lat="45.44733" lon="5.78364">
        <ele>470.3222</ele>
        <time>2013-05-30T08:04:02Z</time>
      </trkpt>
      <trkpt lat="45.44713" lon="5.78353">
        <ele>469.72647</ele>
        <time>2013-05-30T08:04:08Z</time>
      </trkpt>
      <trkpt lat="45.44695" lon="5.78347">
        <ele>469.72824</ele>
        <time>2013-05-30T08:04:13Z</time>
      </trkpt>
      <trkpt lat="45.44675" lon="5.78343">
        <ele>469.8228</ele>
        <time>2013-05-30T08:04:18Z</time>
      </trkpt>
      <trkpt lat="45.44656" lon="5.78337">
        <ele>469.1516</ele>
        <time>2013-05-30T08:04:23Z</time>
      </trkpt>
      <trkpt lat="45.44637" lon="5.78329">
        <ele>469.289</ele>
        <time>2013-05-30T08:04:28Z</time>
      </trkpt>
      <trkpt lat="45.4462" lon="5.78321">
        <ele>468.14633</ele>
        <time>2013-05-30T08:04:33Z</time>
      </trkpt>
      <trkpt lat="45.446" lon="5.7831">
        <ele>468.53702</ele>
        <time>2013-05-30T08:04:39Z</time>
      </trkpt>
      <trkpt lat="45.44579" lon="5.78305">
        <ele>470.9667</ele>
        <time>2013-05-30T08:04:44Z</time>
      </trkpt>
      <trkpt lat="45.44558" lon="5.78302">
        <ele>470.91495</ele>
        <time>2013-05-30T08:04:49Z</time>
      </trkpt>
      <trkpt lat="45.44538" lon="5.78296">
        <ele>470.49545</ele>
        <time>2013-05-30T08:04:54Z</time>
      </trkpt>
      <trkpt lat="45.44517" lon="5.78289">
        <ele>468.5247</ele>
        <time>2013-05-30T08:04:59Z</time>
      </trkpt>
      <trkpt lat="45.44498" lon="5.78281">
        <ele>468.3502</ele>
        <time>2013-05-30T08:05:04Z</time>
      </trkpt>
      <trkpt lat="45.4448" lon="5.78271">
        <ele>469.1634</ele>
        <time>2013-05-30T08:05:09Z</time>
      </trkpt>
      <trkpt lat="45.44462" lon="5.78258">
        <ele>470.98383</ele>
        <time>2013-05-30T08:05:15Z</time>
      </trkpt>
      <trkpt lat="45.44443" lon="5.78254">
        <ele>470.51566</ele>
        <time>2013-05-30T08:05:22Z</time>
      </trkpt>
      <trkpt lat="45.44451" lon="5.78277">
        <ele>472.30576</ele>
        <time>2013-05-30T08:05:41Z</time>
      </trkpt>
      <trkpt lat="45.44468" lon="5.78291">
        <ele>473.12128</ele>
        <time>2013-05-30T08:05:51Z</time>
      </trkpt>
      <trkpt lat="45.44486" lon="5.78301">
        <ele>474.8508</ele>
        <time>2013-05-30T08:06:00Z</time>
      </trkpt>
      <trkpt lat="45.44503" lon="5.78308">
        <ele>475.93893</ele>
        <time>2013-05-30T08:06:08Z</time>
      </trkpt>
      <trkpt lat="45.4452" lon="5.78321">
        <ele>474.3098</ele>
        <time>2013-05-30T08:06:16Z</time>
      </trkpt>
      <trkpt lat="45.44535" lon="5.78335">
        <ele>471.58878</ele>
        <time>2013-05-30T08:06:27Z</time>
      </trkpt>
      <trkpt lat="45.44555" lon="5.78338">
        <ele>475.34396</ele>
        <time>2013-05-30T08:06:37Z</time>
      </trkpt>
      <trkpt lat="45.44572" lon="5.78349">
        <ele>480.25446</ele>
        <time>2013-05-30T08:06:48Z</time>
      </trkpt>
      <trkpt lat="45.44587" lon="5.78363">
        <ele>478.86935</ele>
        <time>2013-05-30T08:06:56Z</time>
      </trkpt>
      <trkpt lat="45.44603" lon="5.7838">
        <ele>483.64407</ele>
        <time>2013-05-30T08:07:06Z</time>
      </trkpt>
      <trkpt lat="45.44617" lon="5.78396">
        <ele>482.77298</ele>
        <time>2013-05-30T08:07:15Z</time>
      </trkpt>
      <trkpt lat="45.44631" lon="5.78413">
        <ele>481.15063</ele>
        <time>2013-05-30T08:07:39Z</time>
      </trkpt>
      <trkpt lat="45.44645" lon="5.78432">
        <ele>480.83255</ele>
        <time>2013-05-30T08:08:20Z</time>
      </trkpt>
      <trkpt lat="45.4466" lon="5.78448">
        <ele>483.9247</ele>
        <time>2013-05-30T08:08:32Z</time>
      </trkpt>
      <trkpt lat="45.44677" lon="5.78457">
        <ele>489.1819</ele>
        <time>2013-05-30T08:08:44Z</time>
      </trkpt>
      <trkpt lat="45.44691" lon="5.78476">
        <ele>483.88184</ele>
        <time>2013-05-30T08:08:53Z</time>
      </trkpt>
      <trkpt lat="45.44704" lon="5.78496">
        <ele>478.72528</ele>
        <time>2013-05-30T08:09:01Z</time>
      </trkpt>
      <trkpt lat="45.44719" lon="5.7851">
        <ele>484.23608</ele>
        <time>2013-05-30T08:09:48Z</time>
      </trkpt>
      <trkpt lat="45.44737" lon="5.7852">
        <ele>484.1355</ele>
        <time>2013-05-30T08:09:59Z</time>
      </trkpt>
      <trkpt lat="45.44756" lon="5.78526">
        <ele>485.55893</ele>
        <time>2013-05-30T08:10:11Z</time>
      </trkpt>
      <trkpt lat="45.44773" lon="5.78532">
        <ele>487.3585</ele>
        <time>2013-05-30T08:10:22Z</time>
      </trkpt>
      <trkpt lat="45.44791" lon="5.78541">
        <ele>485.92447</ele>
        <time>2013-05-30T08:10:35Z</time>
      </trkpt>
      <trkpt lat="45.44808" lon="5.78552">
        <ele>483.97403</ele>
        <time>2013-05-30T08:10:49Z</time>
      </trkpt>
      <trkpt lat="45.44826" lon="5.78558">
        <ele>487.79416</ele>
        <time>2013-05-30T08:11:04Z</time>
      </trkpt>
      <trkpt lat="45.44843" lon="5.7857">
        <ele>487.27188</ele>
        <time>2013-05-30T08:11:17Z</time>
      </trkpt>
      <trkpt lat="45.4486" lon="5.7858">
        <ele>498.8141</ele>
        <time>2013-05-30T08:12:31Z</time>
      </trkpt>
      <trkpt lat="45.44871" lon="5.786">
        <ele>506.7867</ele>
        <time>2013-05-30T08:13:43Z</time>
      </trkpt>
      <trkpt lat="45.44881" lon="5.78622">
        <ele>509.0426</ele>
        <time>2013-05-30T08:14:04Z</time>
      </trkpt>
      <trkpt lat="45.44894" lon="5.78641">
        <ele>515.09247</ele>
        <time>2013-05-30T08:14:56Z</time>
      </trkpt>
      <trkpt lat="45.44896" lon="5.78667">
        <ele>510.16638</ele>
        <time>2013-05-30T08:15:23Z</time>
      </trkpt>
      <trkpt lat="45.44901" lon="5.78692">
        <ele>509.21988</ele>
        <time>2013-05-30T08:15:52Z</time>
      </trkpt>
      <trkpt lat="45.44907" lon="5.78718">
        <ele>504.9379</ele>
        <time>2013-05-30T08:16:21Z</time>
      </trkpt>
      <trkpt lat="45.4491" lon="5.78744">
        <ele>507.26303</ele>
        <time>2013-05-30T08:16:51Z</time>
      </trkpt>
      <trkpt lat="45.44916" lon="5.78768">
        <ele>509.99615</ele>
        <time>2013-05-30T08:17:22Z</time>
      </trkpt>
      <trkpt lat="45.44929" lon="5.78787">
        <ele>515.099</ele>
        <time>2013-05-30T08:17:47Z</time>
      </trkpt>
      <trkpt lat="45.44934" lon="5.78811">
        <ele>520.94025</ele>
        <time>2013-05-30T08:18:15Z</time>
      </trkpt>
      <trkpt lat="45.44945" lon="5.78832">
        <ele>529.01086</ele>
        <time>2013-05-30T08:18:54Z</time>
      </trkpt>
      <trkpt lat="45.44964" lon="5.7883">
        <ele>530.2174</ele>
        <time>2013-05-30T08:19:48Z</time>
      </trkpt>
      <trkpt lat="45.44981" lon="5.78842">
        <ele>546.36804</ele>
        <time>2013-05-30T08:20:08Z</time>
      </trkpt>
      <trkpt lat="45.44996" lon="5.78858">
        <ele>555.63684</ele>
        <time>2013-05-30T08:20:28Z</time>
      </trkpt>
      <trkpt lat="45.45" lon="5.78885">
        <ele>565.92194</ele>
        <time>2013-05-30T08:21:01Z</time>
      </trkpt>
      <trkpt lat="45.45008" lon="5.7891">
        <ele>564.7704</ele>
        <time>2013-05-30T08:21:11Z</time>
      </trkpt>
      <trkpt lat="45.45018" lon="5.78933">
        <ele>558.15045</ele>
        <time>2013-05-30T08:21:23Z</time>
      </trkpt>
      <trkpt lat="45.45032" lon="5.78949">
        <ele>564.1911</ele>
        <time>2013-05-30T08:21:38Z</time>
      </trkpt>
      <trkpt lat="45.45041" lon="5.78974">
        <ele>567.392</ele>
        <time>2013-05-30T08:24:22Z</time>
      </trkpt>
      <trkpt lat="45.45055" lon="5.7899">
        <ele>565.43475</ele>
        <time>2013-05-30T08:24:49Z</time>
      </trkpt>
      <trkpt lat="45.4506" lon="5.79015">
        <ele>567.09863</ele>
        <time>2013-05-30T08:24:58Z</time>
      </trkpt>
      <trkpt lat="45.45066" lon="5.79041">
        <ele>574.63214</ele>
        <time>2013-05-30T08:25:10Z</time>
      </trkpt>
      <trkpt lat="45.45072" lon="5.79067">
        <ele>578.2613</ele>
        <time>2013-05-30T08:25:23Z</time>
      </trkpt>
      <trkpt lat="45.45074" lon="5.79093">
        <ele>577.83716</ele>
        <time>2013-05-30T08:25:36Z</time>
      </trkpt>
      <trkpt lat="45.45084" lon="5.79116">
        <ele>572.8843</ele>
        <time>2013-05-30T08:25:48Z</time>
      </trkpt>
      <trkpt lat="45.45095" lon="5.79136">
        <ele>574.5936</ele>
        <time>2013-05-30T08:26:01Z</time>
      </trkpt>
      <trkpt lat="45.45113" lon="5.79147">
        <ele>579.143</ele>
        <time>2013-05-30T08:26:14Z</time>
      </trkpt>
      <trkpt lat="45.45131" lon="5.79149">
        <ele>590.8412</ele>
        <time>2013-05-30T08:26:27Z</time>
      </trkpt>
      <trkpt lat="45.45149" lon="5.79155">
        <ele>605.3869</ele>
        <time>2013-05-30T08:26:44Z</time>
      </trkpt>
      <trkpt lat="45.45168" lon="5.79155">
        <ele>610.4305</ele>
        <time>2013-05-30T08:26:54Z</time>
      </trkpt>
      <trkpt lat="45.45187" lon="5.79156">
        <ele>609.7175</ele>
        <time>2013-05-30T08:27:03Z</time>
      </trkpt>
      <trkpt lat="45.45205" lon="5.79163">
        <ele>615.96783</ele>
        <time>2013-05-30T08:27:21Z</time>
      </trkpt>
      <trkpt lat="45.45223" lon="5.79159">
        <ele>614.9671</ele>
        <time>2013-05-30T08:27:29Z</time>
      </trkpt>
      <trkpt lat="45.45241" lon="5.79165">
        <ele>619.0826</ele>
        <time>2013-05-30T08:27:39Z</time>
      </trkpt>
      <trkpt lat="45.45258" lon="5.79174">
        <ele>614.98865</ele>
        <time>2013-05-30T08:27:46Z</time>
      </trkpt>
      <trkpt lat="45.45277" lon="5.79172">
        <ele>618.2987</ele>
        <time>2013-05-30T08:27:56Z</time>
      </trkpt>
      <trkpt lat="45.45297" lon="5.79168">
        <ele>623.5743</ele>
        <time>2013-05-30T08:28:08Z</time>
      </trkpt>
      <trkpt lat="45.45315" lon="5.79175">
        <ele>628.43915</ele>
        <time>2013-05-30T08:28:18Z</time>
      </trkpt>
      <trkpt lat="45.45334" lon="5.7918">
        <ele>622.8649</ele>
        <time>2013-05-30T08:28:24Z</time>
      </trkpt>
      <trkpt lat="45.4535" lon="5.79195">
        <ele>609.4592</ele>
        <time>2013-05-30T08:28:30Z</time>
      </trkpt>
      <trkpt lat="45.45358" lon="5.79219">
        <ele>602.5125</ele>
        <time>2013-05-30T08:28:43Z</time>
      </trkpt>
      <trkpt lat="45.4536" lon="5.79245">
        <ele>602.2793</ele>
        <time>2013-05-30T08:29:01Z</time>
      </trkpt>
      <trkpt lat="45.45364" lon="5.79273">
        <ele>604.77814</ele>
        <time>2013-05-30T08:29:09Z</time>
      </trkpt>
      <trkpt lat="45.45368" lon="5.79299">
        <ele>610.12445</ele>
        <time>2013-05-30T08:29:17Z</time>
      </trkpt>
      <trkpt lat="45.45372" lon="5.79324">
        <ele>616.0375</ele>
        <time>2013-05-30T08:29:25Z</time>
      </trkpt>
      <trkpt lat="45.45376" lon="5.79353">
        <ele>617.216</ele>
        <time>2013-05-30T08:29:34Z</time>
      </trkpt>
      <trkpt lat="45.45382" lon="5.79378">
        <ele>615.1658</ele>
        <time>2013-05-30T08:29:42Z</time>
      </trkpt>
      <trkpt lat="45.45391" lon="5.79403">
        <ele>613.5497</ele>
        <time>2013-05-30T08:29:50Z</time>
      </trkpt>
      <trkpt lat="45.45401" lon="5.79425">
        <ele>612.0801</ele>
        <time>2013-05-30T08:29:57Z</time>
      </trkpt>
      <trkpt lat="45.45411" lon="5.79448">
        <ele>610.7994</ele>
        <time>2013-05-30T08:30:04Z</time>
      </trkpt>
      <trkpt lat="45.4542" lon="5.79471">
        <ele>609.2139</ele>
        <time>2013-05-30T08:30:11Z</time>
      </trkpt>
      <trkpt lat="45.45429" lon="5.79493">
        <ele>612.37067</ele>
        <time>2013-05-30T08:30:18Z</time>
      </trkpt>
      <trkpt lat="45.45436" lon="5.79518">
        <ele>613.9638</ele>
        <time>2013-05-30T08:30:25Z</time>
      </trkpt>
      <trkpt lat="45.45436" lon="5.79547">
        <ele>611.78394</ele>
        <time>2013-05-30T08:30:33Z</time>
      </trkpt>
      <trkpt lat="45.45438" lon="5.79573">
        <ele>614.38495</ele>
        <time>2013-05-30T08:30:40Z</time>
      </trkpt>
      <trkpt lat="45.45439" lon="5.79601">
        <ele>613.7543</ele>
        <time>2013-05-30T08:30:47Z</time>
      </trkpt>
      <trkpt lat="45.45436" lon="5.79629">
        <ele>614.25214</ele>
        <time>2013-05-30T08:30:54Z</time>
      </trkpt>
      <trkpt lat="45.45426" lon="5.79655">
        <ele>612.96094</ele>
        <time>2013-05-30T08:31:01Z</time>
      </trkpt>
      <trkpt lat="45.45415" lon="5.79678">
        <ele>611.2603</ele>
        <time>2013-05-30T08:31:07Z</time>
      </trkpt>
      <trkpt lat="45.45405" lon="5.79702">
        <ele>610.6673</ele>
        <time>2013-05-30T08:31:14Z</time>
      </trkpt>
      <trkpt lat="45.45393" lon="5.79723">
        <ele>609.42285</ele>
        <time>2013-05-30T08:31:20Z</time>
      </trkpt>
      <trkpt lat="45.45379" lon="5.7974">
        <ele>606.4202</ele>
        <time>2013-05-30T08:31:26Z</time>
      </trkpt>
      <trkpt lat="45.45365" lon="5.79759">
        <ele>606.08624</ele>
        <time>2013-05-30T08:31:33Z</time>
      </trkpt>
      <trkpt lat="45.45351" lon="5.79778">
        <ele>606.74133</ele>
        <time>2013-05-30T08:31:40Z</time>
      </trkpt>
      <trkpt lat="45.45339" lon="5.79797">
        <ele>608.10443</ele>
        <time>2013-05-30T08:31:47Z</time>
      </trkpt>
      <trkpt lat="45.45327" lon="5.79818">
        <ele>608.0195</ele>
        <time>2013-05-30T08:31:54Z</time>
      </trkpt>
      <trkpt lat="45.45316" lon="5.79841">
        <ele>607.86957</ele>
        <time>2013-05-30T08:32:02Z</time>
      </trkpt>
      <trkpt lat="45.45309" lon="5.79868">
        <ele>611.5381</ele>
        <time>2013-05-30T08:32:10Z</time>
      </trkpt>
      <trkpt lat="45.45302" lon="5.79894">
        <ele>614.48267</ele>
        <time>2013-05-30T08:32:18Z</time>
      </trkpt>
      <trkpt lat="45.45296" lon="5.7992">
        <ele>615.85376</ele>
        <time>2013-05-30T08:32:24Z</time>
      </trkpt>
      <trkpt lat="45.45296" lon="5.79947">
        <ele>617.9324</ele>
        <time>2013-05-30T08:32:30Z</time>
      </trkpt>
      <trkpt lat="45.45295" lon="5.79975">
        <ele>617.13007</ele>
        <time>2013-05-30T08:32:36Z</time>
      </trkpt>
      <trkpt lat="45.45294" lon="5.80001">
        <ele>616.20197</ele>
        <time>2013-05-30T08:32:42Z</time>
      </trkpt>
      <trkpt lat="45.45298" lon="5.80026">
        <ele>614.5113</ele>
        <time>2013-05-30T08:32:48Z</time>
      </trkpt>
      <trkpt lat="45.45302" lon="5.80052">
        <ele>614.35767</ele>
        <time>2013-05-30T08:32:54Z</time>
      </trkpt>
      <trkpt lat="45.45309" lon="5.80076">
        <ele>615.96704</ele>
        <time>2013-05-30T08:33:00Z</time>
      </trkpt>
      <trkpt lat="45.45318" lon="5.80099">
        <ele>620.3078</ele>
        <time>2013-05-30T08:33:06Z</time>
      </trkpt>
      <trkpt lat="45.45327" lon="5.80122">
        <ele>621.7498</ele>
        <time>2013-05-30T08:33:12Z</time>
      </trkpt>
      <trkpt lat="45.4534" lon="5.80145">
        <ele>621.6941</ele>
        <time>2013-05-30T08:33:19Z</time>
      </trkpt>
      <trkpt lat="45.45354" lon="5.80165">
        <ele>622.8884</ele>
        <time>2013-05-30T08:33:26Z</time>
      </trkpt>
      <trkpt lat="45.45371" lon="5.80183">
        <ele>623.2804</ele>
        <time>2013-05-30T08:33:33Z</time>
      </trkpt>
      <trkpt lat="45.45386" lon="5.80198">
        <ele>622.66174</ele>
        <time>2013-05-30T08:33:39Z</time>
      </trkpt>
      <trkpt lat="45.45405" lon="5.80212">
        <ele>624.2903</ele>
        <time>2013-05-30T08:33:46Z</time>
      </trkpt>
      <trkpt lat="45.45424" lon="5.80222">
        <ele>627.45825</ele>
        <time>2013-05-30T08:33:53Z</time>
      </trkpt>
      <trkpt lat="45.45442" lon="5.80227">
        <ele>629.8575</ele>
        <time>2013-05-30T08:34:01Z</time>
      </trkpt>
      <trkpt lat="45.45462" lon="5.80229">
        <ele>629.33276</ele>
        <time>2013-05-30T08:34:09Z</time>
      </trkpt>
      <trkpt lat="45.45482" lon="5.80227">
        <ele>628.4076</ele>
        <time>2013-05-30T08:34:17Z</time>
      </trkpt>
      <trkpt lat="45.45501" lon="5.80226">
        <ele>630.5058</ele>
        <time>2013-05-30T08:34:24Z</time>
      </trkpt>
      <trkpt lat="45.4552" lon="5.80224">
        <ele>630.8749</ele>
        <time>2013-05-30T08:34:32Z</time>
      </trkpt>
      <trkpt lat="45.45539" lon="5.80222">
        <ele>630.08356</ele>
        <time>2013-05-30T08:34:40Z</time>
      </trkpt>
      <trkpt lat="45.45558" lon="5.80218">
        <ele>635.30554</ele>
        <time>2013-05-30T08:34:48Z</time>
      </trkpt>
      <trkpt lat="45.45577" lon="5.80217">
        <ele>637.9991</ele>
        <time>2013-05-30T08:34:55Z</time>
      </trkpt>
      <trkpt lat="45.45596" lon="5.80216">
        <ele>636.32983</ele>
        <time>2013-05-30T08:35:02Z</time>
      </trkpt>
      <trkpt lat="45.45614" lon="5.80211">
        <ele>637.16614</ele>
        <time>2013-05-30T08:35:09Z</time>
      </trkpt>
      <trkpt lat="45.45632" lon="5.8021">
        <ele>637.2502</ele>
        <time>2013-05-30T08:35:18Z</time>
      </trkpt>
      <trkpt lat="45.45652" lon="5.80215">
        <ele>642.09644</ele>
        <time>2013-05-30T08:35:26Z</time>
      </trkpt>
      <trkpt lat="45.45669" lon="5.8023">
        <ele>643.37085</ele>
        <time>2013-05-30T08:35:32Z</time>
      </trkpt>
      <trkpt lat="45.45683" lon="5.80248">
        <ele>641.99</ele>
        <time>2013-05-30T08:35:38Z</time>
      </trkpt>
      <trkpt lat="45.45696" lon="5.80268">
        <ele>640.6939</ele>
        <time>2013-05-30T08:35:45Z</time>
      </trkpt>
      <trkpt lat="45.45707" lon="5.8029">
        <ele>638.3913</ele>
        <time>2013-05-30T08:35:53Z</time>
      </trkpt>
      <trkpt lat="45.45722" lon="5.8031">
        <ele>640.8039</ele>
        <time>2013-05-30T08:36:01Z</time>
      </trkpt>
      <trkpt lat="45.45735" lon="5.8033">
        <ele>643.903</ele>
        <time>2013-05-30T08:36:08Z</time>
      </trkpt>
      <trkpt lat="45.45747" lon="5.80352">
        <ele>645.76245</ele>
        <time>2013-05-30T08:36:15Z</time>
      </trkpt>
      <trkpt lat="45.45761" lon="5.80374">
        <ele>646.717</ele>
        <time>2013-05-30T08:36:22Z</time>
      </trkpt>
      <trkpt lat="45.45773" lon="5.80394">
        <ele>648.44226</ele>
        <time>2013-05-30T08:36:28Z</time>
      </trkpt>
      <trkpt lat="45.45785" lon="5.80414">
        <ele>649.9</ele>
        <time>2013-05-30T08:36:34Z</time>
      </trkpt>
      <trkpt lat="45.45799" lon="5.80436">
        <ele>651.8171</ele>
        <time>2013-05-30T08:36:41Z</time>
      </trkpt>
      <trkpt lat="45.4581" lon="5.80456">
        <ele>655.3663</ele>
        <time>2013-05-30T08:36:47Z</time>
      </trkpt>
      <trkpt lat="45.45821" lon="5.80481">
        <ele>656.43665</ele>
        <time>2013-05-30T08:36:54Z</time>
      </trkpt>
      <trkpt lat="45.45831" lon="5.80503">
        <ele>656.6986</ele>
        <time>2013-05-30T08:37:00Z</time>
      </trkpt>
      <trkpt lat="45.45841" lon="5.80526">
        <ele>657.38</ele>
        <time>2013-05-30T08:37:06Z</time>
      </trkpt>
      <trkpt lat="45.45854" lon="5.80548">
        <ele>656.86584</ele>
        <time>2013-05-30T08:37:13Z</time>
      </trkpt>
      <trkpt lat="45.45864" lon="5.8057">
        <ele>655.60284</ele>
        <time>2013-05-30T08:37:20Z</time>
      </trkpt>
      <trkpt lat="45.45875" lon="5.80593">
        <ele>651.1724</ele>
        <time>2013-05-30T08:37:27Z</time>
      </trkpt>
      <trkpt lat="45.45883" lon="5.80619">
        <ele>649.02527</ele>
        <time>2013-05-30T08:37:34Z</time>
      </trkpt>
      <trkpt lat="45.45889" lon="5.80646">
        <ele>654.1544</ele>
        <time>2013-05-30T08:37:41Z</time>
      </trkpt>
      <trkpt lat="45.4589" lon="5.80675">
        <ele>661.80756</ele>
        <time>2013-05-30T08:37:48Z</time>
      </trkpt>
      <trkpt lat="45.45885" lon="5.80701">
        <ele>665.3871</ele>
        <time>2013-05-30T08:37:54Z</time>
      </trkpt>
      <trkpt lat="45.45883" lon="5.80728">
        <ele>669.1911</ele>
        <time>2013-05-30T08:38:01Z</time>
      </trkpt>
      <trkpt lat="45.45882" lon="5.80757">
        <ele>671.5501</ele>
        <time>2013-05-30T08:38:10Z</time>
      </trkpt>
      <trkpt lat="45.45878" lon="5.80784">
        <ele>670.9081</ele>
        <time>2013-05-30T08:38:17Z</time>
      </trkpt>
      <trkpt lat="45.45879" lon="5.80813">
        <ele>670.31525</ele>
        <time>2013-05-30T08:38:24Z</time>
      </trkpt>
      <trkpt lat="45.45887" lon="5.80839">
        <ele>670.9415</ele>
        <time>2013-05-30T08:38:31Z</time>
      </trkpt>
      <trkpt lat="45.45897" lon="5.80861">
        <ele>670.25305</ele>
        <time>2013-05-30T08:38:37Z</time>
      </trkpt>
      <trkpt lat="45.45908" lon="5.80883">
        <ele>669.70447</ele>
        <time>2013-05-30T08:38:43Z</time>
      </trkpt>
      <trkpt lat="45.45919" lon="5.80906">
        <ele>668.73193</ele>
        <time>2013-05-30T08:38:49Z</time>
      </trkpt>
      <trkpt lat="45.45929" lon="5.80927">
        <ele>667.58405</ele>
        <time>2013-05-30T08:38:55Z</time>
      </trkpt>
      <trkpt lat="45.4594" lon="5.80948">
        <ele>667.0093</ele>
        <time>2013-05-30T08:39:01Z</time>
      </trkpt>
      <trkpt lat="45.4595" lon="5.8097">
        <ele>666.088</ele>
        <time>2013-05-30T08:39:07Z</time>
      </trkpt>
      <trkpt lat="45.45961" lon="5.8099">
        <ele>665.7911</ele>
        <time>2013-05-30T08:39:13Z</time>
      </trkpt>
      <trkpt lat="45.45972" lon="5.81012">
        <ele>664.56726</ele>
        <time>2013-05-30T08:39:19Z</time>
      </trkpt>
      <trkpt lat="45.45984" lon="5.81032">
        <ele>661.24786</ele>
        <time>2013-05-30T08:39:25Z</time>
      </trkpt>
      <trkpt lat="45.45997" lon="5.81053">
        <ele>663.807</ele>
        <time>2013-05-30T08:39:31Z</time>
      </trkpt>
      <trkpt lat="45.46012" lon="5.81068">
        <ele>665.1476</ele>
        <time>2013-05-30T08:39:37Z</time>
      </trkpt>
      <trkpt lat="45.46028" lon="5.81083">
        <ele>666.59875</ele>
        <time>2013-05-30T08:39:43Z</time>
      </trkpt>
      <trkpt lat="45.46045" lon="5.81098">
        <ele>666.8072</ele>
        <time>2013-05-30T08:39:50Z</time>
      </trkpt>
      <trkpt lat="45.46061" lon="5.8111">
        <ele>665.6049</ele>
        <time>2013-05-30T08:39:56Z</time>
      </trkpt>
      <trkpt lat="45.4608" lon="5.81123">
        <ele>665.01434</ele>
        <time>2013-05-30T08:40:03Z</time>
      </trkpt>
      <trkpt lat="45.46099" lon="5.81136">
        <ele>667.83655</ele>
        <time>2013-05-30T08:40:10Z</time>
      </trkpt>
      <trkpt lat="45.46117" lon="5.81146">
        <ele>670.2102</ele>
        <time>2013-05-30T08:40:16Z</time>
      </trkpt>
      <trkpt lat="45.46135" lon="5.81159">
        <ele>669.2422</ele>
        <time>2013-05-30T08:40:22Z</time>
      </trkpt>
      <trkpt lat="45.46151" lon="5.81171">
        <ele>668.32825</ele>
        <time>2013-05-30T08:40:28Z</time>
      </trkpt>
      <trkpt lat="45.4617" lon="5.81183">
        <ele>671.2818</ele>
        <time>2013-05-30T08:40:35Z</time>
      </trkpt>
      <trkpt lat="45.46187" lon="5.81195">
        <ele>669.80597</ele>
        <time>2013-05-30T08:40:41Z</time>
      </trkpt>
      <trkpt lat="45.46206" lon="5.81208">
        <ele>671.2993</ele>
        <time>2013-05-30T08:40:47Z</time>
      </trkpt>
      <trkpt lat="45.46224" lon="5.81223">
        <ele>676.66846</ele>
        <time>2013-05-30T08:40:53Z</time>
      </trkpt>
      <trkpt lat="45.46242" lon="5.81236">
        <ele>679.1961</ele>
        <time>2013-05-30T08:40:59Z</time>
      </trkpt>
      <trkpt lat="45.46259" lon="5.81249">
        <ele>679.54565</ele>
        <time>2013-05-30T08:41:05Z</time>
      </trkpt>
      <trkpt lat="45.46275" lon="5.81264">
        <ele>679.1788</ele>
        <time>2013-05-30T08:41:11Z</time>
      </trkpt>
      <trkpt lat="45.46293" lon="5.81277">
        <ele>681.4289</ele>
        <time>2013-05-30T08:41:17Z</time>
      </trkpt>
      <trkpt lat="45.46309" lon="5.8129">
        <ele>680.3351</ele>
        <time>2013-05-30T08:41:23Z</time>
      </trkpt>
      <trkpt lat="45.46326" lon="5.81303">
        <ele>678.02185</ele>
        <time>2013-05-30T08:41:29Z</time>
      </trkpt>
      <trkpt lat="45.46344" lon="5.81319">
        <ele>675.54895</ele>
        <time>2013-05-30T08:41:35Z</time>
      </trkpt>
      <trkpt lat="45.46361" lon="5.81334">
        <ele>673.4662</ele>
        <time>2013-05-30T08:41:41Z</time>
      </trkpt>
      <trkpt lat="45.46379" lon="5.81349">
        <ele>674.8673</ele>
        <time>2013-05-30T08:41:47Z</time>
      </trkpt>
      <trkpt lat="45.46397" lon="5.81362">
        <ele>675.1123</ele>
        <time>2013-05-30T08:41:53Z</time>
      </trkpt>
      <trkpt lat="45.46414" lon="5.81374">
        <ele>678.32806</ele>
        <time>2013-05-30T08:41:59Z</time>
      </trkpt>
      <trkpt lat="45.46432" lon="5.81385">
        <ele>680.425</ele>
        <time>2013-05-30T08:42:05Z</time>
      </trkpt>
      <trkpt lat="45.4645" lon="5.81395">
        <ele>682.7381</ele>
        <time>2013-05-30T08:42:11Z</time>
      </trkpt>
      <trkpt lat="45.46467" lon="5.81405">
        <ele>683.68243</ele>
        <time>2013-05-30T08:42:17Z</time>
      </trkpt>
      <trkpt lat="45.46485" lon="5.81415">
        <ele>684.1053</ele>
        <time>2013-05-30T08:42:23Z</time>
      </trkpt>
      <trkpt lat="45.46504" lon="5.81425">
        <ele>686.31964</ele>
        <time>2013-05-30T08:42:30Z</time>
      </trkpt>
      <trkpt lat="45.46522" lon="5.81435">
        <ele>686.8824</ele>
        <time>2013-05-30T08:42:36Z</time>
      </trkpt>
      <trkpt lat="45.4654" lon="5.81445">
        <ele>687.24915</ele>
        <time>2013-05-30T08:42:42Z</time>
      </trkpt>
      <trkpt lat="45.46558" lon="5.81457">
        <ele>686.27264</ele>
        <time>2013-05-30T08:42:48Z</time>
      </trkpt>
      <trkpt lat="45.46576" lon="5.81465">
        <ele>684.1927</ele>
        <time>2013-05-30T08:42:54Z</time>
      </trkpt>
      <trkpt lat="45.46595" lon="5.81473">
        <ele>683.0385</ele>
        <time>2013-05-30T08:43:00Z</time>
      </trkpt>
      <trkpt lat="45.46612" lon="5.81481">
        <ele>678.1997</ele>
        <time>2013-05-30T08:43:06Z</time>
      </trkpt>
      <trkpt lat="45.4663" lon="5.81488">
        <ele>678.87683</ele>
        <time>2013-05-30T08:43:12Z</time>
      </trkpt>
      <trkpt lat="45.46648" lon="5.81495">
        <ele>681.1509</ele>
        <time>2013-05-30T08:43:19Z</time>
      </trkpt>
      <trkpt lat="45.46667" lon="5.81506">
        <ele>679.74915</ele>
        <time>2013-05-30T08:43:25Z</time>
      </trkpt>
      <trkpt lat="45.46685" lon="5.81516">
        <ele>677.4384</ele>
        <time>2013-05-30T08:43:31Z</time>
      </trkpt>
      <trkpt lat="45.46703" lon="5.81525">
        <ele>676.4583</ele>
        <time>2013-05-30T08:43:37Z</time>
      </trkpt>
      <trkpt lat="45.46721" lon="5.8153">
        <ele>670.2983</ele>
        <time>2013-05-30T08:43:45Z</time>
      </trkpt>
      <trkpt lat="45.46739" lon="5.81539">
        <ele>658.8075</ele>
        <time>2013-05-30T08:43:53Z</time>
      </trkpt>
      <trkpt lat="45.46759" lon="5.81553">
        <ele>660.0901</ele>
        <time>2013-05-30T08:43:58Z</time>
      </trkpt>
      <trkpt lat="45.46777" lon="5.81563">
        <ele>664.1395</ele>
        <time>2013-05-30T08:44:03Z</time>
      </trkpt>
      <trkpt lat="45.46796" lon="5.81576">
        <ele>667.539</ele>
        <time>2013-05-30T08:44:08Z</time>
      </trkpt>
      <trkpt lat="45.46815" lon="5.81589">
        <ele>668.75397</ele>
        <time>2013-05-30T08:44:13Z</time>
      </trkpt>
      <trkpt lat="45.46832" lon="5.816">
        <ele>670.0339</ele>
        <time>2013-05-30T08:44:17Z</time>
      </trkpt>
      <trkpt lat="45.46849" lon="5.81616">
        <ele>671.38684</ele>
        <time>2013-05-30T08:44:22Z</time>
      </trkpt>
      <trkpt lat="45.46865" lon="5.81635">
        <ele>671.9015</ele>
        <time>2013-05-30T08:44:27Z</time>
      </trkpt>
      <trkpt lat="45.46881" lon="5.81653">
        <ele>673.7152</ele>
        <time>2013-05-30T08:44:32Z</time>
      </trkpt>
      <trkpt lat="45.46897" lon="5.81672">
        <ele>676.2005</ele>
        <time>2013-05-30T08:44:37Z</time>
      </trkpt>
      <trkpt lat="45.46913" lon="5.81693">
        <ele>678.31866</ele>
        <time>2013-05-30T08:44:42Z</time>
      </trkpt>
      <trkpt lat="45.46923" lon="5.8171">
        <ele>680.7</ele>
        <time>2013-05-30T08:44:59Z</time>
      </trkpt>
      <trkpt lat="45.46937" lon="5.81728">
        <ele>685.0005</ele>
        <time>2013-05-30T08:45:59Z</time>
      </trkpt>
      <trkpt lat="45.46951" lon="5.81747">
        <ele>682.8571</ele>
        <time>2013-05-30T08:46:08Z</time>
      </trkpt>
      <trkpt lat="45.46963" lon="5.81766">
        <ele>681.6353</ele>
        <time>2013-05-30T08:46:13Z</time>
      </trkpt>
      <trkpt lat="45.46976" lon="5.81784">
        <ele>681.04803</ele>
        <time>2013-05-30T08:46:18Z</time>
      </trkpt>
      <trkpt lat="45.4699" lon="5.81804">
        <ele>679.8381</ele>
        <time>2013-05-30T08:46:23Z</time>
      </trkpt>
      <trkpt lat="45.47003" lon="5.81824">
        <ele>679.5383</ele>
        <time>2013-05-30T08:46:28Z</time>
      </trkpt>
      <trkpt lat="45.47017" lon="5.81843">
        <ele>681.33685</ele>
        <time>2013-05-30T08:46:34Z</time>
      </trkpt>
      <trkpt lat="45.47031" lon="5.81864">
        <ele>681.2379</ele>
        <time>2013-05-30T08:46:41Z</time>
      </trkpt>
      <trkpt lat="45.47047" lon="5.81885">
        <ele>682.5946</ele>
        <time>2013-05-30T08:46:47Z</time>
      </trkpt>
      <trkpt lat="45.4706" lon="5.81904">
        <ele>682.34064</ele>
        <time>2013-05-30T08:46:52Z</time>
      </trkpt>
      <trkpt lat="45.47074" lon="5.81925">
        <ele>682.69763</ele>
        <time>2013-05-30T08:46:57Z</time>
      </trkpt>
      <trkpt lat="45.47089" lon="5.81946">
        <ele>683.5206</ele>
        <time>2013-05-30T08:47:02Z</time>
      </trkpt>
      <trkpt lat="45.47104" lon="5.81965">
        <ele>684.45557</ele>
        <time>2013-05-30T08:47:07Z</time>
      </trkpt>
      <trkpt lat="45.47118" lon="5.81985">
        <ele>684.5441</ele>
        <time>2013-05-30T08:47:12Z</time>
      </trkpt>
      <trkpt lat="45.4713" lon="5.82004">
        <ele>684.2675</ele>
        <time>2013-05-30T08:47:16Z</time>
      </trkpt>
      <trkpt lat="45.47145" lon="5.82022">
        <ele>683.66864</ele>
        <time>2013-05-30T08:47:20Z</time>
      </trkpt>
      <trkpt lat="45.47157" lon="5.82042">
        <ele>683.7182</ele>
        <time>2013-05-30T08:47:24Z</time>
      </trkpt>
      <trkpt lat="45.47171" lon="5.82063">
        <ele>682.38855</ele>
        <time>2013-05-30T08:47:28Z</time>
      </trkpt>
      <trkpt lat="45.47184" lon="5.82084">
        <ele>680.71436</ele>
        <time>2013-05-30T08:47:32Z</time>
      </trkpt>
      <trkpt lat="45.47199" lon="5.82103">
        <ele>681.32916</ele>
        <time>2013-05-30T08:47:36Z</time>
      </trkpt>
      <trkpt lat="45.47215" lon="5.82125">
        <ele>682.01013</ele>
        <time>2013-05-30T08:47:41Z</time>
      </trkpt>
      <trkpt lat="45.47229" lon="5.82147">
        <ele>680.41473</ele>
        <time>2013-05-30T08:47:46Z</time>
      </trkpt>
      <trkpt lat="45.47245" lon="5.82165">
        <ele>679.1723</ele>
        <time>2013-05-30T08:47:51Z</time>
      </trkpt>
      <trkpt lat="45.47262" lon="5.82184">
        <ele>676.63824</ele>
        <time>2013-05-30T08:47:56Z</time>
      </trkpt>
      <trkpt lat="45.47276" lon="5.82201">
        <ele>676.68945</ele>
        <time>2013-05-30T08:48:00Z</time>
      </trkpt>
      <trkpt lat="45.47295" lon="5.82212">
        <ele>676.277</ele>
        <time>2013-05-30T08:48:05Z</time>
      </trkpt>
      <trkpt lat="45.47312" lon="5.82201">
        <ele>677.7372</ele>
        <time>2013-05-30T08:48:10Z</time>
      </trkpt>
      <trkpt lat="45.4733" lon="5.82193">
        <ele>679.3723</ele>
        <time>2013-05-30T08:48:15Z</time>
      </trkpt>
      <trkpt lat="45.4735" lon="5.82192">
        <ele>681.44727</ele>
        <time>2013-05-30T08:48:21Z</time>
      </trkpt>
      <trkpt lat="45.47371" lon="5.82193">
        <ele>681.6611</ele>
        <time>2013-05-30T08:48:27Z</time>
      </trkpt>
      <trkpt lat="45.47391" lon="5.82194">
        <ele>680.363</ele>
        <time>2013-05-30T08:48:33Z</time>
      </trkpt>
      <trkpt lat="45.4741" lon="5.82195">
        <ele>681.1813</ele>
        <time>2013-05-30T08:48:39Z</time>
      </trkpt>
      <trkpt lat="45.4743" lon="5.82192">
        <ele>683.0343</ele>
        <time>2013-05-30T08:59:08Z</time>
      </trkpt>
      <trkpt lat="45.4745" lon="5.82195">
        <ele>681.9893</ele>
        <time>2013-05-30T08:59:14Z</time>
      </trkpt>
      <trkpt lat="45.47471" lon="5.82205">
        <ele>682.5814</ele>
        <time>2013-05-30T08:59:20Z</time>
      </trkpt>
      <trkpt lat="45.47486" lon="5.82219">
        <ele>683.0186</ele>
        <time>2013-05-30T08:59:25Z</time>
      </trkpt>
      <trkpt lat="45.47502" lon="5.82233">
        <ele>682.9726</ele>
        <time>2013-05-30T08:59:30Z</time>
      </trkpt>
      <trkpt lat="45.47518" lon="5.82246">
        <ele>683.60834</ele>
        <time>2013-05-30T08:59:35Z</time>
      </trkpt>
      <trkpt lat="45.47535" lon="5.82261">
        <ele>683.67505</ele>
        <time>2013-05-30T08:59:40Z</time>
      </trkpt>
      <trkpt lat="45.4755" lon="5.82275">
        <ele>683.44025</ele>
        <time>2013-05-30T08:59:45Z</time>
      </trkpt>
      <trkpt lat="45.47568" lon="5.8229">
        <ele>683.4783</ele>
        <time>2013-05-30T08:59:50Z</time>
      </trkpt>
      <trkpt lat="45.47585" lon="5.82304">
        <ele>684.76447</ele>
        <time>2013-05-30T08:59:55Z</time>
      </trkpt>
      <trkpt lat="45.47602" lon="5.82318">
        <ele>685.29596</ele>
        <time>2013-05-30T09:00:00Z</time>
      </trkpt>
      <trkpt lat="45.4762" lon="5.8233">
        <ele>684.8603</ele>
        <time>2013-05-30T09:00:05Z</time>
      </trkpt>
      <trkpt lat="45.4764" lon="5.82336">
        <ele>684.43274</ele>
        <time>2013-05-30T09:00:10Z</time>
      </trkpt>
      <trkpt lat="45.47658" lon="5.82344">
        <ele>683.51465</ele>
        <time>2013-05-30T09:00:14Z</time>
      </trkpt>
      <trkpt lat="45.47678" lon="5.82354">
        <ele>681.9203</ele>
        <time>2013-05-30T09:00:19Z</time>
      </trkpt>
      <trkpt lat="45.47698" lon="5.82362">
        <ele>681.67816</ele>
        <time>2013-05-30T09:00:24Z</time>
      </trkpt>
      <trkpt lat="45.47719" lon="5.8237">
        <ele>682.0757</ele>
        <time>2013-05-30T09:00:29Z</time>
      </trkpt>
      <trkpt lat="45.47736" lon="5.82376">
        <ele>681.195</ele>
        <time>2013-05-30T09:00:33Z</time>
      </trkpt>
      <trkpt lat="45.47757" lon="5.82388">
        <ele>681.495</ele>
        <time>2013-05-30T09:00:38Z</time>
      </trkpt>
      <trkpt lat="45.47776" lon="5.82403">
        <ele>681.15594</ele>
        <time>2013-05-30T09:00:43Z</time>
      </trkpt>
      <trkpt lat="45.47793" lon="5.82413">
        <ele>680.82275</ele>
        <time>2013-05-30T09:00:47Z</time>
      </trkpt>
      <trkpt lat="45.47813" lon="5.82426">
        <ele>681.0972</ele>
        <time>2013-05-30T09:00:52Z</time>
      </trkpt>
      <trkpt lat="45.47831" lon="5.82434">
        <ele>682.339</ele>
        <time>2013-05-30T09:00:56Z</time>
      </trkpt>
      <trkpt lat="45.4785" lon="5.82442">
        <ele>681.8733</ele>
        <time>2013-05-30T09:01:00Z</time>
      </trkpt>
      <trkpt lat="45.4787" lon="5.82449">
        <ele>680.6849</ele>
        <time>2013-05-30T09:01:04Z</time>
      </trkpt>
      <trkpt lat="45.4789" lon="5.82456">
        <ele>679.3976</ele>
        <time>2013-05-30T09:01:08Z</time>
      </trkpt>
      <trkpt lat="45.47911" lon="5.82465">
        <ele>678.6655</ele>
        <time>2013-05-30T09:01:13Z</time>
      </trkpt>
      <trkpt lat="45.48048" lon="5.82535">
        <ele>679.4742</ele>
        <time>2013-05-30T09:01:44Z</time>
      </trkpt>
      <trkpt lat="45.48066" lon="5.82544">
        <ele>680.5254</ele>
        <time>2013-05-30T09:01:49Z</time>
      </trkpt>
      <trkpt lat="45.48083" lon="5.82553">
        <ele>679.194</ele>
        <time>2013-05-30T09:01:53Z</time>
      </trkpt>
      <trkpt lat="45.481" lon="5.82562">
        <ele>680.29266</ele>
        <time>2013-05-30T09:01:57Z</time>
      </trkpt>
      <trkpt lat="45.48119" lon="5.82574">
        <ele>680.9306</ele>
        <time>2013-05-30T09:02:02Z</time>
      </trkpt>
      <trkpt lat="45.48135" lon="5.82585">
        <ele>682.8265</ele>
        <time>2013-05-30T09:02:06Z</time>
      </trkpt>
      <trkpt lat="45.48152" lon="5.82596">
        <ele>684.18066</ele>
        <time>2013-05-30T09:02:10Z</time>
      </trkpt>
      <trkpt lat="45.4817" lon="5.82608">
        <ele>684.5669</ele>
        <time>2013-05-30T09:02:14Z</time>
      </trkpt>
      <trkpt lat="45.48187" lon="5.82621">
        <ele>684.6731</ele>
        <time>2013-05-30T09:02:18Z</time>
      </trkpt>
      <trkpt lat="45.48206" lon="5.82633">
        <ele>684.34735</ele>
        <time>2013-05-30T09:02:22Z</time>
      </trkpt>
      <trkpt lat="45.48222" lon="5.82645">
        <ele>684.0181</ele>
        <time>2013-05-30T09:02:26Z</time>
      </trkpt>
      <trkpt lat="45.4824" lon="5.82658">
        <ele>684.3085</ele>
        <time>2013-05-30T09:02:30Z</time>
      </trkpt>
      <trkpt lat="45.48259" lon="5.8267">
        <ele>685.1671</ele>
        <time>2013-05-30T09:02:34Z</time>
      </trkpt>
      <trkpt lat="45.48281" lon="5.82682">
        <ele>684.79895</ele>
        <time>2013-05-30T09:02:38Z</time>
      </trkpt>
      <trkpt lat="45.483" lon="5.82692">
        <ele>685.3891</ele>
        <time>2013-05-30T09:02:42Z</time>
      </trkpt>
      <trkpt lat="45.48321" lon="5.82703">
        <ele>685.21375</ele>
        <time>2013-05-30T09:02:46Z</time>
      </trkpt>
      <trkpt lat="45.48345" lon="5.82712">
        <ele>683.64734</ele>
        <time>2013-05-30T09:02:50Z</time>
      </trkpt>
      <trkpt lat="45.48364" lon="5.82716">
        <ele>681.9137</ele>
        <time>2013-05-30T09:02:53Z</time>
      </trkpt>
      <trkpt lat="45.48383" lon="5.82721">
        <ele>678.8261</ele>
        <time>2013-05-30T09:02:56Z</time>
      </trkpt>
      <trkpt lat="45.48406" lon="5.82725">
        <ele>677.1645</ele>
        <time>2013-05-30T09:03:00Z</time>
      </trkpt>
      <trkpt lat="45.48424" lon="5.82728">
        <ele>676.7616</ele>
        <time>2013-05-30T09:03:03Z</time>
      </trkpt>
      <trkpt lat="45.48442" lon="5.82731">
        <ele>676.8229</ele>
        <time>2013-05-30T09:03:06Z</time>
      </trkpt>
      <trkpt lat="45.48461" lon="5.82735">
        <ele>676.8065</ele>
        <time>2013-05-30T09:03:09Z</time>
      </trkpt>
      <trkpt lat="45.48484" lon="5.82736">
        <ele>676.9634</ele>
        <time>2013-05-30T09:03:13Z</time>
      </trkpt>
      <trkpt lat="45.48505" lon="5.82735">
        <ele>677.5841</ele>
        <time>2013-05-30T09:03:17Z</time>
      </trkpt>
      <trkpt lat="45.48527" lon="5.82738">
        <ele>677.52313</ele>
        <time>2013-05-30T09:03:21Z</time>
      </trkpt>
      <trkpt lat="45.48544" lon="5.82747">
        <ele>677.23944</ele>
        <time>2013-05-30T09:03:24Z</time>
      </trkpt>
      <trkpt lat="45.48563" lon="5.82758">
        <ele>676.8307</ele>
        <time>2013-05-30T09:03:27Z</time>
      </trkpt>
      <trkpt lat="45.48583" lon="5.82769">
        <ele>676.2286</ele>
        <time>2013-05-30T09:03:30Z</time>
      </trkpt>
      <trkpt lat="45.48604" lon="5.8278">
        <ele>675.448</ele>
        <time>2013-05-30T09:03:33Z</time>
      </trkpt>
      <trkpt lat="45.48623" lon="5.82796">
        <ele>674.98865</ele>
        <time>2013-05-30T09:03:37Z</time>
      </trkpt>
      <trkpt lat="45.48635" lon="5.82825">
        <ele>674.2233</ele>
        <time>2013-05-30T09:03:41Z</time>
      </trkpt>
      <trkpt lat="45.48645" lon="5.82849">
        <ele>672.95514</ele>
        <time>2013-05-30T09:03:44Z</time>
      </trkpt>
      <trkpt lat="45.48659" lon="5.82866">
        <ele>671.0436</ele>
        <time>2013-05-30T09:03:47Z</time>
      </trkpt>
      <trkpt lat="45.48683" lon="5.82878">
        <ele>668.06836</ele>
        <time>2013-05-30T09:03:50Z</time>
      </trkpt>
      <trkpt lat="45.48707" lon="5.82893">
        <ele>665.32886</ele>
        <time>2013-05-30T09:03:53Z</time>
      </trkpt>
      <trkpt lat="45.48725" lon="5.82901">
        <ele>663.6912</ele>
        <time>2013-05-30T09:03:55Z</time>
      </trkpt>
      <trkpt lat="45.48747" lon="5.82919">
        <ele>661.5838</ele>
        <time>2013-05-30T09:03:58Z</time>
      </trkpt>
      <trkpt lat="45.48767" lon="5.82937">
        <ele>658.7635</ele>
        <time>2013-05-30T09:04:01Z</time>
      </trkpt>
      <trkpt lat="45.48791" lon="5.82949">
        <ele>655.8877</ele>
        <time>2013-05-30T09:04:04Z</time>
      </trkpt>
      <trkpt lat="45.48817" lon="5.82956">
        <ele>653.2339</ele>
        <time>2013-05-30T09:04:07Z</time>
      </trkpt>
      <trkpt lat="45.48834" lon="5.82959">
        <ele>650.75653</ele>
        <time>2013-05-30T09:04:09Z</time>
      </trkpt>
      <trkpt lat="45.48861" lon="5.82957">
        <ele>647.5332</ele>
        <time>2013-05-30T09:04:12Z</time>
      </trkpt>
      <trkpt lat="45.48886" lon="5.82957">
        <ele>644.15936</ele>
        <time>2013-05-30T09:04:15Z</time>
      </trkpt>
      <trkpt lat="45.48904" lon="5.82955">
        <ele>641.6922</ele>
        <time>2013-05-30T09:04:18Z</time>
      </trkpt>
      <trkpt lat="45.48911" lon="5.82979">
        <ele>637.5881</ele>
        <time>2013-05-30T09:04:24Z</time>
      </trkpt>
      <trkpt lat="45.48892" lon="5.82991">
        <ele>636.1267</ele>
        <time>2013-05-30T09:04:28Z</time>
      </trkpt>
      <trkpt lat="45.48875" lon="5.82999">
        <ele>634.42175</ele>
        <time>2013-05-30T09:04:32Z</time>
      </trkpt>
      <trkpt lat="45.48886" lon="5.83027">
        <ele>631.8824</ele>
        <time>2013-05-30T09:04:38Z</time>
      </trkpt>
      <trkpt lat="45.48907" lon="5.83026">
        <ele>631.00037</ele>
        <time>2013-05-30T09:04:41Z</time>
      </trkpt>
      <trkpt lat="45.4893" lon="5.83038">
        <ele>630.3861</ele>
        <time>2013-05-30T09:04:44Z</time>
      </trkpt>
      <trkpt lat="45.48946" lon="5.83049">
        <ele>630.6359</ele>
        <time>2013-05-30T09:04:46Z</time>
      </trkpt>
      <trkpt lat="45.48963" lon="5.83061">
        <ele>629.9827</ele>
        <time>2013-05-30T09:04:48Z</time>
      </trkpt>
      <trkpt lat="45.4898" lon="5.83072">
        <ele>628.609</ele>
        <time>2013-05-30T09:04:50Z</time>
      </trkpt>
      <trkpt lat="45.48997" lon="5.83085">
        <ele>626.73004</ele>
        <time>2013-05-30T09:04:52Z</time>
      </trkpt>
      <trkpt lat="45.49013" lon="5.83099">
        <ele>625.4482</ele>
        <time>2013-05-30T09:04:54Z</time>
      </trkpt>
      <trkpt lat="45.49028" lon="5.83114">
        <ele>623.98334</ele>
        <time>2013-05-30T09:04:56Z</time>
      </trkpt>
      <trkpt lat="45.4905" lon="5.83133">
        <ele>621.16956</ele>
        <time>2013-05-30T09:04:59Z</time>
      </trkpt>
      <trkpt lat="45.49074" lon="5.83137">
        <ele>617.6434</ele>
        <time>2013-05-30T09:05:02Z</time>
      </trkpt>
      <trkpt lat="45.49098" lon="5.83128">
        <ele>614.1339</ele>
        <time>2013-05-30T09:05:05Z</time>
      </trkpt>
      <trkpt lat="45.49123" lon="5.83122">
        <ele>610.7268</ele>
        <time>2013-05-30T09:05:08Z</time>
      </trkpt>
      <trkpt lat="45.49151" lon="5.83127">
        <ele>608.79724</ele>
        <time>2013-05-30T09:05:11Z</time>
      </trkpt>
      <trkpt lat="45.49171" lon="5.83133">
        <ele>607.5735</ele>
        <time>2013-05-30T09:05:13Z</time>
      </trkpt>
      <trkpt lat="45.49188" lon="5.83143">
        <ele>606.2101</ele>
        <time>2013-05-30T09:05:15Z</time>
      </trkpt>
      <trkpt lat="45.49205" lon="5.83154">
        <ele>604.4449</ele>
        <time>2013-05-30T09:05:18Z</time>
      </trkpt>
      <trkpt lat="45.49224" lon="5.83162">
        <ele>605.13293</ele>
        <time>2013-05-30T09:05:22Z</time>
      </trkpt>
      <trkpt lat="45.49243" lon="5.83169">
        <ele>608.44025</ele>
        <time>2013-05-30T09:05:27Z</time>
      </trkpt>
      <trkpt lat="45.49262" lon="5.83181">
        <ele>609.98474</ele>
        <time>2013-05-30T09:05:32Z</time>
      </trkpt>
      <trkpt lat="45.49278" lon="5.83191">
        <ele>611.36786</ele>
        <time>2013-05-30T09:05:37Z</time>
      </trkpt>
      <trkpt lat="45.49297" lon="5.83195">
        <ele>613.3674</ele>
        <time>2013-05-30T09:05:42Z</time>
      </trkpt>
      <trkpt lat="45.4932" lon="5.83199">
        <ele>613.5692</ele>
        <time>2013-05-30T09:05:47Z</time>
      </trkpt>
      <trkpt lat="45.4934" lon="5.83204">
        <ele>612.24805</ele>
        <time>2013-05-30T09:05:51Z</time>
      </trkpt>
      <trkpt lat="45.49359" lon="5.83207">
        <ele>611.50073</ele>
        <time>2013-05-30T09:05:55Z</time>
      </trkpt>
      <trkpt lat="45.49383" lon="5.83207">
        <ele>610.46</ele>
        <time>2013-05-30T09:05:59Z</time>
      </trkpt>
      <trkpt lat="45.49401" lon="5.83215">
        <ele>607.9487</ele>
        <time>2013-05-30T09:06:02Z</time>
      </trkpt>
      <trkpt lat="45.4942" lon="5.83231">
        <ele>605.55804</ele>
        <time>2013-05-30T09:06:05Z</time>
      </trkpt>
      <trkpt lat="45.49437" lon="5.83247">
        <ele>604.10266</ele>
        <time>2013-05-30T09:06:08Z</time>
      </trkpt>
      <trkpt lat="45.49453" lon="5.83268">
        <ele>601.9449</ele>
        <time>2013-05-30T09:06:11Z</time>
      </trkpt>
      <trkpt lat="45.49533" lon="5.83306">
        <ele>599.78143</ele>
        <time>2013-05-30T09:06:42Z</time>
      </trkpt>
      <trkpt lat="45.49552" lon="5.8332">
        <ele>599.6166</ele>
        <time>2013-05-30T09:06:48Z</time>
      </trkpt>
      <trkpt lat="45.49568" lon="5.83308">
        <ele>600.14374</ele>
        <time>2013-05-30T09:06:56Z</time>
      </trkpt>
      <trkpt lat="45.49575" lon="5.83281">
        <ele>602.16046</ele>
        <time>2013-05-30T09:07:07Z</time>
      </trkpt>
      <trkpt lat="45.49578" lon="5.83254">
        <ele>606.61584</ele>
        <time>2013-05-30T09:07:17Z</time>
      </trkpt>
      <trkpt lat="45.49582" lon="5.83228">
        <ele>606.77606</ele>
        <time>2013-05-30T09:07:30Z</time>
      </trkpt>
      <trkpt lat="45.49587" lon="5.83203">
        <ele>607.1801</ele>
        <time>2013-05-30T09:07:43Z</time>
      </trkpt>
      <trkpt lat="45.49585" lon="5.83177">
        <ele>604.89417</ele>
        <time>2013-05-30T09:07:55Z</time>
      </trkpt>
      <trkpt lat="45.49582" lon="5.8315">
        <ele>605.10675</ele>
        <time>2013-05-30T09:08:07Z</time>
      </trkpt>
      <trkpt lat="45.49585" lon="5.83124">
        <ele>610.07733</ele>
        <time>2013-05-30T09:08:20Z</time>
      </trkpt>
      <trkpt lat="45.49595" lon="5.831">
        <ele>613.70825</ele>
        <time>2013-05-30T09:08:35Z</time>
      </trkpt>
      <trkpt lat="45.49596" lon="5.83074">
        <ele>613.13086</ele>
        <time>2013-05-30T09:08:46Z</time>
      </trkpt>
      <trkpt lat="45.49595" lon="5.83046">
        <ele>615.0119</ele>
        <time>2013-05-30T09:08:58Z</time>
      </trkpt>
      <trkpt lat="45.49592" lon="5.83019">
        <ele>619.3712</ele>
        <time>2013-05-30T09:09:10Z</time>
      </trkpt>
      <trkpt lat="45.49591" lon="5.82992">
        <ele>622.43365</ele>
        <time>2013-05-30T09:09:23Z</time>
      </trkpt>
      <trkpt lat="45.49601" lon="5.82969">
        <ele>631.08014</ele>
        <time>2013-05-30T09:09:38Z</time>
      </trkpt>
      <trkpt lat="45.49616" lon="5.82954">
        <ele>634.5396</ele>
        <time>2013-05-30T09:09:51Z</time>
      </trkpt>
      <trkpt lat="45.49632" lon="5.82934">
        <ele>634.54553</ele>
        <time>2013-05-30T09:09:57Z</time>
      </trkpt>
      <trkpt lat="45.49647" lon="5.8292">
        <ele>634.9996</ele>
        <time>2013-05-30T09:10:02Z</time>
      </trkpt>
      <trkpt lat="45.49664" lon="5.82926">
        <ele>638.06824</ele>
        <time>2013-05-30T09:10:06Z</time>
      </trkpt>
      <trkpt lat="45.49683" lon="5.82939">
        <ele>639.32666</ele>
        <time>2013-05-30T09:10:10Z</time>
      </trkpt>
      <trkpt lat="45.49699" lon="5.82959">
        <ele>640.00256</ele>
        <time>2013-05-30T09:10:14Z</time>
      </trkpt>
      <trkpt lat="45.49713" lon="5.82983">
        <ele>640.0313</ele>
        <time>2013-05-30T09:10:18Z</time>
      </trkpt>
      <trkpt lat="45.49728" lon="5.83">
        <ele>638.5351</ele>
        <time>2013-05-30T09:10:21Z</time>
      </trkpt>
      <trkpt lat="45.49746" lon="5.83014">
        <ele>636.9867</ele>
        <time>2013-05-30T09:10:24Z</time>
      </trkpt>
      <trkpt lat="45.49766" lon="5.83028">
        <ele>634.9413</ele>
        <time>2013-05-30T09:10:27Z</time>
      </trkpt>
      <trkpt lat="45.49783" lon="5.83043">
        <ele>633.9455</ele>
        <time>2013-05-30T09:10:30Z</time>
      </trkpt>
      <trkpt lat="45.49803" lon="5.83058">
        <ele>632.5253</ele>
        <time>2013-05-30T09:10:34Z</time>
      </trkpt>
      <trkpt lat="45.49822" lon="5.83059">
        <ele>631.27045</ele>
        <time>2013-05-30T09:10:39Z</time>
      </trkpt>
      <trkpt lat="45.49841" lon="5.83055">
        <ele>630.7601</ele>
        <time>2013-05-30T09:10:47Z</time>
      </trkpt>
      <trkpt lat="45.4986" lon="5.83054">
        <ele>627.7226</ele>
        <time>2013-05-30T09:10:56Z</time>
      </trkpt>
      <trkpt lat="45.4988" lon="5.83053">
        <ele>629.6152</ele>
        <time>2013-05-30T09:11:06Z</time>
      </trkpt>
      <trkpt lat="45.49951" lon="5.83068">
        <ele>631.7953</ele>
        <time>2013-05-30T09:11:43Z</time>
      </trkpt>
      <trkpt lat="45.49969" lon="5.8307">
        <ele>633.27185</ele>
        <time>2013-05-30T09:11:51Z</time>
      </trkpt>
      <trkpt lat="45.49988" lon="5.83079">
        <ele>630.41064</ele>
        <time>2013-05-30T09:11:57Z</time>
      </trkpt>
      <trkpt lat="45.50003" lon="5.83099">
        <ele>627.78876</ele>
        <time>2013-05-30T09:12:02Z</time>
      </trkpt>
      <trkpt lat="45.50019" lon="5.83115">
        <ele>627.6894</ele>
        <time>2013-05-30T09:12:06Z</time>
      </trkpt>
      <trkpt lat="45.50038" lon="5.83129">
        <ele>627.9536</ele>
        <time>2013-05-30T09:12:11Z</time>
      </trkpt>
      <trkpt lat="45.50056" lon="5.83145">
        <ele>628.394</ele>
        <time>2013-05-30T09:12:16Z</time>
      </trkpt>
      <trkpt lat="45.50073" lon="5.8316">
        <ele>627.5353</ele>
        <time>2013-05-30T09:12:21Z</time>
      </trkpt>
      <trkpt lat="45.5009" lon="5.83173">
        <ele>628.0909</ele>
        <time>2013-05-30T09:12:25Z</time>
      </trkpt>
      <trkpt lat="45.50104" lon="5.83194">
        <ele>628.3725</ele>
        <time>2013-05-30T09:12:29Z</time>
      </trkpt>
      <trkpt lat="45.50118" lon="5.83214">
        <ele>628.5542</ele>
        <time>2013-05-30T09:12:33Z</time>
      </trkpt>
      <trkpt lat="45.50133" lon="5.83228">
        <ele>629.5907</ele>
        <time>2013-05-30T09:12:38Z</time>
      </trkpt>
      <trkpt lat="45.50151" lon="5.83243">
        <ele>629.6304</ele>
        <time>2013-05-30T09:12:43Z</time>
      </trkpt>
      <trkpt lat="45.50165" lon="5.83266">
        <ele>631.6538</ele>
        <time>2013-05-30T09:12:48Z</time>
      </trkpt>
      <trkpt lat="45.50177" lon="5.83289">
        <ele>632.9864</ele>
        <time>2013-05-30T09:12:53Z</time>
      </trkpt>
      <trkpt lat="45.50191" lon="5.83309">
        <ele>632.7948</ele>
        <time>2013-05-30T09:12:58Z</time>
      </trkpt>
      <trkpt lat="45.50207" lon="5.83323">
        <ele>632.4425</ele>
        <time>2013-05-30T09:13:03Z</time>
      </trkpt>
      <trkpt lat="45.50224" lon="5.83335">
        <ele>632.9625</ele>
        <time>2013-05-30T09:13:08Z</time>
      </trkpt>
      <trkpt lat="45.50244" lon="5.83341">
        <ele>633.03534</ele>
        <time>2013-05-30T09:13:13Z</time>
      </trkpt>
      <trkpt lat="45.50261" lon="5.8335">
        <ele>634.576</ele>
        <time>2013-05-30T09:13:18Z</time>
      </trkpt>
      <trkpt lat="45.5028" lon="5.83359">
        <ele>636.9951</ele>
        <time>2013-05-30T09:13:24Z</time>
      </trkpt>
      <trkpt lat="45.50298" lon="5.83367">
        <ele>639.3619</ele>
        <time>2013-05-30T09:13:31Z</time>
      </trkpt>
      <trkpt lat="45.50317" lon="5.83375">
        <ele>640.77094</ele>
        <time>2013-05-30T09:13:38Z</time>
      </trkpt>
      <trkpt lat="45.50337" lon="5.8338">
        <ele>641.98755</ele>
        <time>2013-05-30T09:13:46Z</time>
      </trkpt>
      <trkpt lat="45.50357" lon="5.83384">
        <ele>644.1174</ele>
        <time>2013-05-30T09:13:54Z</time>
      </trkpt>
      <trkpt lat="45.50376" lon="5.83391">
        <ele>646.34827</ele>
        <time>2013-05-30T09:14:02Z</time>
      </trkpt>
      <trkpt lat="45.50393" lon="5.83397">
        <ele>647.7515</ele>
        <time>2013-05-30T09:14:09Z</time>
      </trkpt>
      <trkpt lat="45.50413" lon="5.83402">
        <ele>647.1625</ele>
        <time>2013-05-30T09:14:17Z</time>
      </trkpt>
      <trkpt lat="45.50433" lon="5.83409">
        <ele>646.27844</ele>
        <time>2013-05-30T09:14:25Z</time>
      </trkpt>
      <trkpt lat="45.50451" lon="5.83413">
        <ele>644.70483</ele>
        <time>2013-05-30T09:14:32Z</time>
      </trkpt>
      <trkpt lat="45.5047" lon="5.83422">
        <ele>647.18567</ele>
        <time>2013-05-30T09:14:40Z</time>
      </trkpt>
      <trkpt lat="45.50488" lon="5.83426">
        <ele>645.1637</ele>
        <time>2013-05-30T09:14:47Z</time>
      </trkpt>
      <trkpt lat="45.50508" lon="5.83432">
        <ele>646.5567</ele>
        <time>2013-05-30T09:14:54Z</time>
      </trkpt>
      <trkpt lat="45.50526" lon="5.83438">
        <ele>651.55054</ele>
        <time>2013-05-30T09:15:00Z</time>
      </trkpt>
      <trkpt lat="45.50546" lon="5.83444">
        <ele>650.4028</ele>
        <time>2013-05-30T09:15:07Z</time>
      </trkpt>
      <trkpt lat="45.50564" lon="5.83452">
        <ele>651.6402</ele>
        <time>2013-05-30T09:15:13Z</time>
      </trkpt>
      <trkpt lat="45.50582" lon="5.8346">
        <ele>653.37555</ele>
        <time>2013-05-30T09:15:19Z</time>
      </trkpt>
      <trkpt lat="45.506" lon="5.83467">
        <ele>656.079</ele>
        <time>2013-05-30T09:15:25Z</time>
      </trkpt>
      <trkpt lat="45.50618" lon="5.83472">
        <ele>658.3432</ele>
        <time>2013-05-30T09:15:31Z</time>
      </trkpt>
      <trkpt lat="45.50637" lon="5.8348">
        <ele>658.3754</ele>
        <time>2013-05-30T09:15:37Z</time>
      </trkpt>
      <trkpt lat="45.50656" lon="5.83486">
        <ele>658.552</ele>
        <time>2013-05-30T09:15:42Z</time>
      </trkpt>
      <trkpt lat="45.50678" lon="5.83494">
        <ele>660.1547</ele>
        <time>2013-05-30T09:15:47Z</time>
      </trkpt>
      <trkpt lat="45.50697" lon="5.83495">
        <ele>660.9443</ele>
        <time>2013-05-30T09:15:51Z</time>
      </trkpt>
      <trkpt lat="45.50716" lon="5.835">
        <ele>668.4967</ele>
        <time>2013-05-30T09:15:57Z</time>
      </trkpt>
      <trkpt lat="45.50732" lon="5.8349">
        <ele>669.954</ele>
        <time>2013-05-30T09:16:04Z</time>
      </trkpt>
      <trkpt lat="45.50751" lon="5.8349">
        <ele>667.80743</ele>
        <time>2013-05-30T09:16:12Z</time>
      </trkpt>
      <trkpt lat="45.50908" lon="5.8357">
        <ele>667.9578</ele>
        <time>2013-05-30T09:16:46Z</time>
      </trkpt>
      <trkpt lat="45.50926" lon="5.83561">
        <ele>666.5057</ele>
        <time>2013-05-30T09:16:49Z</time>
      </trkpt>
      <trkpt lat="45.50946" lon="5.83559">
        <ele>660.37463</ele>
        <time>2013-05-30T09:16:55Z</time>
      </trkpt>
      <trkpt lat="45.50967" lon="5.83563">
        <ele>656.91376</ele>
        <time>2013-05-30T09:17:03Z</time>
      </trkpt>
      <trkpt lat="45.50985" lon="5.8357">
        <ele>655.49585</ele>
        <time>2013-05-30T09:17:11Z</time>
      </trkpt>
      <trkpt lat="45.51004" lon="5.83571">
        <ele>656.25323</ele>
        <time>2013-05-30T09:17:20Z</time>
      </trkpt>
      <trkpt lat="45.51023" lon="5.8357">
        <ele>657.0059</ele>
        <time>2013-05-30T09:17:31Z</time>
      </trkpt>
      <trkpt lat="45.51042" lon="5.83569">
        <ele>658.4859</ele>
        <time>2013-05-30T09:17:41Z</time>
      </trkpt>
      <trkpt lat="45.5106" lon="5.83563">
        <ele>658.5022</ele>
        <time>2013-05-30T09:17:51Z</time>
      </trkpt>
      <trkpt lat="45.51079" lon="5.83559">
        <ele>663.93317</ele>
        <time>2013-05-30T09:18:04Z</time>
      </trkpt>
      <trkpt lat="45.51098" lon="5.83558">
        <ele>672.01715</ele>
        <time>2013-05-30T09:18:19Z</time>
      </trkpt>
      <trkpt lat="45.51117" lon="5.83561">
        <ele>673.7906</ele>
        <time>2013-05-30T09:18:30Z</time>
      </trkpt>
      <trkpt lat="45.51134" lon="5.83575">
        <ele>674.6123</ele>
        <time>2013-05-30T09:18:39Z</time>
      </trkpt>
      <trkpt lat="45.51152" lon="5.83583">
        <ele>674.21967</ele>
        <time>2013-05-30T09:18:46Z</time>
      </trkpt>
      <trkpt lat="45.51172" lon="5.83588">
        <ele>675.24316</ele>
        <time>2013-05-30T09:18:52Z</time>
      </trkpt>
      <trkpt lat="45.5119" lon="5.83591">
        <ele>673.7861</ele>
        <time>2013-05-30T09:18:58Z</time>
      </trkpt>
      <trkpt lat="45.51209" lon="5.83602">
        <ele>675.45624</ele>
        <time>2013-05-30T09:19:05Z</time>
      </trkpt>
      <trkpt lat="45.51228" lon="5.83614">
        <ele>677.8538</ele>
        <time>2013-05-30T09:19:11Z</time>
      </trkpt>
      <trkpt lat="45.51246" lon="5.83621">
        <ele>679.4128</ele>
        <time>2013-05-30T09:19:16Z</time>
      </trkpt>
      <trkpt lat="45.5127" lon="5.8363">
        <ele>678.41895</ele>
        <time>2013-05-30T09:19:21Z</time>
      </trkpt>
      <trkpt lat="45.51287" lon="5.8364">
        <ele>674.80334</ele>
        <time>2013-05-30T09:19:26Z</time>
      </trkpt>
      <trkpt lat="45.51306" lon="5.83649">
        <ele>676.15625</ele>
        <time>2013-05-30T09:19:32Z</time>
      </trkpt>
      <trkpt lat="45.51324" lon="5.83659">
        <ele>677.4558</ele>
        <time>2013-05-30T09:19:37Z</time>
      </trkpt>
      <trkpt lat="45.51344" lon="5.83668">
        <ele>678.0091</ele>
        <time>2013-05-30T09:19:41Z</time>
      </trkpt>
      <trkpt lat="45.51362" lon="5.8368">
        <ele>674.57886</ele>
        <time>2013-05-30T09:19:44Z</time>
      </trkpt>
      <trkpt lat="45.5138" lon="5.83692">
        <ele>671.20514</ele>
        <time>2013-05-30T09:19:47Z</time>
      </trkpt>
      <trkpt lat="45.514" lon="5.83697">
        <ele>669.6209</ele>
        <time>2013-05-30T09:19:50Z</time>
      </trkpt>
      <trkpt lat="45.51419" lon="5.83704">
        <ele>667.7234</ele>
        <time>2013-05-30T09:19:54Z</time>
      </trkpt>
      <trkpt lat="45.51439" lon="5.83711">
        <ele>667.5484</ele>
        <time>2013-05-30T09:19:58Z</time>
      </trkpt>
      <trkpt lat="45.51459" lon="5.83717">
        <ele>667.2883</ele>
        <time>2013-05-30T09:20:03Z</time>
      </trkpt>
      <trkpt lat="45.5148" lon="5.83726">
        <ele>666.96326</ele>
        <time>2013-05-30T09:20:08Z</time>
      </trkpt>
      <trkpt lat="45.51502" lon="5.83735">
        <ele>670.8627</ele>
        <time>2013-05-30T09:20:13Z</time>
      </trkpt>
      <trkpt lat="45.51519" lon="5.83743">
        <ele>673.5463</ele>
        <time>2013-05-30T09:20:18Z</time>
      </trkpt>
      <trkpt lat="45.51539" lon="5.83751">
        <ele>675.6044</ele>
        <time>2013-05-30T09:20:24Z</time>
      </trkpt>
      <trkpt lat="45.51558" lon="5.83754">
        <ele>673.4247</ele>
        <time>2013-05-30T09:20:29Z</time>
      </trkpt>
      <trkpt lat="45.51577" lon="5.83755">
        <ele>672.8771</ele>
        <time>2013-05-30T09:20:34Z</time>
      </trkpt>
      <trkpt lat="45.51597" lon="5.83757">
        <ele>671.582</ele>
        <time>2013-05-30T09:20:39Z</time>
      </trkpt>
      <trkpt lat="45.51616" lon="5.83759">
        <ele>671.8133</ele>
        <time>2013-05-30T09:20:44Z</time>
      </trkpt>
      <trkpt lat="45.51634" lon="5.83764">
        <ele>672.3217</ele>
        <time>2013-05-30T09:20:49Z</time>
      </trkpt>
      <trkpt lat="45.51652" lon="5.83771">
        <ele>673.1026</ele>
        <time>2013-05-30T09:20:53Z</time>
      </trkpt>
      <trkpt lat="45.51675" lon="5.83777">
        <ele>672.65106</ele>
        <time>2013-05-30T09:20:56Z</time>
      </trkpt>
      <trkpt lat="45.51694" lon="5.83786">
        <ele>674.4497</ele>
        <time>2013-05-30T09:20:59Z</time>
      </trkpt>
      <trkpt lat="45.51712" lon="5.83791">
        <ele>675.09595</ele>
        <time>2013-05-30T09:21:02Z</time>
      </trkpt>
      <trkpt lat="45.51733" lon="5.83794">
        <ele>673.99066</ele>
        <time>2013-05-30T09:21:07Z</time>
      </trkpt>
      <trkpt lat="45.51756" lon="5.83792">
        <ele>671.31476</ele>
        <time>2013-05-30T09:21:12Z</time>
      </trkpt>
      <trkpt lat="45.51774" lon="5.83797">
        <ele>670.0703</ele>
        <time>2013-05-30T09:21:15Z</time>
      </trkpt>
      <trkpt lat="45.51801" lon="5.83872">
        <ele>664.60205</ele>
        <time>2013-05-30T09:21:47Z</time>
      </trkpt>
      <trkpt lat="45.51814" lon="5.83853">
        <ele>656.0179</ele>
        <time>2013-05-30T09:22:04Z</time>
      </trkpt>
      <trkpt lat="45.51826" lon="5.83833">
        <ele>655.06445</ele>
        <time>2013-05-30T09:22:17Z</time>
      </trkpt>
      <trkpt lat="45.51844" lon="5.8383">
        <ele>651.7022</ele>
        <time>2013-05-30T09:22:26Z</time>
      </trkpt>
      <trkpt lat="45.51862" lon="5.83838">
        <ele>649.8798</ele>
        <time>2013-05-30T09:22:31Z</time>
      </trkpt>
      <trkpt lat="45.51883" lon="5.83835">
        <ele>648.8156</ele>
        <time>2013-05-30T09:22:36Z</time>
      </trkpt>
      <trkpt lat="45.51903" lon="5.83829">
        <ele>648.3256</ele>
        <time>2013-05-30T09:22:42Z</time>
      </trkpt>
      <trkpt lat="45.51923" lon="5.83824">
        <ele>648.1113</ele>
        <time>2013-05-30T09:22:47Z</time>
      </trkpt>
      <trkpt lat="45.51941" lon="5.8382">
        <ele>647.72504</ele>
        <time>2013-05-30T09:22:51Z</time>
      </trkpt>
      <trkpt lat="45.51962" lon="5.83815">
        <ele>647.59753</ele>
        <time>2013-05-30T09:22:56Z</time>
      </trkpt>
      <trkpt lat="45.51981" lon="5.83801">
        <ele>645.43475</ele>
        <time>2013-05-30T09:23:00Z</time>
      </trkpt>
      <trkpt lat="45.52" lon="5.83801">
        <ele>643.571</ele>
        <time>2013-05-30T09:23:05Z</time>
      </trkpt>
      <trkpt lat="45.52018" lon="5.83801">
        <ele>640.55194</ele>
        <time>2013-05-30T09:23:13Z</time>
      </trkpt>
      <trkpt lat="45.52037" lon="5.838">
        <ele>642.9073</ele>
        <time>2013-05-30T09:23:22Z</time>
      </trkpt>
      <trkpt lat="45.52055" lon="5.83807">
        <ele>646.35034</ele>
        <time>2013-05-30T09:23:29Z</time>
      </trkpt>
      <trkpt lat="45.52074" lon="5.83808">
        <ele>647.93097</ele>
        <time>2013-05-30T09:23:36Z</time>
      </trkpt>
      <trkpt lat="45.52092" lon="5.83817">
        <ele>651.6172</ele>
        <time>2013-05-30T09:23:44Z</time>
      </trkpt>
      <trkpt lat="45.52111" lon="5.83827">
        <ele>652.36053</ele>
        <time>2013-05-30T09:23:52Z</time>
      </trkpt>
      <trkpt lat="45.52131" lon="5.83831">
        <ele>657.16785</ele>
        <time>2013-05-30T09:24:01Z</time>
      </trkpt>
      <trkpt lat="45.52148" lon="5.83841">
        <ele>659.1499</ele>
        <time>2013-05-30T09:24:10Z</time>
      </trkpt>
      <trkpt lat="45.52158" lon="5.83865">
        <ele>657.53955</ele>
        <time>2013-05-30T09:24:18Z</time>
      </trkpt>
      <trkpt lat="45.52172" lon="5.83881">
        <ele>657.0884</ele>
        <time>2013-05-30T09:24:25Z</time>
      </trkpt>
      <trkpt lat="45.52189" lon="5.83895">
        <ele>652.0281</ele>
        <time>2013-05-30T09:24:33Z</time>
      </trkpt>
      <trkpt lat="45.52208" lon="5.83906">
        <ele>649.87573</ele>
        <time>2013-05-30T09:24:41Z</time>
      </trkpt>
      <trkpt lat="45.52226" lon="5.83908">
        <ele>648.3294</ele>
        <time>2013-05-30T09:24:49Z</time>
      </trkpt>
      <trkpt lat="45.5224" lon="5.83923">
        <ele>662.6934</ele>
        <time>2013-05-30T09:24:56Z</time>
      </trkpt>
      <trkpt lat="45.52259" lon="5.83931">
        <ele>665.4302</ele>
        <time>2013-05-30T09:25:05Z</time>
      </trkpt>
      <trkpt lat="45.52277" lon="5.83927">
        <ele>661.414</ele>
        <time>2013-05-30T09:25:15Z</time>
      </trkpt>
      <trkpt lat="45.52297" lon="5.83928">
        <ele>661.9598</ele>
        <time>2013-05-30T09:25:27Z</time>
      </trkpt>
      <trkpt lat="45.52314" lon="5.83935">
        <ele>664.5863</ele>
        <time>2013-05-30T09:25:37Z</time>
      </trkpt>
      <trkpt lat="45.52333" lon="5.83935">
        <ele>660.84094</ele>
        <time>2013-05-30T09:25:49Z</time>
      </trkpt>
      <trkpt lat="45.52351" lon="5.83932">
        <ele>660.92755</ele>
        <time>2013-05-30T09:26:00Z</time>
      </trkpt>
      <trkpt lat="45.52368" lon="5.83921">
        <ele>667.7563</ele>
        <time>2013-05-30T09:26:14Z</time>
      </trkpt>
      <trkpt lat="45.52421" lon="5.83895">
        <ele>668.0659</ele>
        <time>2013-05-30T09:26:48Z</time>
      </trkpt>
      <trkpt lat="45.52437" lon="5.83907">
        <ele>679.4282</ele>
        <time>2013-05-30T09:27:00Z</time>
      </trkpt>
      <trkpt lat="45.52456" lon="5.83911">
        <ele>682.8283</ele>
        <time>2013-05-30T09:27:10Z</time>
      </trkpt>
      <trkpt lat="45.52475" lon="5.83913">
        <ele>690.81256</ele>
        <time>2013-05-30T09:27:20Z</time>
      </trkpt>
      <trkpt lat="45.52493" lon="5.83904">
        <ele>691.71735</ele>
        <time>2013-05-30T09:27:27Z</time>
      </trkpt>
      <trkpt lat="45.52514" lon="5.83903">
        <ele>688.50964</ele>
        <time>2013-05-30T09:27:34Z</time>
      </trkpt>
      <trkpt lat="45.52535" lon="5.83903">
        <ele>680.1065</ele>
        <time>2013-05-30T09:27:40Z</time>
      </trkpt>
      <trkpt lat="45.52553" lon="5.83901">
        <ele>679.5351</ele>
        <time>2013-05-30T09:27:46Z</time>
      </trkpt>
      <trkpt lat="45.52569" lon="5.8389">
        <ele>680.3133</ele>
        <time>2013-05-30T09:27:53Z</time>
      </trkpt>
      <trkpt lat="45.52587" lon="5.8388">
        <ele>678.0127</ele>
        <time>2013-05-30T09:28:01Z</time>
      </trkpt>
      <trkpt lat="45.52605" lon="5.8389">
        <ele>681.4085</ele>
        <time>2013-05-30T09:28:13Z</time>
      </trkpt>
      <trkpt lat="45.52622" lon="5.83901">
        <ele>679.6513</ele>
        <time>2013-05-30T09:28:22Z</time>
      </trkpt>
      <trkpt lat="45.5264" lon="5.83908">
        <ele>673.922</ele>
        <time>2013-05-30T09:28:28Z</time>
      </trkpt>
      <trkpt lat="45.5266" lon="5.83916">
        <ele>674.14795</ele>
        <time>2013-05-30T09:28:34Z</time>
      </trkpt>
      <trkpt lat="45.52681" lon="5.83921">
        <ele>674.88306</ele>
        <time>2013-05-30T09:28:39Z</time>
      </trkpt>
      <trkpt lat="45.52699" lon="5.83923">
        <ele>680.52264</ele>
        <time>2013-05-30T09:28:45Z</time>
      </trkpt>
      <trkpt lat="45.5272" lon="5.83928">
        <ele>680.73004</ele>
        <time>2013-05-30T09:28:52Z</time>
      </trkpt>
      <trkpt lat="45.52738" lon="5.83933">
        <ele>677.1046</ele>
        <time>2013-05-30T09:28:57Z</time>
      </trkpt>
      <trkpt lat="45.52757" lon="5.83933">
        <ele>675.51385</ele>
        <time>2013-05-30T09:29:04Z</time>
      </trkpt>
      <trkpt lat="45.5277" lon="5.83912">
        <ele>674.2666</ele>
        <time>2013-05-30T09:29:12Z</time>
      </trkpt>
      <trkpt lat="45.52791" lon="5.83909">
        <ele>669.6536</ele>
        <time>2013-05-30T09:29:18Z</time>
      </trkpt>
      <trkpt lat="45.52809" lon="5.8392">
        <ele>667.35065</ele>
        <time>2013-05-30T09:29:23Z</time>
      </trkpt>
      <trkpt lat="45.52825" lon="5.83933">
        <ele>669.36017</ele>
        <time>2013-05-30T09:29:28Z</time>
      </trkpt>
      <trkpt lat="45.52844" lon="5.83945">
        <ele>673.3405</ele>
        <time>2013-05-30T09:29:35Z</time>
      </trkpt>
      <trkpt lat="45.5286" lon="5.83954">
        <ele>673.41345</ele>
        <time>2013-05-30T09:29:41Z</time>
      </trkpt>
      <trkpt lat="45.5288" lon="5.83962">
        <ele>671.8981</ele>
        <time>2013-05-30T09:29:47Z</time>
      </trkpt>
      <trkpt lat="45.52898" lon="5.83969">
        <ele>665.8329</ele>
        <time>2013-05-30T09:29:53Z</time>
      </trkpt>
      <trkpt lat="45.52915" lon="5.83977">
        <ele>664.87427</ele>
        <time>2013-05-30T09:29:59Z</time>
      </trkpt>
      <trkpt lat="45.52934" lon="5.83982">
        <ele>663.73596</ele>
        <time>2013-05-30T09:30:06Z</time>
      </trkpt>
      <trkpt lat="45.52953" lon="5.83998">
        <ele>662.78235</ele>
        <time>2013-05-30T09:30:11Z</time>
      </trkpt>
      <trkpt lat="45.52972" lon="5.84015">
        <ele>662.39636</ele>
        <time>2013-05-30T09:30:15Z</time>
      </trkpt>
      <trkpt lat="45.52991" lon="5.84031">
        <ele>661.94183</ele>
        <time>2013-05-30T09:30:19Z</time>
      </trkpt>
      <trkpt lat="45.53006" lon="5.84051">
        <ele>661.14996</ele>
        <time>2013-05-30T09:30:23Z</time>
      </trkpt>
      <trkpt lat="45.53016" lon="5.84081">
        <ele>659.71185</ele>
        <time>2013-05-30T09:30:28Z</time>
      </trkpt>
      <trkpt lat="45.5302" lon="5.84114">
        <ele>658.33307</ele>
        <time>2013-05-30T09:30:32Z</time>
      </trkpt>
      <trkpt lat="45.53028" lon="5.84144">
        <ele>657.3265</ele>
        <time>2013-05-30T09:30:36Z</time>
      </trkpt>
      <trkpt lat="45.53044" lon="5.84158">
        <ele>656.3861</ele>
        <time>2013-05-30T09:30:40Z</time>
      </trkpt>
      <trkpt lat="45.53065" lon="5.84167">
        <ele>656.11</ele>
        <time>2013-05-30T09:30:45Z</time>
      </trkpt>
      <trkpt lat="45.53084" lon="5.84181">
        <ele>655.6338</ele>
        <time>2013-05-30T09:30:50Z</time>
      </trkpt>
      <trkpt lat="45.53099" lon="5.84199">
        <ele>654.7892</ele>
        <time>2013-05-30T09:30:54Z</time>
      </trkpt>
      <trkpt lat="45.53113" lon="5.8422">
        <ele>653.21185</ele>
        <time>2013-05-30T09:30:58Z</time>
      </trkpt>
      <trkpt lat="45.53126" lon="5.8424">
        <ele>651.21594</ele>
        <time>2013-05-30T09:31:01Z</time>
      </trkpt>
      <trkpt lat="45.53137" lon="5.84262">
        <ele>649.2583</ele>
        <time>2013-05-30T09:31:04Z</time>
      </trkpt>
      <trkpt lat="45.53139" lon="5.84294">
        <ele>647.2868</ele>
        <time>2013-05-30T09:31:08Z</time>
      </trkpt>
      <trkpt lat="45.53137" lon="5.84321">
        <ele>647.21783</ele>
        <time>2013-05-30T09:31:11Z</time>
      </trkpt>
      <trkpt lat="45.53134" lon="5.8435">
        <ele>647.9388</ele>
        <time>2013-05-30T09:31:14Z</time>
      </trkpt>
      <trkpt lat="45.53159" lon="5.84593">
        <ele>643.7273</ele>
        <time>2013-05-30T09:31:45Z</time>
      </trkpt>
      <trkpt lat="45.53168" lon="5.84569">
        <ele>628.42786</ele>
        <time>2013-05-30T09:31:51Z</time>
      </trkpt>
      <trkpt lat="45.53186" lon="5.84563">
        <ele>622.2721</ele>
        <time>2013-05-30T09:31:57Z</time>
      </trkpt>
      <trkpt lat="45.53187" lon="5.84592">
        <ele>620.2929</ele>
        <time>2013-05-30T09:32:00Z</time>
      </trkpt>
      <trkpt lat="45.53208" lon="5.84608">
        <ele>619.206</ele>
        <time>2013-05-30T09:32:04Z</time>
      </trkpt>
      <trkpt lat="45.53226" lon="5.84616">
        <ele>618.60254</ele>
        <time>2013-05-30T09:32:07Z</time>
      </trkpt>
      <trkpt lat="45.5324" lon="5.84636">
        <ele>617.8589</ele>
        <time>2013-05-30T09:32:10Z</time>
      </trkpt>
      <trkpt lat="45.53256" lon="5.84651">
        <ele>618.0655</ele>
        <time>2013-05-30T09:32:13Z</time>
      </trkpt>
      <trkpt lat="45.53272" lon="5.84667">
        <ele>618.78076</ele>
        <time>2013-05-30T09:32:16Z</time>
      </trkpt>
      <trkpt lat="45.53289" lon="5.84683">
        <ele>617.7575</ele>
        <time>2013-05-30T09:32:19Z</time>
      </trkpt>
      <trkpt lat="45.53303" lon="5.84701">
        <ele>617.68835</ele>
        <time>2013-05-30T09:32:22Z</time>
      </trkpt>
      <trkpt lat="45.53318" lon="5.84715">
        <ele>616.5232</ele>
        <time>2013-05-30T09:32:25Z</time>
      </trkpt>
      <trkpt lat="45.5333" lon="5.84744">
        <ele>613.01556</ele>
        <time>2013-05-30T09:32:29Z</time>
      </trkpt>
      <trkpt lat="45.53331" lon="5.84772">
        <ele>610.22845</ele>
        <time>2013-05-30T09:32:32Z</time>
      </trkpt>
      <trkpt lat="45.53331" lon="5.84801">
        <ele>606.20105</ele>
        <time>2013-05-30T09:32:35Z</time>
      </trkpt>
      <trkpt lat="45.53334" lon="5.84832">
        <ele>602.1395</ele>
        <time>2013-05-30T09:32:38Z</time>
      </trkpt>
      <trkpt lat="45.53331" lon="5.8487">
        <ele>598.976</ele>
        <time>2013-05-30T09:32:41Z</time>
      </trkpt>
      <trkpt lat="45.53326" lon="5.84897">
        <ele>597.32404</ele>
        <time>2013-05-30T09:32:43Z</time>
      </trkpt>
      <trkpt lat="45.53322" lon="5.84923">
        <ele>596.12604</ele>
        <time>2013-05-30T09:32:45Z</time>
      </trkpt>
      <trkpt lat="45.53317" lon="5.84949">
        <ele>594.6771</ele>
        <time>2013-05-30T09:32:47Z</time>
      </trkpt>
      <trkpt lat="45.53316" lon="5.84974">
        <ele>593.3559</ele>
        <time>2013-05-30T09:32:49Z</time>
      </trkpt>
      <trkpt lat="45.53313" lon="5.85008">
        <ele>591.9798</ele>
        <time>2013-05-30T09:32:52Z</time>
      </trkpt>
      <trkpt lat="45.53318" lon="5.85037">
        <ele>590.529</ele>
        <time>2013-05-30T09:32:55Z</time>
      </trkpt>
      <trkpt lat="45.53333" lon="5.85061">
        <ele>589.30597</ele>
        <time>2013-05-30T09:32:58Z</time>
      </trkpt>
      <trkpt lat="45.53354" lon="5.85072">
        <ele>588.1885</ele>
        <time>2013-05-30T09:33:01Z</time>
      </trkpt>
      <trkpt lat="45.53377" lon="5.85087">
        <ele>586.47797</ele>
        <time>2013-05-30T09:33:04Z</time>
      </trkpt>
      <trkpt lat="45.53393" lon="5.85099">
        <ele>584.9188</ele>
        <time>2013-05-30T09:33:06Z</time>
      </trkpt>
      <trkpt lat="45.53411" lon="5.85112">
        <ele>583.07935</ele>
        <time>2013-05-30T09:33:08Z</time>
      </trkpt>
      <trkpt lat="45.5343" lon="5.85129">
        <ele>581.20715</ele>
        <time>2013-05-30T09:33:10Z</time>
      </trkpt>
      <trkpt lat="45.53449" lon="5.85145">
        <ele>579.479</ele>
        <time>2013-05-30T09:33:12Z</time>
      </trkpt>
      <trkpt lat="45.53468" lon="5.85161">
        <ele>578.5007</ele>
        <time>2013-05-30T09:33:14Z</time>
      </trkpt>
      <trkpt lat="45.53487" lon="5.85179">
        <ele>577.33167</ele>
        <time>2013-05-30T09:33:16Z</time>
      </trkpt>
      <trkpt lat="45.53508" lon="5.85198">
        <ele>575.9303</ele>
        <time>2013-05-30T09:33:18Z</time>
      </trkpt>
      <trkpt lat="45.53526" lon="5.85215">
        <ele>575.0671</ele>
        <time>2013-05-30T09:33:20Z</time>
      </trkpt>
      <trkpt lat="45.53543" lon="5.85233">
        <ele>574.29395</ele>
        <time>2013-05-30T09:33:22Z</time>
      </trkpt>
      <trkpt lat="45.53559" lon="5.85253">
        <ele>574.0591</ele>
        <time>2013-05-30T09:33:24Z</time>
      </trkpt>
      <trkpt lat="45.53573" lon="5.85272">
        <ele>574.20197</ele>
        <time>2013-05-30T09:33:26Z</time>
      </trkpt>
      <trkpt lat="45.53592" lon="5.85296">
        <ele>574.17584</ele>
        <time>2013-05-30T09:33:29Z</time>
      </trkpt>
      <trkpt lat="45.53612" lon="5.85316">
        <ele>573.7289</ele>
        <time>2013-05-30T09:33:32Z</time>
      </trkpt>
      <trkpt lat="45.53632" lon="5.85334">
        <ele>572.9247</ele>
        <time>2013-05-30T09:33:35Z</time>
      </trkpt>
      <trkpt lat="45.53652" lon="5.85353">
        <ele>572.01825</ele>
        <time>2013-05-30T09:33:38Z</time>
      </trkpt>
      <trkpt lat="45.53672" lon="5.8537">
        <ele>570.9733</ele>
        <time>2013-05-30T09:33:41Z</time>
      </trkpt>
      <trkpt lat="45.53693" lon="5.85389">
        <ele>569.95435</ele>
        <time>2013-05-30T09:33:44Z</time>
      </trkpt>
      <trkpt lat="45.53715" lon="5.85409">
        <ele>567.65576</ele>
        <time>2013-05-30T09:33:47Z</time>
      </trkpt>
      <trkpt lat="45.53735" lon="5.85435">
        <ele>564.9032</ele>
        <time>2013-05-30T09:33:50Z</time>
      </trkpt>
      <trkpt lat="45.53749" lon="5.85455">
        <ele>563.25806</ele>
        <time>2013-05-30T09:33:52Z</time>
      </trkpt>
      <trkpt lat="45.53761" lon="5.85478">
        <ele>561.7452</ele>
        <time>2013-05-30T09:33:54Z</time>
      </trkpt>
      <trkpt lat="45.53769" lon="5.85503">
        <ele>560.74414</ele>
        <time>2013-05-30T09:33:56Z</time>
      </trkpt>
      <trkpt lat="45.53779" lon="5.85528">
        <ele>560.5061</ele>
        <time>2013-05-30T09:33:58Z</time>
      </trkpt>
      <trkpt lat="45.5379" lon="5.85562">
        <ele>560.5979</ele>
        <time>2013-05-30T09:34:01Z</time>
      </trkpt>
      <trkpt lat="45.53796" lon="5.85595">
        <ele>561.35535</ele>
        <time>2013-05-30T09:34:04Z</time>
      </trkpt>
      <trkpt lat="45.53797" lon="5.85626">
        <ele>561.43585</ele>
        <time>2013-05-30T09:34:07Z</time>
      </trkpt>
      <trkpt lat="45.53798" lon="5.85653">
        <ele>560.83234</ele>
        <time>2013-05-30T09:34:10Z</time>
      </trkpt>
      <trkpt lat="45.53798" lon="5.85679">
        <ele>560.0824</ele>
        <time>2013-05-30T09:34:13Z</time>
      </trkpt>
      <trkpt lat="45.53801" lon="5.8571">
        <ele>558.6343</ele>
        <time>2013-05-30T09:34:17Z</time>
      </trkpt>
      <trkpt lat="45.53805" lon="5.85742">
        <ele>557.5503</ele>
        <time>2013-05-30T09:34:21Z</time>
      </trkpt>
      <trkpt lat="45.53808" lon="5.85773">
        <ele>557.88544</ele>
        <time>2013-05-30T09:34:25Z</time>
      </trkpt>
      <trkpt lat="45.53811" lon="5.85806">
        <ele>557.6255</ele>
        <time>2013-05-30T09:34:29Z</time>
      </trkpt>
      <trkpt lat="45.53812" lon="5.85838">
        <ele>557.5225</ele>
        <time>2013-05-30T09:34:33Z</time>
      </trkpt>
      <trkpt lat="45.53814" lon="5.85869">
        <ele>557.9337</ele>
        <time>2013-05-30T09:34:37Z</time>
      </trkpt>
      <trkpt lat="45.53819" lon="5.85898">
        <ele>557.581</ele>
        <time>2013-05-30T09:34:41Z</time>
      </trkpt>
      <trkpt lat="45.53831" lon="5.85923">
        <ele>557.61584</ele>
        <time>2013-05-30T09:34:45Z</time>
      </trkpt>
      <trkpt lat="45.53844" lon="5.85945">
        <ele>558.06635</ele>
        <time>2013-05-30T09:34:49Z</time>
      </trkpt>
      <trkpt lat="45.53859" lon="5.85963">
        <ele>558.39014</ele>
        <time>2013-05-30T09:34:53Z</time>
      </trkpt>
      <trkpt lat="45.53874" lon="5.85979">
        <ele>557.9769</ele>
        <time>2013-05-30T09:34:57Z</time>
      </trkpt>
      <trkpt lat="45.53892" lon="5.85998">
        <ele>558.6089</ele>
        <time>2013-05-30T09:35:02Z</time>
      </trkpt>
      <trkpt lat="45.53907" lon="5.86014">
        <ele>559.0446</ele>
        <time>2013-05-30T09:35:06Z</time>
      </trkpt>
      <trkpt lat="45.53922" lon="5.86028">
        <ele>559.1344</ele>
        <time>2013-05-30T09:35:10Z</time>
      </trkpt>
      <trkpt lat="45.53939" lon="5.86043">
        <ele>558.3937</ele>
        <time>2013-05-30T09:35:14Z</time>
      </trkpt>
      <trkpt lat="45.53957" lon="5.86054">
        <ele>556.8593</ele>
        <time>2013-05-30T09:35:18Z</time>
      </trkpt>
      <trkpt lat="45.53974" lon="5.86069">
        <ele>556.7171</ele>
        <time>2013-05-30T09:35:23Z</time>
      </trkpt>
      <trkpt lat="45.53991" lon="5.86081">
        <ele>557.2441</ele>
        <time>2013-05-30T09:35:27Z</time>
      </trkpt>
      <trkpt lat="45.54005" lon="5.86097">
        <ele>557.34283</ele>
        <time>2013-05-30T09:35:31Z</time>
      </trkpt>
      <trkpt lat="45.54018" lon="5.86116">
        <ele>555.9999</ele>
        <time>2013-05-30T09:35:35Z</time>
      </trkpt>
      <trkpt lat="45.5403" lon="5.86139">
        <ele>556.0075</ele>
        <time>2013-05-30T09:35:40Z</time>
      </trkpt>
      <trkpt lat="45.54041" lon="5.86164">
        <ele>556.72345</ele>
        <time>2013-05-30T09:35:45Z</time>
      </trkpt>
      <trkpt lat="45.54048" lon="5.86191">
        <ele>558.5714</ele>
        <time>2013-05-30T09:35:50Z</time>
      </trkpt>
      <trkpt lat="45.54055" lon="5.86218">
        <ele>558.3654</ele>
        <time>2013-05-30T09:35:56Z</time>
      </trkpt>
      <trkpt lat="45.54062" lon="5.86246">
        <ele>557.5081</ele>
        <time>2013-05-30T09:36:02Z</time>
      </trkpt>
      <trkpt lat="45.54067" lon="5.86271">
        <ele>557.05786</ele>
        <time>2013-05-30T09:36:07Z</time>
      </trkpt>
      <trkpt lat="45.54078" lon="5.86298">
        <ele>557.85254</ele>
        <time>2013-05-30T09:36:12Z</time>
      </trkpt>
      <trkpt lat="45.54088" lon="5.86323">
        <ele>559.10474</ele>
        <time>2013-05-30T09:36:17Z</time>
      </trkpt>
      <trkpt lat="45.54099" lon="5.86347">
        <ele>559.70856</ele>
        <time>2013-05-30T09:36:22Z</time>
      </trkpt>
      <trkpt lat="45.54109" lon="5.86371">
        <ele>559.48193</ele>
        <time>2013-05-30T09:36:27Z</time>
      </trkpt>
      <trkpt lat="45.54116" lon="5.86396">
        <ele>560.41144</ele>
        <time>2013-05-30T09:36:31Z</time>
      </trkpt>
      <trkpt lat="45.5412" lon="5.86422">
        <ele>560.3751</ele>
        <time>2013-05-30T09:36:35Z</time>
      </trkpt>
      <trkpt lat="45.54128" lon="5.86447">
        <ele>559.77295</ele>
        <time>2013-05-30T09:36:39Z</time>
      </trkpt>
      <trkpt lat="45.54141" lon="5.8647">
        <ele>559.4071</ele>
        <time>2013-05-30T09:36:43Z</time>
      </trkpt>
      <trkpt lat="45.54156" lon="5.86488">
        <ele>562.55695</ele>
        <time>2013-05-30T09:36:47Z</time>
      </trkpt>
      <trkpt lat="45.54172" lon="5.86504">
        <ele>563.8684</ele>
        <time>2013-05-30T09:36:51Z</time>
      </trkpt>
      <trkpt lat="45.54188" lon="5.86518">
        <ele>564.02594</ele>
        <time>2013-05-30T09:36:55Z</time>
      </trkpt>
      <trkpt lat="45.54204" lon="5.86535">
        <ele>564.7008</ele>
        <time>2013-05-30T09:37:00Z</time>
      </trkpt>
      <trkpt lat="45.5422" lon="5.8655">
        <ele>565.58136</ele>
        <time>2013-05-30T09:37:05Z</time>
      </trkpt>
      <trkpt lat="45.54237" lon="5.86567">
        <ele>565.73456</ele>
        <time>2013-05-30T09:37:10Z</time>
      </trkpt>
      <trkpt lat="45.54255" lon="5.86584">
        <ele>564.86365</ele>
        <time>2013-05-30T09:37:15Z</time>
      </trkpt>
      <trkpt lat="45.54273" lon="5.86601">
        <ele>564.4865</ele>
        <time>2013-05-30T09:37:20Z</time>
      </trkpt>
      <trkpt lat="45.5429" lon="5.86618">
        <ele>565.019</ele>
        <time>2013-05-30T09:37:25Z</time>
      </trkpt>
      <trkpt lat="45.54306" lon="5.86632">
        <ele>565.6852</ele>
        <time>2013-05-30T09:37:30Z</time>
      </trkpt>
      <trkpt lat="45.54322" lon="5.86644">
        <ele>566.61005</ele>
        <time>2013-05-30T09:37:35Z</time>
      </trkpt>
      <trkpt lat="45.5434" lon="5.86656">
        <ele>567.8209</ele>
        <time>2013-05-30T09:37:40Z</time>
      </trkpt>
      <trkpt lat="45.54357" lon="5.86671">
        <ele>565.8496</ele>
        <time>2013-05-30T09:37:44Z</time>
      </trkpt>
      <trkpt lat="45.54374" lon="5.86684">
        <ele>563.5977</ele>
        <time>2013-05-30T09:37:49Z</time>
      </trkpt>
      <trkpt lat="45.5439" lon="5.86701">
        <ele>559.18396</ele>
        <time>2013-05-30T09:38:05Z</time>
      </trkpt>
      <trkpt lat="45.54407" lon="5.86718">
        <ele>562.64026</ele>
        <time>2013-05-30T09:38:09Z</time>
      </trkpt>
      <trkpt lat="45.54423" lon="5.86732">
        <ele>563.99164</ele>
        <time>2013-05-30T09:38:13Z</time>
      </trkpt>
      <trkpt lat="45.54441" lon="5.86748">
        <ele>563.50635</ele>
        <time>2013-05-30T09:38:17Z</time>
      </trkpt>
      <trkpt lat="45.54458" lon="5.86762">
        <ele>563.33545</ele>
        <time>2013-05-30T09:38:20Z</time>
      </trkpt>
      <trkpt lat="45.54475" lon="5.86777">
        <ele>562.38995</ele>
        <time>2013-05-30T09:38:23Z</time>
      </trkpt>
      <trkpt lat="45.54494" lon="5.86794">
        <ele>561.5114</ele>
        <time>2013-05-30T09:38:26Z</time>
      </trkpt>
      <trkpt lat="45.54513" lon="5.86811">
        <ele>561.01416</ele>
        <time>2013-05-30T09:38:29Z</time>
      </trkpt>
      <trkpt lat="45.54532" lon="5.86833">
        <ele>561.1357</ele>
        <time>2013-05-30T09:38:32Z</time>
      </trkpt>
      <trkpt lat="45.54548" lon="5.86857">
        <ele>561.0963</ele>
        <time>2013-05-30T09:38:35Z</time>
      </trkpt>
      <trkpt lat="45.54563" lon="5.86881">
        <ele>560.4125</ele>
        <time>2013-05-30T09:38:38Z</time>
      </trkpt>
      <trkpt lat="45.54577" lon="5.86902">
        <ele>561.16</ele>
        <time>2013-05-30T09:38:41Z</time>
      </trkpt>
      <trkpt lat="45.54592" lon="5.86924">
        <ele>562.0034</ele>
        <time>2013-05-30T09:38:44Z</time>
      </trkpt>
      <trkpt lat="45.54605" lon="5.86948">
        <ele>561.3374</ele>
        <time>2013-05-30T09:38:47Z</time>
      </trkpt>
      <trkpt lat="45.54615" lon="5.86973">
        <ele>561.14856</ele>
        <time>2013-05-30T09:38:50Z</time>
      </trkpt>
      <trkpt lat="45.54619" lon="5.87004">
        <ele>560.7642</ele>
        <time>2013-05-30T09:38:53Z</time>
      </trkpt>
      <trkpt lat="45.54623" lon="5.87039">
        <ele>560.56305</ele>
        <time>2013-05-30T09:38:56Z</time>
      </trkpt>
      <trkpt lat="45.54624" lon="5.87072">
        <ele>560.7813</ele>
        <time>2013-05-30T09:38:59Z</time>
      </trkpt>
      <trkpt lat="45.54634" lon="5.87103">
        <ele>558.357</ele>
        <time>2013-05-30T09:39:03Z</time>
      </trkpt>
      <trkpt lat="45.54643" lon="5.87133">
        <ele>553.7459</ele>
        <time>2013-05-30T09:39:06Z</time>
      </trkpt>
      <trkpt lat="45.54653" lon="5.87164">
        <ele>549.58185</ele>
        <time>2013-05-30T09:39:09Z</time>
      </trkpt>
      <trkpt lat="45.54661" lon="5.87188">
        <ele>549.4648</ele>
        <time>2013-05-30T09:39:11Z</time>
      </trkpt>
      <trkpt lat="45.54676" lon="5.87218">
        <ele>546.55237</ele>
        <time>2013-05-30T09:39:14Z</time>
      </trkpt>
      <trkpt lat="45.54685" lon="5.87253">
        <ele>542.41113</ele>
        <time>2013-05-30T09:39:17Z</time>
      </trkpt>
      <trkpt lat="45.54692" lon="5.87285">
        <ele>537.0828</ele>
        <time>2013-05-30T09:39:20Z</time>
      </trkpt>
      <trkpt lat="45.54704" lon="5.87315">
        <ele>533.06934</ele>
        <time>2013-05-30T09:39:23Z</time>
      </trkpt>
      <trkpt lat="45.54713" lon="5.87342">
        <ele>529.85583</ele>
        <time>2013-05-30T09:39:26Z</time>
      </trkpt>
      <trkpt lat="45.54719" lon="5.87368">
        <ele>527.1673</ele>
        <time>2013-05-30T09:39:29Z</time>
      </trkpt>
      <trkpt lat="45.54725" lon="5.87402">
        <ele>523.7909</ele>
        <time>2013-05-30T09:39:32Z</time>
      </trkpt>
      <trkpt lat="45.54731" lon="5.87438">
        <ele>520.3524</ele>
        <time>2013-05-30T09:39:35Z</time>
      </trkpt>
      <trkpt lat="45.54734" lon="5.87473">
        <ele>517.5018</ele>
        <time>2013-05-30T09:39:38Z</time>
      </trkpt>
      <trkpt lat="45.54736" lon="5.87499">
        <ele>515.55725</ele>
        <time>2013-05-30T09:39:40Z</time>
      </trkpt>
      <trkpt lat="45.5474" lon="5.87528">
        <ele>513.826</ele>
        <time>2013-05-30T09:39:42Z</time>
      </trkpt>
      <trkpt lat="45.54745" lon="5.87557">
        <ele>512.3896</ele>
        <time>2013-05-30T09:39:44Z</time>
      </trkpt>
      <trkpt lat="45.54752" lon="5.87584">
        <ele>510.65665</ele>
        <time>2013-05-30T09:39:46Z</time>
      </trkpt>
      <trkpt lat="45.54761" lon="5.87608">
        <ele>508.85687</ele>
        <time>2013-05-30T09:39:48Z</time>
      </trkpt>
      <trkpt lat="45.54772" lon="5.87635">
        <ele>506.61325</ele>
        <time>2013-05-30T09:39:50Z</time>
      </trkpt>
      <trkpt lat="45.54782" lon="5.87659">
        <ele>504.41995</ele>
        <time>2013-05-30T09:39:52Z</time>
      </trkpt>
      <trkpt lat="45.54789" lon="5.87685">
        <ele>502.29248</ele>
        <time>2013-05-30T09:39:54Z</time>
      </trkpt>
      <trkpt lat="45.54786" lon="5.87711">
        <ele>499.83325</ele>
        <time>2013-05-30T09:39:56Z</time>
      </trkpt>
      <trkpt lat="45.54779" lon="5.87736">
        <ele>497.69995</ele>
        <time>2013-05-30T09:39:58Z</time>
      </trkpt>
      <trkpt lat="45.54772" lon="5.87761">
        <ele>495.4312</ele>
        <time>2013-05-30T09:40:00Z</time>
      </trkpt>
      <trkpt lat="45.54768" lon="5.87788">
        <ele>493.4988</ele>
        <time>2013-05-30T09:40:02Z</time>
      </trkpt>
      <trkpt lat="45.54765" lon="5.87813">
        <ele>491.62433</ele>
        <time>2013-05-30T09:40:04Z</time>
      </trkpt>
      <trkpt lat="45.54767" lon="5.8785">
        <ele>489.1259</ele>
        <time>2013-05-30T09:40:07Z</time>
      </trkpt>
      <trkpt lat="45.54772" lon="5.87875">
        <ele>487.36456</ele>
        <time>2013-05-30T09:40:09Z</time>
      </trkpt>
      <trkpt lat="45.54777" lon="5.87903">
        <ele>485.54257</ele>
        <time>2013-05-30T09:40:11Z</time>
      </trkpt>
      <trkpt lat="45.54781" lon="5.87931">
        <ele>483.78018</ele>
        <time>2013-05-30T09:40:13Z</time>
      </trkpt>
      <trkpt lat="45.54783" lon="5.87963">
        <ele>482.4576</ele>
        <time>2013-05-30T09:40:15Z</time>
      </trkpt>
      <trkpt lat="45.54786" lon="5.87994">
        <ele>481.37616</ele>
        <time>2013-05-30T09:40:17Z</time>
      </trkpt>
      <trkpt lat="45.5479" lon="5.88024">
        <ele>479.74908</ele>
        <time>2013-05-30T09:40:19Z</time>
      </trkpt>
      <trkpt lat="45.54796" lon="5.88053">
        <ele>478.29636</ele>
        <time>2013-05-30T09:40:21Z</time>
      </trkpt>
      <trkpt lat="45.54802" lon="5.88081">
        <ele>476.6292</ele>
        <time>2013-05-30T09:40:23Z</time>
      </trkpt>
      <trkpt lat="45.54807" lon="5.88108">
        <ele>474.58517</ele>
        <time>2013-05-30T09:40:25Z</time>
      </trkpt>
      <trkpt lat="45.54813" lon="5.88143">
        <ele>472.0375</ele>
        <time>2013-05-30T09:40:28Z</time>
      </trkpt>
      <trkpt lat="45.54819" lon="5.8818">
        <ele>469.73145</ele>
        <time>2013-05-30T09:40:31Z</time>
      </trkpt>
      <trkpt lat="45.54825" lon="5.88215">
        <ele>466.70544</ele>
        <time>2013-05-30T09:40:34Z</time>
      </trkpt>
      <trkpt lat="45.54831" lon="5.88251">
        <ele>463.56638</ele>
        <time>2013-05-30T09:40:37Z</time>
      </trkpt>
      <trkpt lat="45.54838" lon="5.88277">
        <ele>461.4561</ele>
        <time>2013-05-30T09:40:39Z</time>
      </trkpt>
      <trkpt lat="45.54852" lon="5.88309">
        <ele>457.0299</ele>
        <time>2013-05-30T09:40:42Z</time>
      </trkpt>
      <trkpt lat="45.54866" lon="5.88337">
        <ele>453.37668</ele>
        <time>2013-05-30T09:40:45Z</time>
      </trkpt>
      <trkpt lat="45.54881" lon="5.8836">
        <ele>449.85422</ele>
        <time>2013-05-30T09:40:48Z</time>
      </trkpt>
      <trkpt lat="45.54899" lon="5.88382">
        <ele>446.54633</ele>
        <time>2013-05-30T09:40:51Z</time>
      </trkpt>
      <trkpt lat="45.54915" lon="5.884">
        <ele>444.09296</ele>
        <time>2013-05-30T09:40:54Z</time>
      </trkpt>
      <trkpt lat="45.54932" lon="5.88413">
        <ele>442.1669</ele>
        <time>2013-05-30T09:40:58Z</time>
      </trkpt>
      <trkpt lat="45.5495" lon="5.8842">
        <ele>437.5689</ele>
        <time>2013-05-30T09:43:06Z</time>
      </trkpt>
      <trkpt lat="45.54971" lon="5.88428">
        <ele>436.1683</ele>
        <time>2013-05-30T09:43:10Z</time>
      </trkpt>
      <trkpt lat="45.54995" lon="5.88434">
        <ele>434.41418</ele>
        <time>2013-05-30T09:43:14Z</time>
      </trkpt>
      <trkpt lat="45.55016" lon="5.88443">
        <ele>433.106</ele>
        <time>2013-05-30T09:43:17Z</time>
      </trkpt>
      <trkpt lat="45.55034" lon="5.88459">
        <ele>432.53378</ele>
        <time>2013-05-30T09:43:20Z</time>
      </trkpt>
      <trkpt lat="45.55047" lon="5.88483">
        <ele>431.64236</ele>
        <time>2013-05-30T09:43:23Z</time>
      </trkpt>
      <trkpt lat="45.55053" lon="5.88516">
        <ele>430.51633</ele>
        <time>2013-05-30T09:43:26Z</time>
      </trkpt>
      <trkpt lat="45.55058" lon="5.88548">
        <ele>428.58344</ele>
        <time>2013-05-30T09:43:29Z</time>
      </trkpt>
      <trkpt lat="45.55071" lon="5.88577">
        <ele>426.8274</ele>
        <time>2013-05-30T09:43:32Z</time>
      </trkpt>
      <trkpt lat="45.55095" lon="5.88594">
        <ele>425.9725</ele>
        <time>2013-05-30T09:43:35Z</time>
      </trkpt>
      <trkpt lat="45.55116" lon="5.88612">
        <ele>424.71652</ele>
        <time>2013-05-30T09:43:38Z</time>
      </trkpt>
      <trkpt lat="45.5514" lon="5.8862">
        <ele>423.43823</ele>
        <time>2013-05-30T09:43:41Z</time>
      </trkpt>
      <trkpt lat="45.55165" lon="5.88622">
        <ele>421.35986</ele>
        <time>2013-05-30T09:43:44Z</time>
      </trkpt>
      <trkpt lat="45.55183" lon="5.88611">
        <ele>420.48367</ele>
        <time>2013-05-30T09:43:46Z</time>
      </trkpt>
      <trkpt lat="45.552" lon="5.88599">
        <ele>419.3658</ele>
        <time>2013-05-30T09:43:48Z</time>
      </trkpt>
      <trkpt lat="45.55219" lon="5.88585">
        <ele>417.78076</ele>
        <time>2013-05-30T09:43:50Z</time>
      </trkpt>
      <trkpt lat="45.55238" lon="5.88574">
        <ele>415.33917</ele>
        <time>2013-05-30T09:43:52Z</time>
      </trkpt>
      <trkpt lat="45.55257" lon="5.8857">
        <ele>413.10956</ele>
        <time>2013-05-30T09:43:54Z</time>
      </trkpt>
      <trkpt lat="45.55277" lon="5.88571">
        <ele>411.03662</ele>
        <time>2013-05-30T09:43:56Z</time>
      </trkpt>
      <trkpt lat="45.55296" lon="5.88574">
        <ele>409.78934</ele>
        <time>2013-05-30T09:43:58Z</time>
      </trkpt>
      <trkpt lat="45.55316" lon="5.8858">
        <ele>409.1065</ele>
        <time>2013-05-30T09:44:00Z</time>
      </trkpt>
      <trkpt lat="45.55337" lon="5.88579">
        <ele>407.2168</ele>
        <time>2013-05-30T09:44:03Z</time>
      </trkpt>
      <trkpt lat="45.55354" lon="5.88591">
        <ele>406.09772</ele>
        <time>2013-05-30T09:44:06Z</time>
      </trkpt>
      <trkpt lat="45.55364" lon="5.88618">
        <ele>404.54224</ele>
        <time>2013-05-30T09:44:10Z</time>
      </trkpt>
      <trkpt lat="45.55369" lon="5.88646">
        <ele>402.55753</ele>
        <time>2013-05-30T09:44:14Z</time>
      </trkpt>
      <trkpt lat="45.55366" lon="5.88674">
        <ele>399.90396</ele>
        <time>2013-05-30T09:44:17Z</time>
      </trkpt>
      <trkpt lat="45.5536" lon="5.88702">
        <ele>397.3001</ele>
        <time>2013-05-30T09:44:20Z</time>
      </trkpt>
      <trkpt lat="45.55353" lon="5.8873">
        <ele>395.1391</ele>
        <time>2013-05-30T09:44:23Z</time>
      </trkpt>
      <trkpt lat="45.55357" lon="5.8876">
        <ele>392.89307</ele>
        <time>2013-05-30T09:44:26Z</time>
      </trkpt>
      <trkpt lat="45.55364" lon="5.88789">
        <ele>391.59863</ele>
        <time>2013-05-30T09:44:29Z</time>
      </trkpt>
      <trkpt lat="45.55374" lon="5.88819">
        <ele>388.79004</ele>
        <time>2013-05-30T09:44:32Z</time>
      </trkpt>
      <trkpt lat="45.55388" lon="5.88846">
        <ele>386.84268</ele>
        <time>2013-05-30T09:44:35Z</time>
      </trkpt>
      <trkpt lat="45.55399" lon="5.88875">
        <ele>385.98676</ele>
        <time>2013-05-30T09:44:38Z</time>
      </trkpt>
      <trkpt lat="45.55397" lon="5.88908">
        <ele>386.48004</ele>
        <time>2013-05-30T09:44:40Z</time>
      </trkpt>
      <trkpt lat="45.55401" lon="5.88934">
        <ele>385.71378</ele>
        <time>2013-05-30T09:44:42Z</time>
      </trkpt>
      <trkpt lat="45.55405" lon="5.88971">
        <ele>383.0183</ele>
        <time>2013-05-30T09:44:45Z</time>
      </trkpt>
      <trkpt lat="45.55404" lon="5.89009">
        <ele>380.2749</ele>
        <time>2013-05-30T09:44:48Z</time>
      </trkpt>
      <trkpt lat="45.55407" lon="5.89042">
        <ele>378.45972</ele>
        <time>2013-05-30T09:44:51Z</time>
      </trkpt>
      <trkpt lat="45.55425" lon="5.89055">
        <ele>374.42365</ele>
        <time>2013-05-30T09:44:54Z</time>
      </trkpt>
      <trkpt lat="45.55437" lon="5.89082">
        <ele>370.01685</ele>
        <time>2013-05-30T09:44:58Z</time>
      </trkpt>
      <trkpt lat="45.55429" lon="5.89106">
        <ele>367.469</ele>
        <time>2013-05-30T09:45:02Z</time>
      </trkpt>
      <trkpt lat="45.55416" lon="5.89126">
        <ele>365.75256</ele>
        <time>2013-05-30T09:45:05Z</time>
      </trkpt>
      <trkpt lat="45.55402" lon="5.89149">
        <ele>363.95178</ele>
        <time>2013-05-30T09:45:09Z</time>
      </trkpt>
      <trkpt lat="45.55399" lon="5.89176">
        <ele>361.96317</ele>
        <time>2013-05-30T09:45:14Z</time>
      </trkpt>
      <trkpt lat="45.5542" lon="5.89174">
        <ele>361.4396</ele>
        <time>2013-05-30T09:45:19Z</time>
      </trkpt>
      <trkpt lat="45.5544" lon="5.89174">
        <ele>360.4766</ele>
        <time>2013-05-30T09:45:23Z</time>
      </trkpt>
      <trkpt lat="45.55458" lon="5.89185">
        <ele>359.21408</ele>
        <time>2013-05-30T09:45:27Z</time>
      </trkpt>
      <trkpt lat="45.55475" lon="5.89199">
        <ele>360.13843</ele>
        <time>2013-05-30T09:45:31Z</time>
      </trkpt>
      <trkpt lat="45.55575" lon="5.89297">
        <ele>359.4</ele>
        <time>2013-05-30T09:45:54Z</time>
      </trkpt>
      <trkpt lat="45.55592" lon="5.89316">
        <ele>357.74982</ele>
        <time>2013-05-30T09:45:59Z</time>
      </trkpt>
      <trkpt lat="45.55607" lon="5.8933">
        <ele>358.18695</ele>
        <time>2013-05-30T09:46:05Z</time>
      </trkpt>
      <trkpt lat="45.55623" lon="5.89349">
        <ele>358.6804</ele>
        <time>2013-05-30T09:46:23Z</time>
      </trkpt>
      <trkpt lat="45.55644" lon="5.89365">
        <ele>357.8148</ele>
        <time>2013-05-30T09:46:28Z</time>
      </trkpt>
      <trkpt lat="45.5566" lon="5.89381">
        <ele>357.22382</ele>
        <time>2013-05-30T09:46:32Z</time>
      </trkpt>
      <trkpt lat="45.55678" lon="5.89397">
        <ele>356.66144</ele>
        <time>2013-05-30T09:46:36Z</time>
      </trkpt>
      <trkpt lat="45.55693" lon="5.89413">
        <ele>356.2206</ele>
        <time>2013-05-30T09:46:40Z</time>
      </trkpt>
      <trkpt lat="45.5571" lon="5.89428">
        <ele>359.58075</ele>
        <time>2013-05-30T09:46:44Z</time>
      </trkpt>
      <trkpt lat="45.55727" lon="5.89446">
        <ele>360.79547</ele>
        <time>2013-05-30T09:46:48Z</time>
      </trkpt>
      <trkpt lat="45.55743" lon="5.89463">
        <ele>359.5013</ele>
        <time>2013-05-30T09:46:52Z</time>
      </trkpt>
      <trkpt lat="45.55762" lon="5.8948">
        <ele>357.93323</ele>
        <time>2013-05-30T09:46:56Z</time>
      </trkpt>
      <trkpt lat="45.55779" lon="5.89494">
        <ele>356.58316</ele>
        <time>2013-05-30T09:47:00Z</time>
      </trkpt>
      <trkpt lat="45.55795" lon="5.8951">
        <ele>355.61655</ele>
        <time>2013-05-30T09:47:04Z</time>
      </trkpt>
      <trkpt lat="45.55811" lon="5.89528">
        <ele>354.30173</ele>
        <time>2013-05-30T09:47:08Z</time>
      </trkpt>
      <trkpt lat="45.55828" lon="5.89546">
        <ele>353.09274</ele>
        <time>2013-05-30T09:47:12Z</time>
      </trkpt>
      <trkpt lat="45.55847" lon="5.89564">
        <ele>352.05902</ele>
        <time>2013-05-30T09:47:16Z</time>
      </trkpt>
      <trkpt lat="45.55864" lon="5.89581">
        <ele>351.04446</ele>
        <time>2013-05-30T09:47:20Z</time>
      </trkpt>
      <trkpt lat="45.55884" lon="5.89598">
        <ele>349.42267</ele>
        <time>2013-05-30T09:47:24Z</time>
      </trkpt>
      <trkpt lat="45.559" lon="5.89612">
        <ele>349.4025</ele>
        <time>2013-05-30T09:47:28Z</time>
      </trkpt>
      <trkpt lat="45.55908" lon="5.89637">
        <ele>349.63632</ele>
        <time>2013-05-30T09:47:32Z</time>
      </trkpt>
      <trkpt lat="45.55923" lon="5.89653">
        <ele>348.8404</ele>
        <time>2013-05-30T09:47:36Z</time>
      </trkpt>
      <trkpt lat="45.55944" lon="5.89644">
        <ele>347.5594</ele>
        <time>2013-05-30T09:47:41Z</time>
      </trkpt>
      <trkpt lat="45.55951" lon="5.89619">
        <ele>347.8012</ele>
        <time>2013-05-30T09:47:46Z</time>
      </trkpt>
      <trkpt lat="45.55944" lon="5.89595">
        <ele>348.8201</ele>
        <time>2013-05-30T09:47:52Z</time>
      </trkpt>
      <trkpt lat="45.55928" lon="5.89578">
        <ele>349.96664</ele>
        <time>2013-05-30T09:47:58Z</time>
      </trkpt>
      <trkpt lat="45.55945" lon="5.89563">
        <ele>350.78662</ele>
        <time>2013-05-30T09:48:05Z</time>
      </trkpt>
      <trkpt lat="45.55958" lon="5.89545">
        <ele>350.0814</ele>
        <time>2013-05-30T09:48:10Z</time>
      </trkpt>
      <trkpt lat="45.55975" lon="5.89527">
        <ele>349.27545</ele>
        <time>2013-05-30T09:48:15Z</time>
      </trkpt>
      <trkpt lat="45.55992" lon="5.89515">
        <ele>348.85864</ele>
        <time>2013-05-30T09:48:19Z</time>
      </trkpt>
      <trkpt lat="45.56011" lon="5.89507">
        <ele>347.826</ele>
        <time>2013-05-30T09:48:23Z</time>
      </trkpt>
      <trkpt lat="45.56028" lon="5.89497">
        <ele>346.2918</ele>
        <time>2013-05-30T09:48:27Z</time>
      </trkpt>
      <trkpt lat="45.56045" lon="5.89486">
        <ele>345.9396</ele>
        <time>2013-05-30T09:48:31Z</time>
      </trkpt>
      <trkpt lat="45.56063" lon="5.89468">
        <ele>344.06134</ele>
        <time>2013-05-30T09:48:36Z</time>
      </trkpt>
      <trkpt lat="45.56083" lon="5.89463">
        <ele>343.22995</ele>
        <time>2013-05-30T09:48:40Z</time>
      </trkpt>
      <trkpt lat="45.56103" lon="5.89452">
        <ele>342.8911</ele>
        <time>2013-05-30T09:48:44Z</time>
      </trkpt>
      <trkpt lat="45.56124" lon="5.89437">
        <ele>342.4093</ele>
        <time>2013-05-30T09:48:48Z</time>
      </trkpt>
      <trkpt lat="45.56145" lon="5.89424">
        <ele>341.8932</ele>
        <time>2013-05-30T09:48:52Z</time>
      </trkpt>
      <trkpt lat="45.56165" lon="5.89411">
        <ele>341.77167</ele>
        <time>2013-05-30T09:48:56Z</time>
      </trkpt>
      <trkpt lat="45.56186" lon="5.89397">
        <ele>342.4469</ele>
        <time>2013-05-30T09:49:00Z</time>
      </trkpt>
      <trkpt lat="45.56206" lon="5.89384">
        <ele>342.6953</ele>
        <time>2013-05-30T09:49:04Z</time>
      </trkpt>
      <trkpt lat="45.56217" lon="5.89364">
        <ele>343.15125</ele>
        <time>2013-05-30T09:49:08Z</time>
      </trkpt>
      <trkpt lat="45.56235" lon="5.89351">
        <ele>341.90933</ele>
        <time>2013-05-30T09:49:19Z</time>
      </trkpt>
      <trkpt lat="45.56257" lon="5.89356">
        <ele>341.85062</ele>
        <time>2013-05-30T09:49:25Z</time>
      </trkpt>
      <trkpt lat="45.56275" lon="5.89352">
        <ele>343.816</ele>
        <time>2013-05-30T09:49:29Z</time>
      </trkpt>
      <trkpt lat="45.56293" lon="5.89349">
        <ele>344.5414</ele>
        <time>2013-05-30T09:49:33Z</time>
      </trkpt>
      <trkpt lat="45.56313" lon="5.89344">
        <ele>344.82794</ele>
        <time>2013-05-30T09:49:37Z</time>
      </trkpt>
      <trkpt lat="45.56333" lon="5.8934">
        <ele>343.79987</ele>
        <time>2013-05-30T09:49:41Z</time>
      </trkpt>
      <trkpt lat="45.56351" lon="5.89339">
        <ele>342.54214</ele>
        <time>2013-05-30T09:49:44Z</time>
      </trkpt>
      <trkpt lat="45.56373" lon="5.89337">
        <ele>341.952</ele>
        <time>2013-05-30T09:49:48Z</time>
      </trkpt>
      <trkpt lat="45.56394" lon="5.89339">
        <ele>341.57465</ele>
        <time>2013-05-30T09:49:52Z</time>
      </trkpt>
      <trkpt lat="45.56413" lon="5.89339">
        <ele>342.6322</ele>
        <time>2013-05-30T09:49:56Z</time>
      </trkpt>
      <trkpt lat="45.56434" lon="5.89339">
        <ele>342.03088</ele>
        <time>2013-05-30T09:50:00Z</time>
      </trkpt>
      <trkpt lat="45.56453" lon="5.8934">
        <ele>339.92307</ele>
        <time>2013-05-30T09:50:04Z</time>
      </trkpt>
      <trkpt lat="45.56473" lon="5.89342">
        <ele>338.47018</ele>
        <time>2013-05-30T09:50:08Z</time>
      </trkpt>
      <trkpt lat="45.56494" lon="5.8934">
        <ele>337.6015</ele>
        <time>2013-05-30T09:50:12Z</time>
      </trkpt>
      <trkpt lat="45.56514" lon="5.89336">
        <ele>336.51767</ele>
        <time>2013-05-30T09:50:16Z</time>
      </trkpt>
      <trkpt lat="45.56533" lon="5.89336">
        <ele>335.6134</ele>
        <time>2013-05-30T09:50:20Z</time>
      </trkpt>
      <trkpt lat="45.56554" lon="5.89341">
        <ele>333.67807</ele>
        <time>2013-05-30T09:50:24Z</time>
      </trkpt>
      <trkpt lat="45.56573" lon="5.89335">
        <ele>332.71805</ele>
        <time>2013-05-30T09:50:28Z</time>
      </trkpt>
      <trkpt lat="45.56594" lon="5.89334">
        <ele>331.27213</ele>
        <time>2013-05-30T09:50:32Z</time>
      </trkpt>
      <trkpt lat="45.56614" lon="5.89327">
        <ele>330.4525</ele>
        <time>2013-05-30T09:50:36Z</time>
      </trkpt>
      <trkpt lat="45.56634" lon="5.8932">
        <ele>330.39786</ele>
        <time>2013-05-30T09:50:40Z</time>
      </trkpt>
      <trkpt lat="45.56655" lon="5.89312">
        <ele>330.55322</ele>
        <time>2013-05-30T09:50:44Z</time>
      </trkpt>
      <trkpt lat="45.56675" lon="5.89305">
        <ele>330.42465</ele>
        <time>2013-05-30T09:50:48Z</time>
      </trkpt>
      <trkpt lat="45.56695" lon="5.89298">
        <ele>330.23123</ele>
        <time>2013-05-30T09:50:52Z</time>
      </trkpt>
      <trkpt lat="45.56716" lon="5.89288">
        <ele>331.46005</ele>
        <time>2013-05-30T09:50:57Z</time>
      </trkpt>
      <trkpt lat="45.56737" lon="5.89279">
        <ele>333.37296</ele>
        <time>2013-05-30T09:51:02Z</time>
      </trkpt>
      <trkpt lat="45.56757" lon="5.89271">
        <ele>332.63986</ele>
        <time>2013-05-30T09:51:06Z</time>
      </trkpt>
      <trkpt lat="45.56777" lon="5.89263">
        <ele>332.40637</ele>
        <time>2013-05-30T09:51:10Z</time>
      </trkpt>
      <trkpt lat="45.56796" lon="5.89254">
        <ele>333.40826</ele>
        <time>2013-05-30T09:51:14Z</time>
      </trkpt>
      <trkpt lat="45.56816" lon="5.89247">
        <ele>333.40768</ele>
        <time>2013-05-30T09:51:18Z</time>
      </trkpt>
      <trkpt lat="45.56833" lon="5.89241">
        <ele>333.6884</ele>
        <time>2013-05-30T09:51:22Z</time>
      </trkpt>
      <trkpt lat="45.56851" lon="5.89234">
        <ele>333.59085</ele>
        <time>2013-05-30T09:51:26Z</time>
      </trkpt>
      <trkpt lat="45.56865" lon="5.89211">
        <ele>333.81454</ele>
        <time>2013-05-30T09:51:31Z</time>
      </trkpt>
      <trkpt lat="45.56885" lon="5.89206">
        <ele>333.70795</ele>
        <time>2013-05-30T09:51:37Z</time>
      </trkpt>
      <trkpt lat="45.56906" lon="5.89205">
        <ele>333.09262</ele>
        <time>2013-05-30T09:51:42Z</time>
      </trkpt>
      <trkpt lat="45.56924" lon="5.89203">
        <ele>332.35782</ele>
        <time>2013-05-30T09:51:46Z</time>
      </trkpt>
      <trkpt lat="45.56944" lon="5.89195">
        <ele>330.81244</ele>
        <time>2013-05-30T09:51:50Z</time>
      </trkpt>
      <trkpt lat="45.56962" lon="5.89191">
        <ele>330.2551</ele>
        <time>2013-05-30T09:51:54Z</time>
      </trkpt>
      <trkpt lat="45.5698" lon="5.89185">
        <ele>329.46237</ele>
        <time>2013-05-30T09:51:58Z</time>
      </trkpt>
      <trkpt lat="45.56999" lon="5.89178">
        <ele>331.1377</ele>
        <time>2013-05-30T09:52:02Z</time>
      </trkpt>
      <trkpt lat="45.57019" lon="5.8917">
        <ele>330.95023</ele>
        <time>2013-05-30T09:52:06Z</time>
      </trkpt>
      <trkpt lat="45.5704" lon="5.89158">
        <ele>330.7072</ele>
        <time>2013-05-30T09:52:11Z</time>
      </trkpt>
      <trkpt lat="45.57059" lon="5.89145">
        <ele>329.80777</ele>
        <time>2013-05-30T09:52:15Z</time>
      </trkpt>
      <trkpt lat="45.57076" lon="5.89134">
        <ele>330.21066</ele>
        <time>2013-05-30T09:52:19Z</time>
      </trkpt>
      <trkpt lat="45.57094" lon="5.89123">
        <ele>329.65375</ele>
        <time>2013-05-30T09:52:23Z</time>
      </trkpt>
      <trkpt lat="45.57112" lon="5.89111">
        <ele>329.44553</ele>
        <time>2013-05-30T09:52:27Z</time>
      </trkpt>
      <trkpt lat="45.57129" lon="5.89098">
        <ele>329.49994</ele>
        <time>2013-05-30T09:52:31Z</time>
      </trkpt>
      <trkpt lat="45.57147" lon="5.89084">
        <ele>329.92148</ele>
        <time>2013-05-30T09:52:35Z</time>
      </trkpt>
      <trkpt lat="45.57162" lon="5.89065">
        <ele>330.27475</ele>
        <time>2013-05-30T09:52:39Z</time>
      </trkpt>
      <trkpt lat="45.57178" lon="5.89045">
        <ele>330.77643</ele>
        <time>2013-05-30T09:52:44Z</time>
      </trkpt>
      <trkpt lat="45.57187" lon="5.89018">
        <ele>329.9632</ele>
        <time>2013-05-30T09:52:50Z</time>
      </trkpt>
      <trkpt lat="45.57199" lon="5.88999">
        <ele>330.54422</ele>
        <time>2013-05-30T09:52:58Z</time>
      </trkpt>
      <trkpt lat="45.57217" lon="5.89012">
        <ele>330.24243</ele>
        <time>2013-05-30T09:53:03Z</time>
      </trkpt>
      <trkpt lat="45.57239" lon="5.89004">
        <ele>331.35327</ele>
        <time>2013-05-30T09:53:07Z</time>
      </trkpt>
      <trkpt lat="45.57255" lon="5.88989">
        <ele>332.37717</ele>
        <time>2013-05-30T09:53:10Z</time>
      </trkpt>
      <trkpt lat="45.57271" lon="5.88973">
        <ele>333.36224</ele>
        <time>2013-05-30T09:53:13Z</time>
      </trkpt>
      <trkpt lat="45.5729" lon="5.88952">
        <ele>333.05252</ele>
        <time>2013-05-30T09:53:17Z</time>
      </trkpt>
      <trkpt lat="45.57312" lon="5.88941">
        <ele>331.34827</ele>
        <time>2013-05-30T09:53:21Z</time>
      </trkpt>
      <trkpt lat="45.57334" lon="5.88933">
        <ele>329.40668</ele>
        <time>2013-05-30T09:53:25Z</time>
      </trkpt>
      <trkpt lat="45.57354" lon="5.88919">
        <ele>327.5056</ele>
        <time>2013-05-30T09:53:29Z</time>
      </trkpt>
      <trkpt lat="45.57374" lon="5.88907">
        <ele>325.85294</ele>
        <time>2013-05-30T09:53:33Z</time>
      </trkpt>
      <trkpt lat="45.57393" lon="5.88895">
        <ele>324.81674</ele>
        <time>2013-05-30T09:53:37Z</time>
      </trkpt>
      <trkpt lat="45.57411" lon="5.88878">
        <ele>323.83188</ele>
        <time>2013-05-30T09:53:41Z</time>
      </trkpt>
      <trkpt lat="45.57429" lon="5.8887">
        <ele>324.4722</ele>
        <time>2013-05-30T09:53:45Z</time>
      </trkpt>
      <trkpt lat="45.57447" lon="5.88859">
        <ele>323.05447</ele>
        <time>2013-05-30T09:53:49Z</time>
      </trkpt>
      <trkpt lat="45.57467" lon="5.88846">
        <ele>322.47623</ele>
        <time>2013-05-30T09:53:53Z</time>
      </trkpt>
      <trkpt lat="45.57487" lon="5.88833">
        <ele>322.59598</ele>
        <time>2013-05-30T09:53:57Z</time>
      </trkpt>
      <trkpt lat="45.57506" lon="5.88822">
        <ele>321.9042</ele>
        <time>2013-05-30T09:54:01Z</time>
      </trkpt>
      <trkpt lat="45.57525" lon="5.88811">
        <ele>321.0525</ele>
        <time>2013-05-30T09:54:05Z</time>
      </trkpt>
      <trkpt lat="45.57546" lon="5.88802">
        <ele>323.61386</ele>
        <time>2013-05-30T09:54:09Z</time>
      </trkpt>
      <trkpt lat="45.57568" lon="5.88797">
        <ele>323.65985</ele>
        <time>2013-05-30T09:54:13Z</time>
      </trkpt>
      <trkpt lat="45.57589" lon="5.88793">
        <ele>325.6076</ele>
        <time>2013-05-30T09:54:17Z</time>
      </trkpt>
      <trkpt lat="45.5761" lon="5.88792">
        <ele>326.56802</ele>
        <time>2013-05-30T09:54:21Z</time>
      </trkpt>
      <trkpt lat="45.57629" lon="5.88791">
        <ele>325.11932</ele>
        <time>2013-05-30T09:54:24Z</time>
      </trkpt>
      <trkpt lat="45.57647" lon="5.88787">
        <ele>323.86908</ele>
        <time>2013-05-30T09:54:27Z</time>
      </trkpt>
      <trkpt lat="45.57666" lon="5.88782">
        <ele>322.01196</ele>
        <time>2013-05-30T09:54:30Z</time>
      </trkpt>
      <trkpt lat="45.57689" lon="5.88775">
        <ele>320.76395</ele>
        <time>2013-05-30T09:54:34Z</time>
      </trkpt>
      <trkpt lat="45.57711" lon="5.8876">
        <ele>321.85577</ele>
        <time>2013-05-30T09:54:38Z</time>
      </trkpt>
      <trkpt lat="45.57729" lon="5.88746">
        <ele>322.64578</ele>
        <time>2013-05-30T09:54:42Z</time>
      </trkpt>
      <trkpt lat="45.5775" lon="5.88737">
        <ele>321.88675</ele>
        <time>2013-05-30T09:54:46Z</time>
      </trkpt>
      <trkpt lat="45.5777" lon="5.88732">
        <ele>320.14462</ele>
        <time>2013-05-30T09:54:50Z</time>
      </trkpt>
      <trkpt lat="45.57789" lon="5.88732">
        <ele>318.85397</ele>
        <time>2013-05-30T09:54:54Z</time>
      </trkpt>
      <trkpt lat="45.57936" lon="5.88741">
        <ele>317.3866</ele>
        <time>2013-05-30T09:55:24Z</time>
      </trkpt>
      <trkpt lat="45.57956" lon="5.88744">
        <ele>321.5023</ele>
        <time>2013-05-30T09:55:30Z</time>
      </trkpt>
      <trkpt lat="45.57976" lon="5.88748">
        <ele>320.67935</ele>
        <time>2013-05-30T09:55:37Z</time>
      </trkpt>
      <trkpt lat="45.57997" lon="5.88751">
        <ele>318.80267</ele>
        <time>2013-05-30T09:55:43Z</time>
      </trkpt>
      <trkpt lat="45.58015" lon="5.88752">
        <ele>318.0889</ele>
        <time>2013-05-30T09:55:48Z</time>
      </trkpt>
      <trkpt lat="45.58037" lon="5.88753">
        <ele>317.0467</ele>
        <time>2013-05-30T09:55:53Z</time>
      </trkpt>
      <trkpt lat="45.58058" lon="5.88753">
        <ele>317.1391</ele>
        <time>2013-05-30T09:55:58Z</time>
      </trkpt>
      <trkpt lat="45.5808" lon="5.88754">
        <ele>317.32187</ele>
        <time>2013-05-30T09:56:03Z</time>
      </trkpt>
      <trkpt lat="45.58102" lon="5.88755">
        <ele>317.01123</ele>
        <time>2013-05-30T09:56:08Z</time>
      </trkpt>
      <trkpt lat="45.5812" lon="5.88755">
        <ele>316.80045</ele>
        <time>2013-05-30T09:56:12Z</time>
      </trkpt>
      <trkpt lat="45.58141" lon="5.88755">
        <ele>316.4583</ele>
        <time>2013-05-30T09:56:17Z</time>
      </trkpt>
      <trkpt lat="45.5816" lon="5.88744">
        <ele>316.23727</ele>
        <time>2013-05-30T09:56:22Z</time>
      </trkpt>
      <trkpt lat="45.58174" lon="5.88726">
        <ele>315.95865</ele>
        <time>2013-05-30T09:56:27Z</time>
      </trkpt>
      <trkpt lat="45.58193" lon="5.88717">
        <ele>314.94574</ele>
        <time>2013-05-30T09:56:32Z</time>
      </trkpt>
      <trkpt lat="45.58209" lon="5.88706">
        <ele>314.6969</ele>
        <time>2013-05-30T09:56:36Z</time>
      </trkpt>
      <trkpt lat="45.58223" lon="5.8869">
        <ele>314.3631</ele>
        <time>2013-05-30T09:56:40Z</time>
      </trkpt>
      <trkpt lat="45.58242" lon="5.88677">
        <ele>314.80588</ele>
        <time>2013-05-30T09:56:45Z</time>
      </trkpt>
      <trkpt lat="45.58258" lon="5.88664">
        <ele>313.85654</ele>
        <time>2013-05-30T09:56:49Z</time>
      </trkpt>
      <trkpt lat="45.58276" lon="5.88645">
        <ele>314.14093</ele>
        <time>2013-05-30T09:56:53Z</time>
      </trkpt>
      <trkpt lat="45.58295" lon="5.88634">
        <ele>314.55084</ele>
        <time>2013-05-30T09:56:57Z</time>
      </trkpt>
      <trkpt lat="45.58314" lon="5.8862">
        <ele>314.05515</ele>
        <time>2013-05-30T09:57:01Z</time>
      </trkpt>
      <trkpt lat="45.58334" lon="5.88612">
        <ele>312.84305</ele>
        <time>2013-05-30T09:57:07Z</time>
      </trkpt>
      <trkpt lat="45.58355" lon="5.88599">
        <ele>312.05093</ele>
        <time>2013-05-30T09:57:12Z</time>
      </trkpt>
      <trkpt lat="45.58371" lon="5.88587">
        <ele>313.16965</ele>
        <time>2013-05-30T09:57:16Z</time>
      </trkpt>
      <trkpt lat="45.58391" lon="5.88572">
        <ele>313.94925</ele>
        <time>2013-05-30T09:57:21Z</time>
      </trkpt>
      <trkpt lat="45.58409" lon="5.88558">
        <ele>315.1347</ele>
        <time>2013-05-30T09:57:25Z</time>
      </trkpt>
      <trkpt lat="45.58428" lon="5.88546">
        <ele>315.19653</ele>
        <time>2013-05-30T09:57:29Z</time>
      </trkpt>
      <trkpt lat="45.58448" lon="5.88534">
        <ele>314.51062</ele>
        <time>2013-05-30T09:57:33Z</time>
      </trkpt>
      <trkpt lat="45.58466" lon="5.88519">
        <ele>313.98462</ele>
        <time>2013-05-30T09:57:37Z</time>
      </trkpt>
      <trkpt lat="45.58486" lon="5.88508">
        <ele>312.801</ele>
        <time>2013-05-30T09:57:41Z</time>
      </trkpt>
      <trkpt lat="45.58505" lon="5.88496">
        <ele>311.71515</ele>
        <time>2013-05-30T09:57:45Z</time>
      </trkpt>
      <trkpt lat="45.58525" lon="5.88482">
        <ele>309.87744</ele>
        <time>2013-05-30T09:57:49Z</time>
      </trkpt>
      <trkpt lat="45.58544" lon="5.88469">
        <ele>308.6866</ele>
        <time>2013-05-30T09:57:53Z</time>
      </trkpt>
      <trkpt lat="45.58562" lon="5.88456">
        <ele>307.4602</ele>
        <time>2013-05-30T09:57:57Z</time>
      </trkpt>
      <trkpt lat="45.58579" lon="5.88442">
        <ele>307.14288</ele>
        <time>2013-05-30T09:58:01Z</time>
      </trkpt>
      <trkpt lat="45.58596" lon="5.88432">
        <ele>305.9245</ele>
        <time>2013-05-30T09:58:05Z</time>
      </trkpt>
      <trkpt lat="45.58614" lon="5.88418">
        <ele>309.51947</ele>
        <time>2013-05-30T09:58:09Z</time>
      </trkpt>
      <trkpt lat="45.58631" lon="5.88405">
        <ele>310.69913</ele>
        <time>2013-05-30T09:58:13Z</time>
      </trkpt>
      <trkpt lat="45.58648" lon="5.88395">
        <ele>310.83176</ele>
        <time>2013-05-30T09:58:17Z</time>
      </trkpt>
      <trkpt lat="45.58666" lon="5.88383">
        <ele>309.48935</ele>
        <time>2013-05-30T09:58:21Z</time>
      </trkpt>
      <trkpt lat="45.58685" lon="5.88366">
        <ele>307.25882</ele>
        <time>2013-05-30T09:58:27Z</time>
      </trkpt>
      <trkpt lat="45.58703" lon="5.88355">
        <ele>307.6206</ele>
        <time>2013-05-30T09:58:32Z</time>
      </trkpt>
      <trkpt lat="45.58722" lon="5.88343">
        <ele>308.30136</ele>
        <time>2013-05-30T09:58:37Z</time>
      </trkpt>
      <trkpt lat="45.58738" lon="5.8833">
        <ele>307.76605</ele>
        <time>2013-05-30T09:58:41Z</time>
      </trkpt>
      <trkpt lat="45.58757" lon="5.88319">
        <ele>307.84995</ele>
        <time>2013-05-30T09:58:46Z</time>
      </trkpt>
      <trkpt lat="45.58777" lon="5.88305">
        <ele>310.7268</ele>
        <time>2013-05-30T09:58:51Z</time>
      </trkpt>
      <trkpt lat="45.58794" lon="5.88293">
        <ele>312.09012</ele>
        <time>2013-05-30T09:58:55Z</time>
      </trkpt>
      <trkpt lat="45.58813" lon="5.8828">
        <ele>311.3078</ele>
        <time>2013-05-30T09:58:59Z</time>
      </trkpt>
      <trkpt lat="45.58832" lon="5.88266">
        <ele>309.92285</ele>
        <time>2013-05-30T09:59:04Z</time>
      </trkpt>
      <trkpt lat="45.5885" lon="5.88254">
        <ele>307.03033</ele>
        <time>2013-05-30T09:59:09Z</time>
      </trkpt>
      <trkpt lat="45.58866" lon="5.88238">
        <ele>307.24915</ele>
        <time>2013-05-30T09:59:15Z</time>
      </trkpt>
      <trkpt lat="45.58883" lon="5.88227">
        <ele>306.73218</ele>
        <time>2013-05-30T09:59:20Z</time>
      </trkpt>
      <trkpt lat="45.58901" lon="5.88215">
        <ele>305.61584</ele>
        <time>2013-05-30T09:59:25Z</time>
      </trkpt>
      <trkpt lat="45.5892" lon="5.88204">
        <ele>305.13403</ele>
        <time>2013-05-30T09:59:30Z</time>
      </trkpt>
      <trkpt lat="45.58939" lon="5.88194">
        <ele>304.03992</ele>
        <time>2013-05-30T09:59:35Z</time>
      </trkpt>
      <trkpt lat="45.58956" lon="5.88185">
        <ele>303.5142</ele>
        <time>2013-05-30T09:59:39Z</time>
      </trkpt>
      <trkpt lat="45.58978" lon="5.88176">
        <ele>303.05365</ele>
        <time>2013-05-30T09:59:44Z</time>
      </trkpt>
      <trkpt lat="45.58997" lon="5.88166">
        <ele>303.23782</ele>
        <time>2013-05-30T09:59:49Z</time>
      </trkpt>
      <trkpt lat="45.59016" lon="5.88156">
        <ele>304.51874</ele>
        <time>2013-05-30T09:59:54Z</time>
      </trkpt>
      <trkpt lat="45.59132" lon="5.88079">
        <ele>305.3501</ele>
        <time>2013-05-30T10:00:25Z</time>
      </trkpt>
      <trkpt lat="45.59146" lon="5.88061">
        <ele>304.40295</ele>
        <time>2013-05-30T10:00:30Z</time>
      </trkpt>
      <trkpt lat="45.59165" lon="5.88045">
        <ele>304.39417</ele>
        <time>2013-05-30T10:00:35Z</time>
      </trkpt>
      <trkpt lat="45.5918" lon="5.88062">
        <ele>308.1921</ele>
        <time>2013-05-30T10:00:49Z</time>
      </trkpt>
      <trkpt lat="45.59197" lon="5.88075">
        <ele>310.94684</ele>
        <time>2013-05-30T10:00:55Z</time>
      </trkpt>
      <trkpt lat="45.59202" lon="5.88102">
        <ele>311.4079</ele>
        <time>2013-05-30T10:01:00Z</time>
      </trkpt>
      <trkpt lat="45.59207" lon="5.8813">
        <ele>311.6314</ele>
        <time>2013-05-30T10:01:04Z</time>
      </trkpt>
      <trkpt lat="45.59212" lon="5.88159">
        <ele>310.6623</ele>
        <time>2013-05-30T10:01:08Z</time>
      </trkpt>
      <trkpt lat="45.59216" lon="5.88188">
        <ele>310.0072</ele>
        <time>2013-05-30T10:01:12Z</time>
      </trkpt>
      <trkpt lat="45.59222" lon="5.88217">
        <ele>309.11673</ele>
        <time>2013-05-30T10:01:16Z</time>
      </trkpt>
      <trkpt lat="45.59227" lon="5.88246">
        <ele>308.49164</ele>
        <time>2013-05-30T10:01:20Z</time>
      </trkpt>
      <trkpt lat="45.59233" lon="5.88276">
        <ele>307.11182</ele>
        <time>2013-05-30T10:01:24Z</time>
      </trkpt>
      <trkpt lat="45.5924" lon="5.88305">
        <ele>306.04083</ele>
        <time>2013-05-30T10:01:28Z</time>
      </trkpt>
      <trkpt lat="45.59245" lon="5.88333">
        <ele>305.29184</ele>
        <time>2013-05-30T10:01:32Z</time>
      </trkpt>
      <trkpt lat="45.59245" lon="5.88361">
        <ele>305.0228</ele>
        <time>2013-05-30T10:01:36Z</time>
      </trkpt>
      <trkpt lat="45.59249" lon="5.8839">
        <ele>304.5408</ele>
        <time>2013-05-30T10:01:40Z</time>
      </trkpt>
      <trkpt lat="45.59254" lon="5.88418">
        <ele>304.29337</ele>
        <time>2013-05-30T10:01:44Z</time>
      </trkpt>
      <trkpt lat="45.59273" lon="5.88429">
        <ele>303.90253</ele>
        <time>2013-05-30T10:01:51Z</time>
      </trkpt>
      <trkpt lat="45.59291" lon="5.88441">
        <ele>304.1626</ele>
        <time>2013-05-30T10:01:57Z</time>
      </trkpt>
      <trkpt lat="45.593" lon="5.88471">
        <ele>304.4557</ele>
        <time>2013-05-30T10:02:02Z</time>
      </trkpt>
      <trkpt lat="45.59309" lon="5.88496">
        <ele>304.05316</ele>
        <time>2013-05-30T10:02:06Z</time>
      </trkpt>
      <trkpt lat="45.59319" lon="5.88518">
        <ele>303.8297</ele>
        <time>2013-05-30T10:02:10Z</time>
      </trkpt>
      <trkpt lat="45.59327" lon="5.88542">
        <ele>303.36566</ele>
        <time>2013-05-30T10:02:14Z</time>
      </trkpt>
      <trkpt lat="45.59335" lon="5.88573">
        <ele>302.91977</ele>
        <time>2013-05-30T10:02:19Z</time>
      </trkpt>
      <trkpt lat="45.5934" lon="5.886">
        <ele>302.77423</ele>
        <time>2013-05-30T10:02:23Z</time>
      </trkpt>
      <trkpt lat="45.59345" lon="5.88626">
        <ele>302.7028</ele>
        <time>2013-05-30T10:02:27Z</time>
      </trkpt>
      <trkpt lat="45.59338" lon="5.88653">
        <ele>302.59882</ele>
        <time>2013-05-30T10:02:32Z</time>
      </trkpt>
      <trkpt lat="45.59339" lon="5.88679">
        <ele>301.79022</ele>
        <time>2013-05-30T10:02:42Z</time>
      </trkpt>
      <trkpt lat="45.59342" lon="5.88707">
        <ele>301.16434</ele>
        <time>2013-05-30T10:02:49Z</time>
      </trkpt>
      <trkpt lat="45.5935" lon="5.88734">
        <ele>300.32993</ele>
        <time>2013-05-30T10:02:57Z</time>
      </trkpt>
      <trkpt lat="45.59359" lon="5.88757">
        <ele>299.563</ele>
        <time>2013-05-30T10:03:01Z</time>
      </trkpt>
      <trkpt lat="45.59362" lon="5.88783">
        <ele>299.4328</ele>
        <time>2013-05-30T10:03:05Z</time>
      </trkpt>
      <trkpt lat="45.59366" lon="5.88809">
        <ele>299.48303</ele>
        <time>2013-05-30T10:03:09Z</time>
      </trkpt>
      <trkpt lat="45.5937" lon="5.88835">
        <ele>299.83722</ele>
        <time>2013-05-30T10:03:13Z</time>
      </trkpt>
      <trkpt lat="45.59376" lon="5.88866">
        <ele>300.4101</ele>
        <time>2013-05-30T10:03:18Z</time>
      </trkpt>
      <trkpt lat="45.59385" lon="5.88888">
        <ele>301.2398</ele>
        <time>2013-05-30T10:03:23Z</time>
      </trkpt>
      <trkpt lat="45.59381" lon="5.88914">
        <ele>301.47543</ele>
        <time>2013-05-30T10:03:30Z</time>
      </trkpt>
      <trkpt lat="45.59382" lon="5.88941">
        <ele>299.66232</ele>
        <time>2013-05-30T10:03:37Z</time>
      </trkpt>
      <trkpt lat="45.59386" lon="5.88968">
        <ele>298.6393</ele>
        <time>2013-05-30T10:03:42Z</time>
      </trkpt>
      <trkpt lat="45.59389" lon="5.88995">
        <ele>301.43863</ele>
        <time>2013-05-30T10:03:47Z</time>
      </trkpt>
      <trkpt lat="45.59393" lon="5.89023">
        <ele>303.38034</ele>
        <time>2013-05-30T10:03:52Z</time>
      </trkpt>
      <trkpt lat="45.59397" lon="5.89051">
        <ele>303.5924</ele>
        <time>2013-05-30T10:03:57Z</time>
      </trkpt>
      <trkpt lat="45.59401" lon="5.89079">
        <ele>303.36383</ele>
        <time>2013-05-30T10:04:02Z</time>
      </trkpt>
      <trkpt lat="45.59406" lon="5.89109">
        <ele>302.8636</ele>
        <time>2013-05-30T10:04:07Z</time>
      </trkpt>
      <trkpt lat="45.5941" lon="5.89135">
        <ele>299.32013</ele>
        <time>2013-05-30T10:04:11Z</time>
      </trkpt>
      <trkpt lat="45.59415" lon="5.89162">
        <ele>298.68253</ele>
        <time>2013-05-30T10:04:15Z</time>
      </trkpt>
      <trkpt lat="45.5942" lon="5.89191">
        <ele>297.8733</ele>
        <time>2013-05-30T10:04:20Z</time>
      </trkpt>
      <trkpt lat="45.59426" lon="5.89215">
        <ele>298.64014</ele>
        <time>2013-05-30T10:04:29Z</time>
      </trkpt>
      <trkpt lat="45.59433" lon="5.89241">
        <ele>299.70563</ele>
        <time>2013-05-30T10:04:34Z</time>
      </trkpt>
      <trkpt lat="45.59443" lon="5.89269">
        <ele>302.2561</ele>
        <time>2013-05-30T10:04:39Z</time>
      </trkpt>
      <trkpt lat="45.59452" lon="5.89292">
        <ele>303.79868</ele>
        <time>2013-05-30T10:04:44Z</time>
      </trkpt>
      <trkpt lat="45.5947" lon="5.89295">
        <ele>305.20746</ele>
        <time>2013-05-30T10:04:52Z</time>
      </trkpt>
      <trkpt lat="45.59622" lon="5.8925">
        <ele>306.75912</ele>
        <time>2013-05-30T10:05:26Z</time>
      </trkpt>
      <trkpt lat="45.59643" lon="5.89247">
        <ele>307.19293</ele>
        <time>2013-05-30T10:05:32Z</time>
      </trkpt>
      <trkpt lat="45.59665" lon="5.89241">
        <ele>308.02277</ele>
        <time>2013-05-30T10:05:36Z</time>
      </trkpt>
      <trkpt lat="45.59684" lon="5.89234">
        <ele>308.83728</ele>
        <time>2013-05-30T10:05:40Z</time>
      </trkpt>
      <trkpt lat="45.59701" lon="5.89228">
        <ele>309.21805</ele>
        <time>2013-05-30T10:05:44Z</time>
      </trkpt>
      <trkpt lat="45.5972" lon="5.89216">
        <ele>305.16483</ele>
        <time>2013-05-30T10:05:49Z</time>
      </trkpt>
      <trkpt lat="45.59738" lon="5.8921">
        <ele>303.72168</ele>
        <time>2013-05-30T10:05:53Z</time>
      </trkpt>
      <trkpt lat="45.59758" lon="5.892">
        <ele>303.81937</ele>
        <time>2013-05-30T10:05:57Z</time>
      </trkpt>
      <trkpt lat="45.59779" lon="5.89191">
        <ele>302.18634</ele>
        <time>2013-05-30T10:06:02Z</time>
      </trkpt>
      <trkpt lat="45.59798" lon="5.89182">
        <ele>299.61786</ele>
        <time>2013-05-30T10:06:07Z</time>
      </trkpt>
      <trkpt lat="45.59815" lon="5.89172">
        <ele>298.5705</ele>
        <time>2013-05-30T10:06:11Z</time>
      </trkpt>
      <trkpt lat="45.59838" lon="5.8916">
        <ele>296.69876</ele>
        <time>2013-05-30T10:06:16Z</time>
      </trkpt>
      <trkpt lat="45.59855" lon="5.89154">
        <ele>295.38242</ele>
        <time>2013-05-30T10:06:20Z</time>
      </trkpt>
      <trkpt lat="45.59873" lon="5.89146">
        <ele>296.12607</ele>
        <time>2013-05-30T10:06:24Z</time>
      </trkpt>
      <trkpt lat="45.59892" lon="5.89137">
        <ele>296.8098</ele>
        <time>2013-05-30T10:06:28Z</time>
      </trkpt>
      <trkpt lat="45.5991" lon="5.89131">
        <ele>297.1496</ele>
        <time>2013-05-30T10:06:32Z</time>
      </trkpt>
      <trkpt lat="45.59929" lon="5.89124">
        <ele>298.00046</ele>
        <time>2013-05-30T10:06:36Z</time>
      </trkpt>
      <trkpt lat="45.59947" lon="5.89116">
        <ele>297.9353</ele>
        <time>2013-05-30T10:06:40Z</time>
      </trkpt>
      <trkpt lat="45.59964" lon="5.89109">
        <ele>298.1545</ele>
        <time>2013-05-30T10:06:44Z</time>
      </trkpt>
      <trkpt lat="45.59982" lon="5.89102">
        <ele>299.4692</ele>
        <time>2013-05-30T10:06:48Z</time>
      </trkpt>
      <trkpt lat="45.59999" lon="5.89092">
        <ele>301.4223</ele>
        <time>2013-05-30T10:06:52Z</time>
      </trkpt>
      <trkpt lat="45.6002" lon="5.89082">
        <ele>302.73605</ele>
        <time>2013-05-30T10:06:57Z</time>
      </trkpt>
      <trkpt lat="45.60038" lon="5.89074">
        <ele>307.87155</ele>
        <time>2013-05-30T10:07:02Z</time>
      </trkpt>
      <trkpt lat="45.60057" lon="5.89066">
        <ele>307.9806</ele>
        <time>2013-05-30T10:07:08Z</time>
      </trkpt>
      <trkpt lat="45.60073" lon="5.89052">
        <ele>310.24347</ele>
        <time>2013-05-30T10:07:12Z</time>
      </trkpt>
      <trkpt lat="45.60088" lon="5.89039">
        <ele>311.0855</ele>
        <time>2013-05-30T10:07:15Z</time>
      </trkpt>
      <trkpt lat="45.60105" lon="5.89022">
        <ele>311.7216</ele>
        <time>2013-05-30T10:07:19Z</time>
      </trkpt>
      <trkpt lat="45.60118" lon="5.89005">
        <ele>313.27832</ele>
        <time>2013-05-30T10:07:23Z</time>
      </trkpt>
      <trkpt lat="45.60133" lon="5.88986">
        <ele>314.22284</ele>
        <time>2013-05-30T10:07:27Z</time>
      </trkpt>
      <trkpt lat="45.60146" lon="5.88966">
        <ele>314.43103</ele>
        <time>2013-05-30T10:07:31Z</time>
      </trkpt>
      <trkpt lat="45.60165" lon="5.8895">
        <ele>312.42078</ele>
        <time>2013-05-30T10:07:35Z</time>
      </trkpt>
      <trkpt lat="45.60181" lon="5.88929">
        <ele>310.2603</ele>
        <time>2013-05-30T10:07:38Z</time>
      </trkpt>
      <trkpt lat="45.60199" lon="5.88907">
        <ele>308.58325</ele>
        <time>2013-05-30T10:07:41Z</time>
      </trkpt>
      <trkpt lat="45.60212" lon="5.88887">
        <ele>306.53198</ele>
        <time>2013-05-30T10:07:44Z</time>
      </trkpt>
      <trkpt lat="45.60229" lon="5.88895">
        <ele>305.06018</ele>
        <time>2013-05-30T10:07:53Z</time>
      </trkpt>
      <trkpt lat="45.60246" lon="5.88904">
        <ele>304.60785</ele>
        <time>2013-05-30T10:08:00Z</time>
      </trkpt>
      <trkpt lat="45.60263" lon="5.88886">
        <ele>304.7689</ele>
        <time>2013-05-30T10:08:04Z</time>
      </trkpt>
      <trkpt lat="45.6028" lon="5.88871">
        <ele>304.49478</ele>
        <time>2013-05-30T10:08:09Z</time>
      </trkpt>
      <trkpt lat="45.60296" lon="5.88852">
        <ele>302.97568</ele>
        <time>2013-05-30T10:08:13Z</time>
      </trkpt>
      <trkpt lat="45.60311" lon="5.88838">
        <ele>302.21768</ele>
        <time>2013-05-30T10:08:17Z</time>
      </trkpt>
      <trkpt lat="45.60329" lon="5.88818">
        <ele>303.34686</ele>
        <time>2013-05-30T10:08:22Z</time>
      </trkpt>
      <trkpt lat="45.60345" lon="5.88798">
        <ele>303.50546</ele>
        <time>2013-05-30T10:08:26Z</time>
      </trkpt>
      <trkpt lat="45.60359" lon="5.88781">
        <ele>303.11227</ele>
        <time>2013-05-30T10:08:30Z</time>
      </trkpt>
      <trkpt lat="45.60375" lon="5.88762">
        <ele>304.71835</ele>
        <time>2013-05-30T10:08:35Z</time>
      </trkpt>
      <trkpt lat="45.60392" lon="5.88742">
        <ele>305.40024</ele>
        <time>2013-05-30T10:08:40Z</time>
      </trkpt>
      <trkpt lat="45.60407" lon="5.88723">
        <ele>305.02158</ele>
        <time>2013-05-30T10:08:44Z</time>
      </trkpt>
      <trkpt lat="45.60423" lon="5.88711">
        <ele>304.84003</ele>
        <time>2013-05-30T10:08:48Z</time>
      </trkpt>
      <trkpt lat="45.60438" lon="5.88692">
        <ele>308.59525</ele>
        <time>2013-05-30T10:08:53Z</time>
      </trkpt>
      <trkpt lat="45.60456" lon="5.88675">
        <ele>308.58444</ele>
        <time>2013-05-30T10:08:57Z</time>
      </trkpt>
      <trkpt lat="45.60476" lon="5.88657">
        <ele>307.89743</ele>
        <time>2013-05-30T10:09:01Z</time>
      </trkpt>
      <trkpt lat="45.60492" lon="5.88644">
        <ele>307.7023</ele>
        <time>2013-05-30T10:09:05Z</time>
      </trkpt>
      <trkpt lat="45.60515" lon="5.88636">
        <ele>306.6363</ele>
        <time>2013-05-30T10:09:09Z</time>
      </trkpt>
      <trkpt lat="45.60533" lon="5.88623">
        <ele>304.42242</ele>
        <time>2013-05-30T10:09:13Z</time>
      </trkpt>
      <trkpt lat="45.60559" lon="5.88614">
        <ele>303.8168</ele>
        <time>2013-05-30T10:09:18Z</time>
      </trkpt>
      <trkpt lat="45.6058" lon="5.88605">
        <ele>302.8405</ele>
        <time>2013-05-30T10:09:23Z</time>
      </trkpt>
      <trkpt lat="45.60597" lon="5.88591">
        <ele>302.40015</ele>
        <time>2013-05-30T10:09:28Z</time>
      </trkpt>
      <trkpt lat="45.60618" lon="5.88583">
        <ele>303.19815</ele>
        <time>2013-05-30T10:09:34Z</time>
      </trkpt>
      <trkpt lat="45.60638" lon="5.88571">
        <ele>302.95328</ele>
        <time>2013-05-30T10:09:39Z</time>
      </trkpt>
      <trkpt lat="45.60655" lon="5.88563">
        <ele>301.186</ele>
        <time>2013-05-30T10:09:43Z</time>
      </trkpt>
      <trkpt lat="45.60675" lon="5.88554">
        <ele>300.7405</ele>
        <time>2013-05-30T10:09:48Z</time>
      </trkpt>
      <trkpt lat="45.60695" lon="5.88544">
        <ele>301.01938</ele>
        <time>2013-05-30T10:09:53Z</time>
      </trkpt>
      <trkpt lat="45.60713" lon="5.88537">
        <ele>301.13815</ele>
        <time>2013-05-30T10:09:57Z</time>
      </trkpt>
      <trkpt lat="45.60849" lon="5.88472">
        <ele>299.9536</ele>
        <time>2013-05-30T10:10:28Z</time>
      </trkpt>
      <trkpt lat="45.60867" lon="5.88466">
        <ele>296.73044</ele>
        <time>2013-05-30T10:10:31Z</time>
      </trkpt>
      <trkpt lat="45.60887" lon="5.88457">
        <ele>296.28384</ele>
        <time>2013-05-30T10:10:35Z</time>
      </trkpt>
      <trkpt lat="45.60908" lon="5.88448">
        <ele>296.45114</ele>
        <time>2013-05-30T10:10:39Z</time>
      </trkpt>
      <trkpt lat="45.60926" lon="5.88441">
        <ele>296.11148</ele>
        <time>2013-05-30T10:10:43Z</time>
      </trkpt>
      <trkpt lat="45.60944" lon="5.88432">
        <ele>295.36426</ele>
        <time>2013-05-30T10:10:48Z</time>
      </trkpt>
      <trkpt lat="45.60965" lon="5.88422">
        <ele>294.45157</ele>
        <time>2013-05-30T10:10:52Z</time>
      </trkpt>
      <trkpt lat="45.60985" lon="5.88412">
        <ele>295.7464</ele>
        <time>2013-05-30T10:10:56Z</time>
      </trkpt>
      <trkpt lat="45.61003" lon="5.88401">
        <ele>297.1893</ele>
        <time>2013-05-30T10:11:00Z</time>
      </trkpt>
      <trkpt lat="45.61021" lon="5.88393">
        <ele>298.10638</ele>
        <time>2013-05-30T10:11:04Z</time>
      </trkpt>
      <trkpt lat="45.61042" lon="5.88385">
        <ele>298.41205</ele>
        <time>2013-05-30T10:11:09Z</time>
      </trkpt>
      <trkpt lat="45.61061" lon="5.88376">
        <ele>298.46826</ele>
        <time>2013-05-30T10:11:13Z</time>
      </trkpt>
      <trkpt lat="45.61083" lon="5.88372">
        <ele>297.6416</ele>
        <time>2013-05-30T10:11:18Z</time>
      </trkpt>
      <trkpt lat="45.61101" lon="5.88368">
        <ele>296.93503</ele>
        <time>2013-05-30T10:11:22Z</time>
      </trkpt>
      <trkpt lat="45.61121" lon="5.88363">
        <ele>296.53882</ele>
        <time>2013-05-30T10:11:26Z</time>
      </trkpt>
      <trkpt lat="45.6114" lon="5.88358">
        <ele>297.05252</ele>
        <time>2013-05-30T10:11:30Z</time>
      </trkpt>
      <trkpt lat="45.61161" lon="5.88354">
        <ele>298.35413</ele>
        <time>2013-05-30T10:11:34Z</time>
      </trkpt>
      <trkpt lat="45.61179" lon="5.88349">
        <ele>298.93823</ele>
        <time>2013-05-30T10:11:38Z</time>
      </trkpt>
      <trkpt lat="45.61197" lon="5.88347">
        <ele>299.96014</ele>
        <time>2013-05-30T10:11:42Z</time>
      </trkpt>
      <trkpt lat="45.61217" lon="5.88343">
        <ele>300.84167</ele>
        <time>2013-05-30T10:11:46Z</time>
      </trkpt>
      <trkpt lat="45.61237" lon="5.88341">
        <ele>301.21045</ele>
        <time>2013-05-30T10:11:50Z</time>
      </trkpt>
      <trkpt lat="45.61256" lon="5.88338">
        <ele>300.9533</ele>
        <time>2013-05-30T10:11:54Z</time>
      </trkpt>
      <trkpt lat="45.61275" lon="5.88338">
        <ele>300.6899</ele>
        <time>2013-05-30T10:11:58Z</time>
      </trkpt>
      <trkpt lat="45.61294" lon="5.88337">
        <ele>299.97495</ele>
        <time>2013-05-30T10:12:02Z</time>
      </trkpt>
      <trkpt lat="45.61315" lon="5.88336">
        <ele>300.56876</ele>
        <time>2013-05-30T10:12:07Z</time>
      </trkpt>
      <trkpt lat="45.61335" lon="5.88336">
        <ele>301.33972</ele>
        <time>2013-05-30T10:12:11Z</time>
      </trkpt>
      <trkpt lat="45.61359" lon="5.88332">
        <ele>302.68503</ele>
        <time>2013-05-30T10:12:16Z</time>
      </trkpt>
      <trkpt lat="45.61378" lon="5.88336">
        <ele>302.2234</ele>
        <time>2013-05-30T10:12:20Z</time>
      </trkpt>
      <trkpt lat="45.61401" lon="5.88338">
        <ele>301.12497</ele>
        <time>2013-05-30T10:12:25Z</time>
      </trkpt>
      <trkpt lat="45.61422" lon="5.88335">
        <ele>300.42667</ele>
        <time>2013-05-30T10:12:29Z</time>
      </trkpt>
      <trkpt lat="45.61443" lon="5.88335">
        <ele>300.28537</ele>
        <time>2013-05-30T10:12:33Z</time>
      </trkpt>
      <trkpt lat="45.61462" lon="5.88335">
        <ele>300.0848</ele>
        <time>2013-05-30T10:12:37Z</time>
      </trkpt>
      <trkpt lat="45.61481" lon="5.88336">
        <ele>300.28192</ele>
        <time>2013-05-30T10:12:41Z</time>
      </trkpt>
      <trkpt lat="45.615" lon="5.88334">
        <ele>300.50366</ele>
        <time>2013-05-30T10:12:45Z</time>
      </trkpt>
      <trkpt lat="45.61519" lon="5.88332">
        <ele>301.38788</ele>
        <time>2013-05-30T10:12:49Z</time>
      </trkpt>
      <trkpt lat="45.61539" lon="5.88333">
        <ele>300.96024</ele>
        <time>2013-05-30T10:12:53Z</time>
      </trkpt>
      <trkpt lat="45.61559" lon="5.88333">
        <ele>300.86514</ele>
        <time>2013-05-30T10:12:57Z</time>
      </trkpt>
      <trkpt lat="45.61578" lon="5.88332">
        <ele>301.72217</ele>
        <time>2013-05-30T10:13:01Z</time>
      </trkpt>
      <trkpt lat="45.61596" lon="5.8833">
        <ele>303.42868</ele>
        <time>2013-05-30T10:13:10Z</time>
      </trkpt>
      <trkpt lat="45.61615" lon="5.88322">
        <ele>302.59836</ele>
        <time>2013-05-30T10:13:17Z</time>
      </trkpt>
      <trkpt lat="45.61635" lon="5.88308">
        <ele>301.34894</ele>
        <time>2013-05-30T10:13:22Z</time>
      </trkpt>
      <trkpt lat="45.61652" lon="5.88295">
        <ele>300.96588</ele>
        <time>2013-05-30T10:13:26Z</time>
      </trkpt>
      <trkpt lat="45.61667" lon="5.88282">
        <ele>300.45444</ele>
        <time>2013-05-30T10:13:30Z</time>
      </trkpt>
      <trkpt lat="45.61683" lon="5.88264">
        <ele>301.1973</ele>
        <time>2013-05-30T10:13:34Z</time>
      </trkpt>
      <trkpt lat="45.61697" lon="5.88247">
        <ele>300.64172</ele>
        <time>2013-05-30T10:13:38Z</time>
      </trkpt>
      <trkpt lat="45.6171" lon="5.88225">
        <ele>300.13235</ele>
        <time>2013-05-30T10:13:42Z</time>
      </trkpt>
      <trkpt lat="45.61722" lon="5.88203">
        <ele>298.60202</ele>
        <time>2013-05-30T10:13:46Z</time>
      </trkpt>
      <trkpt lat="45.61735" lon="5.88181">
        <ele>298.4358</ele>
        <time>2013-05-30T10:13:50Z</time>
      </trkpt>
      <trkpt lat="45.61747" lon="5.88159">
        <ele>297.70978</ele>
        <time>2013-05-30T10:13:54Z</time>
      </trkpt>
      <trkpt lat="45.61759" lon="5.88137">
        <ele>297.09137</ele>
        <time>2013-05-30T10:13:58Z</time>
      </trkpt>
      <trkpt lat="45.61774" lon="5.88118">
        <ele>298.32578</ele>
        <time>2013-05-30T10:14:02Z</time>
      </trkpt>
      <trkpt lat="45.61787" lon="5.88098">
        <ele>299.0183</ele>
        <time>2013-05-30T10:14:06Z</time>
      </trkpt>
      <trkpt lat="45.61804" lon="5.8808">
        <ele>299.07437</ele>
        <time>2013-05-30T10:14:11Z</time>
      </trkpt>
      <trkpt lat="45.61821" lon="5.88064">
        <ele>298.6544</ele>
        <time>2013-05-30T10:14:15Z</time>
      </trkpt>
      <trkpt lat="45.61838" lon="5.88049">
        <ele>297.33792</ele>
        <time>2013-05-30T10:14:19Z</time>
      </trkpt>
      <trkpt lat="45.61854" lon="5.88038">
        <ele>294.04364</ele>
        <time>2013-05-30T10:14:23Z</time>
      </trkpt>
      <trkpt lat="45.6187" lon="5.88023">
        <ele>293.4595</ele>
        <time>2013-05-30T10:14:27Z</time>
      </trkpt>
      <trkpt lat="45.61886" lon="5.88007">
        <ele>295.1075</ele>
        <time>2013-05-30T10:14:31Z</time>
      </trkpt>
      <trkpt lat="45.61904" lon="5.87987">
        <ele>296.67648</ele>
        <time>2013-05-30T10:14:36Z</time>
      </trkpt>
      <trkpt lat="45.61923" lon="5.87969">
        <ele>297.74774</ele>
        <time>2013-05-30T10:14:41Z</time>
      </trkpt>
      <trkpt lat="45.61938" lon="5.87952">
        <ele>296.19675</ele>
        <time>2013-05-30T10:14:45Z</time>
      </trkpt>
      <trkpt lat="45.61955" lon="5.87939">
        <ele>294.2384</ele>
        <time>2013-05-30T10:14:49Z</time>
      </trkpt>
      <trkpt lat="45.6197" lon="5.87923">
        <ele>292.53287</ele>
        <time>2013-05-30T10:14:53Z</time>
      </trkpt>
      <trkpt lat="45.61986" lon="5.87907">
        <ele>292.1526</ele>
        <time>2013-05-30T10:14:57Z</time>
      </trkpt>
      <trkpt lat="45.6209" lon="5.87805">
        <ele>297.0796</ele>
        <time>2013-05-30T10:15:27Z</time>
      </trkpt>
      <trkpt lat="45.62109" lon="5.87793">
        <ele>300.12344</ele>
        <time>2013-05-30T10:17:50Z</time>
      </trkpt>
      <trkpt lat="45.62126" lon="5.87777">
        <ele>302.5872</ele>
        <time>2013-05-30T10:17:56Z</time>
      </trkpt>
      <trkpt lat="45.62141" lon="5.87761">
        <ele>301.72134</ele>
        <time>2013-05-30T10:18:00Z</time>
      </trkpt>
      <trkpt lat="45.62158" lon="5.87744">
        <ele>300.8888</ele>
        <time>2013-05-30T10:18:04Z</time>
      </trkpt>
      <trkpt lat="45.62173" lon="5.87727">
        <ele>300.46716</ele>
        <time>2013-05-30T10:18:08Z</time>
      </trkpt>
      <trkpt lat="45.62188" lon="5.8771">
        <ele>299.78296</ele>
        <time>2013-05-30T10:18:12Z</time>
      </trkpt>
      <trkpt lat="45.62203" lon="5.87691">
        <ele>299.2458</ele>
        <time>2013-05-30T10:18:16Z</time>
      </trkpt>
      <trkpt lat="45.62216" lon="5.87672">
        <ele>298.6059</ele>
        <time>2013-05-30T10:18:20Z</time>
      </trkpt>
      <trkpt lat="45.62236" lon="5.87656">
        <ele>298.2562</ele>
        <time>2013-05-30T10:18:25Z</time>
      </trkpt>
      <trkpt lat="45.62254" lon="5.87637">
        <ele>298.3523</ele>
        <time>2013-05-30T10:18:30Z</time>
      </trkpt>
      <trkpt lat="45.62271" lon="5.8762">
        <ele>298.42032</ele>
        <time>2013-05-30T10:18:35Z</time>
      </trkpt>
      <trkpt lat="45.62285" lon="5.87603">
        <ele>298.67322</ele>
        <time>2013-05-30T10:18:39Z</time>
      </trkpt>
      <trkpt lat="45.62305" lon="5.87585">
        <ele>299.89316</ele>
        <time>2013-05-30T10:18:45Z</time>
      </trkpt>
      <trkpt lat="45.62319" lon="5.87562">
        <ele>296.3916</ele>
        <time>2013-05-30T10:18:49Z</time>
      </trkpt>
      <trkpt lat="45.62337" lon="5.87544">
        <ele>294.9073</ele>
        <time>2013-05-30T10:18:54Z</time>
      </trkpt>
      <trkpt lat="45.62356" lon="5.87524">
        <ele>293.66443</ele>
        <time>2013-05-30T10:18:59Z</time>
      </trkpt>
      <trkpt lat="45.62373" lon="5.87508">
        <ele>293.154</ele>
        <time>2013-05-30T10:19:03Z</time>
      </trkpt>
      <trkpt lat="45.62388" lon="5.87492">
        <ele>293.07294</ele>
        <time>2013-05-30T10:19:07Z</time>
      </trkpt>
      <trkpt lat="45.62407" lon="5.87472">
        <ele>293.43567</ele>
        <time>2013-05-30T10:19:12Z</time>
      </trkpt>
      <trkpt lat="45.62426" lon="5.87457">
        <ele>293.82712</ele>
        <time>2013-05-30T10:19:17Z</time>
      </trkpt>
      <trkpt lat="45.62444" lon="5.87445">
        <ele>293.29843</ele>
        <time>2013-05-30T10:19:21Z</time>
      </trkpt>
      <trkpt lat="45.62464" lon="5.87431">
        <ele>293.57785</ele>
        <time>2013-05-30T10:19:26Z</time>
      </trkpt>
      <trkpt lat="45.62483" lon="5.87413">
        <ele>292.26172</ele>
        <time>2013-05-30T10:19:31Z</time>
      </trkpt>
      <trkpt lat="45.62502" lon="5.87398">
        <ele>291.54688</ele>
        <time>2013-05-30T10:19:35Z</time>
      </trkpt>
      <trkpt lat="45.62518" lon="5.87386">
        <ele>291.88593</ele>
        <time>2013-05-30T10:19:39Z</time>
      </trkpt>
      <trkpt lat="45.62535" lon="5.87366">
        <ele>292.04633</ele>
        <time>2013-05-30T10:19:43Z</time>
      </trkpt>
      <trkpt lat="45.62553" lon="5.87353">
        <ele>291.6045</ele>
        <time>2013-05-30T10:19:47Z</time>
      </trkpt>
      <trkpt lat="45.6257" lon="5.87343">
        <ele>291.68774</ele>
        <time>2013-05-30T10:19:51Z</time>
      </trkpt>
      <trkpt lat="45.6259" lon="5.87334">
        <ele>291.91995</ele>
        <time>2013-05-30T10:19:55Z</time>
      </trkpt>
      <trkpt lat="45.6261" lon="5.8733">
        <ele>291.57858</ele>
        <time>2013-05-30T10:19:59Z</time>
      </trkpt>
      <trkpt lat="45.62629" lon="5.87324">
        <ele>292.5995</ele>
        <time>2013-05-30T10:20:03Z</time>
      </trkpt>
      <trkpt lat="45.6265" lon="5.8732">
        <ele>292.3932</ele>
        <time>2013-05-30T10:20:07Z</time>
      </trkpt>
      <trkpt lat="45.62668" lon="5.8732">
        <ele>292.55643</ele>
        <time>2013-05-30T10:20:11Z</time>
      </trkpt>
      <trkpt lat="45.62689" lon="5.87321">
        <ele>292.7155</ele>
        <time>2013-05-30T10:20:15Z</time>
      </trkpt>
      <trkpt lat="45.62709" lon="5.87327">
        <ele>292.10297</ele>
        <time>2013-05-30T10:20:19Z</time>
      </trkpt>
      <trkpt lat="45.6273" lon="5.87338">
        <ele>291.8103</ele>
        <time>2013-05-30T10:20:23Z</time>
      </trkpt>
      <trkpt lat="45.62748" lon="5.87346">
        <ele>291.99655</ele>
        <time>2013-05-30T10:20:26Z</time>
      </trkpt>
      <trkpt lat="45.62765" lon="5.87356">
        <ele>291.55945</ele>
        <time>2013-05-30T10:20:30Z</time>
      </trkpt>
      <trkpt lat="45.62783" lon="5.87368">
        <ele>290.4403</ele>
        <time>2013-05-30T10:20:34Z</time>
      </trkpt>
      <trkpt lat="45.62805" lon="5.87368">
        <ele>291.16025</ele>
        <time>2013-05-30T10:20:39Z</time>
      </trkpt>
      <trkpt lat="45.62825" lon="5.87367">
        <ele>290.91946</ele>
        <time>2013-05-30T10:20:43Z</time>
      </trkpt>
      <trkpt lat="45.62846" lon="5.87363">
        <ele>290.78622</ele>
        <time>2013-05-30T10:20:47Z</time>
      </trkpt>
      <trkpt lat="45.62864" lon="5.87356">
        <ele>292.25317</ele>
        <time>2013-05-30T10:20:52Z</time>
      </trkpt>
      <trkpt lat="45.62881" lon="5.87338">
        <ele>292.37845</ele>
        <time>2013-05-30T10:20:57Z</time>
      </trkpt>
      <trkpt lat="45.62897" lon="5.87322">
        <ele>292.14514</ele>
        <time>2013-05-30T10:21:01Z</time>
      </trkpt>
      <trkpt lat="45.62911" lon="5.87306">
        <ele>291.5756</ele>
        <time>2013-05-30T10:21:05Z</time>
      </trkpt>
      <trkpt lat="45.62926" lon="5.87289">
        <ele>291.60532</ele>
        <time>2013-05-30T10:21:08Z</time>
      </trkpt>
      <trkpt lat="45.62944" lon="5.87267">
        <ele>292.06146</ele>
        <time>2013-05-30T10:21:12Z</time>
      </trkpt>
      <trkpt lat="45.62961" lon="5.8725">
        <ele>292.63077</ele>
        <time>2013-05-30T10:21:16Z</time>
      </trkpt>
      <trkpt lat="45.62979" lon="5.87236">
        <ele>291.6988</ele>
        <time>2013-05-30T10:21:20Z</time>
      </trkpt>
      <trkpt lat="45.62995" lon="5.8722">
        <ele>290.61172</ele>
        <time>2013-05-30T10:21:24Z</time>
      </trkpt>
      <trkpt lat="45.63011" lon="5.87205">
        <ele>290.458</ele>
        <time>2013-05-30T10:21:28Z</time>
      </trkpt>
      <trkpt lat="45.6303" lon="5.872">
        <ele>288.07617</ele>
        <time>2013-05-30T10:21:32Z</time>
      </trkpt>
      <trkpt lat="45.63052" lon="5.87201">
        <ele>287.3995</ele>
        <time>2013-05-30T10:21:36Z</time>
      </trkpt>
      <trkpt lat="45.63075" lon="5.87202">
        <ele>288.01898</ele>
        <time>2013-05-30T10:21:40Z</time>
      </trkpt>
      <trkpt lat="45.63096" lon="5.87197">
        <ele>289.01266</ele>
        <time>2013-05-30T10:21:44Z</time>
      </trkpt>
      <trkpt lat="45.63115" lon="5.87191">
        <ele>288.56924</ele>
        <time>2013-05-30T10:21:48Z</time>
      </trkpt>
      <trkpt lat="45.63134" lon="5.87185">
        <ele>288.41174</ele>
        <time>2013-05-30T10:21:52Z</time>
      </trkpt>
      <trkpt lat="45.63151" lon="5.87173">
        <ele>289.84396</ele>
        <time>2013-05-30T10:21:56Z</time>
      </trkpt>
      <trkpt lat="45.6317" lon="5.87161">
        <ele>290.33228</ele>
        <time>2013-05-30T10:22:00Z</time>
      </trkpt>
      <trkpt lat="45.6319" lon="5.87146">
        <ele>289.24292</ele>
        <time>2013-05-30T10:22:05Z</time>
      </trkpt>
      <trkpt lat="45.63207" lon="5.87132">
        <ele>289.6085</ele>
        <time>2013-05-30T10:22:09Z</time>
      </trkpt>
      <trkpt lat="45.63225" lon="5.87122">
        <ele>288.95932</ele>
        <time>2013-05-30T10:22:13Z</time>
      </trkpt>
      <trkpt lat="45.63245" lon="5.87114">
        <ele>289.52618</ele>
        <time>2013-05-30T10:22:17Z</time>
      </trkpt>
      <trkpt lat="45.63265" lon="5.87106">
        <ele>291.06375</ele>
        <time>2013-05-30T10:22:21Z</time>
      </trkpt>
      <trkpt lat="45.63283" lon="5.871">
        <ele>291.4565</ele>
        <time>2013-05-30T10:22:25Z</time>
      </trkpt>
      <trkpt lat="45.63305" lon="5.871">
        <ele>291.4628</ele>
        <time>2013-05-30T10:22:29Z</time>
      </trkpt>
      <trkpt lat="45.63324" lon="5.87099">
        <ele>290.86557</ele>
        <time>2013-05-30T10:22:33Z</time>
      </trkpt>
      <trkpt lat="45.63345" lon="5.87096">
        <ele>290.69614</ele>
        <time>2013-05-30T10:22:37Z</time>
      </trkpt>
      <trkpt lat="45.63367" lon="5.87093">
        <ele>291.26245</ele>
        <time>2013-05-30T10:22:41Z</time>
      </trkpt>
      <trkpt lat="45.63386" lon="5.87092">
        <ele>292.5213</ele>
        <time>2013-05-30T10:22:45Z</time>
      </trkpt>
      <trkpt lat="45.63406" lon="5.87089">
        <ele>293.54895</ele>
        <time>2013-05-30T10:22:49Z</time>
      </trkpt>
      <trkpt lat="45.63426" lon="5.87085">
        <ele>293.4819</ele>
        <time>2013-05-30T10:22:53Z</time>
      </trkpt>
      <trkpt lat="45.63446" lon="5.87079">
        <ele>293.7849</ele>
        <time>2013-05-30T10:22:57Z</time>
      </trkpt>
      <trkpt lat="45.63465" lon="5.87067">
        <ele>293.58936</ele>
        <time>2013-05-30T10:23:01Z</time>
      </trkpt>
      <trkpt lat="45.63483" lon="5.87055">
        <ele>293.52243</ele>
        <time>2013-05-30T10:23:05Z</time>
      </trkpt>
      <trkpt lat="45.63504" lon="5.87043">
        <ele>295.1058</ele>
        <time>2013-05-30T10:23:10Z</time>
      </trkpt>
      <trkpt lat="45.63522" lon="5.87032">
        <ele>295.01395</ele>
        <time>2013-05-30T10:23:14Z</time>
      </trkpt>
      <trkpt lat="45.63542" lon="5.87023">
        <ele>294.56143</ele>
        <time>2013-05-30T10:23:18Z</time>
      </trkpt>
      <trkpt lat="45.6356" lon="5.87015">
        <ele>294.2718</ele>
        <time>2013-05-30T10:23:22Z</time>
      </trkpt>
      <trkpt lat="45.63582" lon="5.87012">
        <ele>294.85474</ele>
        <time>2013-05-30T10:23:26Z</time>
      </trkpt>
      <trkpt lat="45.636" lon="5.8701">
        <ele>295.43607</ele>
        <time>2013-05-30T10:23:30Z</time>
      </trkpt>
      <trkpt lat="45.6362" lon="5.87005">
        <ele>296.4747</ele>
        <time>2013-05-30T10:23:34Z</time>
      </trkpt>
      <trkpt lat="45.63641" lon="5.86999">
        <ele>295.5791</ele>
        <time>2013-05-30T10:23:38Z</time>
      </trkpt>
      <trkpt lat="45.63661" lon="5.86993">
        <ele>295.93713</ele>
        <time>2013-05-30T10:23:42Z</time>
      </trkpt>
      <trkpt lat="45.63681" lon="5.86988">
        <ele>295.29575</ele>
        <time>2013-05-30T10:23:46Z</time>
      </trkpt>
      <trkpt lat="45.63702" lon="5.86987">
        <ele>294.67093</ele>
        <time>2013-05-30T10:23:50Z</time>
      </trkpt>
      <trkpt lat="45.63721" lon="5.8698">
        <ele>294.0107</ele>
        <time>2013-05-30T10:23:54Z</time>
      </trkpt>
      <trkpt lat="45.63743" lon="5.86976">
        <ele>293.02487</ele>
        <time>2013-05-30T10:23:58Z</time>
      </trkpt>
      <trkpt lat="45.63763" lon="5.86979">
        <ele>291.49927</ele>
        <time>2013-05-30T10:24:02Z</time>
      </trkpt>
      <trkpt lat="45.63784" lon="5.86975">
        <ele>291.46463</ele>
        <time>2013-05-30T10:24:06Z</time>
      </trkpt>
      <trkpt lat="45.63807" lon="5.86972">
        <ele>289.1119</ele>
        <time>2013-05-30T10:24:11Z</time>
      </trkpt>
      <trkpt lat="45.63827" lon="5.86971">
        <ele>288.5358</ele>
        <time>2013-05-30T10:24:15Z</time>
      </trkpt>
      <trkpt lat="45.63849" lon="5.86965">
        <ele>288.93906</ele>
        <time>2013-05-30T10:24:19Z</time>
      </trkpt>
      <trkpt lat="45.63869" lon="5.86955">
        <ele>288.38812</ele>
        <time>2013-05-30T10:24:23Z</time>
      </trkpt>
      <trkpt lat="45.6389" lon="5.86943">
        <ele>288.7633</ele>
        <time>2013-05-30T10:24:28Z</time>
      </trkpt>
      <trkpt lat="45.63907" lon="5.86934">
        <ele>288.73138</ele>
        <time>2013-05-30T10:24:31Z</time>
      </trkpt>
      <trkpt lat="45.63923" lon="5.8691">
        <ele>288.45798</ele>
        <time>2013-05-30T10:24:35Z</time>
      </trkpt>
      <trkpt lat="45.6394" lon="5.86891">
        <ele>288.17615</ele>
        <time>2013-05-30T10:24:39Z</time>
      </trkpt>
      <trkpt lat="45.63961" lon="5.86897">
        <ele>287.9251</ele>
        <time>2013-05-30T10:24:44Z</time>
      </trkpt>
      <trkpt lat="45.6398" lon="5.8689">
        <ele>288.06262</ele>
        <time>2013-05-30T10:24:48Z</time>
      </trkpt>
      <trkpt lat="45.63998" lon="5.86888">
        <ele>288.5547</ele>
        <time>2013-05-30T10:24:53Z</time>
      </trkpt>
      <trkpt lat="45.64016" lon="5.86883">
        <ele>287.98184</ele>
        <time>2013-05-30T10:24:58Z</time>
      </trkpt>
      <trkpt lat="45.64033" lon="5.86869">
        <ele>285.4787</ele>
        <time>2013-05-30T10:25:03Z</time>
      </trkpt>
      <trkpt lat="45.64052" lon="5.86859">
        <ele>284.71515</ele>
        <time>2013-05-30T10:25:07Z</time>
      </trkpt>
      <trkpt lat="45.6407" lon="5.86848">
        <ele>284.0997</ele>
        <time>2013-05-30T10:25:11Z</time>
      </trkpt>
      <trkpt lat="45.6409" lon="5.86839">
        <ele>285.19174</ele>
        <time>2013-05-30T10:25:16Z</time>
      </trkpt>
      <trkpt lat="45.64113" lon="5.86825">
        <ele>288.37863</ele>
        <time>2013-05-30T10:25:20Z</time>
      </trkpt>
      <trkpt lat="45.64131" lon="5.86816">
        <ele>289.62448</ele>
        <time>2013-05-30T10:25:24Z</time>
      </trkpt>
      <trkpt lat="45.6415" lon="5.86798">
        <ele>289.5007</ele>
        <time>2013-05-30T10:25:28Z</time>
      </trkpt>
      <trkpt lat="45.64168" lon="5.86787">
        <ele>290.0139</ele>
        <time>2013-05-30T10:25:32Z</time>
      </trkpt>
      <trkpt lat="45.64183" lon="5.86771">
        <ele>288.9782</ele>
        <time>2013-05-30T10:25:37Z</time>
      </trkpt>
      <trkpt lat="45.64206" lon="5.86771">
        <ele>289.54388</ele>
        <time>2013-05-30T10:25:41Z</time>
      </trkpt>
      <trkpt lat="45.64224" lon="5.86762">
        <ele>291.39847</ele>
        <time>2013-05-30T10:25:47Z</time>
      </trkpt>
      <trkpt lat="45.64242" lon="5.8675">
        <ele>291.50665</ele>
        <time>2013-05-30T10:25:53Z</time>
      </trkpt>
      <trkpt lat="45.6426" lon="5.8674">
        <ele>290.78647</ele>
        <time>2013-05-30T10:25:57Z</time>
      </trkpt>
      <trkpt lat="45.64281" lon="5.8673">
        <ele>290.61838</ele>
        <time>2013-05-30T10:26:01Z</time>
      </trkpt>
      <trkpt lat="45.643" lon="5.8672">
        <ele>288.45114</ele>
        <time>2013-05-30T10:26:05Z</time>
      </trkpt>
      <trkpt lat="45.64318" lon="5.86711">
        <ele>287.86658</ele>
        <time>2013-05-30T10:26:09Z</time>
      </trkpt>
      <trkpt lat="45.64339" lon="5.86699">
        <ele>287.21988</ele>
        <time>2013-05-30T10:26:14Z</time>
      </trkpt>
      <trkpt lat="45.64357" lon="5.86692">
        <ele>287.86932</ele>
        <time>2013-05-30T10:26:17Z</time>
      </trkpt>
      <trkpt lat="45.64374" lon="5.86685">
        <ele>288.5106</ele>
        <time>2013-05-30T10:26:21Z</time>
      </trkpt>
      <trkpt lat="45.64395" lon="5.86677">
        <ele>289.65924</ele>
        <time>2013-05-30T10:26:26Z</time>
      </trkpt>
      <trkpt lat="45.6441" lon="5.86662">
        <ele>293.95593</ele>
        <time>2013-05-30T10:26:37Z</time>
      </trkpt>
      <trkpt lat="45.64407" lon="5.86635">
        <ele>293.2287</ele>
        <time>2013-05-30T10:26:42Z</time>
      </trkpt>
      <trkpt lat="45.64419" lon="5.86615">
        <ele>288.91312</ele>
        <time>2013-05-30T10:26:50Z</time>
      </trkpt>
      <trkpt lat="45.64438" lon="5.86613">
        <ele>287.26276</ele>
        <time>2013-05-30T10:26:54Z</time>
      </trkpt>
      <trkpt lat="45.64459" lon="5.86611">
        <ele>285.06793</ele>
        <time>2013-05-30T10:26:59Z</time>
      </trkpt>
      <trkpt lat="45.6448" lon="5.8661">
        <ele>285.858</ele>
        <time>2013-05-30T10:27:04Z</time>
      </trkpt>
      <trkpt lat="45.64498" lon="5.86605">
        <ele>287.8668</ele>
        <time>2013-05-30T10:27:08Z</time>
      </trkpt>
      <trkpt lat="45.64519" lon="5.86599">
        <ele>288.7343</ele>
        <time>2013-05-30T10:27:13Z</time>
      </trkpt>
      <trkpt lat="45.64539" lon="5.86592">
        <ele>287.25858</ele>
        <time>2013-05-30T10:27:19Z</time>
      </trkpt>
      <trkpt lat="45.64558" lon="5.86575">
        <ele>287.3119</ele>
        <time>2013-05-30T10:27:23Z</time>
      </trkpt>
      <trkpt lat="45.64575" lon="5.8656">
        <ele>288.0112</ele>
        <time>2013-05-30T10:27:27Z</time>
      </trkpt>
      <trkpt lat="45.64591" lon="5.86542">
        <ele>287.8801</ele>
        <time>2013-05-30T10:27:31Z</time>
      </trkpt>
      <trkpt lat="45.64605" lon="5.86524">
        <ele>287.98746</ele>
        <time>2013-05-30T10:27:35Z</time>
      </trkpt>
      <trkpt lat="45.64619" lon="5.86507">
        <ele>288.79486</ele>
        <time>2013-05-30T10:27:39Z</time>
      </trkpt>
      <trkpt lat="45.64633" lon="5.86485">
        <ele>287.33286</ele>
        <time>2013-05-30T10:27:44Z</time>
      </trkpt>
      <trkpt lat="45.64649" lon="5.86468">
        <ele>284.76703</ele>
        <time>2013-05-30T10:27:48Z</time>
      </trkpt>
      <trkpt lat="45.64663" lon="5.86453">
        <ele>283.30484</ele>
        <time>2013-05-30T10:27:51Z</time>
      </trkpt>
      <trkpt lat="45.64677" lon="5.86435">
        <ele>282.08328</ele>
        <time>2013-05-30T10:27:54Z</time>
      </trkpt>
      <trkpt lat="45.64694" lon="5.86418">
        <ele>281.8541</ele>
        <time>2013-05-30T10:27:58Z</time>
      </trkpt>
      <trkpt lat="45.64711" lon="5.864">
        <ele>283.86343</ele>
        <time>2013-05-30T10:28:03Z</time>
      </trkpt>
      <trkpt lat="45.64727" lon="5.86382">
        <ele>285.98395</ele>
        <time>2013-05-30T10:28:09Z</time>
      </trkpt>
      <trkpt lat="45.64743" lon="5.86362">
        <ele>286.1548</ele>
        <time>2013-05-30T10:28:14Z</time>
      </trkpt>
      <trkpt lat="45.64761" lon="5.86345">
        <ele>284.83804</ele>
        <time>2013-05-30T10:28:18Z</time>
      </trkpt>
      <trkpt lat="45.64775" lon="5.86323">
        <ele>285.13272</ele>
        <time>2013-05-30T10:28:22Z</time>
      </trkpt>
      <trkpt lat="45.64788" lon="5.86344">
        <ele>289.2277</ele>
        <time>2013-05-30T10:28:37Z</time>
      </trkpt>
      <trkpt lat="45.64788" lon="5.86375">
        <ele>290.11322</ele>
        <time>2013-05-30T10:28:42Z</time>
      </trkpt>
      <trkpt lat="45.64788" lon="5.86404">
        <ele>290.1882</ele>
        <time>2013-05-30T10:28:47Z</time>
      </trkpt>
      <trkpt lat="45.6479" lon="5.86435">
        <ele>291.9188</ele>
        <time>2013-05-30T10:28:52Z</time>
      </trkpt>
      <trkpt lat="45.64807" lon="5.86453">
        <ele>292.33188</ele>
        <time>2013-05-30T10:28:57Z</time>
      </trkpt>
      <trkpt lat="45.64828" lon="5.86458">
        <ele>290.90228</ele>
        <time>2013-05-30T10:29:01Z</time>
      </trkpt>
      <trkpt lat="45.64847" lon="5.8646">
        <ele>287.8843</ele>
        <time>2013-05-30T10:29:05Z</time>
      </trkpt>
      <trkpt lat="45.64862" lon="5.8644">
        <ele>285.47433</ele>
        <time>2013-05-30T10:29:09Z</time>
      </trkpt>
      <trkpt lat="45.64874" lon="5.86418">
        <ele>284.2907</ele>
        <time>2013-05-30T10:29:13Z</time>
      </trkpt>
      <trkpt lat="45.64886" lon="5.86395">
        <ele>284.1662</ele>
        <time>2013-05-30T10:29:17Z</time>
      </trkpt>
      <trkpt lat="45.64901" lon="5.86376">
        <ele>283.61353</ele>
        <time>2013-05-30T10:29:21Z</time>
      </trkpt>
      <trkpt lat="45.64913" lon="5.86353">
        <ele>284.1492</ele>
        <time>2013-05-30T10:29:25Z</time>
      </trkpt>
      <trkpt lat="45.64925" lon="5.86334">
        <ele>285.85345</ele>
        <time>2013-05-30T10:29:29Z</time>
      </trkpt>
      <trkpt lat="45.6494" lon="5.86316">
        <ele>286.172</ele>
        <time>2013-05-30T10:29:33Z</time>
      </trkpt>
      <trkpt lat="45.64955" lon="5.86302">
        <ele>286.17786</ele>
        <time>2013-05-30T10:29:37Z</time>
      </trkpt>
      <trkpt lat="45.64971" lon="5.86286">
        <ele>285.73917</ele>
        <time>2013-05-30T10:29:42Z</time>
      </trkpt>
      <trkpt lat="45.6498" lon="5.86258">
        <ele>286.05646</ele>
        <time>2013-05-30T10:29:48Z</time>
      </trkpt>
      <trkpt lat="45.64978" lon="5.8623">
        <ele>287.54053</ele>
        <time>2013-05-30T10:29:54Z</time>
      </trkpt>
      <trkpt lat="45.64978" lon="5.86204">
        <ele>290.0782</ele>
        <time>2013-05-30T10:30:02Z</time>
      </trkpt>
      <trkpt lat="45.64991" lon="5.86183">
        <ele>288.27283</ele>
        <time>2013-05-30T10:30:09Z</time>
      </trkpt>
      <trkpt lat="45.65013" lon="5.86183">
        <ele>286.78867</ele>
        <time>2013-05-30T10:30:13Z</time>
      </trkpt>
      <trkpt lat="45.65032" lon="5.8618">
        <ele>285.51166</ele>
        <time>2013-05-30T10:30:17Z</time>
      </trkpt>
      <trkpt lat="45.65054" lon="5.86178">
        <ele>286.41565</ele>
        <time>2013-05-30T10:30:22Z</time>
      </trkpt>
      <trkpt lat="45.65074" lon="5.8618">
        <ele>286.05948</ele>
        <time>2013-05-30T10:30:27Z</time>
      </trkpt>
      <trkpt lat="45.65095" lon="5.86184">
        <ele>286.32788</ele>
        <time>2013-05-30T10:30:32Z</time>
      </trkpt>
      <trkpt lat="45.65115" lon="5.86184">
        <ele>286.04926</ele>
        <time>2013-05-30T10:30:35Z</time>
      </trkpt>
      <trkpt lat="45.65132" lon="5.86198">
        <ele>287.03198</ele>
        <time>2013-05-30T10:30:39Z</time>
      </trkpt>
      <trkpt lat="45.65149" lon="5.86207">
        <ele>286.007</ele>
        <time>2013-05-30T10:30:43Z</time>
      </trkpt>
      <trkpt lat="45.65167" lon="5.86214">
        <ele>285.03348</ele>
        <time>2013-05-30T10:30:47Z</time>
      </trkpt>
      <trkpt lat="45.65187" lon="5.86216">
        <ele>281.99695</ele>
        <time>2013-05-30T10:30:54Z</time>
      </trkpt>
      <trkpt lat="45.65176" lon="5.86238">
        <ele>279.8993</ele>
        <time>2013-05-30T10:31:22Z</time>
      </trkpt>
      <trkpt lat="45.65166" lon="5.86262">
        <ele>279.23187</ele>
        <time>2013-05-30T10:31:27Z</time>
      </trkpt>
      <trkpt lat="45.6515" lon="5.86274">
        <ele>278.7155</ele>
        <time>2013-05-30T10:32:04Z</time>
      </trkpt>
      <trkpt lat="45.6514" lon="5.86299">
        <ele>275.72928</ele>
        <time>2013-05-30T10:32:56Z</time>
      </trkpt>
      <trkpt lat="45.65126" lon="5.8632">
        <ele>272.74677</ele>
        <time>2013-05-30T10:33:00Z</time>
      </trkpt>
      <trkpt lat="45.65112" lon="5.86345">
        <ele>273.02545</ele>
        <time>2013-05-30T10:33:05Z</time>
      </trkpt>
      <trkpt lat="45.651" lon="5.86363">
        <ele>275.96976</ele>
        <time>2013-05-30T10:33:09Z</time>
      </trkpt>
      <trkpt lat="45.65085" lon="5.86385">
        <ele>280.1655</ele>
        <time>2013-05-30T10:33:14Z</time>
      </trkpt>
      <trkpt lat="45.65068" lon="5.86404">
        <ele>282.0043</ele>
        <time>2013-05-30T10:33:18Z</time>
      </trkpt>
      <trkpt lat="45.65062" lon="5.86429">
        <ele>283.06302</ele>
        <time>2013-05-30T10:33:25Z</time>
      </trkpt>
      <trkpt lat="45.65043" lon="5.8644">
        <ele>284.08243</ele>
        <time>2013-05-30T10:33:29Z</time>
      </trkpt>
      <trkpt lat="45.65026" lon="5.8645">
        <ele>286.0379</ele>
        <time>2013-05-30T10:33:32Z</time>
      </trkpt>
      <trkpt lat="45.65007" lon="5.86463">
        <ele>285.144</ele>
        <time>2013-05-30T10:33:36Z</time>
      </trkpt>
      <trkpt lat="45.64988" lon="5.86474">
        <ele>285.75925</ele>
        <time>2013-05-30T10:33:40Z</time>
      </trkpt>
      <trkpt lat="45.64969" lon="5.86483">
        <ele>285.44687</ele>
        <time>2013-05-30T10:33:44Z</time>
      </trkpt>
      <trkpt lat="45.6495" lon="5.86489">
        <ele>285.8371</ele>
        <time>2013-05-30T10:33:48Z</time>
      </trkpt>
      <trkpt lat="45.64932" lon="5.86495">
        <ele>285.06018</ele>
        <time>2013-05-30T10:33:52Z</time>
      </trkpt>
      <trkpt lat="45.64913" lon="5.86501">
        <ele>285.07178</ele>
        <time>2013-05-30T10:33:56Z</time>
      </trkpt>
      <trkpt lat="45.64892" lon="5.86503">
        <ele>283.87436</ele>
        <time>2013-05-30T10:34:01Z</time>
      </trkpt>
      <trkpt lat="45.64872" lon="5.86501">
        <ele>283.4091</ele>
        <time>2013-05-30T10:34:05Z</time>
      </trkpt>
      <trkpt lat="45.64852" lon="5.865">
        <ele>283.8052</ele>
        <time>2013-05-30T10:34:09Z</time>
      </trkpt>
      <trkpt lat="45.64833" lon="5.865">
        <ele>283.7786</ele>
        <time>2013-05-30T10:34:13Z</time>
      </trkpt>
      <trkpt lat="45.64822" lon="5.8652">
        <ele>283.0401</ele>
        <time>2013-05-30T10:34:17Z</time>
      </trkpt>
      <trkpt lat="45.64811" lon="5.86543">
        <ele>282.87283</ele>
        <time>2013-05-30T10:34:21Z</time>
      </trkpt>
      <trkpt lat="45.64799" lon="5.86569">
        <ele>283.47873</ele>
        <time>2013-05-30T10:34:26Z</time>
      </trkpt>
      <trkpt lat="45.648" lon="5.866">
        <ele>283.59387</ele>
        <time>2013-05-30T10:34:31Z</time>
      </trkpt>
      <trkpt lat="45.64806" lon="5.86628">
        <ele>283.56134</ele>
        <time>2013-05-30T10:34:35Z</time>
      </trkpt>
      <trkpt lat="45.64803" lon="5.86655">
        <ele>283.11426</ele>
        <time>2013-05-30T10:34:40Z</time>
      </trkpt>
      <trkpt lat="45.64806" lon="5.86682">
        <ele>284.24515</ele>
        <time>2013-05-30T10:34:44Z</time>
      </trkpt>
      <trkpt lat="45.64806" lon="5.86714">
        <ele>286.68707</ele>
        <time>2013-05-30T10:34:49Z</time>
      </trkpt>
      <trkpt lat="45.64802" lon="5.86744">
        <ele>290.3316</ele>
        <time>2013-05-30T10:34:54Z</time>
      </trkpt>
      <trkpt lat="45.64802" lon="5.86776">
        <ele>293.80066</ele>
        <time>2013-05-30T10:34:59Z</time>
      </trkpt>
      <trkpt lat="45.64807" lon="5.86801">
        <ele>296.11194</ele>
        <time>2013-05-30T10:35:03Z</time>
      </trkpt>
      <trkpt lat="45.64811" lon="5.8683">
        <ele>298.06744</ele>
        <time>2013-05-30T10:35:07Z</time>
      </trkpt>
      <trkpt lat="45.64813" lon="5.86862">
        <ele>299.6847</ele>
        <time>2013-05-30T10:35:10Z</time>
      </trkpt>
      <trkpt lat="45.64817" lon="5.86888">
        <ele>298.84824</ele>
        <time>2013-05-30T10:35:13Z</time>
      </trkpt>
      <trkpt lat="45.64813" lon="5.8692">
        <ele>297.5716</ele>
        <time>2013-05-30T10:35:18Z</time>
      </trkpt>
      <trkpt lat="45.64816" lon="5.86946">
        <ele>296.3302</ele>
        <time>2013-05-30T10:35:21Z</time>
      </trkpt>
      <trkpt lat="45.64819" lon="5.86975">
        <ele>295.31894</ele>
        <time>2013-05-30T10:35:25Z</time>
      </trkpt>
      <trkpt lat="45.64814" lon="5.87001">
        <ele>294.6556</ele>
        <time>2013-05-30T10:35:29Z</time>
      </trkpt>
      <trkpt lat="45.64817" lon="5.87029">
        <ele>293.58633</ele>
        <time>2013-05-30T10:35:33Z</time>
      </trkpt>
      <trkpt lat="45.64822" lon="5.8706">
        <ele>291.06442</ele>
        <time>2013-05-30T10:35:37Z</time>
      </trkpt>
      <trkpt lat="45.64817" lon="5.87088">
        <ele>286.80634</ele>
        <time>2013-05-30T10:35:41Z</time>
      </trkpt>
      <trkpt lat="45.64822" lon="5.87119">
        <ele>284.5598</ele>
        <time>2013-05-30T10:35:45Z</time>
      </trkpt>
      <trkpt lat="45.64824" lon="5.87149">
        <ele>284.83807</ele>
        <time>2013-05-30T10:35:49Z</time>
      </trkpt>
      <trkpt lat="45.64826" lon="5.87179">
        <ele>284.70932</ele>
        <time>2013-05-30T10:35:53Z</time>
      </trkpt>
      <trkpt lat="45.64826" lon="5.87207">
        <ele>283.4596</ele>
        <time>2013-05-30T10:35:57Z</time>
      </trkpt>
      <trkpt lat="45.64827" lon="5.87233">
        <ele>284.2634</ele>
        <time>2013-05-30T10:36:01Z</time>
      </trkpt>
      <trkpt lat="45.64826" lon="5.87262">
        <ele>285.115</ele>
        <time>2013-05-30T10:36:05Z</time>
      </trkpt>
      <trkpt lat="45.64826" lon="5.87293">
        <ele>285.16312</ele>
        <time>2013-05-30T10:36:10Z</time>
      </trkpt>
      <trkpt lat="45.6483" lon="5.87319">
        <ele>287.33286</ele>
        <time>2013-05-30T10:36:14Z</time>
      </trkpt>
      <trkpt lat="45.64834" lon="5.87345">
        <ele>288.51544</ele>
        <time>2013-05-30T10:36:17Z</time>
      </trkpt>
      <trkpt lat="45.64836" lon="5.87374">
        <ele>288.5498</ele>
        <time>2013-05-30T10:36:21Z</time>
      </trkpt>
      <trkpt lat="45.64833" lon="5.87401">
        <ele>287.9896</ele>
        <time>2013-05-30T10:36:25Z</time>
      </trkpt>
      <trkpt lat="45.64831" lon="5.87429">
        <ele>286.29904</ele>
        <time>2013-05-30T10:36:29Z</time>
      </trkpt>
      <trkpt lat="45.64835" lon="5.87456">
        <ele>285.1907</ele>
        <time>2013-05-30T10:36:33Z</time>
      </trkpt>
      <trkpt lat="45.64836" lon="5.87484">
        <ele>284.3123</ele>
        <time>2013-05-30T10:36:37Z</time>
      </trkpt>
      <trkpt lat="45.64836" lon="5.87512">
        <ele>284.54724</ele>
        <time>2013-05-30T10:36:41Z</time>
      </trkpt>
      <trkpt lat="45.64835" lon="5.87542">
        <ele>284.84814</ele>
        <time>2013-05-30T10:36:45Z</time>
      </trkpt>
      <trkpt lat="45.64834" lon="5.8757">
        <ele>285.56055</ele>
        <time>2013-05-30T10:36:49Z</time>
      </trkpt>
      <trkpt lat="45.64835" lon="5.87598">
        <ele>286.39923</ele>
        <time>2013-05-30T10:36:53Z</time>
      </trkpt>
      <trkpt lat="45.64834" lon="5.87627">
        <ele>286.6224</ele>
        <time>2013-05-30T10:36:57Z</time>
      </trkpt>
      <trkpt lat="45.64833" lon="5.87655">
        <ele>286.61725</ele>
        <time>2013-05-30T10:37:01Z</time>
      </trkpt>
      <trkpt lat="45.64833" lon="5.87684">
        <ele>286.10703</ele>
        <time>2013-05-30T10:37:05Z</time>
      </trkpt>
      <trkpt lat="45.64833" lon="5.87712">
        <ele>285.8366</ele>
        <time>2013-05-30T10:37:09Z</time>
      </trkpt>
      <trkpt lat="45.64832" lon="5.87741">
        <ele>285.4854</ele>
        <time>2013-05-30T10:37:13Z</time>
      </trkpt>
      <trkpt lat="45.64832" lon="5.8777">
        <ele>285.27194</ele>
        <time>2013-05-30T10:37:17Z</time>
      </trkpt>
      <trkpt lat="45.64832" lon="5.878">
        <ele>285.36185</ele>
        <time>2013-05-30T10:37:21Z</time>
      </trkpt>
      <trkpt lat="45.64832" lon="5.87828">
        <ele>285.5129</ele>
        <time>2013-05-30T10:37:25Z</time>
      </trkpt>
      <trkpt lat="45.64831" lon="5.87856">
        <ele>285.35916</ele>
        <time>2013-05-30T10:37:29Z</time>
      </trkpt>
      <trkpt lat="45.64831" lon="5.87885">
        <ele>285.0117</ele>
        <time>2013-05-30T10:37:33Z</time>
      </trkpt>
      <trkpt lat="45.64831" lon="5.87913">
        <ele>285.9576</ele>
        <time>2013-05-30T10:37:37Z</time>
      </trkpt>
      <trkpt lat="45.64831" lon="5.8794">
        <ele>286.77838</ele>
        <time>2013-05-30T10:37:41Z</time>
      </trkpt>
      <trkpt lat="45.6483" lon="5.87968">
        <ele>287.29315</ele>
        <time>2013-05-30T10:37:45Z</time>
      </trkpt>
      <trkpt lat="45.64829" lon="5.87996">
        <ele>286.84238</ele>
        <time>2013-05-30T10:37:49Z</time>
      </trkpt>
      <trkpt lat="45.64828" lon="5.88024">
        <ele>286.93723</ele>
        <time>2013-05-30T10:37:53Z</time>
      </trkpt>
      <trkpt lat="45.64828" lon="5.88053">
        <ele>286.1227</ele>
        <time>2013-05-30T10:37:57Z</time>
      </trkpt>
      <trkpt lat="45.64828" lon="5.88081">
        <ele>285.75485</ele>
        <time>2013-05-30T10:38:01Z</time>
      </trkpt>
      <trkpt lat="45.64827" lon="5.8811">
        <ele>285.4525</ele>
        <time>2013-05-30T10:38:05Z</time>
      </trkpt>
      <trkpt lat="45.64827" lon="5.88136">
        <ele>285.51114</ele>
        <time>2013-05-30T10:38:09Z</time>
      </trkpt>
      <trkpt lat="45.64827" lon="5.88163">
        <ele>285.47385</ele>
        <time>2013-05-30T10:38:13Z</time>
      </trkpt>
      <trkpt lat="45.64827" lon="5.88192">
        <ele>285.39835</ele>
        <time>2013-05-30T10:38:17Z</time>
      </trkpt>
      <trkpt lat="45.64825" lon="5.8822">
        <ele>284.4565</ele>
        <time>2013-05-30T10:38:21Z</time>
      </trkpt>
      <trkpt lat="45.64825" lon="5.88249">
        <ele>283.99326</ele>
        <time>2013-05-30T10:38:25Z</time>
      </trkpt>
      <trkpt lat="45.64825" lon="5.88277">
        <ele>284.26584</ele>
        <time>2013-05-30T10:38:29Z</time>
      </trkpt>
      <trkpt lat="45.64826" lon="5.8831">
        <ele>284.63803</ele>
        <time>2013-05-30T10:38:33Z</time>
      </trkpt>
      <trkpt lat="45.64826" lon="5.88341">
        <ele>283.64368</ele>
        <time>2013-05-30T10:38:37Z</time>
      </trkpt>
      <trkpt lat="45.64825" lon="5.88368">
        <ele>283.07593</ele>
        <time>2013-05-30T10:38:41Z</time>
      </trkpt>
      <trkpt lat="45.64823" lon="5.88399">
        <ele>284.0559</ele>
        <time>2013-05-30T10:38:46Z</time>
      </trkpt>
      <trkpt lat="45.64824" lon="5.88428">
        <ele>283.48175</ele>
        <time>2013-05-30T10:38:50Z</time>
      </trkpt>
      <trkpt lat="45.64822" lon="5.88456">
        <ele>282.83408</ele>
        <time>2013-05-30T10:38:54Z</time>
      </trkpt>
      <trkpt lat="45.64822" lon="5.88491">
        <ele>283.20984</ele>
        <time>2013-05-30T10:38:59Z</time>
      </trkpt>
      <trkpt lat="45.6482" lon="5.88523">
        <ele>283.20703</ele>
        <time>2013-05-30T10:39:03Z</time>
      </trkpt>
      <trkpt lat="45.64821" lon="5.88552">
        <ele>284.9409</ele>
        <time>2013-05-30T10:39:07Z</time>
      </trkpt>
      <trkpt lat="45.64822" lon="5.8858">
        <ele>285.66138</ele>
        <time>2013-05-30T10:39:11Z</time>
      </trkpt>
      <trkpt lat="45.6482" lon="5.88613">
        <ele>285.94168</ele>
        <time>2013-05-30T10:39:15Z</time>
      </trkpt>
      <trkpt lat="45.64818" lon="5.8864">
        <ele>286.2202</ele>
        <time>2013-05-30T10:39:19Z</time>
      </trkpt>
      <trkpt lat="45.64822" lon="5.88669">
        <ele>285.50198</ele>
        <time>2013-05-30T10:39:24Z</time>
      </trkpt>
      <trkpt lat="45.64824" lon="5.88697">
        <ele>285.26266</ele>
        <time>2013-05-30T10:39:29Z</time>
      </trkpt>
      <trkpt lat="45.64825" lon="5.88724">
        <ele>284.5952</ele>
        <time>2013-05-30T10:39:33Z</time>
      </trkpt>
      <trkpt lat="45.64825" lon="5.88753">
        <ele>284.72934</ele>
        <time>2013-05-30T10:39:37Z</time>
      </trkpt>
      <trkpt lat="45.64825" lon="5.88785">
        <ele>285.30615</ele>
        <time>2013-05-30T10:39:41Z</time>
      </trkpt>
      <trkpt lat="45.64822" lon="5.88815">
        <ele>285.24374</ele>
        <time>2013-05-30T10:39:45Z</time>
      </trkpt>
      <trkpt lat="45.64823" lon="5.88844">
        <ele>284.5775</ele>
        <time>2013-05-30T10:39:49Z</time>
      </trkpt>
      <trkpt lat="45.64822" lon="5.88873">
        <ele>284.2472</ele>
        <time>2013-05-30T10:39:53Z</time>
      </trkpt>
      <trkpt lat="45.64823" lon="5.889">
        <ele>285.60126</ele>
        <time>2013-05-30T10:39:57Z</time>
      </trkpt>
      <trkpt lat="45.64823" lon="5.88927">
        <ele>286.53088</ele>
        <time>2013-05-30T10:40:01Z</time>
      </trkpt>
      <trkpt lat="45.64823" lon="5.88957">
        <ele>285.87607</ele>
        <time>2013-05-30T10:40:06Z</time>
      </trkpt>
      <trkpt lat="45.64823" lon="5.88988">
        <ele>285.03748</ele>
        <time>2013-05-30T10:40:11Z</time>
      </trkpt>
      <trkpt lat="45.64823" lon="5.89013">
        <ele>284.7177</ele>
        <time>2013-05-30T10:40:15Z</time>
      </trkpt>
      <trkpt lat="45.64823" lon="5.89045">
        <ele>284.7754</ele>
        <time>2013-05-30T10:40:20Z</time>
      </trkpt>
      <trkpt lat="45.64824" lon="5.89072">
        <ele>284.65784</ele>
        <time>2013-05-30T10:40:24Z</time>
      </trkpt>
      <trkpt lat="45.64824" lon="5.89102">
        <ele>284.3808</ele>
        <time>2013-05-30T10:40:28Z</time>
      </trkpt>
      <trkpt lat="45.64826" lon="5.89134">
        <ele>284.8602</ele>
        <time>2013-05-30T10:40:33Z</time>
      </trkpt>
      <trkpt lat="45.64834" lon="5.89158">
        <ele>285.0965</ele>
        <time>2013-05-30T10:40:38Z</time>
      </trkpt>
      <trkpt lat="45.64833" lon="5.89188">
        <ele>285.38443</ele>
        <time>2013-05-30T10:40:43Z</time>
      </trkpt>
      <trkpt lat="45.6484" lon="5.89213">
        <ele>284.88687</ele>
        <time>2013-05-30T10:40:47Z</time>
      </trkpt>
      <trkpt lat="45.64857" lon="5.89227">
        <ele>284.76447</ele>
        <time>2013-05-30T10:40:52Z</time>
      </trkpt>
      <trkpt lat="45.64877" lon="5.89229">
        <ele>285.4361</ele>
        <time>2013-05-30T10:40:57Z</time>
      </trkpt>
      <trkpt lat="45.64899" lon="5.89232">
        <ele>286.44263</ele>
        <time>2013-05-30T10:41:03Z</time>
      </trkpt>
      <trkpt lat="45.6492" lon="5.89232">
        <ele>287.40714</ele>
        <time>2013-05-30T10:41:09Z</time>
      </trkpt>
      <trkpt lat="45.64937" lon="5.89225">
        <ele>288.42398</ele>
        <time>2013-05-30T10:41:15Z</time>
      </trkpt>
      <trkpt lat="45.64957" lon="5.89215">
        <ele>288.934</ele>
        <time>2013-05-30T10:41:21Z</time>
      </trkpt>
      <trkpt lat="45.64977" lon="5.89206">
        <ele>288.93484</ele>
        <time>2013-05-30T10:41:27Z</time>
      </trkpt>
      <trkpt lat="45.64995" lon="5.89208">
        <ele>288.59607</ele>
        <time>2013-05-30T10:41:32Z</time>
      </trkpt>
      <trkpt lat="45.65015" lon="5.89217">
        <ele>288.84818</ele>
        <time>2013-05-30T10:41:37Z</time>
      </trkpt>
      <trkpt lat="45.65036" lon="5.89226">
        <ele>289.16016</ele>
        <time>2013-05-30T10:41:42Z</time>
      </trkpt>
      <trkpt lat="45.65059" lon="5.89225">
        <ele>288.49698</ele>
        <time>2013-05-30T10:41:47Z</time>
      </trkpt>
      <trkpt lat="45.6508" lon="5.8921">
        <ele>287.5881</ele>
        <time>2013-05-30T10:41:51Z</time>
      </trkpt>
      <trkpt lat="45.65101" lon="5.89218">
        <ele>286.77786</ele>
        <time>2013-05-30T10:41:55Z</time>
      </trkpt>
      <trkpt lat="45.65114" lon="5.89247">
        <ele>286.2293</ele>
        <time>2013-05-30T10:41:59Z</time>
      </trkpt>
      <trkpt lat="45.65113" lon="5.89274">
        <ele>286.33624</ele>
        <time>2013-05-30T10:42:03Z</time>
      </trkpt>
      <trkpt lat="45.6513" lon="5.89287">
        <ele>286.53732</ele>
        <time>2013-05-30T10:42:09Z</time>
      </trkpt>
      <trkpt lat="45.65148" lon="5.89278">
        <ele>286.91223</ele>
        <time>2013-05-30T10:42:15Z</time>
      </trkpt>
      <trkpt lat="45.65162" lon="5.89257">
        <ele>286.76883</ele>
        <time>2013-05-30T10:42:20Z</time>
      </trkpt>
      <trkpt lat="45.65177" lon="5.89236">
        <ele>286.63666</ele>
        <time>2013-05-30T10:42:25Z</time>
      </trkpt>
      <trkpt lat="45.65192" lon="5.89216">
        <ele>286.7256</ele>
        <time>2013-05-30T10:42:30Z</time>
      </trkpt>
      <trkpt lat="45.65208" lon="5.89197">
        <ele>287.50394</ele>
        <time>2013-05-30T10:42:35Z</time>
      </trkpt>
      <trkpt lat="45.65226" lon="5.89189">
        <ele>288.3838</ele>
        <time>2013-05-30T10:42:41Z</time>
      </trkpt>
      <trkpt lat="45.65238" lon="5.89214">
        <ele>285.68463</ele>
        <time>2013-05-30T10:42:46Z</time>
      </trkpt>
      <trkpt lat="45.65249" lon="5.89242">
        <ele>286.14313</ele>
        <time>2013-05-30T10:42:51Z</time>
      </trkpt>
      <trkpt lat="45.65259" lon="5.89264">
        <ele>285.5732</ele>
        <time>2013-05-30T10:42:56Z</time>
      </trkpt>
      <trkpt lat="45.65269" lon="5.89287">
        <ele>286.70987</ele>
        <time>2013-05-30T10:43:02Z</time>
      </trkpt>
      <trkpt lat="45.65287" lon="5.89289">
        <ele>287.5999</ele>
        <time>2013-05-30T10:43:07Z</time>
      </trkpt>
      <trkpt lat="45.65307" lon="5.8929">
        <ele>287.90436</ele>
        <time>2013-05-30T10:43:12Z</time>
      </trkpt>
      <trkpt lat="45.65324" lon="5.89305">
        <ele>287.54126</ele>
        <time>2013-05-30T10:43:17Z</time>
      </trkpt>
      <trkpt lat="45.65344" lon="5.89309">
        <ele>286.24945</ele>
        <time>2013-05-30T10:43:22Z</time>
      </trkpt>
      <trkpt lat="45.65351" lon="5.89282">
        <ele>286.23282</ele>
        <time>2013-05-30T10:43:26Z</time>
      </trkpt>
      <trkpt lat="45.65368" lon="5.89272">
        <ele>286.07254</ele>
        <time>2013-05-30T10:44:58Z</time>
      </trkpt>
      <trkpt lat="45.65392" lon="5.89287">
        <ele>283.92178</ele>
        <time>2013-05-30T10:45:04Z</time>
      </trkpt>
      <trkpt lat="45.65408" lon="5.89301">
        <ele>282.50064</ele>
        <time>2013-05-30T10:45:08Z</time>
      </trkpt>
      <trkpt lat="45.65427" lon="5.89318">
        <ele>281.3217</ele>
        <time>2013-05-30T10:45:14Z</time>
      </trkpt>
      <trkpt lat="45.65443" lon="5.89333">
        <ele>281.2032</ele>
        <time>2013-05-30T10:45:20Z</time>
      </trkpt>
      <trkpt lat="45.65462" lon="5.89339">
        <ele>281.6599</ele>
        <time>2013-05-30T10:45:51Z</time>
      </trkpt>
      <trkpt lat="45.65483" lon="5.89346">
        <ele>282.6354</ele>
        <time>2013-05-30T10:45:56Z</time>
      </trkpt>
      <trkpt lat="45.65504" lon="5.89356">
        <ele>283.15353</ele>
        <time>2013-05-30T10:46:01Z</time>
      </trkpt>
      <trkpt lat="45.65522" lon="5.89372">
        <ele>282.99863</ele>
        <time>2013-05-30T10:46:06Z</time>
      </trkpt>
      <trkpt lat="45.65539" lon="5.89391">
        <ele>282.00787</ele>
        <time>2013-05-30T10:46:11Z</time>
      </trkpt>
      <trkpt lat="45.65556" lon="5.89411">
        <ele>282.26025</ele>
        <time>2013-05-30T10:46:16Z</time>
      </trkpt>
      <trkpt lat="45.65574" lon="5.89428">
        <ele>283.48657</ele>
        <time>2013-05-30T10:46:21Z</time>
      </trkpt>
      <trkpt lat="45.65595" lon="5.89438">
        <ele>284.21057</ele>
        <time>2013-05-30T10:46:26Z</time>
      </trkpt>
      <trkpt lat="45.65616" lon="5.89444">
        <ele>283.89392</ele>
        <time>2013-05-30T10:46:31Z</time>
      </trkpt>
      <trkpt lat="45.65635" lon="5.89448">
        <ele>284.33167</ele>
        <time>2013-05-30T10:46:35Z</time>
      </trkpt>
      <trkpt lat="45.65654" lon="5.89449">
        <ele>285.1285</ele>
        <time>2013-05-30T10:46:40Z</time>
      </trkpt>
      <trkpt lat="45.65673" lon="5.89449">
        <ele>285.2563</ele>
        <time>2013-05-30T10:46:45Z</time>
      </trkpt>
      <trkpt lat="45.65691" lon="5.89442">
        <ele>286.44437</ele>
        <time>2013-05-30T10:46:51Z</time>
      </trkpt>
      <trkpt lat="45.65708" lon="5.89428">
        <ele>286.2728</ele>
        <time>2013-05-30T10:47:44Z</time>
      </trkpt>
      <trkpt lat="45.65719" lon="5.89402">
        <ele>285.1681</ele>
        <time>2013-05-30T10:47:50Z</time>
      </trkpt>
      <trkpt lat="45.65736" lon="5.89386">
        <ele>284.2426</ele>
        <time>2013-05-30T10:47:55Z</time>
      </trkpt>
      <trkpt lat="45.65752" lon="5.89397">
        <ele>282.1065</ele>
        <time>2013-05-30T10:48:00Z</time>
      </trkpt>
      <trkpt lat="45.65767" lon="5.89415">
        <ele>279.90106</ele>
        <time>2013-05-30T10:48:05Z</time>
      </trkpt>
      <trkpt lat="45.65788" lon="5.89423">
        <ele>279.57837</ele>
        <time>2013-05-30T10:48:10Z</time>
      </trkpt>
      <trkpt lat="45.65808" lon="5.89428">
        <ele>281.0088</ele>
        <time>2013-05-30T10:48:14Z</time>
      </trkpt>
      <trkpt lat="45.65829" lon="5.89435">
        <ele>281.25473</ele>
        <time>2013-05-30T10:48:18Z</time>
      </trkpt>
      <trkpt lat="45.65848" lon="5.8944">
        <ele>279.81497</ele>
        <time>2013-05-30T10:48:22Z</time>
      </trkpt>
      <trkpt lat="45.65868" lon="5.89442">
        <ele>279.37387</ele>
        <time>2013-05-30T10:48:26Z</time>
      </trkpt>
      <trkpt lat="45.6589" lon="5.89444">
        <ele>279.60883</ele>
        <time>2013-05-30T10:48:31Z</time>
      </trkpt>
      <trkpt lat="45.65911" lon="5.89448">
        <ele>280.21558</ele>
        <time>2013-05-30T10:48:36Z</time>
      </trkpt>
      <trkpt lat="45.65932" lon="5.89452">
        <ele>281.2209</ele>
        <time>2013-05-30T10:48:41Z</time>
      </trkpt>
      <trkpt lat="45.65952" lon="5.89456">
        <ele>280.13776</ele>
        <time>2013-05-30T10:48:46Z</time>
      </trkpt>
      <trkpt lat="45.65973" lon="5.89458">
        <ele>278.8192</ele>
        <time>2013-05-30T10:48:51Z</time>
      </trkpt>
      <trkpt lat="45.65991" lon="5.89459">
        <ele>279.97418</ele>
        <time>2013-05-30T10:48:56Z</time>
      </trkpt>
      <trkpt lat="45.6601" lon="5.89468">
        <ele>281.57416</ele>
        <time>2013-05-30T10:49:01Z</time>
      </trkpt>
      <trkpt lat="45.66029" lon="5.89478">
        <ele>280.8014</ele>
        <time>2013-05-30T10:49:06Z</time>
      </trkpt>
      <trkpt lat="45.66047" lon="5.89486">
        <ele>278.87787</ele>
        <time>2013-05-30T10:49:11Z</time>
      </trkpt>
      <trkpt lat="45.66067" lon="5.89494">
        <ele>278.00177</ele>
        <time>2013-05-30T10:49:16Z</time>
      </trkpt>
      <trkpt lat="45.66089" lon="5.89502">
        <ele>278.13715</ele>
        <time>2013-05-30T10:49:21Z</time>
      </trkpt>
      <trkpt lat="45.66109" lon="5.8951">
        <ele>277.66272</ele>
        <time>2013-05-30T10:49:26Z</time>
      </trkpt>
      <trkpt lat="45.66129" lon="5.89518">
        <ele>277.81284</ele>
        <time>2013-05-30T10:49:31Z</time>
      </trkpt>
      <trkpt lat="45.66151" lon="5.89525">
        <ele>278.7342</ele>
        <time>2013-05-30T10:49:36Z</time>
      </trkpt>
      <trkpt lat="45.66172" lon="5.89534">
        <ele>281.05637</ele>
        <time>2013-05-30T10:49:41Z</time>
      </trkpt>
      <trkpt lat="45.66189" lon="5.89542">
        <ele>281.62955</ele>
        <time>2013-05-30T10:49:45Z</time>
      </trkpt>
      <trkpt lat="45.66207" lon="5.89551">
        <ele>282.63824</ele>
        <time>2013-05-30T10:49:49Z</time>
      </trkpt>
      <trkpt lat="45.66228" lon="5.89558">
        <ele>284.37686</ele>
        <time>2013-05-30T10:49:54Z</time>
      </trkpt>
      <trkpt lat="45.66245" lon="5.89564">
        <ele>284.35635</ele>
        <time>2013-05-30T10:49:58Z</time>
      </trkpt>
      <trkpt lat="45.66265" lon="5.89569">
        <ele>283.1042</ele>
        <time>2013-05-30T10:50:03Z</time>
      </trkpt>
      <trkpt lat="45.66285" lon="5.89576">
        <ele>282.6435</ele>
        <time>2013-05-30T10:50:08Z</time>
      </trkpt>
      <trkpt lat="45.66306" lon="5.89585">
        <ele>282.7939</ele>
        <time>2013-05-30T10:50:13Z</time>
      </trkpt>
      <trkpt lat="45.66327" lon="5.8959">
        <ele>282.90558</ele>
        <time>2013-05-30T10:50:18Z</time>
      </trkpt>
      <trkpt lat="45.66348" lon="5.89595">
        <ele>282.70035</ele>
        <time>2013-05-30T10:50:23Z</time>
      </trkpt>
      <trkpt lat="45.66367" lon="5.89596">
        <ele>281.7366</ele>
        <time>2013-05-30T10:50:28Z</time>
      </trkpt>
      <trkpt lat="45.66387" lon="5.89597">
        <ele>282.67596</ele>
        <time>2013-05-30T10:50:33Z</time>
      </trkpt>
      <trkpt lat="45.66407" lon="5.896">
        <ele>282.21228</ele>
        <time>2013-05-30T10:50:38Z</time>
      </trkpt>
      <trkpt lat="45.66428" lon="5.89602">
        <ele>283.08347</ele>
        <time>2013-05-30T10:50:43Z</time>
      </trkpt>
      <trkpt lat="45.66449" lon="5.89601">
        <ele>283.88132</ele>
        <time>2013-05-30T10:50:48Z</time>
      </trkpt>
      <trkpt lat="45.66472" lon="5.89598">
        <ele>284.00916</ele>
        <time>2013-05-30T10:50:53Z</time>
      </trkpt>
      <trkpt lat="45.66493" lon="5.89597">
        <ele>282.6713</ele>
        <time>2013-05-30T10:50:58Z</time>
      </trkpt>
      <trkpt lat="45.66512" lon="5.89593">
        <ele>281.9991</ele>
        <time>2013-05-30T10:51:02Z</time>
      </trkpt>
      <trkpt lat="45.6653" lon="5.89588">
        <ele>280.66495</ele>
        <time>2013-05-30T10:51:06Z</time>
      </trkpt>
      <trkpt lat="45.66549" lon="5.89582">
        <ele>278.55923</ele>
        <time>2013-05-30T10:51:10Z</time>
      </trkpt>
      <trkpt lat="45.66569" lon="5.89575">
        <ele>277.57733</ele>
        <time>2013-05-30T10:51:14Z</time>
      </trkpt>
      <trkpt lat="45.66588" lon="5.89566">
        <ele>277.60104</ele>
        <time>2013-05-30T10:51:18Z</time>
      </trkpt>
      <trkpt lat="45.66606" lon="5.89559">
        <ele>277.5894</ele>
        <time>2013-05-30T10:51:22Z</time>
      </trkpt>
      <trkpt lat="45.66624" lon="5.89549">
        <ele>278.2275</ele>
        <time>2013-05-30T10:51:26Z</time>
      </trkpt>
      <trkpt lat="45.66642" lon="5.89539">
        <ele>278.18683</ele>
        <time>2013-05-30T10:51:30Z</time>
      </trkpt>
      <trkpt lat="45.6666" lon="5.89528">
        <ele>278.38568</ele>
        <time>2013-05-30T10:51:34Z</time>
      </trkpt>
      <trkpt lat="45.66678" lon="5.89515">
        <ele>279.62515</ele>
        <time>2013-05-30T10:51:38Z</time>
      </trkpt>
      <trkpt lat="45.66696" lon="5.89507">
        <ele>280.28296</ele>
        <time>2013-05-30T10:51:42Z</time>
      </trkpt>
      <trkpt lat="45.66715" lon="5.89495">
        <ele>279.895</ele>
        <time>2013-05-30T10:51:46Z</time>
      </trkpt>
      <trkpt lat="45.66731" lon="5.89483">
        <ele>280.9246</ele>
        <time>2013-05-30T10:51:50Z</time>
      </trkpt>
      <trkpt lat="45.66748" lon="5.8947">
        <ele>281.15897</ele>
        <time>2013-05-30T10:51:54Z</time>
      </trkpt>
      <trkpt lat="45.66764" lon="5.89455">
        <ele>281.8671</ele>
        <time>2013-05-30T10:51:58Z</time>
      </trkpt>
      <trkpt lat="45.66782" lon="5.89445">
        <ele>283.35287</ele>
        <time>2013-05-30T10:52:02Z</time>
      </trkpt>
      <trkpt lat="45.668" lon="5.89438">
        <ele>285.4015</ele>
        <time>2013-05-30T10:52:06Z</time>
      </trkpt>
      <trkpt lat="45.66819" lon="5.8943">
        <ele>286.87573</ele>
        <time>2013-05-30T10:52:11Z</time>
      </trkpt>
      <trkpt lat="45.66836" lon="5.89419">
        <ele>287.0806</ele>
        <time>2013-05-30T10:52:15Z</time>
      </trkpt>
      <trkpt lat="45.66853" lon="5.89401">
        <ele>287.25378</ele>
        <time>2013-05-30T10:52:20Z</time>
      </trkpt>
      <trkpt lat="45.66873" lon="5.89385">
        <ele>285.90994</ele>
        <time>2013-05-30T10:52:25Z</time>
      </trkpt>
      <trkpt lat="45.66893" lon="5.89374">
        <ele>285.11447</ele>
        <time>2013-05-30T10:52:30Z</time>
      </trkpt>
      <trkpt lat="45.66912" lon="5.89371">
        <ele>285.6085</ele>
        <time>2013-05-30T10:52:34Z</time>
      </trkpt>
      <trkpt lat="45.66931" lon="5.89366">
        <ele>285.75345</ele>
        <time>2013-05-30T10:52:38Z</time>
      </trkpt>
      <trkpt lat="45.66953" lon="5.89359">
        <ele>285.17734</ele>
        <time>2013-05-30T10:52:43Z</time>
      </trkpt>
      <trkpt lat="45.66974" lon="5.89351">
        <ele>282.1991</ele>
        <time>2013-05-30T10:52:48Z</time>
      </trkpt>
      <trkpt lat="45.66996" lon="5.89347">
        <ele>281.27957</ele>
        <time>2013-05-30T10:52:53Z</time>
      </trkpt>
      <trkpt lat="45.67016" lon="5.8934">
        <ele>281.63535</ele>
        <time>2013-05-30T10:52:57Z</time>
      </trkpt>
      <trkpt lat="45.67035" lon="5.89333">
        <ele>282.28696</ele>
        <time>2013-05-30T10:53:01Z</time>
      </trkpt>
      <trkpt lat="45.67055" lon="5.8933">
        <ele>283.2486</ele>
        <time>2013-05-30T10:53:05Z</time>
      </trkpt>
      <trkpt lat="45.67074" lon="5.8933">
        <ele>283.1525</ele>
        <time>2013-05-30T10:53:09Z</time>
      </trkpt>
      <trkpt lat="45.67093" lon="5.89335">
        <ele>287.9655</ele>
        <time>2013-05-30T10:53:48Z</time>
      </trkpt>
      <trkpt lat="45.67111" lon="5.89335">
        <ele>288.0793</ele>
        <time>2013-05-30T10:53:53Z</time>
      </trkpt>
      <trkpt lat="45.6713" lon="5.89337">
        <ele>287.38025</ele>
        <time>2013-05-30T10:53:58Z</time>
      </trkpt>
      <trkpt lat="45.67149" lon="5.89339">
        <ele>287.31738</ele>
        <time>2013-05-30T10:54:03Z</time>
      </trkpt>
      <trkpt lat="45.67169" lon="5.8934">
        <ele>287.2131</ele>
        <time>2013-05-30T10:54:08Z</time>
      </trkpt>
      <trkpt lat="45.67188" lon="5.89342">
        <ele>287.17157</ele>
        <time>2013-05-30T10:54:13Z</time>
      </trkpt>
      <trkpt lat="45.67211" lon="5.89344">
        <ele>287.61484</ele>
        <time>2013-05-30T10:54:18Z</time>
      </trkpt>
      <trkpt lat="45.67233" lon="5.89347">
        <ele>286.07578</ele>
        <time>2013-05-30T10:54:23Z</time>
      </trkpt>
      <trkpt lat="45.67255" lon="5.89349">
        <ele>285.33487</ele>
        <time>2013-05-30T10:54:28Z</time>
      </trkpt>
      <trkpt lat="45.67276" lon="5.8935">
        <ele>284.96814</ele>
        <time>2013-05-30T10:54:33Z</time>
      </trkpt>
      <trkpt lat="45.67294" lon="5.89352">
        <ele>285.8786</ele>
        <time>2013-05-30T10:54:37Z</time>
      </trkpt>
      <trkpt lat="45.67313" lon="5.89353">
        <ele>286.5315</ele>
        <time>2013-05-30T10:54:41Z</time>
      </trkpt>
      <trkpt lat="45.67332" lon="5.89354">
        <ele>287.47092</ele>
        <time>2013-05-30T10:54:45Z</time>
      </trkpt>
      <trkpt lat="45.67353" lon="5.89352">
        <ele>287.37048</ele>
        <time>2013-05-30T10:54:49Z</time>
      </trkpt>
      <trkpt lat="45.67375" lon="5.89354">
        <ele>286.02933</ele>
        <time>2013-05-30T10:54:53Z</time>
      </trkpt>
      <trkpt lat="45.67395" lon="5.89354">
        <ele>286.11862</ele>
        <time>2013-05-30T10:54:56Z</time>
      </trkpt>
      <trkpt lat="45.67416" lon="5.89356">
        <ele>286.17035</ele>
        <time>2013-05-30T10:55:00Z</time>
      </trkpt>
      <trkpt lat="45.67437" lon="5.8936">
        <ele>286.2414</ele>
        <time>2013-05-30T10:55:04Z</time>
      </trkpt>
      <trkpt lat="45.67457" lon="5.89363">
        <ele>286.97287</ele>
        <time>2013-05-30T10:55:08Z</time>
      </trkpt>
      <trkpt lat="45.6748" lon="5.89365">
        <ele>287.2915</ele>
        <time>2013-05-30T10:55:13Z</time>
      </trkpt>
      <trkpt lat="45.67502" lon="5.89369">
        <ele>287.79037</ele>
        <time>2013-05-30T10:55:18Z</time>
      </trkpt>
      <trkpt lat="45.67521" lon="5.89372">
        <ele>287.379</ele>
        <time>2013-05-30T10:55:22Z</time>
      </trkpt>
      <trkpt lat="45.67539" lon="5.89374">
        <ele>284.3129</ele>
        <time>2013-05-30T10:55:26Z</time>
      </trkpt>
      <trkpt lat="45.67558" lon="5.89376">
        <ele>283.97556</ele>
        <time>2013-05-30T10:55:30Z</time>
      </trkpt>
      <trkpt lat="45.67578" lon="5.89377">
        <ele>284.00125</ele>
        <time>2013-05-30T10:55:34Z</time>
      </trkpt>
      <trkpt lat="45.67598" lon="5.89377">
        <ele>284.25742</ele>
        <time>2013-05-30T10:55:38Z</time>
      </trkpt>
      <trkpt lat="45.67618" lon="5.89379">
        <ele>284.66153</ele>
        <time>2013-05-30T10:55:42Z</time>
      </trkpt>
      <trkpt lat="45.6764" lon="5.89381">
        <ele>283.58813</ele>
        <time>2013-05-30T10:55:47Z</time>
      </trkpt>
      <trkpt lat="45.67659" lon="5.89382">
        <ele>282.75287</ele>
        <time>2013-05-30T10:55:51Z</time>
      </trkpt>
      <trkpt lat="45.67679" lon="5.89383">
        <ele>282.67847</ele>
        <time>2013-05-30T10:55:55Z</time>
      </trkpt>
      <trkpt lat="45.67698" lon="5.89384">
        <ele>282.7678</ele>
        <time>2013-05-30T10:55:59Z</time>
      </trkpt>
      <trkpt lat="45.67716" lon="5.89384">
        <ele>281.8019</ele>
        <time>2013-05-30T10:56:03Z</time>
      </trkpt>
      <trkpt lat="45.67736" lon="5.89385">
        <ele>281.58264</ele>
        <time>2013-05-30T10:56:07Z</time>
      </trkpt>
      <trkpt lat="45.67756" lon="5.89387">
        <ele>281.175</ele>
        <time>2013-05-30T10:56:11Z</time>
      </trkpt>
      <trkpt lat="45.67775" lon="5.89389">
        <ele>283.10422</ele>
        <time>2013-05-30T10:56:16Z</time>
      </trkpt>
      <trkpt lat="45.67794" lon="5.89395">
        <ele>284.26477</ele>
        <time>2013-05-30T10:56:21Z</time>
      </trkpt>
      <trkpt lat="45.67814" lon="5.89395">
        <ele>285.2725</ele>
        <time>2013-05-30T10:56:26Z</time>
      </trkpt>
      <trkpt lat="45.67836" lon="5.89393">
        <ele>285.18842</ele>
        <time>2013-05-30T10:56:31Z</time>
      </trkpt>
      <trkpt lat="45.67858" lon="5.89395">
        <ele>284.45145</ele>
        <time>2013-05-30T10:56:36Z</time>
      </trkpt>
      <trkpt lat="45.6788" lon="5.89397">
        <ele>283.26593</ele>
        <time>2013-05-30T10:56:41Z</time>
      </trkpt>
      <trkpt lat="45.67901" lon="5.89395">
        <ele>283.60587</ele>
        <time>2013-05-30T10:56:46Z</time>
      </trkpt>
      <trkpt lat="45.67924" lon="5.89395">
        <ele>284.45737</ele>
        <time>2013-05-30T10:56:51Z</time>
      </trkpt>
      <trkpt lat="45.67942" lon="5.89395">
        <ele>283.05017</ele>
        <time>2013-05-30T10:56:55Z</time>
      </trkpt>
      <trkpt lat="45.67961" lon="5.89394">
        <ele>281.11197</ele>
        <time>2013-05-30T10:56:59Z</time>
      </trkpt>
      <trkpt lat="45.6798" lon="5.89386">
        <ele>278.8698</ele>
        <time>2013-05-30T10:57:03Z</time>
      </trkpt>
      <trkpt lat="45.68002" lon="5.89382">
        <ele>278.89355</ele>
        <time>2013-05-30T10:57:07Z</time>
      </trkpt>
      <trkpt lat="45.68023" lon="5.89392">
        <ele>278.4132</ele>
        <time>2013-05-30T10:57:11Z</time>
      </trkpt>
      <trkpt lat="45.68045" lon="5.89399">
        <ele>278.07684</ele>
        <time>2013-05-30T10:57:15Z</time>
      </trkpt>
      <trkpt lat="45.68067" lon="5.89404">
        <ele>278.76572</ele>
        <time>2013-05-30T10:57:19Z</time>
      </trkpt>
      <trkpt lat="45.68087" lon="5.89408">
        <ele>278.8122</ele>
        <time>2013-05-30T10:57:23Z</time>
      </trkpt>
      <trkpt lat="45.68106" lon="5.8941">
        <ele>279.12338</ele>
        <time>2013-05-30T10:57:27Z</time>
      </trkpt>
      <trkpt lat="45.68125" lon="5.89414">
        <ele>280.8398</ele>
        <time>2013-05-30T10:57:31Z</time>
      </trkpt>
      <trkpt lat="45.68144" lon="5.89418">
        <ele>281.11377</ele>
        <time>2013-05-30T10:57:35Z</time>
      </trkpt>
      <trkpt lat="45.68164" lon="5.89418">
        <ele>280.85553</ele>
        <time>2013-05-30T10:57:39Z</time>
      </trkpt>
      <trkpt lat="45.68184" lon="5.8942">
        <ele>281.51913</ele>
        <time>2013-05-30T10:57:43Z</time>
      </trkpt>
      <trkpt lat="45.68202" lon="5.89423">
        <ele>282.25958</ele>
        <time>2013-05-30T10:57:47Z</time>
      </trkpt>
      <trkpt lat="45.68222" lon="5.8943">
        <ele>282.21338</ele>
        <time>2013-05-30T10:57:51Z</time>
      </trkpt>
      <trkpt lat="45.68241" lon="5.89436">
        <ele>283.739</ele>
        <time>2013-05-30T10:57:55Z</time>
      </trkpt>
      <trkpt lat="45.68261" lon="5.89439">
        <ele>284.24594</ele>
        <time>2013-05-30T10:57:59Z</time>
      </trkpt>
      <trkpt lat="45.68281" lon="5.89443">
        <ele>284.11298</ele>
        <time>2013-05-30T10:58:03Z</time>
      </trkpt>
      <trkpt lat="45.68304" lon="5.89448">
        <ele>285.19995</ele>
        <time>2013-05-30T10:58:08Z</time>
      </trkpt>
      <trkpt lat="45.68324" lon="5.89452">
        <ele>284.9367</ele>
        <time>2013-05-30T10:58:12Z</time>
      </trkpt>
      <trkpt lat="45.68342" lon="5.89455">
        <ele>284.21942</ele>
        <time>2013-05-30T10:58:16Z</time>
      </trkpt>
      <trkpt lat="45.68363" lon="5.8945">
        <ele>283.8262</ele>
        <time>2013-05-30T10:58:21Z</time>
      </trkpt>
      <trkpt lat="45.68383" lon="5.89457">
        <ele>283.61972</ele>
        <time>2013-05-30T10:58:27Z</time>
      </trkpt>
      <trkpt lat="45.684" lon="5.8947">
        <ele>284.98172</ele>
        <time>2013-05-30T10:58:33Z</time>
      </trkpt>
      <trkpt lat="45.68423" lon="5.8947">
        <ele>284.2434</ele>
        <time>2013-05-30T10:58:38Z</time>
      </trkpt>
      <trkpt lat="45.68443" lon="5.89473">
        <ele>283.3997</ele>
        <time>2013-05-30T10:58:42Z</time>
      </trkpt>
      <trkpt lat="45.68466" lon="5.89476">
        <ele>282.7917</ele>
        <time>2013-05-30T10:58:46Z</time>
      </trkpt>
      <trkpt lat="45.68484" lon="5.8948">
        <ele>282.5048</ele>
        <time>2013-05-30T10:58:50Z</time>
      </trkpt>
      <trkpt lat="45.68502" lon="5.89481">
        <ele>282.69995</ele>
        <time>2013-05-30T10:58:54Z</time>
      </trkpt>
      <trkpt lat="45.6852" lon="5.89484">
        <ele>282.69177</ele>
        <time>2013-05-30T10:58:58Z</time>
      </trkpt>
      <trkpt lat="45.68539" lon="5.89488">
        <ele>283.056</ele>
        <time>2013-05-30T10:59:02Z</time>
      </trkpt>
      <trkpt lat="45.68557" lon="5.89493">
        <ele>282.55875</ele>
        <time>2013-05-30T10:59:06Z</time>
      </trkpt>
      <trkpt lat="45.68578" lon="5.89494">
        <ele>283.32874</ele>
        <time>2013-05-30T10:59:10Z</time>
      </trkpt>
      <trkpt lat="45.68596" lon="5.89498">
        <ele>283.8298</ele>
        <time>2013-05-30T10:59:14Z</time>
      </trkpt>
      <trkpt lat="45.68614" lon="5.89496">
        <ele>283.49927</ele>
        <time>2013-05-30T10:59:18Z</time>
      </trkpt>
      <trkpt lat="45.68633" lon="5.89496">
        <ele>283.1025</ele>
        <time>2013-05-30T10:59:22Z</time>
      </trkpt>
      <trkpt lat="45.68652" lon="5.89507">
        <ele>282.76212</ele>
        <time>2013-05-30T10:59:26Z</time>
      </trkpt>
      <trkpt lat="45.6867" lon="5.89512">
        <ele>282.42084</ele>
        <time>2013-05-30T10:59:30Z</time>
      </trkpt>
      <trkpt lat="45.68689" lon="5.89517">
        <ele>282.80618</ele>
        <time>2013-05-30T10:59:34Z</time>
      </trkpt>
      <trkpt lat="45.68708" lon="5.8952">
        <ele>282.5883</ele>
        <time>2013-05-30T10:59:38Z</time>
      </trkpt>
      <trkpt lat="45.68728" lon="5.89522">
        <ele>284.0256</ele>
        <time>2013-05-30T10:59:42Z</time>
      </trkpt>
      <trkpt lat="45.68747" lon="5.89526">
        <ele>285.3335</ele>
        <time>2013-05-30T10:59:46Z</time>
      </trkpt>
      <trkpt lat="45.68767" lon="5.8953">
        <ele>285.32974</ele>
        <time>2013-05-30T10:59:50Z</time>
      </trkpt>
      <trkpt lat="45.68786" lon="5.89534">
        <ele>285.08286</ele>
        <time>2013-05-30T10:59:54Z</time>
      </trkpt>
      <trkpt lat="45.68804" lon="5.89538">
        <ele>285.35004</ele>
        <time>2013-05-30T10:59:58Z</time>
      </trkpt>
      <trkpt lat="45.68822" lon="5.8954">
        <ele>284.4771</ele>
        <time>2013-05-30T11:00:03Z</time>
      </trkpt>
      <trkpt lat="45.68843" lon="5.89543">
        <ele>284.01773</ele>
        <time>2013-05-30T11:00:09Z</time>
      </trkpt>
      <trkpt lat="45.68861" lon="5.89548">
        <ele>284.7705</ele>
        <time>2013-05-30T11:00:14Z</time>
      </trkpt>
      <trkpt lat="45.68882" lon="5.8955">
        <ele>286.10666</ele>
        <time>2013-05-30T11:00:19Z</time>
      </trkpt>
      <trkpt lat="45.68903" lon="5.89552">
        <ele>287.11163</ele>
        <time>2013-05-30T11:00:24Z</time>
      </trkpt>
      <trkpt lat="45.68924" lon="5.89555">
        <ele>285.8629</ele>
        <time>2013-05-30T11:00:29Z</time>
      </trkpt>
      <trkpt lat="45.68946" lon="5.89557">
        <ele>284.92783</ele>
        <time>2013-05-30T11:00:34Z</time>
      </trkpt>
      <trkpt lat="45.68968" lon="5.89558">
        <ele>281.85202</ele>
        <time>2013-05-30T11:00:40Z</time>
      </trkpt>
      <trkpt lat="45.68986" lon="5.89557">
        <ele>280.19263</ele>
        <time>2013-05-30T11:00:45Z</time>
      </trkpt>
      <trkpt lat="45.69009" lon="5.89559">
        <ele>279.8423</ele>
        <time>2013-05-30T11:00:50Z</time>
      </trkpt>
      <trkpt lat="45.6903" lon="5.89562">
        <ele>279.62878</ele>
        <time>2013-05-30T11:00:55Z</time>
      </trkpt>
      <trkpt lat="45.69049" lon="5.89562">
        <ele>278.49188</ele>
        <time>2013-05-30T11:01:00Z</time>
      </trkpt>
      <trkpt lat="45.69068" lon="5.89558">
        <ele>278.52362</ele>
        <time>2013-05-30T11:01:04Z</time>
      </trkpt>
      <trkpt lat="45.69087" lon="5.89547">
        <ele>280.8399</ele>
        <time>2013-05-30T11:01:08Z</time>
      </trkpt>
      <trkpt lat="45.69105" lon="5.89535">
        <ele>283.35443</ele>
        <time>2013-05-30T11:01:12Z</time>
      </trkpt>
      <trkpt lat="45.69124" lon="5.89517">
        <ele>285.53568</ele>
        <time>2013-05-30T11:01:17Z</time>
      </trkpt>
      <trkpt lat="45.69141" lon="5.89499">
        <ele>285.82184</ele>
        <time>2013-05-30T11:01:22Z</time>
      </trkpt>
      <trkpt lat="45.69152" lon="5.89476">
        <ele>283.12793</ele>
        <time>2013-05-30T11:01:28Z</time>
      </trkpt>
      <trkpt lat="45.69168" lon="5.89464">
        <ele>283.5361</ele>
        <time>2013-05-30T11:01:33Z</time>
      </trkpt>
      <trkpt lat="45.69189" lon="5.8946">
        <ele>284.55853</ele>
        <time>2013-05-30T11:01:39Z</time>
      </trkpt>
      <trkpt lat="45.69209" lon="5.89459">
        <ele>285.3384</ele>
        <time>2013-05-30T11:01:44Z</time>
      </trkpt>
      <trkpt lat="45.69227" lon="5.89454">
        <ele>286.08762</ele>
        <time>2013-05-30T11:01:50Z</time>
      </trkpt>
      <trkpt lat="45.69245" lon="5.89461">
        <ele>289.8114</ele>
        <time>2013-05-30T11:02:04Z</time>
      </trkpt>
      <trkpt lat="45.69263" lon="5.89467">
        <ele>287.46637</ele>
        <time>2013-05-30T11:02:10Z</time>
      </trkpt>
      <trkpt lat="45.69274" lon="5.89489">
        <ele>285.28146</ele>
        <time>2013-05-30T11:02:15Z</time>
      </trkpt>
      <trkpt lat="45.6929" lon="5.89506">
        <ele>285.49307</ele>
        <time>2013-05-30T11:02:20Z</time>
      </trkpt>
      <trkpt lat="45.69299" lon="5.89529">
        <ele>286.89035</ele>
        <time>2013-05-30T11:02:26Z</time>
      </trkpt>
      <trkpt lat="45.69314" lon="5.89544">
        <ele>294.91934</ele>
        <time>2013-05-30T11:02:48Z</time>
      </trkpt>
      <trkpt lat="45.69327" lon="5.89562">
        <ele>295.30197</ele>
        <time>2013-05-30T11:02:59Z</time>
      </trkpt>
      <trkpt lat="45.69345" lon="5.89573">
        <ele>293.07507</ele>
        <time>2013-05-30T11:03:05Z</time>
      </trkpt>
      <trkpt lat="45.69363" lon="5.89581">
        <ele>292.0588</ele>
        <time>2013-05-30T11:03:11Z</time>
      </trkpt>
      <trkpt lat="45.69373" lon="5.89604">
        <ele>291.71698</ele>
        <time>2013-05-30T11:03:18Z</time>
      </trkpt>
      <trkpt lat="45.69367" lon="5.89629">
        <ele>292.07663</ele>
        <time>2013-05-30T11:03:26Z</time>
      </trkpt>
      <trkpt lat="45.6936" lon="5.89653">
        <ele>292.56293</ele>
        <time>2013-05-30T11:03:32Z</time>
      </trkpt>
      <trkpt lat="45.69368" lon="5.89678">
        <ele>292.4709</ele>
        <time>2013-05-30T11:03:37Z</time>
      </trkpt>
      <trkpt lat="45.69376" lon="5.89702">
        <ele>292.60883</ele>
        <time>2013-05-30T11:03:42Z</time>
      </trkpt>
      <trkpt lat="45.69386" lon="5.89725">
        <ele>292.965</ele>
        <time>2013-05-30T11:03:47Z</time>
      </trkpt>
      <trkpt lat="45.694" lon="5.89749">
        <ele>291.90256</ele>
        <time>2013-05-30T11:03:53Z</time>
      </trkpt>
      <trkpt lat="45.69407" lon="5.89774">
        <ele>291.92062</ele>
        <time>2013-05-30T11:03:58Z</time>
      </trkpt>
      <trkpt lat="45.69414" lon="5.89799">
        <ele>292.0375</ele>
        <time>2013-05-30T11:04:03Z</time>
      </trkpt>
      <trkpt lat="45.69421" lon="5.89827">
        <ele>292.0511</ele>
        <time>2013-05-30T11:04:08Z</time>
      </trkpt>
      <trkpt lat="45.69422" lon="5.89853">
        <ele>290.3349</ele>
        <time>2013-05-30T11:04:12Z</time>
      </trkpt>
      <trkpt lat="45.69425" lon="5.89881">
        <ele>289.2536</ele>
        <time>2013-05-30T11:04:17Z</time>
      </trkpt>
      <trkpt lat="45.6943" lon="5.89908">
        <ele>289.21918</ele>
        <time>2013-05-30T11:04:22Z</time>
      </trkpt>
      <trkpt lat="45.69435" lon="5.89937">
        <ele>290.15338</ele>
        <time>2013-05-30T11:04:27Z</time>
      </trkpt>
      <trkpt lat="45.69437" lon="5.89965">
        <ele>289.05817</ele>
        <time>2013-05-30T11:04:33Z</time>
      </trkpt>
      <trkpt lat="45.69449" lon="5.89989">
        <ele>292.65292</ele>
        <time>2013-05-30T11:04:39Z</time>
      </trkpt>
      <trkpt lat="45.69465" lon="5.90008">
        <ele>292.30298</ele>
        <time>2013-05-30T11:04:46Z</time>
      </trkpt>
      <trkpt lat="45.6946" lon="5.90037">
        <ele>289.2644</ele>
        <time>2013-05-30T11:04:52Z</time>
      </trkpt>
      <trkpt lat="45.69447" lon="5.90056">
        <ele>287.88004</ele>
        <time>2013-05-30T11:04:57Z</time>
      </trkpt>
      <trkpt lat="45.6943" lon="5.90067">
        <ele>286.05374</ele>
        <time>2013-05-30T11:05:05Z</time>
      </trkpt>
      <trkpt lat="45.69435" lon="5.90093">
        <ele>286.2773</ele>
        <time>2013-05-30T11:05:10Z</time>
      </trkpt>
      <trkpt lat="45.69438" lon="5.90121">
        <ele>284.9871</ele>
        <time>2013-05-30T11:05:15Z</time>
      </trkpt>
      <trkpt lat="45.69443" lon="5.90151">
        <ele>285.8016</ele>
        <time>2013-05-30T11:05:20Z</time>
      </trkpt>
      <trkpt lat="45.6945" lon="5.90179">
        <ele>287.30984</ele>
        <time>2013-05-30T11:05:25Z</time>
      </trkpt>
      <trkpt lat="45.69454" lon="5.90209">
        <ele>289.96817</ele>
        <time>2013-05-30T11:05:30Z</time>
      </trkpt>
      <trkpt lat="45.69456" lon="5.9024">
        <ele>291.12595</ele>
        <time>2013-05-30T11:05:35Z</time>
      </trkpt>
      <trkpt lat="45.69459" lon="5.9027">
        <ele>291.33478</ele>
        <time>2013-05-30T11:05:40Z</time>
      </trkpt>
      <trkpt lat="45.69464" lon="5.90302">
        <ele>292.67593</ele>
        <time>2013-05-30T11:05:45Z</time>
      </trkpt>
      <trkpt lat="45.69469" lon="5.90333">
        <ele>291.7394</ele>
        <time>2013-05-30T11:05:50Z</time>
      </trkpt>
      <trkpt lat="45.69473" lon="5.90358">
        <ele>291.44644</ele>
        <time>2013-05-30T11:05:54Z</time>
      </trkpt>
      <trkpt lat="45.69476" lon="5.90384">
        <ele>290.98813</ele>
        <time>2013-05-30T11:05:58Z</time>
      </trkpt>
      <trkpt lat="45.69479" lon="5.90414">
        <ele>292.3227</ele>
        <time>2013-05-30T11:06:03Z</time>
      </trkpt>
      <trkpt lat="45.69486" lon="5.90445">
        <ele>294.26486</ele>
        <time>2013-05-30T11:06:08Z</time>
      </trkpt>
      <trkpt lat="45.69489" lon="5.90473">
        <ele>292.79938</ele>
        <time>2013-05-30T11:06:13Z</time>
      </trkpt>
      <trkpt lat="45.69493" lon="5.90499">
        <ele>292.43555</ele>
        <time>2013-05-30T11:06:19Z</time>
      </trkpt>
      <trkpt lat="45.69507" lon="5.90479">
        <ele>291.22058</ele>
        <time>2013-05-30T11:06:39Z</time>
      </trkpt>
      <trkpt lat="45.69523" lon="5.90467">
        <ele>288.94638</ele>
        <time>2013-05-30T11:06:53Z</time>
      </trkpt>
      <trkpt lat="45.69533" lon="5.90442">
        <ele>286.78622</ele>
        <time>2013-05-30T11:06:59Z</time>
      </trkpt>
      <trkpt lat="45.69543" lon="5.90419">
        <ele>286.17847</ele>
        <time>2013-05-30T11:07:04Z</time>
      </trkpt>
      <trkpt lat="45.69555" lon="5.90394">
        <ele>287.09967</ele>
        <time>2013-05-30T11:07:09Z</time>
      </trkpt>
      <trkpt lat="45.69567" lon="5.90367">
        <ele>287.45538</ele>
        <time>2013-05-30T11:07:14Z</time>
      </trkpt>
      <trkpt lat="45.69579" lon="5.90341">
        <ele>288.989</ele>
        <time>2013-05-30T11:07:19Z</time>
      </trkpt>
      <trkpt lat="45.69591" lon="5.90315">
        <ele>290.36517</ele>
        <time>2013-05-30T11:07:24Z</time>
      </trkpt>
      <trkpt lat="45.69601" lon="5.90291">
        <ele>290.67505</ele>
        <time>2013-05-30T11:07:29Z</time>
      </trkpt>
      <trkpt lat="45.69614" lon="5.90266">
        <ele>291.9596</ele>
        <time>2013-05-30T11:07:34Z</time>
      </trkpt>
      <trkpt lat="45.69625" lon="5.90242">
        <ele>290.38464</ele>
        <time>2013-05-30T11:07:39Z</time>
      </trkpt>
      <trkpt lat="45.69637" lon="5.90221">
        <ele>288.44904</ele>
        <time>2013-05-30T11:07:46Z</time>
      </trkpt>
      <trkpt lat="45.69647" lon="5.90198">
        <ele>290.49783</ele>
        <time>2013-05-30T11:07:52Z</time>
      </trkpt>
      <trkpt lat="45.69652" lon="5.90171">
        <ele>291.4911</ele>
        <time>2013-05-30T11:07:57Z</time>
      </trkpt>
      <trkpt lat="45.69652" lon="5.90141">
        <ele>291.96243</ele>
        <time>2013-05-30T11:08:02Z</time>
      </trkpt>
      <trkpt lat="45.6965" lon="5.90111">
        <ele>290.6078</ele>
        <time>2013-05-30T11:08:07Z</time>
      </trkpt>
      <trkpt lat="45.69645" lon="5.90079">
        <ele>287.68387</ele>
        <time>2013-05-30T11:08:12Z</time>
      </trkpt>
      <trkpt lat="45.69639" lon="5.90047">
        <ele>286.92654</ele>
        <time>2013-05-30T11:08:17Z</time>
      </trkpt>
      <trkpt lat="45.69636" lon="5.90015">
        <ele>286.21362</ele>
        <time>2013-05-30T11:08:22Z</time>
      </trkpt>
      <trkpt lat="45.69632" lon="5.89985">
        <ele>283.4465</ele>
        <time>2013-05-30T11:08:27Z</time>
      </trkpt>
      <trkpt lat="45.69627" lon="5.89955">
        <ele>283.88892</ele>
        <time>2013-05-30T11:08:31Z</time>
      </trkpt>
      <trkpt lat="45.69623" lon="5.89926">
        <ele>285.20508</ele>
        <time>2013-05-30T11:08:35Z</time>
      </trkpt>
      <trkpt lat="45.69618" lon="5.89894">
        <ele>286.27356</ele>
        <time>2013-05-30T11:08:40Z</time>
      </trkpt>
      <trkpt lat="45.69614" lon="5.89866">
        <ele>287.4311</ele>
        <time>2013-05-30T11:08:44Z</time>
      </trkpt>
      <trkpt lat="45.69611" lon="5.89839">
        <ele>289.50006</ele>
        <time>2013-05-30T11:08:48Z</time>
      </trkpt>
      <trkpt lat="45.69609" lon="5.8981">
        <ele>291.5375</ele>
        <time>2013-05-30T11:08:52Z</time>
      </trkpt>
      <trkpt lat="45.69606" lon="5.89783">
        <ele>291.52945</ele>
        <time>2013-05-30T11:08:56Z</time>
      </trkpt>
      <trkpt lat="45.69606" lon="5.89757">
        <ele>289.38306</ele>
        <time>2013-05-30T11:09:01Z</time>
      </trkpt>
      <trkpt lat="45.69628" lon="5.89753">
        <ele>290.27444</ele>
        <time>2013-05-30T11:09:07Z</time>
      </trkpt>
      <trkpt lat="45.69649" lon="5.89751">
        <ele>289.88525</ele>
        <time>2013-05-30T11:09:12Z</time>
      </trkpt>
      <trkpt lat="45.6967" lon="5.89749">
        <ele>288.52942</ele>
        <time>2013-05-30T11:09:17Z</time>
      </trkpt>
      <trkpt lat="45.69689" lon="5.89746">
        <ele>287.6097</ele>
        <time>2013-05-30T11:09:22Z</time>
      </trkpt>
      <trkpt lat="45.69708" lon="5.89743">
        <ele>286.96997</ele>
        <time>2013-05-30T11:09:27Z</time>
      </trkpt>
      <trkpt lat="45.69726" lon="5.89741">
        <ele>287.629</ele>
        <time>2013-05-30T11:09:32Z</time>
      </trkpt>
      <trkpt lat="45.69746" lon="5.89743">
        <ele>288.5744</ele>
        <time>2013-05-30T11:09:36Z</time>
      </trkpt>
      <trkpt lat="45.69765" lon="5.89745">
        <ele>288.73776</ele>
        <time>2013-05-30T11:09:41Z</time>
      </trkpt>
      <trkpt lat="45.69784" lon="5.89746">
        <ele>287.40866</ele>
        <time>2013-05-30T11:09:46Z</time>
      </trkpt>
      <trkpt lat="45.69805" lon="5.89749">
        <ele>287.92636</ele>
        <time>2013-05-30T11:09:51Z</time>
      </trkpt>
      <trkpt lat="45.69823" lon="5.89744">
        <ele>288.4502</ele>
        <time>2013-05-30T11:09:56Z</time>
      </trkpt>
      <trkpt lat="45.69838" lon="5.89726">
        <ele>289.00848</ele>
        <time>2013-05-30T11:10:02Z</time>
      </trkpt>
      <trkpt lat="45.69852" lon="5.89706">
        <ele>288.97458</ele>
        <time>2013-05-30T11:10:07Z</time>
      </trkpt>
      <trkpt lat="45.69866" lon="5.89689">
        <ele>288.4951</ele>
        <time>2013-05-30T11:10:11Z</time>
      </trkpt>
      <trkpt lat="45.69879" lon="5.8967">
        <ele>289.2804</ele>
        <time>2013-05-30T11:10:16Z</time>
      </trkpt>
      <trkpt lat="45.69893" lon="5.89649">
        <ele>289.27145</ele>
        <time>2013-05-30T11:10:22Z</time>
      </trkpt>
      <trkpt lat="45.69906" lon="5.89629">
        <ele>289.8495</ele>
        <time>2013-05-30T11:10:27Z</time>
      </trkpt>
      <trkpt lat="45.69921" lon="5.89608">
        <ele>290.8211</ele>
        <time>2013-05-30T11:10:32Z</time>
      </trkpt>
      <trkpt lat="45.69935" lon="5.89589">
        <ele>290.65707</ele>
        <time>2013-05-30T11:10:36Z</time>
      </trkpt>
      <trkpt lat="45.69949" lon="5.89574">
        <ele>290.8583</ele>
        <time>2013-05-30T11:10:40Z</time>
      </trkpt>
      <trkpt lat="45.69966" lon="5.89556">
        <ele>291.48697</ele>
        <time>2013-05-30T11:10:45Z</time>
      </trkpt>
      <trkpt lat="45.69983" lon="5.8954">
        <ele>291.68527</ele>
        <time>2013-05-30T11:10:50Z</time>
      </trkpt>
      <trkpt lat="45.70002" lon="5.89524">
        <ele>291.7554</ele>
        <time>2013-05-30T11:10:55Z</time>
      </trkpt>
      <trkpt lat="45.70019" lon="5.89508">
        <ele>291.39108</ele>
        <time>2013-05-30T11:11:00Z</time>
      </trkpt>
      <trkpt lat="45.70038" lon="5.89494">
        <ele>291.47375</ele>
        <time>2013-05-30T11:11:05Z</time>
      </trkpt>
      <trkpt lat="45.70057" lon="5.89479">
        <ele>291.5511</ele>
        <time>2013-05-30T11:11:10Z</time>
      </trkpt>
      <trkpt lat="45.70076" lon="5.89463">
        <ele>292.09122</ele>
        <time>2013-05-30T11:11:15Z</time>
      </trkpt>
      <trkpt lat="45.70097" lon="5.89452">
        <ele>291.86307</ele>
        <time>2013-05-30T11:11:20Z</time>
      </trkpt>
      <trkpt lat="45.70114" lon="5.89442">
        <ele>291.426</ele>
        <time>2013-05-30T11:11:25Z</time>
      </trkpt>
      <trkpt lat="45.70131" lon="5.89432">
        <ele>289.98752</ele>
        <time>2013-05-30T11:11:29Z</time>
      </trkpt>
      <trkpt lat="45.70148" lon="5.89421">
        <ele>290.7402</ele>
        <time>2013-05-30T11:11:33Z</time>
      </trkpt>
      <trkpt lat="45.70154" lon="5.89395">
        <ele>293.13763</ele>
        <time>2013-05-30T11:11:40Z</time>
      </trkpt>
      <trkpt lat="45.7015" lon="5.89368">
        <ele>292.98593</ele>
        <time>2013-05-30T11:11:46Z</time>
      </trkpt>
      <trkpt lat="45.70146" lon="5.8934">
        <ele>293.13406</ele>
        <time>2013-05-30T11:11:51Z</time>
      </trkpt>
      <trkpt lat="45.70138" lon="5.89311">
        <ele>291.51437</ele>
        <time>2013-05-30T11:11:54Z</time>
      </trkpt>
      <trkpt lat="45.70135" lon="5.89283">
        <ele>291.04987</ele>
        <time>2013-05-30T11:11:58Z</time>
      </trkpt>
      <trkpt lat="45.70131" lon="5.89251">
        <ele>291.43976</ele>
        <time>2013-05-30T11:12:03Z</time>
      </trkpt>
      <trkpt lat="45.70127" lon="5.8922">
        <ele>291.26355</ele>
        <time>2013-05-30T11:12:08Z</time>
      </trkpt>
      <trkpt lat="45.70122" lon="5.89193">
        <ele>291.571</ele>
        <time>2013-05-30T11:12:14Z</time>
      </trkpt>
      <trkpt lat="45.7014" lon="5.89185">
        <ele>292.93808</ele>
        <time>2013-05-30T11:12:31Z</time>
      </trkpt>
      <trkpt lat="45.70144" lon="5.89157">
        <ele>295.61462</ele>
        <time>2013-05-30T11:12:41Z</time>
      </trkpt>
      <trkpt lat="45.7014" lon="5.89129">
        <ele>294.96088</ele>
        <time>2013-05-30T11:12:45Z</time>
      </trkpt>
      <trkpt lat="45.70138" lon="5.89103">
        <ele>294.31378</ele>
        <time>2013-05-30T11:12:49Z</time>
      </trkpt>
      <trkpt lat="45.70135" lon="5.89076">
        <ele>294.5067</ele>
        <time>2013-05-30T11:12:53Z</time>
      </trkpt>
      <trkpt lat="45.70133" lon="5.89048">
        <ele>294.3365</ele>
        <time>2013-05-30T11:12:57Z</time>
      </trkpt>
      <trkpt lat="45.70132" lon="5.89018">
        <ele>294.37677</ele>
        <time>2013-05-30T11:13:01Z</time>
      </trkpt>
      <trkpt lat="45.70132" lon="5.8899">
        <ele>293.3442</ele>
        <time>2013-05-30T11:13:05Z</time>
      </trkpt>
      <trkpt lat="45.7013" lon="5.88961">
        <ele>291.9757</ele>
        <time>2013-05-30T11:13:09Z</time>
      </trkpt>
      <trkpt lat="45.70132" lon="5.88931">
        <ele>290.697</ele>
        <time>2013-05-30T11:13:13Z</time>
      </trkpt>
      <trkpt lat="45.70133" lon="5.88902">
        <ele>290.42523</ele>
        <time>2013-05-30T11:13:17Z</time>
      </trkpt>
      <trkpt lat="45.70135" lon="5.88874">
        <ele>291.8529</ele>
        <time>2013-05-30T11:13:21Z</time>
      </trkpt>
      <trkpt lat="45.70136" lon="5.88847">
        <ele>292.28003</ele>
        <time>2013-05-30T11:13:25Z</time>
      </trkpt>
      <trkpt lat="45.70137" lon="5.88817">
        <ele>291.7476</ele>
        <time>2013-05-30T11:13:29Z</time>
      </trkpt>
      <trkpt lat="45.70137" lon="5.88788">
        <ele>291.12912</ele>
        <time>2013-05-30T11:13:33Z</time>
      </trkpt>
      <trkpt lat="45.70137" lon="5.88761">
        <ele>290.36508</ele>
        <time>2013-05-30T11:13:37Z</time>
      </trkpt>
      <trkpt lat="45.70138" lon="5.8873">
        <ele>290.47568</ele>
        <time>2013-05-30T11:13:41Z</time>
      </trkpt>
      <trkpt lat="45.70139" lon="5.88698">
        <ele>290.88138</ele>
        <time>2013-05-30T11:13:45Z</time>
      </trkpt>
      <trkpt lat="45.7014" lon="5.88665">
        <ele>290.4109</ele>
        <time>2013-05-30T11:13:49Z</time>
      </trkpt>
      <trkpt lat="45.70141" lon="5.88638">
        <ele>290.5558</ele>
        <time>2013-05-30T11:13:53Z</time>
      </trkpt>
      <trkpt lat="45.70143" lon="5.88608">
        <ele>291.29614</ele>
        <time>2013-05-30T11:13:58Z</time>
      </trkpt>
      <trkpt lat="45.70145" lon="5.88581">
        <ele>288.9608</ele>
        <time>2013-05-30T11:14:04Z</time>
      </trkpt>
      <trkpt lat="45.70163" lon="5.88589">
        <ele>288.84888</ele>
        <time>2013-05-30T11:14:13Z</time>
      </trkpt>
      <trkpt lat="45.70172" lon="5.88615">
        <ele>289.9202</ele>
        <time>2013-05-30T11:14:19Z</time>
      </trkpt>
      <trkpt lat="45.70183" lon="5.88641">
        <ele>290.8498</ele>
        <time>2013-05-30T11:14:25Z</time>
      </trkpt>
      <trkpt lat="45.70194" lon="5.88663">
        <ele>291.6993</ele>
        <time>2013-05-30T11:14:30Z</time>
      </trkpt>
      <trkpt lat="45.70207" lon="5.88687">
        <ele>292.07895</ele>
        <time>2013-05-30T11:14:35Z</time>
      </trkpt>
      <trkpt lat="45.70223" lon="5.88706">
        <ele>289.7984</ele>
        <time>2013-05-30T11:14:40Z</time>
      </trkpt>
      <trkpt lat="45.70236" lon="5.88724">
        <ele>288.34814</ele>
        <time>2013-05-30T11:14:45Z</time>
      </trkpt>
      <trkpt lat="45.7026" lon="5.8873">
        <ele>280.16327</ele>
        <time>2013-05-30T11:14:51Z</time>
      </trkpt>
      <trkpt lat="45.70279" lon="5.88725">
        <ele>279.25476</ele>
        <time>2013-05-30T11:14:56Z</time>
      </trkpt>
      <trkpt lat="45.70297" lon="5.88713">
        <ele>280.08292</ele>
        <time>2013-05-30T11:15:01Z</time>
      </trkpt>
      <trkpt lat="45.70313" lon="5.88697">
        <ele>281.85034</ele>
        <time>2013-05-30T11:15:06Z</time>
      </trkpt>
      <trkpt lat="45.70329" lon="5.88684">
        <ele>283.7852</ele>
        <time>2013-05-30T11:15:11Z</time>
      </trkpt>
      <trkpt lat="45.7035" lon="5.88689">
        <ele>286.57745</ele>
        <time>2013-05-30T11:15:16Z</time>
      </trkpt>
      <trkpt lat="45.70366" lon="5.88706">
        <ele>286.98343</ele>
        <time>2013-05-30T11:15:21Z</time>
      </trkpt>
      <trkpt lat="45.70383" lon="5.88694">
        <ele>287.65244</ele>
        <time>2013-05-30T11:15:27Z</time>
      </trkpt>
      <trkpt lat="45.70389" lon="5.88669">
        <ele>287.25098</ele>
        <time>2013-05-30T11:15:31Z</time>
      </trkpt>
      <trkpt lat="45.70398" lon="5.88646">
        <ele>286.8638</ele>
        <time>2013-05-30T11:15:35Z</time>
      </trkpt>
      <trkpt lat="45.70409" lon="5.8862">
        <ele>287.06552</ele>
        <time>2013-05-30T11:15:40Z</time>
      </trkpt>
      <trkpt lat="45.70424" lon="5.88599">
        <ele>287.11847</ele>
        <time>2013-05-30T11:15:45Z</time>
      </trkpt>
      <trkpt lat="45.70444" lon="5.88601">
        <ele>287.32324</ele>
        <time>2013-05-30T11:15:50Z</time>
      </trkpt>
      <trkpt lat="45.70461" lon="5.88612">
        <ele>287.84457</ele>
        <time>2013-05-30T11:15:55Z</time>
      </trkpt>
      <trkpt lat="45.7048" lon="5.88623">
        <ele>288.03</ele>
        <time>2013-05-30T11:16:00Z</time>
      </trkpt>
      <trkpt lat="45.70497" lon="5.88638">
        <ele>287.98798</ele>
        <time>2013-05-30T11:16:05Z</time>
      </trkpt>
      <trkpt lat="45.70503" lon="5.88664">
        <ele>288.09393</ele>
        <time>2013-05-30T11:16:10Z</time>
      </trkpt>
      <trkpt lat="45.70498" lon="5.88692">
        <ele>287.45026</ele>
        <time>2013-05-30T11:16:17Z</time>
      </trkpt>
      <trkpt lat="45.70496" lon="5.8872">
        <ele>286.1939</ele>
        <time>2013-05-30T11:16:23Z</time>
      </trkpt>
      <trkpt lat="45.70494" lon="5.88746">
        <ele>286.34085</ele>
        <time>2013-05-30T11:16:28Z</time>
      </trkpt>
      <trkpt lat="45.70492" lon="5.88772">
        <ele>288.28607</ele>
        <time>2013-05-30T11:16:34Z</time>
      </trkpt>
      <trkpt lat="45.70489" lon="5.888">
        <ele>287.5439</ele>
        <time>2013-05-30T11:16:54Z</time>
      </trkpt>
      <trkpt lat="45.70489" lon="5.88828">
        <ele>287.91223</ele>
        <time>2013-05-30T11:17:00Z</time>
      </trkpt>
      <trkpt lat="45.70488" lon="5.88855">
        <ele>288.32916</ele>
        <time>2013-05-30T11:17:05Z</time>
      </trkpt>
      <trkpt lat="45.70485" lon="5.88885">
        <ele>288.37543</ele>
        <time>2013-05-30T11:17:11Z</time>
      </trkpt>
      <trkpt lat="45.70482" lon="5.8891">
        <ele>288.64212</ele>
        <time>2013-05-30T11:17:16Z</time>
      </trkpt>
      <trkpt lat="45.7048" lon="5.88936">
        <ele>289.31995</ele>
        <time>2013-05-30T11:17:21Z</time>
      </trkpt>
      <trkpt lat="45.70477" lon="5.88965">
        <ele>287.8818</ele>
        <time>2013-05-30T11:17:27Z</time>
      </trkpt>
      <trkpt lat="45.70475" lon="5.88992">
        <ele>287.80545</ele>
        <time>2013-05-30T11:17:32Z</time>
      </trkpt>
      <trkpt lat="45.70473" lon="5.89018">
        <ele>288.72366</ele>
        <time>2013-05-30T11:17:37Z</time>
      </trkpt>
      <trkpt lat="45.70471" lon="5.89045">
        <ele>288.7522</ele>
        <time>2013-05-30T11:17:42Z</time>
      </trkpt>
      <trkpt lat="45.70467" lon="5.89074">
        <ele>288.92285</ele>
        <time>2013-05-30T11:17:48Z</time>
      </trkpt>
      <trkpt lat="45.70464" lon="5.89102">
        <ele>289.65952</ele>
        <time>2013-05-30T11:17:54Z</time>
      </trkpt>
      <trkpt lat="45.70464" lon="5.89128">
        <ele>290.9439</ele>
        <time>2013-05-30T11:17:59Z</time>
      </trkpt>
      <trkpt lat="45.70462" lon="5.89154">
        <ele>291.9578</ele>
        <time>2013-05-30T11:18:04Z</time>
      </trkpt>
      <trkpt lat="45.70457" lon="5.8918">
        <ele>291.66058</ele>
        <time>2013-05-30T11:18:09Z</time>
      </trkpt>
      <trkpt lat="45.70454" lon="5.89206">
        <ele>290.11154</ele>
        <time>2013-05-30T11:18:14Z</time>
      </trkpt>
      <trkpt lat="45.70452" lon="5.89233">
        <ele>290.33447</ele>
        <time>2013-05-30T11:18:19Z</time>
      </trkpt>
      <trkpt lat="45.7045" lon="5.8926">
        <ele>290.66754</ele>
        <time>2013-05-30T11:18:24Z</time>
      </trkpt>
      <trkpt lat="45.70449" lon="5.89288">
        <ele>290.9541</ele>
        <time>2013-05-30T11:18:29Z</time>
      </trkpt>
      <trkpt lat="45.70444" lon="5.89314">
        <ele>290.10065</ele>
        <time>2013-05-30T11:18:34Z</time>
      </trkpt>
      <trkpt lat="45.70443" lon="5.89341">
        <ele>289.86746</ele>
        <time>2013-05-30T11:18:41Z</time>
      </trkpt>
      <trkpt lat="45.70463" lon="5.89339">
        <ele>291.7755</ele>
        <time>2013-05-30T11:19:01Z</time>
      </trkpt>
      <trkpt lat="45.70485" lon="5.89334">
        <ele>292.2403</ele>
        <time>2013-05-30T11:19:05Z</time>
      </trkpt>
      <trkpt lat="45.70503" lon="5.89328">
        <ele>292.31976</ele>
        <time>2013-05-30T11:19:09Z</time>
      </trkpt>
      <trkpt lat="45.70523" lon="5.89322">
        <ele>291.3924</ele>
        <time>2013-05-30T11:19:14Z</time>
      </trkpt>
      <trkpt lat="45.70543" lon="5.89315">
        <ele>290.70923</ele>
        <time>2013-05-30T11:19:19Z</time>
      </trkpt>
      <trkpt lat="45.70561" lon="5.8931">
        <ele>290.93066</ele>
        <time>2013-05-30T11:19:23Z</time>
      </trkpt>
      <trkpt lat="45.70579" lon="5.89304">
        <ele>291.39563</ele>
        <time>2013-05-30T11:19:27Z</time>
      </trkpt>
      <trkpt lat="45.70597" lon="5.893">
        <ele>291.7252</ele>
        <time>2013-05-30T11:19:31Z</time>
      </trkpt>
      <trkpt lat="45.70618" lon="5.89293">
        <ele>291.5847</ele>
        <time>2013-05-30T11:19:36Z</time>
      </trkpt>
      <trkpt lat="45.70636" lon="5.89288">
        <ele>291.6014</ele>
        <time>2013-05-30T11:19:40Z</time>
      </trkpt>
      <trkpt lat="45.70656" lon="5.89282">
        <ele>291.9571</ele>
        <time>2013-05-30T11:19:44Z</time>
      </trkpt>
      <trkpt lat="45.70675" lon="5.89277">
        <ele>291.01025</ele>
        <time>2013-05-30T11:19:48Z</time>
      </trkpt>
      <trkpt lat="45.70696" lon="5.8927">
        <ele>290.3599</ele>
        <time>2013-05-30T11:19:52Z</time>
      </trkpt>
      <trkpt lat="45.70714" lon="5.89264">
        <ele>289.74872</ele>
        <time>2013-05-30T11:19:55Z</time>
      </trkpt>
      <trkpt lat="45.70737" lon="5.89255">
        <ele>288.50266</ele>
        <time>2013-05-30T11:20:00Z</time>
      </trkpt>
      <trkpt lat="45.70757" lon="5.89249">
        <ele>288.30905</ele>
        <time>2013-05-30T11:20:04Z</time>
      </trkpt>
      <trkpt lat="45.70776" lon="5.89244">
        <ele>288.20834</ele>
        <time>2013-05-30T11:20:08Z</time>
      </trkpt>
      <trkpt lat="45.70795" lon="5.89239">
        <ele>288.78156</ele>
        <time>2013-05-30T11:20:12Z</time>
      </trkpt>
      <trkpt lat="45.70814" lon="5.89233">
        <ele>289.12228</ele>
        <time>2013-05-30T11:20:16Z</time>
      </trkpt>
      <trkpt lat="45.70835" lon="5.89227">
        <ele>289.28284</ele>
        <time>2013-05-30T11:20:20Z</time>
      </trkpt>
      <trkpt lat="45.70854" lon="5.89221">
        <ele>288.9258</ele>
        <time>2013-05-30T11:20:24Z</time>
      </trkpt>
      <trkpt lat="45.70875" lon="5.89214">
        <ele>288.05954</ele>
        <time>2013-05-30T11:20:29Z</time>
      </trkpt>
      <trkpt lat="45.70893" lon="5.89208">
        <ele>287.77408</ele>
        <time>2013-05-30T11:20:34Z</time>
      </trkpt>
      <trkpt lat="45.70911" lon="5.89213">
        <ele>289.2944</ele>
        <time>2013-05-30T11:20:43Z</time>
      </trkpt>
      <trkpt lat="45.70911" lon="5.89241">
        <ele>290.19037</ele>
        <time>2013-05-30T11:20:49Z</time>
      </trkpt>
      <trkpt lat="45.70908" lon="5.89271">
        <ele>290.7455</ele>
        <time>2013-05-30T11:20:55Z</time>
      </trkpt>
      <trkpt lat="45.70903" lon="5.893">
        <ele>291.71378</ele>
        <time>2013-05-30T11:21:01Z</time>
      </trkpt>
      <trkpt lat="45.70897" lon="5.89325">
        <ele>292.11176</ele>
        <time>2013-05-30T11:21:06Z</time>
      </trkpt>
      <trkpt lat="45.70888" lon="5.89352">
        <ele>291.56088</ele>
        <time>2013-05-30T11:21:12Z</time>
      </trkpt>
      <trkpt lat="45.70882" lon="5.89378">
        <ele>289.08438</ele>
        <time>2013-05-30T11:21:19Z</time>
      </trkpt>
      <trkpt lat="45.70902" lon="5.89385">
        <ele>292.86377</ele>
        <time>2013-05-30T11:21:30Z</time>
      </trkpt>
      <trkpt lat="45.70922" lon="5.89377">
        <ele>296.07098</ele>
        <time>2013-05-30T11:21:38Z</time>
      </trkpt>
      <trkpt lat="45.7094" lon="5.8937">
        <ele>298.1832</ele>
        <time>2013-05-30T11:21:46Z</time>
      </trkpt>
      <trkpt lat="45.70959" lon="5.8937">
        <ele>300.22134</ele>
        <time>2013-05-30T11:21:55Z</time>
      </trkpt>
      <trkpt lat="45.70977" lon="5.89367">
        <ele>302.4439</ele>
        <time>2013-05-30T11:22:05Z</time>
      </trkpt>
      <trkpt lat="45.70996" lon="5.89367">
        <ele>304.14648</ele>
        <time>2013-05-30T11:22:15Z</time>
      </trkpt>
      <trkpt lat="45.71015" lon="5.89366">
        <ele>304.99704</ele>
        <time>2013-05-30T11:22:25Z</time>
      </trkpt>
      <trkpt lat="45.71034" lon="5.8936">
        <ele>306.4938</ele>
        <time>2013-05-30T11:22:35Z</time>
      </trkpt>
      <trkpt lat="45.71052" lon="5.89353">
        <ele>308.3625</ele>
        <time>2013-05-30T11:22:44Z</time>
      </trkpt>
      <trkpt lat="45.7107" lon="5.89346">
        <ele>310.7506</ele>
        <time>2013-05-30T11:22:54Z</time>
      </trkpt>
      <trkpt lat="45.71088" lon="5.89337">
        <ele>311.57062</ele>
        <time>2013-05-30T11:23:03Z</time>
      </trkpt>
      <trkpt lat="45.71107" lon="5.89329">
        <ele>311.62018</ele>
        <time>2013-05-30T11:23:14Z</time>
      </trkpt>
      <trkpt lat="45.71126" lon="5.89323">
        <ele>314.1268</ele>
        <time>2013-05-30T11:23:23Z</time>
      </trkpt>
      <trkpt lat="45.71145" lon="5.89319">
        <ele>315.0873</ele>
        <time>2013-05-30T11:23:32Z</time>
      </trkpt>
      <trkpt lat="45.71163" lon="5.89316">
        <ele>316.098</ele>
        <time>2013-05-30T11:23:41Z</time>
      </trkpt>
      <trkpt lat="45.71183" lon="5.89318">
        <ele>316.35672</ele>
        <time>2013-05-30T11:23:49Z</time>
      </trkpt>
      <trkpt lat="45.71202" lon="5.89323">
        <ele>316.5281</ele>
        <time>2013-05-30T11:23:57Z</time>
      </trkpt>
      <trkpt lat="45.71221" lon="5.89326">
        <ele>318.02286</ele>
        <time>2013-05-30T11:24:06Z</time>
      </trkpt>
      <trkpt lat="45.71239" lon="5.8933">
        <ele>320.2922</ele>
        <time>2013-05-30T11:24:14Z</time>
      </trkpt>
      <trkpt lat="45.71259" lon="5.89337">
        <ele>322.53378</ele>
        <time>2013-05-30T11:24:22Z</time>
      </trkpt>
      <trkpt lat="45.71278" lon="5.89343">
        <ele>323.1317</ele>
        <time>2013-05-30T11:24:30Z</time>
      </trkpt>
      <trkpt lat="45.71296" lon="5.89346">
        <ele>322.78146</ele>
        <time>2013-05-30T11:24:38Z</time>
      </trkpt>
      <trkpt lat="45.71315" lon="5.89342">
        <ele>325.12967</ele>
        <time>2013-05-30T11:24:46Z</time>
      </trkpt>
      <trkpt lat="45.71326" lon="5.89318">
        <ele>324.99316</ele>
        <time>2013-05-30T11:24:53Z</time>
      </trkpt>
      <trkpt lat="45.7133" lon="5.89289">
        <ele>323.6726</ele>
        <time>2013-05-30T11:24:58Z</time>
      </trkpt>
      <trkpt lat="45.71332" lon="5.89262">
        <ele>323.15875</ele>
        <time>2013-05-30T11:25:01Z</time>
      </trkpt>
      <trkpt lat="45.71334" lon="5.89237">
        <ele>322.33884</ele>
        <time>2013-05-30T11:25:04Z</time>
      </trkpt>
      <trkpt lat="45.71335" lon="5.89209">
        <ele>321.47733</ele>
        <time>2013-05-30T11:25:07Z</time>
      </trkpt>
      <trkpt lat="45.71339" lon="5.89183">
        <ele>321.29044</ele>
        <time>2013-05-30T11:25:10Z</time>
      </trkpt>
      <trkpt lat="45.71346" lon="5.89156">
        <ele>321.02722</ele>
        <time>2013-05-30T11:25:13Z</time>
      </trkpt>
      <trkpt lat="45.71357" lon="5.89133">
        <ele>320.1146</ele>
        <time>2013-05-30T11:25:16Z</time>
      </trkpt>
      <trkpt lat="45.71369" lon="5.89114">
        <ele>320.00772</ele>
        <time>2013-05-30T11:25:19Z</time>
      </trkpt>
      <trkpt lat="45.71383" lon="5.89097">
        <ele>319.85168</ele>
        <time>2013-05-30T11:25:22Z</time>
      </trkpt>
      <trkpt lat="45.71397" lon="5.8908">
        <ele>318.98898</ele>
        <time>2013-05-30T11:25:25Z</time>
      </trkpt>
      <trkpt lat="45.71414" lon="5.89062">
        <ele>316.73596</ele>
        <time>2013-05-30T11:25:28Z</time>
      </trkpt>
      <trkpt lat="45.71432" lon="5.89044">
        <ele>314.20905</ele>
        <time>2013-05-30T11:25:32Z</time>
      </trkpt>
      <trkpt lat="45.71447" lon="5.89025">
        <ele>313.1241</ele>
        <time>2013-05-30T11:25:35Z</time>
      </trkpt>
      <trkpt lat="45.71465" lon="5.89003">
        <ele>311.9006</ele>
        <time>2013-05-30T11:25:39Z</time>
      </trkpt>
      <trkpt lat="45.71483" lon="5.88983">
        <ele>310.00058</ele>
        <time>2013-05-30T11:25:43Z</time>
      </trkpt>
      <trkpt lat="45.71502" lon="5.88961">
        <ele>309.53024</ele>
        <time>2013-05-30T11:25:47Z</time>
      </trkpt>
      <trkpt lat="45.7152" lon="5.8894">
        <ele>308.13223</ele>
        <time>2013-05-30T11:25:51Z</time>
      </trkpt>
      <trkpt lat="45.71535" lon="5.88917">
        <ele>307.03754</ele>
        <time>2013-05-30T11:25:55Z</time>
      </trkpt>
      <trkpt lat="45.71547" lon="5.88896">
        <ele>306.35333</ele>
        <time>2013-05-30T11:25:58Z</time>
      </trkpt>
      <trkpt lat="45.71563" lon="5.88871">
        <ele>304.88876</ele>
        <time>2013-05-30T11:26:02Z</time>
      </trkpt>
      <trkpt lat="45.71576" lon="5.88852">
        <ele>304.80618</ele>
        <time>2013-05-30T11:26:05Z</time>
      </trkpt>
      <trkpt lat="45.71588" lon="5.88832">
        <ele>305.1104</ele>
        <time>2013-05-30T11:26:08Z</time>
      </trkpt>
      <trkpt lat="45.71604" lon="5.88811">
        <ele>304.83142</ele>
        <time>2013-05-30T11:26:12Z</time>
      </trkpt>
      <trkpt lat="45.71621" lon="5.88793">
        <ele>304.5201</ele>
        <time>2013-05-30T11:26:16Z</time>
      </trkpt>
      <trkpt lat="45.71639" lon="5.88778">
        <ele>304.32147</ele>
        <time>2013-05-30T11:26:21Z</time>
      </trkpt>
      <trkpt lat="45.71658" lon="5.88768">
        <ele>304.82297</ele>
        <time>2013-05-30T11:26:26Z</time>
      </trkpt>
      <trkpt lat="45.71676" lon="5.88757">
        <ele>305.3288</ele>
        <time>2013-05-30T11:26:31Z</time>
      </trkpt>
      <trkpt lat="45.71694" lon="5.8875">
        <ele>305.19818</ele>
        <time>2013-05-30T11:26:35Z</time>
      </trkpt>
      <trkpt lat="45.71711" lon="5.8874">
        <ele>304.9225</ele>
        <time>2013-05-30T11:26:39Z</time>
      </trkpt>
      <trkpt lat="45.71729" lon="5.88729">
        <ele>304.2483</ele>
        <time>2013-05-30T11:26:44Z</time>
      </trkpt>
      <trkpt lat="45.71747" lon="5.88721">
        <ele>304.79407</ele>
        <time>2013-05-30T11:26:49Z</time>
      </trkpt>
      <trkpt lat="45.71767" lon="5.88709">
        <ele>304.89975</ele>
        <time>2013-05-30T11:26:54Z</time>
      </trkpt>
      <trkpt lat="45.71785" lon="5.88697">
        <ele>306.64078</ele>
        <time>2013-05-30T11:26:59Z</time>
      </trkpt>
      <trkpt lat="45.71804" lon="5.88682">
        <ele>308.95328</ele>
        <time>2013-05-30T11:27:05Z</time>
      </trkpt>
      <trkpt lat="45.71823" lon="5.88672">
        <ele>309.31332</ele>
        <time>2013-05-30T11:27:10Z</time>
      </trkpt>
      <trkpt lat="45.71842" lon="5.88661">
        <ele>309.22952</ele>
        <time>2013-05-30T11:27:15Z</time>
      </trkpt>
      <trkpt lat="45.71862" lon="5.88649">
        <ele>309.39813</ele>
        <time>2013-05-30T11:27:20Z</time>
      </trkpt>
      <trkpt lat="45.71882" lon="5.88636">
        <ele>309.3933</ele>
        <time>2013-05-30T11:27:25Z</time>
      </trkpt>
      <trkpt lat="45.719" lon="5.88623">
        <ele>307.58124</ele>
        <time>2013-05-30T11:27:30Z</time>
      </trkpt>
      <trkpt lat="45.71917" lon="5.8861">
        <ele>306.64835</ele>
        <time>2013-05-30T11:27:34Z</time>
      </trkpt>
      <trkpt lat="45.71933" lon="5.88596">
        <ele>306.73834</ele>
        <time>2013-05-30T11:27:38Z</time>
      </trkpt>
      <trkpt lat="45.71948" lon="5.8858">
        <ele>307.71173</ele>
        <time>2013-05-30T11:27:42Z</time>
      </trkpt>
      <trkpt lat="45.71963" lon="5.88563">
        <ele>309.25177</ele>
        <time>2013-05-30T11:27:46Z</time>
      </trkpt>
      <trkpt lat="45.71981" lon="5.88543">
        <ele>310.16257</ele>
        <time>2013-05-30T11:27:51Z</time>
      </trkpt>
      <trkpt lat="45.71996" lon="5.88525">
        <ele>309.91394</ele>
        <time>2013-05-30T11:27:55Z</time>
      </trkpt>
      <trkpt lat="45.7201" lon="5.88507">
        <ele>308.163</ele>
        <time>2013-05-30T11:27:59Z</time>
      </trkpt>
      <trkpt lat="45.72026" lon="5.88486">
        <ele>307.19962</ele>
        <time>2013-05-30T11:28:03Z</time>
      </trkpt>
      <trkpt lat="45.72039" lon="5.88464">
        <ele>307.25922</ele>
        <time>2013-05-30T11:28:06Z</time>
      </trkpt>
      <trkpt lat="45.72055" lon="5.8844">
        <ele>307.72186</ele>
        <time>2013-05-30T11:28:09Z</time>
      </trkpt>
      <trkpt lat="45.72073" lon="5.88415">
        <ele>307.40765</ele>
        <time>2013-05-30T11:28:12Z</time>
      </trkpt>
      <trkpt lat="45.72091" lon="5.88393">
        <ele>306.91415</ele>
        <time>2013-05-30T11:28:15Z</time>
      </trkpt>
      <trkpt lat="45.72094" lon="5.88364">
        <ele>306.32047</ele>
        <time>2013-05-30T11:28:17Z</time>
      </trkpt>
      <trkpt lat="45.72111" lon="5.88336">
        <ele>304.73364</ele>
        <time>2013-05-30T11:28:20Z</time>
      </trkpt>
      <trkpt lat="45.72122" lon="5.88314">
        <ele>304.12518</ele>
        <time>2013-05-30T11:28:22Z</time>
      </trkpt>
      <trkpt lat="45.72137" lon="5.88288">
        <ele>302.5856</ele>
        <time>2013-05-30T11:28:25Z</time>
      </trkpt>
      <trkpt lat="45.7215" lon="5.88259">
        <ele>301.3533</ele>
        <time>2013-05-30T11:28:28Z</time>
      </trkpt>
      <trkpt lat="45.72165" lon="5.88234">
        <ele>299.78967</ele>
        <time>2013-05-30T11:28:31Z</time>
      </trkpt>
      <trkpt lat="45.72178" lon="5.88211">
        <ele>299.28625</ele>
        <time>2013-05-30T11:28:34Z</time>
      </trkpt>
      <trkpt lat="45.72192" lon="5.88188">
        <ele>298.2364</ele>
        <time>2013-05-30T11:28:37Z</time>
      </trkpt>
      <trkpt lat="45.72208" lon="5.88169">
        <ele>296.49432</ele>
        <time>2013-05-30T11:28:41Z</time>
      </trkpt>
      <trkpt lat="45.72229" lon="5.88159">
        <ele>296.2303</ele>
        <time>2013-05-30T11:28:47Z</time>
      </trkpt>
      <trkpt lat="45.72248" lon="5.88169">
        <ele>297.55807</ele>
        <time>2013-05-30T11:28:52Z</time>
      </trkpt>
      <trkpt lat="45.72265" lon="5.88182">
        <ele>299.25305</ele>
        <time>2013-05-30T11:28:58Z</time>
      </trkpt>
      <trkpt lat="45.72279" lon="5.88197">
        <ele>300.68918</ele>
        <time>2013-05-30T11:29:05Z</time>
      </trkpt>
      <trkpt lat="45.72297" lon="5.8821">
        <ele>302.34738</ele>
        <time>2013-05-30T11:29:12Z</time>
      </trkpt>
      <trkpt lat="45.72315" lon="5.88221">
        <ele>303.1192</ele>
        <time>2013-05-30T11:29:19Z</time>
      </trkpt>
      <trkpt lat="45.72333" lon="5.88232">
        <ele>303.0079</ele>
        <time>2013-05-30T11:29:25Z</time>
      </trkpt>
      <trkpt lat="45.72351" lon="5.88242">
        <ele>304.70093</ele>
        <time>2013-05-30T11:29:31Z</time>
      </trkpt>
      <trkpt lat="45.7237" lon="5.88249">
        <ele>306.53293</ele>
        <time>2013-05-30T11:29:37Z</time>
      </trkpt>
      <trkpt lat="45.7239" lon="5.88256">
        <ele>307.44424</ele>
        <time>2013-05-30T11:29:44Z</time>
      </trkpt>
      <trkpt lat="45.7241" lon="5.88259">
        <ele>308.93924</ele>
        <time>2013-05-30T11:29:52Z</time>
      </trkpt>
      <trkpt lat="45.72428" lon="5.8826">
        <ele>311.77203</ele>
        <time>2013-05-30T11:29:59Z</time>
      </trkpt>
      <trkpt lat="45.72448" lon="5.88259">
        <ele>313.74225</ele>
        <time>2013-05-30T11:30:06Z</time>
      </trkpt>
      <trkpt lat="45.72467" lon="5.88257">
        <ele>313.63638</ele>
        <time>2013-05-30T11:30:13Z</time>
      </trkpt>
      <trkpt lat="45.72487" lon="5.88254">
        <ele>314.1429</ele>
        <time>2013-05-30T11:30:20Z</time>
      </trkpt>
      <trkpt lat="45.72506" lon="5.88251">
        <ele>314.93042</ele>
        <time>2013-05-30T11:30:27Z</time>
      </trkpt>
      <trkpt lat="45.72524" lon="5.8825">
        <ele>315.47452</ele>
        <time>2013-05-30T11:30:33Z</time>
      </trkpt>
      <trkpt lat="45.72544" lon="5.88247">
        <ele>316.66763</ele>
        <time>2013-05-30T11:30:41Z</time>
      </trkpt>
      <trkpt lat="45.72564" lon="5.88245">
        <ele>316.86395</ele>
        <time>2013-05-30T11:30:47Z</time>
      </trkpt>
      <trkpt lat="45.72586" lon="5.88243">
        <ele>317.9347</ele>
        <time>2013-05-30T11:30:53Z</time>
      </trkpt>
      <trkpt lat="45.72606" lon="5.88241">
        <ele>318.91064</ele>
        <time>2013-05-30T11:30:59Z</time>
      </trkpt>
      <trkpt lat="45.72624" lon="5.88235">
        <ele>318.62354</ele>
        <time>2013-05-30T11:31:04Z</time>
      </trkpt>
      <trkpt lat="45.72646" lon="5.88229">
        <ele>319.28125</ele>
        <time>2013-05-30T11:31:09Z</time>
      </trkpt>
      <trkpt lat="45.72666" lon="5.8822">
        <ele>319.49896</ele>
        <time>2013-05-30T11:31:14Z</time>
      </trkpt>
      <trkpt lat="45.72686" lon="5.8821">
        <ele>318.5596</ele>
        <time>2013-05-30T11:31:19Z</time>
      </trkpt>
      <trkpt lat="45.72704" lon="5.88201">
        <ele>317.87668</ele>
        <time>2013-05-30T11:31:23Z</time>
      </trkpt>
      <trkpt lat="45.72722" lon="5.8819">
        <ele>317.3934</ele>
        <time>2013-05-30T11:31:27Z</time>
      </trkpt>
      <trkpt lat="45.72742" lon="5.88178">
        <ele>316.44284</ele>
        <time>2013-05-30T11:31:31Z</time>
      </trkpt>
      <trkpt lat="45.72763" lon="5.88165">
        <ele>315.33817</ele>
        <time>2013-05-30T11:31:35Z</time>
      </trkpt>
      <trkpt lat="45.7278" lon="5.88155">
        <ele>314.70984</ele>
        <time>2013-05-30T11:31:38Z</time>
      </trkpt>
      <trkpt lat="45.72799" lon="5.88144">
        <ele>313.45572</ele>
        <time>2013-05-30T11:31:41Z</time>
      </trkpt>
      <trkpt lat="45.72817" lon="5.88135">
        <ele>312.27194</ele>
        <time>2013-05-30T11:31:44Z</time>
      </trkpt>
      <trkpt lat="45.72835" lon="5.88124">
        <ele>310.96786</ele>
        <time>2013-05-30T11:31:47Z</time>
      </trkpt>
      <trkpt lat="45.72855" lon="5.8811">
        <ele>310.50208</ele>
        <time>2013-05-30T11:31:50Z</time>
      </trkpt>
      <trkpt lat="45.72872" lon="5.88099">
        <ele>310.10086</ele>
        <time>2013-05-30T11:31:53Z</time>
      </trkpt>
      <trkpt lat="45.72891" lon="5.88089">
        <ele>308.7066</ele>
        <time>2013-05-30T11:31:56Z</time>
      </trkpt>
      <trkpt lat="45.72911" lon="5.88082">
        <ele>307.62778</ele>
        <time>2013-05-30T11:31:59Z</time>
      </trkpt>
      <trkpt lat="45.72931" lon="5.88072">
        <ele>307.42676</ele>
        <time>2013-05-30T11:32:03Z</time>
      </trkpt>
      <trkpt lat="45.72952" lon="5.88064">
        <ele>307.97565</ele>
        <time>2013-05-30T11:32:07Z</time>
      </trkpt>
      <trkpt lat="45.72971" lon="5.88054">
        <ele>308.80167</ele>
        <time>2013-05-30T11:32:11Z</time>
      </trkpt>
      <trkpt lat="45.72999" lon="5.88048">
        <ele>308.14194</ele>
        <time>2013-05-30T11:32:16Z</time>
      </trkpt>
      <trkpt lat="45.7302" lon="5.88039">
        <ele>307.43045</ele>
        <time>2013-05-30T11:32:20Z</time>
      </trkpt>
      <trkpt lat="45.73041" lon="5.88033">
        <ele>306.10806</ele>
        <time>2013-05-30T11:32:24Z</time>
      </trkpt>
      <trkpt lat="45.73063" lon="5.88026">
        <ele>304.88654</ele>
        <time>2013-05-30T11:32:28Z</time>
      </trkpt>
      <trkpt lat="45.73082" lon="5.88018">
        <ele>303.93713</ele>
        <time>2013-05-30T11:32:32Z</time>
      </trkpt>
      <trkpt lat="45.73104" lon="5.88012">
        <ele>303.0395</ele>
        <time>2013-05-30T11:32:36Z</time>
      </trkpt>
      <trkpt lat="45.73125" lon="5.88007">
        <ele>302.0078</ele>
        <time>2013-05-30T11:32:40Z</time>
      </trkpt>
      <trkpt lat="45.73143" lon="5.88002">
        <ele>301.29425</ele>
        <time>2013-05-30T11:32:44Z</time>
      </trkpt>
      <trkpt lat="45.73162" lon="5.88003">
        <ele>300.7771</ele>
        <time>2013-05-30T11:32:48Z</time>
      </trkpt>
      <trkpt lat="45.73182" lon="5.88007">
        <ele>300.13416</ele>
        <time>2013-05-30T11:32:52Z</time>
      </trkpt>
      <trkpt lat="45.73202" lon="5.88017">
        <ele>300.22098</ele>
        <time>2013-05-30T11:32:56Z</time>
      </trkpt>
      <trkpt lat="45.73219" lon="5.88032">
        <ele>300.26523</ele>
        <time>2013-05-30T11:33:00Z</time>
      </trkpt>
      <trkpt lat="45.73238" lon="5.88048">
        <ele>299.04175</ele>
        <time>2013-05-30T11:33:04Z</time>
      </trkpt>
      <trkpt lat="45.73256" lon="5.88063">
        <ele>297.80344</ele>
        <time>2013-05-30T11:33:08Z</time>
      </trkpt>
      <trkpt lat="45.73274" lon="5.88081">
        <ele>297.10474</ele>
        <time>2013-05-30T11:33:13Z</time>
      </trkpt>
      <trkpt lat="45.73292" lon="5.88094">
        <ele>298.8942</ele>
        <time>2013-05-30T11:33:18Z</time>
      </trkpt>
      <trkpt lat="45.73314" lon="5.88095">
        <ele>299.96542</ele>
        <time>2013-05-30T11:33:23Z</time>
      </trkpt>
      <trkpt lat="45.73332" lon="5.88093">
        <ele>299.98114</ele>
        <time>2013-05-30T11:33:28Z</time>
      </trkpt>
      <trkpt lat="45.73354" lon="5.88087">
        <ele>300.3677</ele>
        <time>2013-05-30T11:33:33Z</time>
      </trkpt>
      <trkpt lat="45.73373" lon="5.88081">
        <ele>299.37997</ele>
        <time>2013-05-30T11:33:39Z</time>
      </trkpt>
      <trkpt lat="45.73391" lon="5.88074">
        <ele>299.4806</ele>
        <time>2013-05-30T11:33:44Z</time>
      </trkpt>
      <trkpt lat="45.73412" lon="5.88074">
        <ele>300.96085</ele>
        <time>2013-05-30T11:33:49Z</time>
      </trkpt>
      <trkpt lat="45.73428" lon="5.8809">
        <ele>300.75262</ele>
        <time>2013-05-30T11:33:54Z</time>
      </trkpt>
      <trkpt lat="45.73434" lon="5.88119">
        <ele>299.59677</ele>
        <time>2013-05-30T11:33:59Z</time>
      </trkpt>
      <trkpt lat="45.73428" lon="5.88146">
        <ele>299.67044</ele>
        <time>2013-05-30T11:34:03Z</time>
      </trkpt>
      <trkpt lat="45.73413" lon="5.8817">
        <ele>299.75296</ele>
        <time>2013-05-30T11:34:08Z</time>
      </trkpt>
      <trkpt lat="45.73398" lon="5.88187">
        <ele>298.89957</ele>
        <time>2013-05-30T11:34:13Z</time>
      </trkpt>
      <trkpt lat="45.73383" lon="5.88204">
        <ele>298.6123</ele>
        <time>2013-05-30T11:34:18Z</time>
      </trkpt>
      <trkpt lat="45.73369" lon="5.88225">
        <ele>299.7903</ele>
        <time>2013-05-30T11:34:23Z</time>
      </trkpt>
      <trkpt lat="45.73358" lon="5.88252">
        <ele>301.0899</ele>
        <time>2013-05-30T11:34:28Z</time>
      </trkpt>
      <trkpt lat="45.73352" lon="5.88281">
        <ele>300.9685</ele>
        <time>2013-05-30T11:34:33Z</time>
      </trkpt>
      <trkpt lat="45.7335" lon="5.88308">
        <ele>297.348</ele>
        <time>2013-05-30T11:34:38Z</time>
      </trkpt>
      <trkpt lat="45.73354" lon="5.88341">
        <ele>297.42184</ele>
        <time>2013-05-30T11:34:42Z</time>
      </trkpt>
      <trkpt lat="45.73359" lon="5.88368">
        <ele>298.6444</ele>
        <time>2013-05-30T11:34:46Z</time>
      </trkpt>
      <trkpt lat="45.73363" lon="5.88394">
        <ele>299.96875</ele>
        <time>2013-05-30T11:34:50Z</time>
      </trkpt>
      <trkpt lat="45.73365" lon="5.88422">
        <ele>300.79947</ele>
        <time>2013-05-30T11:34:54Z</time>
      </trkpt>
      <trkpt lat="45.73363" lon="5.88448">
        <ele>301.9393</ele>
        <time>2013-05-30T11:34:58Z</time>
      </trkpt>
      <trkpt lat="45.73355" lon="5.88475">
        <ele>301.6894</ele>
        <time>2013-05-30T11:35:02Z</time>
      </trkpt>
      <trkpt lat="45.73345" lon="5.88499">
        <ele>300.3181</ele>
        <time>2013-05-30T11:35:06Z</time>
      </trkpt>
      <trkpt lat="45.73334" lon="5.88525">
        <ele>299.5991</ele>
        <time>2013-05-30T11:35:10Z</time>
      </trkpt>
      <trkpt lat="45.73323" lon="5.88552">
        <ele>299.82394</ele>
        <time>2013-05-30T11:35:14Z</time>
      </trkpt>
      <trkpt lat="45.73311" lon="5.88583">
        <ele>299.82553</ele>
        <time>2013-05-30T11:35:18Z</time>
      </trkpt>
      <trkpt lat="45.73299" lon="5.8861">
        <ele>298.8245</ele>
        <time>2013-05-30T11:35:22Z</time>
      </trkpt>
      <trkpt lat="45.73287" lon="5.88637">
        <ele>298.46088</ele>
        <time>2013-05-30T11:35:26Z</time>
      </trkpt>
      <trkpt lat="45.73276" lon="5.88658">
        <ele>298.39755</ele>
        <time>2013-05-30T11:35:29Z</time>
      </trkpt>
      <trkpt lat="45.73263" lon="5.88683">
        <ele>297.95</ele>
        <time>2013-05-30T11:35:33Z</time>
      </trkpt>
      <trkpt lat="45.73253" lon="5.88712">
        <ele>298.292</ele>
        <time>2013-05-30T11:35:37Z</time>
      </trkpt>
      <trkpt lat="45.73249" lon="5.88745">
        <ele>298.62207</ele>
        <time>2013-05-30T11:35:41Z</time>
      </trkpt>
      <trkpt lat="45.73249" lon="5.88776">
        <ele>298.42026</ele>
        <time>2013-05-30T11:35:45Z</time>
      </trkpt>
      <trkpt lat="45.73253" lon="5.88808">
        <ele>298.63962</ele>
        <time>2013-05-30T11:35:49Z</time>
      </trkpt>
      <trkpt lat="45.7326" lon="5.88837">
        <ele>298.30667</ele>
        <time>2013-05-30T11:35:53Z</time>
      </trkpt>
      <trkpt lat="45.73264" lon="5.88866">
        <ele>297.46265</ele>
        <time>2013-05-30T11:35:57Z</time>
      </trkpt>
      <trkpt lat="45.73272" lon="5.88892">
        <ele>297.54208</ele>
        <time>2013-05-30T11:36:01Z</time>
      </trkpt>
      <trkpt lat="45.73274" lon="5.88923">
        <ele>298.28354</ele>
        <time>2013-05-30T11:36:06Z</time>
      </trkpt>
      <trkpt lat="45.73279" lon="5.88949">
        <ele>299.14673</ele>
        <time>2013-05-30T11:36:10Z</time>
      </trkpt>
      <trkpt lat="45.73293" lon="5.88972">
        <ele>298.34995</ele>
        <time>2013-05-30T11:36:14Z</time>
      </trkpt>
      <trkpt lat="45.73309" lon="5.88988">
        <ele>297.0992</ele>
        <time>2013-05-30T11:36:17Z</time>
      </trkpt>
      <trkpt lat="45.73327" lon="5.89007">
        <ele>294.8059</ele>
        <time>2013-05-30T11:36:20Z</time>
      </trkpt>
      <trkpt lat="45.7335" lon="5.89025">
        <ele>291.4697</ele>
        <time>2013-05-30T11:36:23Z</time>
      </trkpt>
      <trkpt lat="45.73365" lon="5.89039">
        <ele>289.85168</ele>
        <time>2013-05-30T11:36:25Z</time>
      </trkpt>
      <trkpt lat="45.73381" lon="5.89055">
        <ele>288.38535</ele>
        <time>2013-05-30T11:36:27Z</time>
      </trkpt>
      <trkpt lat="45.73396" lon="5.89069">
        <ele>287.5855</ele>
        <time>2013-05-30T11:36:29Z</time>
      </trkpt>
      <trkpt lat="45.73412" lon="5.89082">
        <ele>286.75433</ele>
        <time>2013-05-30T11:36:31Z</time>
      </trkpt>
      <trkpt lat="45.73433" lon="5.89103">
        <ele>285.49792</ele>
        <time>2013-05-30T11:36:34Z</time>
      </trkpt>
      <trkpt lat="45.73453" lon="5.89124">
        <ele>284.56787</ele>
        <time>2013-05-30T11:36:37Z</time>
      </trkpt>
      <trkpt lat="45.7347" lon="5.89143">
        <ele>283.86456</ele>
        <time>2013-05-30T11:36:40Z</time>
      </trkpt>
      <trkpt lat="45.73485" lon="5.89163">
        <ele>283.88037</ele>
        <time>2013-05-30T11:36:43Z</time>
      </trkpt>
      <trkpt lat="45.735" lon="5.89186">
        <ele>283.65787</ele>
        <time>2013-05-30T11:36:47Z</time>
      </trkpt>
      <trkpt lat="45.73514" lon="5.89209">
        <ele>283.04565</ele>
        <time>2013-05-30T11:36:51Z</time>
      </trkpt>
      <trkpt lat="45.73531" lon="5.8923">
        <ele>284.0207</ele>
        <time>2013-05-30T11:36:55Z</time>
      </trkpt>
      <trkpt lat="45.73545" lon="5.89249">
        <ele>284.26398</ele>
        <time>2013-05-30T11:36:59Z</time>
      </trkpt>
      <trkpt lat="45.73562" lon="5.89268">
        <ele>284.40787</ele>
        <time>2013-05-30T11:37:04Z</time>
      </trkpt>
      <trkpt lat="45.73579" lon="5.89282">
        <ele>283.67905</ele>
        <time>2013-05-30T11:37:08Z</time>
      </trkpt>
      <trkpt lat="45.73598" lon="5.89294">
        <ele>282.06085</ele>
        <time>2013-05-30T11:37:13Z</time>
      </trkpt>
      <trkpt lat="45.73617" lon="5.89299">
        <ele>282.88916</ele>
        <time>2013-05-30T11:37:17Z</time>
      </trkpt>
      <trkpt lat="45.73637" lon="5.89301">
        <ele>283.52353</ele>
        <time>2013-05-30T11:37:21Z</time>
      </trkpt>
      <trkpt lat="45.7366" lon="5.89301">
        <ele>284.7096</ele>
        <time>2013-05-30T11:37:26Z</time>
      </trkpt>
      <trkpt lat="45.73678" lon="5.89297">
        <ele>285.36435</ele>
        <time>2013-05-30T11:37:30Z</time>
      </trkpt>
      <trkpt lat="45.73699" lon="5.89292">
        <ele>286.6265</ele>
        <time>2013-05-30T11:37:35Z</time>
      </trkpt>
      <trkpt lat="45.73718" lon="5.89284">
        <ele>287.86868</ele>
        <time>2013-05-30T11:37:40Z</time>
      </trkpt>
      <trkpt lat="45.73737" lon="5.89276">
        <ele>289.8655</ele>
        <time>2013-05-30T11:37:45Z</time>
      </trkpt>
      <trkpt lat="45.73755" lon="5.89272">
        <ele>290.79593</ele>
        <time>2013-05-30T11:37:50Z</time>
      </trkpt>
      <trkpt lat="45.73775" lon="5.89267">
        <ele>290.40167</ele>
        <time>2013-05-30T11:37:55Z</time>
      </trkpt>
      <trkpt lat="45.73793" lon="5.8926">
        <ele>290.3171</ele>
        <time>2013-05-30T11:38:00Z</time>
      </trkpt>
      <trkpt lat="45.73811" lon="5.89252">
        <ele>290.37787</ele>
        <time>2013-05-30T11:38:05Z</time>
      </trkpt>
      <trkpt lat="45.73829" lon="5.89243">
        <ele>290.78848</ele>
        <time>2013-05-30T11:38:10Z</time>
      </trkpt>
      <trkpt lat="45.73846" lon="5.89234">
        <ele>291.45685</ele>
        <time>2013-05-30T11:38:15Z</time>
      </trkpt>
      <trkpt lat="45.73866" lon="5.89222">
        <ele>291.47607</ele>
        <time>2013-05-30T11:38:21Z</time>
      </trkpt>
      <trkpt lat="45.73883" lon="5.89213">
        <ele>292.13837</ele>
        <time>2013-05-30T11:38:26Z</time>
      </trkpt>
      <trkpt lat="45.73901" lon="5.89205">
        <ele>293.04816</ele>
        <time>2013-05-30T11:38:31Z</time>
      </trkpt>
      <trkpt lat="45.73919" lon="5.89198">
        <ele>293.79562</ele>
        <time>2013-05-30T11:38:36Z</time>
      </trkpt>
      <trkpt lat="45.73936" lon="5.89186">
        <ele>294.26907</ele>
        <time>2013-05-30T11:38:41Z</time>
      </trkpt>
      <trkpt lat="45.7395" lon="5.89165">
        <ele>293.49237</ele>
        <time>2013-05-30T11:38:46Z</time>
      </trkpt>
      <trkpt lat="45.73964" lon="5.89148">
        <ele>292.63663</ele>
        <time>2013-05-30T11:38:50Z</time>
      </trkpt>
      <trkpt lat="45.73982" lon="5.89135">
        <ele>292.30652</ele>
        <time>2013-05-30T11:38:54Z</time>
      </trkpt>
      <trkpt lat="45.74004" lon="5.89124">
        <ele>291.49167</ele>
        <time>2013-05-30T11:38:59Z</time>
      </trkpt>
      <trkpt lat="45.74021" lon="5.89108">
        <ele>292.08136</ele>
        <time>2013-05-30T11:39:03Z</time>
      </trkpt>
      <trkpt lat="45.74039" lon="5.89089">
        <ele>292.55817</ele>
        <time>2013-05-30T11:39:07Z</time>
      </trkpt>
      <trkpt lat="45.74058" lon="5.89072">
        <ele>291.56177</ele>
        <time>2013-05-30T11:39:11Z</time>
      </trkpt>
      <trkpt lat="45.74076" lon="5.89057">
        <ele>291.20743</ele>
        <time>2013-05-30T11:39:15Z</time>
      </trkpt>
      <trkpt lat="45.74093" lon="5.89044">
        <ele>291.07617</ele>
        <time>2013-05-30T11:39:19Z</time>
      </trkpt>
      <trkpt lat="45.74106" lon="5.89027">
        <ele>290.6866</ele>
        <time>2013-05-30T11:39:21Z</time>
      </trkpt>
      <trkpt lat="45.74125" lon="5.89006">
        <ele>289.34732</ele>
        <time>2013-05-30T11:39:25Z</time>
      </trkpt>
      <trkpt lat="45.74142" lon="5.88986">
        <ele>288.62903</ele>
        <time>2013-05-30T11:39:29Z</time>
      </trkpt>
      <trkpt lat="45.74161" lon="5.88971">
        <ele>288.1549</ele>
        <time>2013-05-30T11:39:33Z</time>
      </trkpt>
      <trkpt lat="45.7418" lon="5.8896">
        <ele>287.12793</ele>
        <time>2013-05-30T11:39:37Z</time>
      </trkpt>
      <trkpt lat="45.74198" lon="5.88943">
        <ele>287.36118</ele>
        <time>2013-05-30T11:39:41Z</time>
      </trkpt>
      <trkpt lat="45.74215" lon="5.88927">
        <ele>287.72757</ele>
        <time>2013-05-30T11:39:45Z</time>
      </trkpt>
      <trkpt lat="45.74231" lon="5.8891">
        <ele>287.0302</ele>
        <time>2013-05-30T11:39:49Z</time>
      </trkpt>
      <trkpt lat="45.7425" lon="5.88897">
        <ele>286.6869</ele>
        <time>2013-05-30T11:39:53Z</time>
      </trkpt>
      <trkpt lat="45.74269" lon="5.88885">
        <ele>286.37515</ele>
        <time>2013-05-30T11:39:57Z</time>
      </trkpt>
      <trkpt lat="45.74288" lon="5.88874">
        <ele>286.073</ele>
        <time>2013-05-30T11:40:01Z</time>
      </trkpt>
      <trkpt lat="45.74307" lon="5.88859">
        <ele>286.14966</ele>
        <time>2013-05-30T11:40:05Z</time>
      </trkpt>
      <trkpt lat="45.74324" lon="5.88844">
        <ele>286.79736</ele>
        <time>2013-05-30T11:40:09Z</time>
      </trkpt>
      <trkpt lat="45.74339" lon="5.88825">
        <ele>287.55698</ele>
        <time>2013-05-30T11:40:13Z</time>
      </trkpt>
      <trkpt lat="45.74351" lon="5.88802">
        <ele>287.65475</ele>
        <time>2013-05-30T11:40:17Z</time>
      </trkpt>
      <trkpt lat="45.74363" lon="5.88778">
        <ele>287.5013</ele>
        <time>2013-05-30T11:40:21Z</time>
      </trkpt>
      <trkpt lat="45.74376" lon="5.88757">
        <ele>287.59848</ele>
        <time>2013-05-30T11:40:25Z</time>
      </trkpt>
      <trkpt lat="45.7439" lon="5.8874">
        <ele>287.805</ele>
        <time>2013-05-30T11:40:29Z</time>
      </trkpt>
      <trkpt lat="45.7441" lon="5.88725">
        <ele>288.44855</ele>
        <time>2013-05-30T11:40:34Z</time>
      </trkpt>
      <trkpt lat="45.74426" lon="5.88711">
        <ele>289.3306</ele>
        <time>2013-05-30T11:40:38Z</time>
      </trkpt>
      <trkpt lat="45.74438" lon="5.88691">
        <ele>289.75342</ele>
        <time>2013-05-30T11:40:42Z</time>
      </trkpt>
      <trkpt lat="45.74455" lon="5.8867">
        <ele>289.43564</ele>
        <time>2013-05-30T11:40:47Z</time>
      </trkpt>
      <trkpt lat="45.7447" lon="5.88655">
        <ele>290.33743</ele>
        <time>2013-05-30T11:40:51Z</time>
      </trkpt>
      <trkpt lat="45.7448" lon="5.88634">
        <ele>291.06186</ele>
        <time>2013-05-30T11:40:55Z</time>
      </trkpt>
      <trkpt lat="45.74497" lon="5.88612">
        <ele>291.06516</ele>
        <time>2013-05-30T11:41:00Z</time>
      </trkpt>
      <trkpt lat="45.74513" lon="5.88592">
        <ele>291.03128</ele>
        <time>2013-05-30T11:41:05Z</time>
      </trkpt>
      <trkpt lat="45.74531" lon="5.88574">
        <ele>291.47186</ele>
        <time>2013-05-30T11:41:10Z</time>
      </trkpt>
      <trkpt lat="45.74545" lon="5.88555">
        <ele>290.95868</ele>
        <time>2013-05-30T11:41:14Z</time>
      </trkpt>
      <trkpt lat="45.74565" lon="5.8854">
        <ele>290.4402</ele>
        <time>2013-05-30T11:41:19Z</time>
      </trkpt>
      <trkpt lat="45.74582" lon="5.8853">
        <ele>289.95764</ele>
        <time>2013-05-30T11:41:23Z</time>
      </trkpt>
      <trkpt lat="45.74599" lon="5.88516">
        <ele>289.82645</ele>
        <time>2013-05-30T11:41:27Z</time>
      </trkpt>
      <trkpt lat="45.74615" lon="5.88505">
        <ele>289.6076</ele>
        <time>2013-05-30T11:41:31Z</time>
      </trkpt>
      <trkpt lat="45.74634" lon="5.88499">
        <ele>289.75668</ele>
        <time>2013-05-30T11:41:35Z</time>
      </trkpt>
      <trkpt lat="45.74652" lon="5.88487">
        <ele>289.91168</ele>
        <time>2013-05-30T11:41:39Z</time>
      </trkpt>
      <trkpt lat="45.74666" lon="5.88467">
        <ele>291.28378</ele>
        <time>2013-05-30T11:41:43Z</time>
      </trkpt>
      <trkpt lat="45.74683" lon="5.88452">
        <ele>291.47925</ele>
        <time>2013-05-30T11:41:47Z</time>
      </trkpt>
      <trkpt lat="45.74697" lon="5.88435">
        <ele>290.58795</ele>
        <time>2013-05-30T11:41:51Z</time>
      </trkpt>
      <trkpt lat="45.74716" lon="5.88422">
        <ele>289.73953</ele>
        <time>2013-05-30T11:41:55Z</time>
      </trkpt>
      <trkpt lat="45.74739" lon="5.88416">
        <ele>288.44513</ele>
        <time>2013-05-30T11:42:00Z</time>
      </trkpt>
      <trkpt lat="45.74756" lon="5.88402">
        <ele>288.44943</ele>
        <time>2013-05-30T11:42:04Z</time>
      </trkpt>
      <trkpt lat="45.74774" lon="5.88389">
        <ele>289.2227</ele>
        <time>2013-05-30T11:42:08Z</time>
      </trkpt>
      <trkpt lat="45.74792" lon="5.88377">
        <ele>289.29156</ele>
        <time>2013-05-30T11:42:12Z</time>
      </trkpt>
      <trkpt lat="45.74809" lon="5.88366">
        <ele>288.7649</ele>
        <time>2013-05-30T11:42:16Z</time>
      </trkpt>
      <trkpt lat="45.74827" lon="5.88351">
        <ele>287.74084</ele>
        <time>2013-05-30T11:42:20Z</time>
      </trkpt>
      <trkpt lat="45.74844" lon="5.88336">
        <ele>287.43597</ele>
        <time>2013-05-30T11:42:24Z</time>
      </trkpt>
      <trkpt lat="45.74862" lon="5.88325">
        <ele>288.061</ele>
        <time>2013-05-30T11:42:28Z</time>
      </trkpt>
      <trkpt lat="45.74873" lon="5.88302">
        <ele>288.87262</ele>
        <time>2013-05-30T11:42:31Z</time>
      </trkpt>
      <trkpt lat="45.74892" lon="5.883">
        <ele>290.10657</ele>
        <time>2013-05-30T11:42:35Z</time>
      </trkpt>
      <trkpt lat="45.74909" lon="5.88288">
        <ele>290.8681</ele>
        <time>2013-05-30T11:42:39Z</time>
      </trkpt>
      <trkpt lat="45.74928" lon="5.88272">
        <ele>290.72397</ele>
        <time>2013-05-30T11:42:44Z</time>
      </trkpt>
      <trkpt lat="45.74944" lon="5.8826">
        <ele>289.75095</ele>
        <time>2013-05-30T11:42:48Z</time>
      </trkpt>
      <trkpt lat="45.7496" lon="5.88244">
        <ele>289.3634</ele>
        <time>2013-05-30T11:42:52Z</time>
      </trkpt>
      <trkpt lat="45.74977" lon="5.88232">
        <ele>288.28802</ele>
        <time>2013-05-30T11:42:56Z</time>
      </trkpt>
      <trkpt lat="45.74993" lon="5.88218">
        <ele>287.23566</ele>
        <time>2013-05-30T11:43:00Z</time>
      </trkpt>
      <trkpt lat="45.75009" lon="5.88204">
        <ele>287.50775</ele>
        <time>2013-05-30T11:43:04Z</time>
      </trkpt>
      <trkpt lat="45.75028" lon="5.88189">
        <ele>287.76355</ele>
        <time>2013-05-30T11:43:09Z</time>
      </trkpt>
      <trkpt lat="45.75048" lon="5.88177">
        <ele>288.34937</ele>
        <time>2013-05-30T11:43:14Z</time>
      </trkpt>
      <trkpt lat="45.75066" lon="5.88165">
        <ele>288.60526</ele>
        <time>2013-05-30T11:43:19Z</time>
      </trkpt>
      <trkpt lat="45.75083" lon="5.88155">
        <ele>287.74542</ele>
        <time>2013-05-30T11:43:23Z</time>
      </trkpt>
      <trkpt lat="45.75101" lon="5.88144">
        <ele>286.73193</ele>
        <time>2013-05-30T11:43:27Z</time>
      </trkpt>
      <trkpt lat="45.75119" lon="5.88134">
        <ele>286.4398</ele>
        <time>2013-05-30T11:43:31Z</time>
      </trkpt>
      <trkpt lat="45.75136" lon="5.88121">
        <ele>286.05438</ele>
        <time>2013-05-30T11:43:35Z</time>
      </trkpt>
      <trkpt lat="45.75154" lon="5.88111">
        <ele>285.72815</ele>
        <time>2013-05-30T11:43:39Z</time>
      </trkpt>
      <trkpt lat="45.75171" lon="5.881">
        <ele>285.81946</ele>
        <time>2013-05-30T11:43:43Z</time>
      </trkpt>
      <trkpt lat="45.75189" lon="5.88091">
        <ele>285.296</ele>
        <time>2013-05-30T11:43:47Z</time>
      </trkpt>
      <trkpt lat="45.75207" lon="5.8808">
        <ele>284.94482</ele>
        <time>2013-05-30T11:43:51Z</time>
      </trkpt>
      <trkpt lat="45.75227" lon="5.88068">
        <ele>283.84933</ele>
        <time>2013-05-30T11:43:55Z</time>
      </trkpt>
      <trkpt lat="45.75245" lon="5.88056">
        <ele>283.83044</ele>
        <time>2013-05-30T11:43:59Z</time>
      </trkpt>
      <trkpt lat="45.75262" lon="5.88045">
        <ele>284.23465</ele>
        <time>2013-05-30T11:44:03Z</time>
      </trkpt>
      <trkpt lat="45.75279" lon="5.88035">
        <ele>284.60403</ele>
        <time>2013-05-30T11:44:08Z</time>
      </trkpt>
      <trkpt lat="45.75292" lon="5.88016">
        <ele>285.69373</ele>
        <time>2013-05-30T11:44:14Z</time>
      </trkpt>
      <trkpt lat="45.75281" lon="5.87994">
        <ele>291.48453</ele>
        <time>2013-05-30T11:44:22Z</time>
      </trkpt>
      <trkpt lat="45.75265" lon="5.87981">
        <ele>276.90854</ele>
        <time>2013-05-30T11:56:49Z</time>
      </trkpt>
      <trkpt lat="45.75263" lon="5.87973">
        <ele>276.6</ele>
        <time>2013-05-30T12:23:32Z</time>
      </trkpt>
      <trkpt lat="45.75278" lon="5.87986">
        <ele>290.754</ele>
        <time>2013-05-30T12:24:53Z</time>
      </trkpt>
      <trkpt lat="45.75288" lon="5.88008">
        <ele>288.28363</ele>
        <time>2013-05-30T12:25:02Z</time>
      </trkpt>
      <trkpt lat="45.75306" lon="5.88018">
        <ele>289.65256</ele>
        <time>2013-05-30T12:25:14Z</time>
      </trkpt>
      <trkpt lat="45.75325" lon="5.88016">
        <ele>290.01627</ele>
        <time>2013-05-30T12:25:21Z</time>
      </trkpt>
      <trkpt lat="45.75345" lon="5.88013">
        <ele>289.7642</ele>
        <time>2013-05-30T12:25:28Z</time>
      </trkpt>
      <trkpt lat="45.75364" lon="5.88006">
        <ele>288.78174</ele>
        <time>2013-05-30T12:25:33Z</time>
      </trkpt>
      <trkpt lat="45.75381" lon="5.87998">
        <ele>288.3728</ele>
        <time>2013-05-30T12:25:38Z</time>
      </trkpt>
      <trkpt lat="45.75402" lon="5.87991">
        <ele>287.54245</ele>
        <time>2013-05-30T12:25:44Z</time>
      </trkpt>
      <trkpt lat="45.75421" lon="5.87983">
        <ele>287.3761</ele>
        <time>2013-05-30T12:25:50Z</time>
      </trkpt>
      <trkpt lat="45.75437" lon="5.87971">
        <ele>289.5163</ele>
        <time>2013-05-30T12:26:57Z</time>
      </trkpt>
      <trkpt lat="45.75455" lon="5.87957">
        <ele>289.36212</ele>
        <time>2013-05-30T12:27:03Z</time>
      </trkpt>
      <trkpt lat="45.75471" lon="5.8794">
        <ele>288.5766</ele>
        <time>2013-05-30T12:27:09Z</time>
      </trkpt>
      <trkpt lat="45.75486" lon="5.8792">
        <ele>287.75668</ele>
        <time>2013-05-30T12:27:15Z</time>
      </trkpt>
      <trkpt lat="45.75501" lon="5.87901">
        <ele>287.00555</ele>
        <time>2013-05-30T12:27:21Z</time>
      </trkpt>
      <trkpt lat="45.75511" lon="5.87879">
        <ele>286.95767</ele>
        <time>2013-05-30T12:27:26Z</time>
      </trkpt>
      <trkpt lat="45.75519" lon="5.87855">
        <ele>286.3543</ele>
        <time>2013-05-30T12:27:31Z</time>
      </trkpt>
      <trkpt lat="45.75525" lon="5.8783">
        <ele>285.53006</ele>
        <time>2013-05-30T12:27:36Z</time>
      </trkpt>
      <trkpt lat="45.7553" lon="5.87802">
        <ele>285.27335</ele>
        <time>2013-05-30T12:27:41Z</time>
      </trkpt>
      <trkpt lat="45.75536" lon="5.87775">
        <ele>285.64212</ele>
        <time>2013-05-30T12:27:46Z</time>
      </trkpt>
      <trkpt lat="45.75543" lon="5.87748">
        <ele>285.1296</ele>
        <time>2013-05-30T12:27:51Z</time>
      </trkpt>
      <trkpt lat="45.75554" lon="5.87723">
        <ele>286.01123</ele>
        <time>2013-05-30T12:27:56Z</time>
      </trkpt>
      <trkpt lat="45.75565" lon="5.87698">
        <ele>286.96896</ele>
        <time>2013-05-30T12:28:01Z</time>
      </trkpt>
      <trkpt lat="45.75576" lon="5.87673">
        <ele>287.86032</ele>
        <time>2013-05-30T12:28:06Z</time>
      </trkpt>
      <trkpt lat="45.75587" lon="5.87649">
        <ele>287.7521</ele>
        <time>2013-05-30T12:28:11Z</time>
      </trkpt>
      <trkpt lat="45.75598" lon="5.87627">
        <ele>287.59937</ele>
        <time>2013-05-30T12:28:16Z</time>
      </trkpt>
      <trkpt lat="45.75609" lon="5.87606">
        <ele>288.38705</ele>
        <time>2013-05-30T12:28:21Z</time>
      </trkpt>
      <trkpt lat="45.75622" lon="5.87584">
        <ele>287.81012</ele>
        <time>2013-05-30T12:28:27Z</time>
      </trkpt>
      <trkpt lat="45.7557" lon="5.87674">
        <ele>288.1826</ele>
        <time>2013-05-30T12:28:59Z</time>
      </trkpt>
      <trkpt lat="45.75585" lon="5.87656">
        <ele>291.41483</ele>
        <time>2013-05-30T12:35:41Z</time>
      </trkpt>
      <trkpt lat="45.75594" lon="5.87634">
        <ele>290.92422</ele>
        <time>2013-05-30T12:35:47Z</time>
      </trkpt>
      <trkpt lat="45.75605" lon="5.87613">
        <ele>290.44302</ele>
        <time>2013-05-30T12:35:53Z</time>
      </trkpt>
      <trkpt lat="45.75619" lon="5.87591">
        <ele>288.7281</ele>
        <time>2013-05-30T12:36:00Z</time>
      </trkpt>
      <trkpt lat="45.75634" lon="5.87572">
        <ele>287.7575</ele>
        <time>2013-05-30T12:36:06Z</time>
      </trkpt>
      <trkpt lat="45.75651" lon="5.87552">
        <ele>287.1819</ele>
        <time>2013-05-30T12:36:12Z</time>
      </trkpt>
      <trkpt lat="45.75666" lon="5.87536">
        <ele>287.07813</ele>
        <time>2013-05-30T12:36:17Z</time>
      </trkpt>
      <trkpt lat="45.75682" lon="5.87518">
        <ele>287.80066</ele>
        <time>2013-05-30T12:36:23Z</time>
      </trkpt>
      <trkpt lat="45.75699" lon="5.875">
        <ele>287.71317</ele>
        <time>2013-05-30T12:36:29Z</time>
      </trkpt>
      <trkpt lat="45.75713" lon="5.87483">
        <ele>287.64493</ele>
        <time>2013-05-30T12:36:34Z</time>
      </trkpt>
      <trkpt lat="45.75726" lon="5.87465">
        <ele>287.48596</ele>
        <time>2013-05-30T12:36:39Z</time>
      </trkpt>
      <trkpt lat="45.75737" lon="5.87443">
        <ele>287.61172</ele>
        <time>2013-05-30T12:36:44Z</time>
      </trkpt>
      <trkpt lat="45.75747" lon="5.8742">
        <ele>287.69583</ele>
        <time>2013-05-30T12:36:49Z</time>
      </trkpt>
      <trkpt lat="45.75758" lon="5.87398">
        <ele>287.83936</ele>
        <time>2013-05-30T12:36:54Z</time>
      </trkpt>
      <trkpt lat="45.75769" lon="5.87372">
        <ele>288.76917</ele>
        <time>2013-05-30T12:37:00Z</time>
      </trkpt>
      <trkpt lat="45.75774" lon="5.87344">
        <ele>290.181</ele>
        <time>2013-05-30T12:37:06Z</time>
      </trkpt>
      <trkpt lat="45.7578" lon="5.87317">
        <ele>291.71396</ele>
        <time>2013-05-30T12:37:12Z</time>
      </trkpt>
      <trkpt lat="45.75785" lon="5.8729">
        <ele>290.58838</ele>
        <time>2013-05-30T12:37:17Z</time>
      </trkpt>
      <trkpt lat="45.7579" lon="5.87261">
        <ele>289.45514</ele>
        <time>2013-05-30T12:37:22Z</time>
      </trkpt>
      <trkpt lat="45.75796" lon="5.87235">
        <ele>288.50195</ele>
        <time>2013-05-30T12:37:27Z</time>
      </trkpt>
      <trkpt lat="45.75802" lon="5.8721">
        <ele>288.08972</ele>
        <time>2013-05-30T12:37:32Z</time>
      </trkpt>
      <trkpt lat="45.75811" lon="5.87187">
        <ele>288.14502</ele>
        <time>2013-05-30T12:37:37Z</time>
      </trkpt>
      <trkpt lat="45.75824" lon="5.87169">
        <ele>288.31177</ele>
        <time>2013-05-30T12:37:42Z</time>
      </trkpt>
      <trkpt lat="45.75842" lon="5.87153">
        <ele>288.04617</ele>
        <time>2013-05-30T12:37:48Z</time>
      </trkpt>
      <trkpt lat="45.7586" lon="5.87139">
        <ele>288.11942</ele>
        <time>2013-05-30T12:37:54Z</time>
      </trkpt>
      <trkpt lat="45.75878" lon="5.87125">
        <ele>288.36884</ele>
        <time>2013-05-30T12:38:00Z</time>
      </trkpt>
      <trkpt lat="45.75895" lon="5.87107">
        <ele>288.5372</ele>
        <time>2013-05-30T12:38:06Z</time>
      </trkpt>
      <trkpt lat="45.75911" lon="5.87088">
        <ele>288.66205</ele>
        <time>2013-05-30T12:38:12Z</time>
      </trkpt>
      <trkpt lat="45.75928" lon="5.87071">
        <ele>289.50436</ele>
        <time>2013-05-30T12:38:18Z</time>
      </trkpt>
      <trkpt lat="45.75947" lon="5.87059">
        <ele>289.9</ele>
        <time>2013-05-30T12:38:24Z</time>
      </trkpt>
      <trkpt lat="45.75964" lon="5.87071">
        <ele>289.0151</ele>
        <time>2013-05-30T12:38:30Z</time>
      </trkpt>
      <trkpt lat="45.75981" lon="5.8708">
        <ele>288.7046</ele>
        <time>2013-05-30T12:38:36Z</time>
      </trkpt>
      <trkpt lat="45.76002" lon="5.87078">
        <ele>288.3426</ele>
        <time>2013-05-30T12:38:42Z</time>
      </trkpt>
      <trkpt lat="45.7602" lon="5.87077">
        <ele>288.51157</ele>
        <time>2013-05-30T12:38:47Z</time>
      </trkpt>
      <trkpt lat="45.76041" lon="5.87076">
        <ele>288.5954</ele>
        <time>2013-05-30T12:38:53Z</time>
      </trkpt>
      <trkpt lat="45.76062" lon="5.87078">
        <ele>288.5697</ele>
        <time>2013-05-30T12:38:59Z</time>
      </trkpt>
      <trkpt lat="45.76083" lon="5.87079">
        <ele>288.7717</ele>
        <time>2013-05-30T12:39:05Z</time>
      </trkpt>
      <trkpt lat="45.76101" lon="5.87076">
        <ele>288.78265</ele>
        <time>2013-05-30T12:39:10Z</time>
      </trkpt>
      <trkpt lat="45.76119" lon="5.87071">
        <ele>288.95847</ele>
        <time>2013-05-30T12:39:15Z</time>
      </trkpt>
      <trkpt lat="45.76141" lon="5.87067">
        <ele>289.8927</ele>
        <time>2013-05-30T12:39:21Z</time>
      </trkpt>
      <trkpt lat="45.76159" lon="5.87064">
        <ele>290.5134</ele>
        <time>2013-05-30T12:39:26Z</time>
      </trkpt>
      <trkpt lat="45.76178" lon="5.8706">
        <ele>291.1057</ele>
        <time>2013-05-30T12:39:31Z</time>
      </trkpt>
      <trkpt lat="45.76197" lon="5.87058">
        <ele>291.1746</ele>
        <time>2013-05-30T12:39:36Z</time>
      </trkpt>
      <trkpt lat="45.76216" lon="5.87055">
        <ele>291.05637</ele>
        <time>2013-05-30T12:39:41Z</time>
      </trkpt>
      <trkpt lat="45.76234" lon="5.87051">
        <ele>290.73828</ele>
        <time>2013-05-30T12:39:46Z</time>
      </trkpt>
      <trkpt lat="45.76253" lon="5.87047">
        <ele>290.50275</ele>
        <time>2013-05-30T12:39:51Z</time>
      </trkpt>
      <trkpt lat="45.76272" lon="5.87044">
        <ele>290.08777</ele>
        <time>2013-05-30T12:39:56Z</time>
      </trkpt>
      <trkpt lat="45.76291" lon="5.87042">
        <ele>289.66574</ele>
        <time>2013-05-30T12:40:01Z</time>
      </trkpt>
      <trkpt lat="45.76312" lon="5.8704">
        <ele>289.2843</ele>
        <time>2013-05-30T12:40:07Z</time>
      </trkpt>
      <trkpt lat="45.76333" lon="5.87037">
        <ele>289.3498</ele>
        <time>2013-05-30T12:40:13Z</time>
      </trkpt>
      <trkpt lat="45.76354" lon="5.87036">
        <ele>289.35544</ele>
        <time>2013-05-30T12:40:19Z</time>
      </trkpt>
      <trkpt lat="45.76373" lon="5.87036">
        <ele>289.12564</ele>
        <time>2013-05-30T12:40:24Z</time>
      </trkpt>
      <trkpt lat="45.76391" lon="5.87036">
        <ele>289.06293</ele>
        <time>2013-05-30T12:40:29Z</time>
      </trkpt>
      <trkpt lat="45.7641" lon="5.87037">
        <ele>289.1425</ele>
        <time>2013-05-30T12:40:34Z</time>
      </trkpt>
      <trkpt lat="45.7643" lon="5.87037">
        <ele>288.87503</ele>
        <time>2013-05-30T12:40:39Z</time>
      </trkpt>
      <trkpt lat="45.76449" lon="5.87038">
        <ele>288.66068</ele>
        <time>2013-05-30T12:40:44Z</time>
      </trkpt>
      <trkpt lat="45.76468" lon="5.87039">
        <ele>288.71225</ele>
        <time>2013-05-30T12:40:49Z</time>
      </trkpt>
      <trkpt lat="45.76488" lon="5.87041">
        <ele>288.83954</ele>
        <time>2013-05-30T12:40:54Z</time>
      </trkpt>
      <trkpt lat="45.76507" lon="5.87042">
        <ele>288.7919</ele>
        <time>2013-05-30T12:40:59Z</time>
      </trkpt>
      <trkpt lat="45.76527" lon="5.87044">
        <ele>288.306</ele>
        <time>2013-05-30T12:41:04Z</time>
      </trkpt>
      <trkpt lat="45.76547" lon="5.87045">
        <ele>288.32895</ele>
        <time>2013-05-30T12:41:09Z</time>
      </trkpt>
      <trkpt lat="45.76566" lon="5.87046">
        <ele>288.41428</ele>
        <time>2013-05-30T12:41:14Z</time>
      </trkpt>
      <trkpt lat="45.76584" lon="5.87047">
        <ele>288.94968</ele>
        <time>2013-05-30T12:41:19Z</time>
      </trkpt>
      <trkpt lat="45.76603" lon="5.87046">
        <ele>289.48386</ele>
        <time>2013-05-30T12:41:24Z</time>
      </trkpt>
      <trkpt lat="45.76622" lon="5.87047">
        <ele>288.07187</ele>
        <time>2013-05-30T12:41:29Z</time>
      </trkpt>
      <trkpt lat="45.7664" lon="5.87046">
        <ele>287.4203</ele>
        <time>2013-05-30T12:41:34Z</time>
      </trkpt>
      <trkpt lat="45.76659" lon="5.87043">
        <ele>287.61917</ele>
        <time>2013-05-30T12:41:39Z</time>
      </trkpt>
      <trkpt lat="45.76678" lon="5.8704">
        <ele>288.20776</ele>
        <time>2013-05-30T12:41:44Z</time>
      </trkpt>
      <trkpt lat="45.76698" lon="5.87037">
        <ele>288.62598</ele>
        <time>2013-05-30T12:41:49Z</time>
      </trkpt>
      <trkpt lat="45.76717" lon="5.87031">
        <ele>289.6595</ele>
        <time>2013-05-30T12:41:54Z</time>
      </trkpt>
      <trkpt lat="45.76738" lon="5.87026">
        <ele>290.26294</ele>
        <time>2013-05-30T12:41:59Z</time>
      </trkpt>
      <trkpt lat="45.76757" lon="5.8702">
        <ele>290.24295</ele>
        <time>2013-05-30T12:42:04Z</time>
      </trkpt>
      <trkpt lat="45.76777" lon="5.87013">
        <ele>289.5695</ele>
        <time>2013-05-30T12:42:09Z</time>
      </trkpt>
      <trkpt lat="45.76796" lon="5.87006">
        <ele>288.1947</ele>
        <time>2013-05-30T12:42:14Z</time>
      </trkpt>
      <trkpt lat="45.76815" lon="5.86998">
        <ele>288.11584</ele>
        <time>2013-05-30T12:42:19Z</time>
      </trkpt>
      <trkpt lat="45.76834" lon="5.8699">
        <ele>288.12875</ele>
        <time>2013-05-30T12:42:24Z</time>
      </trkpt>
      <trkpt lat="45.76851" lon="5.86982">
        <ele>288.41785</ele>
        <time>2013-05-30T12:42:29Z</time>
      </trkpt>
      <trkpt lat="45.76869" lon="5.86974">
        <ele>288.82855</ele>
        <time>2013-05-30T12:42:34Z</time>
      </trkpt>
      <trkpt lat="45.76888" lon="5.86966">
        <ele>289.05893</ele>
        <time>2013-05-30T12:42:39Z</time>
      </trkpt>
      <trkpt lat="45.76908" lon="5.86957">
        <ele>288.96466</ele>
        <time>2013-05-30T12:42:44Z</time>
      </trkpt>
      <trkpt lat="45.76927" lon="5.86947">
        <ele>289.2587</ele>
        <time>2013-05-30T12:42:49Z</time>
      </trkpt>
      <trkpt lat="45.76945" lon="5.86938">
        <ele>289.2154</ele>
        <time>2013-05-30T12:42:54Z</time>
      </trkpt>
      <trkpt lat="45.76963" lon="5.8693">
        <ele>289.01556</ele>
        <time>2013-05-30T12:42:59Z</time>
      </trkpt>
      <trkpt lat="45.76981" lon="5.86921">
        <ele>288.9984</ele>
        <time>2013-05-30T12:43:04Z</time>
      </trkpt>
      <trkpt lat="45.77" lon="5.8691">
        <ele>290.4469</ele>
        <time>2013-05-30T12:43:09Z</time>
      </trkpt>
      <trkpt lat="45.77018" lon="5.86899">
        <ele>291.52197</ele>
        <time>2013-05-30T12:43:14Z</time>
      </trkpt>
      <trkpt lat="45.77032" lon="5.86874">
        <ele>295.28195</ele>
        <time>2013-05-30T12:43:18Z</time>
      </trkpt>
      <trkpt lat="45.7705" lon="5.86868">
        <ele>300.07706</ele>
        <time>2013-05-30T12:43:23Z</time>
      </trkpt>
      <trkpt lat="45.77068" lon="5.86858">
        <ele>300.41858</ele>
        <time>2013-05-30T12:43:28Z</time>
      </trkpt>
      <trkpt lat="45.77086" lon="5.8685">
        <ele>298.56848</ele>
        <time>2013-05-30T12:43:33Z</time>
      </trkpt>
      <trkpt lat="45.77105" lon="5.86842">
        <ele>295.25854</ele>
        <time>2013-05-30T12:43:38Z</time>
      </trkpt>
      <trkpt lat="45.77125" lon="5.86832">
        <ele>293.2144</ele>
        <time>2013-05-30T12:43:43Z</time>
      </trkpt>
      <trkpt lat="45.77144" lon="5.86822">
        <ele>292.3738</ele>
        <time>2013-05-30T12:43:48Z</time>
      </trkpt>
      <trkpt lat="45.77164" lon="5.86813">
        <ele>291.46606</ele>
        <time>2013-05-30T12:43:53Z</time>
      </trkpt>
      <trkpt lat="45.77183" lon="5.86804">
        <ele>290.98453</ele>
        <time>2013-05-30T12:43:58Z</time>
      </trkpt>
      <trkpt lat="45.77202" lon="5.86796">
        <ele>290.69427</ele>
        <time>2013-05-30T12:44:03Z</time>
      </trkpt>
      <trkpt lat="45.7722" lon="5.86789">
        <ele>290.04935</ele>
        <time>2013-05-30T12:44:08Z</time>
      </trkpt>
      <trkpt lat="45.77238" lon="5.86783">
        <ele>289.43652</ele>
        <time>2013-05-30T12:44:13Z</time>
      </trkpt>
      <trkpt lat="45.77256" lon="5.86777">
        <ele>288.72467</ele>
        <time>2013-05-30T12:44:18Z</time>
      </trkpt>
      <trkpt lat="45.77274" lon="5.8677">
        <ele>288.7081</ele>
        <time>2013-05-30T12:44:23Z</time>
      </trkpt>
      <trkpt lat="45.77291" lon="5.86763">
        <ele>289.32858</ele>
        <time>2013-05-30T12:44:28Z</time>
      </trkpt>
      <trkpt lat="45.7731" lon="5.86755">
        <ele>289.70004</ele>
        <time>2013-05-30T12:44:33Z</time>
      </trkpt>
      <trkpt lat="45.77329" lon="5.8675">
        <ele>289.09317</ele>
        <time>2013-05-30T12:44:38Z</time>
      </trkpt>
      <trkpt lat="45.77349" lon="5.86745">
        <ele>288.46576</ele>
        <time>2013-05-30T12:44:43Z</time>
      </trkpt>
      <trkpt lat="45.77369" lon="5.86739">
        <ele>287.66913</ele>
        <time>2013-05-30T12:44:48Z</time>
      </trkpt>
      <trkpt lat="45.77388" lon="5.86728">
        <ele>287.32294</ele>
        <time>2013-05-30T12:44:53Z</time>
      </trkpt>
      <trkpt lat="45.77405" lon="5.86714">
        <ele>287.78415</ele>
        <time>2013-05-30T12:44:58Z</time>
      </trkpt>
      <trkpt lat="45.77423" lon="5.86701">
        <ele>289.08463</ele>
        <time>2013-05-30T12:45:03Z</time>
      </trkpt>
      <trkpt lat="45.7744" lon="5.86688">
        <ele>290.0144</ele>
        <time>2013-05-30T12:45:08Z</time>
      </trkpt>
      <trkpt lat="45.77458" lon="5.86676">
        <ele>290.44785</ele>
        <time>2013-05-30T12:45:13Z</time>
      </trkpt>
      <trkpt lat="45.77478" lon="5.86663">
        <ele>291.2668</ele>
        <time>2013-05-30T12:45:18Z</time>
      </trkpt>
      <trkpt lat="45.77498" lon="5.86652">
        <ele>291.11908</ele>
        <time>2013-05-30T12:45:23Z</time>
      </trkpt>
      <trkpt lat="45.77519" lon="5.86641">
        <ele>291.15433</ele>
        <time>2013-05-30T12:45:28Z</time>
      </trkpt>
      <trkpt lat="45.77539" lon="5.86631">
        <ele>290.24042</ele>
        <time>2013-05-30T12:45:33Z</time>
      </trkpt>
      <trkpt lat="45.7756" lon="5.8662">
        <ele>289.0255</ele>
        <time>2013-05-30T12:45:38Z</time>
      </trkpt>
      <trkpt lat="45.77578" lon="5.86611">
        <ele>288.14072</ele>
        <time>2013-05-30T12:45:43Z</time>
      </trkpt>
      <trkpt lat="45.77596" lon="5.86603">
        <ele>287.49268</ele>
        <time>2013-05-30T12:45:48Z</time>
      </trkpt>
      <trkpt lat="45.77615" lon="5.86594">
        <ele>286.6213</ele>
        <time>2013-05-30T12:45:53Z</time>
      </trkpt>
      <trkpt lat="45.77635" lon="5.86584">
        <ele>286.01462</ele>
        <time>2013-05-30T12:45:58Z</time>
      </trkpt>
      <trkpt lat="45.77654" lon="5.86574">
        <ele>285.88745</ele>
        <time>2013-05-30T12:46:03Z</time>
      </trkpt>
      <trkpt lat="45.77672" lon="5.86564">
        <ele>285.6552</ele>
        <time>2013-05-30T12:46:08Z</time>
      </trkpt>
      <trkpt lat="45.77691" lon="5.86555">
        <ele>285.39386</ele>
        <time>2013-05-30T12:46:13Z</time>
      </trkpt>
      <trkpt lat="45.7771" lon="5.86544">
        <ele>285.15607</ele>
        <time>2013-05-30T12:46:18Z</time>
      </trkpt>
      <trkpt lat="45.77729" lon="5.86535">
        <ele>285.71173</ele>
        <time>2013-05-30T12:46:23Z</time>
      </trkpt>
      <trkpt lat="45.77747" lon="5.86525">
        <ele>286.06754</ele>
        <time>2013-05-30T12:46:28Z</time>
      </trkpt>
      <trkpt lat="45.77765" lon="5.86517">
        <ele>285.85138</ele>
        <time>2013-05-30T12:46:33Z</time>
      </trkpt>
      <trkpt lat="45.77785" lon="5.86508">
        <ele>285.75644</ele>
        <time>2013-05-30T12:46:38Z</time>
      </trkpt>
      <trkpt lat="45.77804" lon="5.86501">
        <ele>285.16055</ele>
        <time>2013-05-30T12:46:43Z</time>
      </trkpt>
      <trkpt lat="45.77823" lon="5.86495">
        <ele>285.1799</ele>
        <time>2013-05-30T12:46:48Z</time>
      </trkpt>
      <trkpt lat="45.7784" lon="5.86489">
        <ele>284.93195</ele>
        <time>2013-05-30T12:46:53Z</time>
      </trkpt>
      <trkpt lat="45.77861" lon="5.86482">
        <ele>284.70508</ele>
        <time>2013-05-30T12:46:59Z</time>
      </trkpt>
      <trkpt lat="45.77881" lon="5.86472">
        <ele>288.30536</ele>
        <time>2013-05-30T12:47:05Z</time>
      </trkpt>
      <trkpt lat="45.77899" lon="5.86468">
        <ele>289.30264</ele>
        <time>2013-05-30T12:47:10Z</time>
      </trkpt>
      <trkpt lat="45.77917" lon="5.86485">
        <ele>289.21295</ele>
        <time>2013-05-30T12:47:17Z</time>
      </trkpt>
      <trkpt lat="45.77935" lon="5.86492">
        <ele>288.97467</ele>
        <time>2013-05-30T12:47:22Z</time>
      </trkpt>
      <trkpt lat="45.77955" lon="5.86486">
        <ele>289.92163</ele>
        <time>2013-05-30T12:47:27Z</time>
      </trkpt>
      <trkpt lat="45.77975" lon="5.86477">
        <ele>290.78473</ele>
        <time>2013-05-30T12:47:32Z</time>
      </trkpt>
      <trkpt lat="45.77993" lon="5.86471">
        <ele>290.0623</ele>
        <time>2013-05-30T12:47:37Z</time>
      </trkpt>
      <trkpt lat="45.78013" lon="5.86473">
        <ele>289.55872</ele>
        <time>2013-05-30T12:47:42Z</time>
      </trkpt>
      <trkpt lat="45.78032" lon="5.86466">
        <ele>288.70447</ele>
        <time>2013-05-30T12:47:47Z</time>
      </trkpt>
      <trkpt lat="45.78052" lon="5.86462">
        <ele>288.3236</ele>
        <time>2013-05-30T12:47:52Z</time>
      </trkpt>
      <trkpt lat="45.78072" lon="5.86457">
        <ele>287.5359</ele>
        <time>2013-05-30T12:47:57Z</time>
      </trkpt>
      <trkpt lat="45.7809" lon="5.8645">
        <ele>287.7212</ele>
        <time>2013-05-30T12:48:02Z</time>
      </trkpt>
      <trkpt lat="45.78107" lon="5.86436">
        <ele>289.1236</ele>
        <time>2013-05-30T12:48:07Z</time>
      </trkpt>
      <trkpt lat="45.78125" lon="5.86422">
        <ele>290.4412</ele>
        <time>2013-05-30T12:48:13Z</time>
      </trkpt>
      <trkpt lat="45.78143" lon="5.8641">
        <ele>292.23746</ele>
        <time>2013-05-30T12:48:19Z</time>
      </trkpt>
      <trkpt lat="45.7816" lon="5.864">
        <ele>293.73306</ele>
        <time>2013-05-30T12:48:25Z</time>
      </trkpt>
      <trkpt lat="45.78178" lon="5.86392">
        <ele>294.3834</ele>
        <time>2013-05-30T12:48:31Z</time>
      </trkpt>
      <trkpt lat="45.78196" lon="5.86385">
        <ele>293.36163</ele>
        <time>2013-05-30T12:48:37Z</time>
      </trkpt>
      <trkpt lat="45.78215" lon="5.8638">
        <ele>291.70248</ele>
        <time>2013-05-30T12:48:43Z</time>
      </trkpt>
      <trkpt lat="45.78235" lon="5.86375">
        <ele>289.88443</ele>
        <time>2013-05-30T12:48:49Z</time>
      </trkpt>
      <trkpt lat="45.78254" lon="5.86369">
        <ele>289.70963</ele>
        <time>2013-05-30T12:48:55Z</time>
      </trkpt>
      <trkpt lat="45.78272" lon="5.86365">
        <ele>290.2674</ele>
        <time>2013-05-30T12:49:01Z</time>
      </trkpt>
      <trkpt lat="45.78291" lon="5.86363">
        <ele>289.24106</ele>
        <time>2013-05-30T12:49:07Z</time>
      </trkpt>
      <trkpt lat="45.78312" lon="5.86356">
        <ele>290.32504</ele>
        <time>2013-05-30T12:49:13Z</time>
      </trkpt>
      <trkpt lat="45.7833" lon="5.86348">
        <ele>291.7503</ele>
        <time>2013-05-30T12:49:19Z</time>
      </trkpt>
      <trkpt lat="45.78348" lon="5.86332">
        <ele>293.62186</ele>
        <time>2013-05-30T12:49:25Z</time>
      </trkpt>
      <trkpt lat="45.78367" lon="5.86316">
        <ele>293.95496</ele>
        <time>2013-05-30T12:49:31Z</time>
      </trkpt>
      <trkpt lat="45.78384" lon="5.863">
        <ele>294.89</ele>
        <time>2013-05-30T12:49:37Z</time>
      </trkpt>
      <trkpt lat="45.78401" lon="5.86283">
        <ele>298.23944</ele>
        <time>2013-05-30T12:49:44Z</time>
      </trkpt>
      <trkpt lat="45.78417" lon="5.86265">
        <ele>302.8141</ele>
        <time>2013-05-30T12:49:51Z</time>
      </trkpt>
      <trkpt lat="45.78434" lon="5.86252">
        <ele>303.69357</ele>
        <time>2013-05-30T12:49:58Z</time>
      </trkpt>
      <trkpt lat="45.78451" lon="5.86241">
        <ele>306.11478</ele>
        <time>2013-05-30T12:50:05Z</time>
      </trkpt>
      <trkpt lat="45.78468" lon="5.8623">
        <ele>307.75952</ele>
        <time>2013-05-30T12:50:12Z</time>
      </trkpt>
      <trkpt lat="45.78487" lon="5.86223">
        <ele>305.65518</ele>
        <time>2013-05-30T12:50:20Z</time>
      </trkpt>
      <trkpt lat="45.78506" lon="5.86216">
        <ele>304.07843</ele>
        <time>2013-05-30T12:50:28Z</time>
      </trkpt>
      <trkpt lat="45.78523" lon="5.86206">
        <ele>303.77866</ele>
        <time>2013-05-30T12:50:35Z</time>
      </trkpt>
      <trkpt lat="45.78541" lon="5.86195">
        <ele>306.5707</ele>
        <time>2013-05-30T12:50:43Z</time>
      </trkpt>
      <trkpt lat="45.78559" lon="5.86182">
        <ele>308.886</ele>
        <time>2013-05-30T12:50:51Z</time>
      </trkpt>
      <trkpt lat="45.78576" lon="5.86173">
        <ele>311.67935</ele>
        <time>2013-05-30T12:50:58Z</time>
      </trkpt>
      <trkpt lat="45.78591" lon="5.86157">
        <ele>312.05606</ele>
        <time>2013-05-30T12:51:04Z</time>
      </trkpt>
      <trkpt lat="45.78609" lon="5.86147">
        <ele>312.6698</ele>
        <time>2013-05-30T12:51:11Z</time>
      </trkpt>
      <trkpt lat="45.78627" lon="5.86138">
        <ele>310.2342</ele>
        <time>2013-05-30T12:51:19Z</time>
      </trkpt>
      <trkpt lat="45.78646" lon="5.8613">
        <ele>309.77066</ele>
        <time>2013-05-30T12:51:27Z</time>
      </trkpt>
      <trkpt lat="45.78664" lon="5.86119">
        <ele>310.30185</ele>
        <time>2013-05-30T12:51:35Z</time>
      </trkpt>
      <trkpt lat="45.78682" lon="5.86113">
        <ele>310.70343</ele>
        <time>2013-05-30T12:51:43Z</time>
      </trkpt>
      <trkpt lat="45.78701" lon="5.86109">
        <ele>313.2944</ele>
        <time>2013-05-30T12:51:51Z</time>
      </trkpt>
      <trkpt lat="45.78721" lon="5.86104">
        <ele>315.11432</ele>
        <time>2013-05-30T12:52:00Z</time>
      </trkpt>
      <trkpt lat="45.7874" lon="5.86101">
        <ele>316.74658</ele>
        <time>2013-05-30T12:52:08Z</time>
      </trkpt>
      <trkpt lat="45.7876" lon="5.86094">
        <ele>322.07425</ele>
        <time>2013-05-30T12:52:17Z</time>
      </trkpt>
      <trkpt lat="45.78778" lon="5.86093">
        <ele>324.11877</ele>
        <time>2013-05-30T12:52:24Z</time>
      </trkpt>
      <trkpt lat="45.78796" lon="5.86089">
        <ele>323.47867</ele>
        <time>2013-05-30T12:52:31Z</time>
      </trkpt>
      <trkpt lat="45.78816" lon="5.86086">
        <ele>323.22</ele>
        <time>2013-05-30T12:52:38Z</time>
      </trkpt>
      <trkpt lat="45.78835" lon="5.86081">
        <ele>323.02182</ele>
        <time>2013-05-30T12:52:45Z</time>
      </trkpt>
      <trkpt lat="45.78854" lon="5.86082">
        <ele>322.0852</ele>
        <time>2013-05-30T12:52:52Z</time>
      </trkpt>
      <trkpt lat="45.78874" lon="5.8608">
        <ele>322.46527</ele>
        <time>2013-05-30T12:52:59Z</time>
      </trkpt>
      <trkpt lat="45.78893" lon="5.86077">
        <ele>323.64444</ele>
        <time>2013-05-30T12:53:06Z</time>
      </trkpt>
      <trkpt lat="45.78913" lon="5.86076">
        <ele>324.86975</ele>
        <time>2013-05-30T12:53:13Z</time>
      </trkpt>
      <trkpt lat="45.78931" lon="5.86072">
        <ele>325.6317</ele>
        <time>2013-05-30T12:53:20Z</time>
      </trkpt>
      <trkpt lat="45.78951" lon="5.8607">
        <ele>327.56616</ele>
        <time>2013-05-30T12:53:28Z</time>
      </trkpt>
      <trkpt lat="45.78969" lon="5.86066">
        <ele>328.82693</ele>
        <time>2013-05-30T12:53:35Z</time>
      </trkpt>
      <trkpt lat="45.78989" lon="5.86064">
        <ele>329.80542</ele>
        <time>2013-05-30T12:53:43Z</time>
      </trkpt>
      <trkpt lat="45.79007" lon="5.86061">
        <ele>331.94107</ele>
        <time>2013-05-30T12:53:50Z</time>
      </trkpt>
      <trkpt lat="45.79027" lon="5.86058">
        <ele>333.64017</ele>
        <time>2013-05-30T12:53:57Z</time>
      </trkpt>
      <trkpt lat="45.79047" lon="5.86054">
        <ele>333.94028</ele>
        <time>2013-05-30T12:54:04Z</time>
      </trkpt>
      <trkpt lat="45.79065" lon="5.86051">
        <ele>332.49747</ele>
        <time>2013-05-30T12:54:10Z</time>
      </trkpt>
      <trkpt lat="45.79083" lon="5.86051">
        <ele>330.6552</ele>
        <time>2013-05-30T12:54:16Z</time>
      </trkpt>
      <trkpt lat="45.79103" lon="5.86048">
        <ele>329.83118</ele>
        <time>2013-05-30T12:54:23Z</time>
      </trkpt>
      <trkpt lat="45.79123" lon="5.86047">
        <ele>330.1778</ele>
        <time>2013-05-30T12:54:30Z</time>
      </trkpt>
      <trkpt lat="45.79144" lon="5.86041">
        <ele>331.91986</ele>
        <time>2013-05-30T12:54:37Z</time>
      </trkpt>
      <trkpt lat="45.79162" lon="5.86035">
        <ele>333.13455</ele>
        <time>2013-05-30T12:54:43Z</time>
      </trkpt>
      <trkpt lat="45.7918" lon="5.86033">
        <ele>334.8217</ele>
        <time>2013-05-30T12:54:49Z</time>
      </trkpt>
      <trkpt lat="45.792" lon="5.86028">
        <ele>335.9032</ele>
        <time>2013-05-30T12:54:56Z</time>
      </trkpt>
      <trkpt lat="45.79219" lon="5.86027">
        <ele>337.5965</ele>
        <time>2013-05-30T12:55:03Z</time>
      </trkpt>
      <trkpt lat="45.79239" lon="5.86025">
        <ele>338.65936</ele>
        <time>2013-05-30T12:55:11Z</time>
      </trkpt>
      <trkpt lat="45.79259" lon="5.86022">
        <ele>339.5886</ele>
        <time>2013-05-30T12:55:19Z</time>
      </trkpt>
      <trkpt lat="45.79277" lon="5.86018">
        <ele>341.3772</ele>
        <time>2013-05-30T12:55:27Z</time>
      </trkpt>
      <trkpt lat="45.79297" lon="5.86015">
        <ele>337.81308</ele>
        <time>2013-05-30T12:55:35Z</time>
      </trkpt>
      <trkpt lat="45.79317" lon="5.86014">
        <ele>338.1569</ele>
        <time>2013-05-30T12:55:42Z</time>
      </trkpt>
      <trkpt lat="45.79336" lon="5.8601">
        <ele>338.47717</ele>
        <time>2013-05-30T12:55:49Z</time>
      </trkpt>
      <trkpt lat="45.79355" lon="5.86007">
        <ele>338.77332</ele>
        <time>2013-05-30T12:55:56Z</time>
      </trkpt>
      <trkpt lat="45.79374" lon="5.86003">
        <ele>339.72836</ele>
        <time>2013-05-30T12:56:03Z</time>
      </trkpt>
      <trkpt lat="45.79394" lon="5.86002">
        <ele>338.34064</ele>
        <time>2013-05-30T12:56:10Z</time>
      </trkpt>
      <trkpt lat="45.79413" lon="5.85999">
        <ele>339.20654</ele>
        <time>2013-05-30T12:56:16Z</time>
      </trkpt>
      <trkpt lat="45.79431" lon="5.85997">
        <ele>339.8035</ele>
        <time>2013-05-30T12:56:22Z</time>
      </trkpt>
      <trkpt lat="45.7945" lon="5.85993">
        <ele>340.42172</ele>
        <time>2013-05-30T12:56:28Z</time>
      </trkpt>
      <trkpt lat="45.79469" lon="5.8599">
        <ele>339.82523</ele>
        <time>2013-05-30T12:56:34Z</time>
      </trkpt>
      <trkpt lat="45.79488" lon="5.85989">
        <ele>338.41824</ele>
        <time>2013-05-30T12:56:40Z</time>
      </trkpt>
      <trkpt lat="45.79509" lon="5.85986">
        <ele>337.56168</ele>
        <time>2013-05-30T12:56:46Z</time>
      </trkpt>
      <trkpt lat="45.79527" lon="5.8598">
        <ele>336.81277</ele>
        <time>2013-05-30T12:56:51Z</time>
      </trkpt>
      <trkpt lat="45.79548" lon="5.85973">
        <ele>336.58945</ele>
        <time>2013-05-30T12:56:57Z</time>
      </trkpt>
      <trkpt lat="45.79567" lon="5.85967">
        <ele>335.24945</ele>
        <time>2013-05-30T12:57:02Z</time>
      </trkpt>
      <trkpt lat="45.79585" lon="5.85963">
        <ele>334.4758</ele>
        <time>2013-05-30T12:57:06Z</time>
      </trkpt>
      <trkpt lat="45.79602" lon="5.85955">
        <ele>334.43353</ele>
        <time>2013-05-30T12:57:09Z</time>
      </trkpt>
      <trkpt lat="45.79625" lon="5.85949">
        <ele>333.7821</ele>
        <time>2013-05-30T12:57:13Z</time>
      </trkpt>
      <trkpt lat="45.79649" lon="5.85943">
        <ele>332.417</ele>
        <time>2013-05-30T12:57:17Z</time>
      </trkpt>
      <trkpt lat="45.79668" lon="5.85938">
        <ele>330.90405</ele>
        <time>2013-05-30T12:57:20Z</time>
      </trkpt>
      <trkpt lat="45.79689" lon="5.85932">
        <ele>329.9314</ele>
        <time>2013-05-30T12:57:23Z</time>
      </trkpt>
      <trkpt lat="45.79709" lon="5.85925">
        <ele>329.0164</ele>
        <time>2013-05-30T12:57:26Z</time>
      </trkpt>
      <trkpt lat="45.79731" lon="5.85922">
        <ele>327.49908</ele>
        <time>2013-05-30T12:57:29Z</time>
      </trkpt>
      <trkpt lat="45.79754" lon="5.85917">
        <ele>325.9215</ele>
        <time>2013-05-30T12:57:32Z</time>
      </trkpt>
      <trkpt lat="45.79772" lon="5.85914">
        <ele>325.0246</ele>
        <time>2013-05-30T12:57:34Z</time>
      </trkpt>
      <trkpt lat="45.79798" lon="5.85913">
        <ele>323.66974</ele>
        <time>2013-05-30T12:57:37Z</time>
      </trkpt>
      <trkpt lat="45.79816" lon="5.85907">
        <ele>323.18298</ele>
        <time>2013-05-30T12:57:39Z</time>
      </trkpt>
      <trkpt lat="45.79833" lon="5.85896">
        <ele>322.39667</ele>
        <time>2013-05-30T12:57:41Z</time>
      </trkpt>
      <trkpt lat="45.79857" lon="5.8588">
        <ele>321.6236</ele>
        <time>2013-05-30T12:57:44Z</time>
      </trkpt>
      <trkpt lat="45.79881" lon="5.85865">
        <ele>320.31308</ele>
        <time>2013-05-30T12:57:47Z</time>
      </trkpt>
      <trkpt lat="45.79905" lon="5.85845">
        <ele>319.30396</ele>
        <time>2013-05-30T12:57:50Z</time>
      </trkpt>
      <trkpt lat="45.79929" lon="5.85832">
        <ele>318.48135</ele>
        <time>2013-05-30T12:57:53Z</time>
      </trkpt>
      <trkpt lat="45.79946" lon="5.85823">
        <ele>318.19577</ele>
        <time>2013-05-30T12:57:55Z</time>
      </trkpt>
      <trkpt lat="45.7997" lon="5.85808">
        <ele>317.8779</ele>
        <time>2013-05-30T12:57:58Z</time>
      </trkpt>
      <trkpt lat="45.79995" lon="5.85796">
        <ele>317.16098</ele>
        <time>2013-05-30T12:58:01Z</time>
      </trkpt>
      <trkpt lat="45.80012" lon="5.85784">
        <ele>315.84055</ele>
        <time>2013-05-30T12:58:03Z</time>
      </trkpt>
      <trkpt lat="45.80038" lon="5.85769">
        <ele>314.42178</ele>
        <time>2013-05-30T12:58:06Z</time>
      </trkpt>
      <trkpt lat="45.80058" lon="5.85756">
        <ele>313.13727</ele>
        <time>2013-05-30T12:58:08Z</time>
      </trkpt>
      <trkpt lat="45.80075" lon="5.85745">
        <ele>311.65845</ele>
        <time>2013-05-30T12:58:10Z</time>
      </trkpt>
      <trkpt lat="45.80094" lon="5.85734">
        <ele>310.35162</ele>
        <time>2013-05-30T12:58:12Z</time>
      </trkpt>
      <trkpt lat="45.80114" lon="5.85724">
        <ele>309.39154</ele>
        <time>2013-05-30T12:58:14Z</time>
      </trkpt>
      <trkpt lat="45.80132" lon="5.85713">
        <ele>308.07025</ele>
        <time>2013-05-30T12:58:16Z</time>
      </trkpt>
      <trkpt lat="45.8015" lon="5.85702">
        <ele>307.277</ele>
        <time>2013-05-30T12:58:18Z</time>
      </trkpt>
      <trkpt lat="45.80167" lon="5.85693">
        <ele>307.21207</ele>
        <time>2013-05-30T12:58:20Z</time>
      </trkpt>
      <trkpt lat="45.80187" lon="5.85691">
        <ele>307.23804</ele>
        <time>2013-05-30T12:58:22Z</time>
      </trkpt>
      <trkpt lat="45.80212" lon="5.85685">
        <ele>306.96136</ele>
        <time>2013-05-30T12:58:25Z</time>
      </trkpt>
      <trkpt lat="45.80235" lon="5.85675">
        <ele>307.12433</ele>
        <time>2013-05-30T12:58:28Z</time>
      </trkpt>
      <trkpt lat="45.80253" lon="5.85657">
        <ele>307.20245</ele>
        <time>2013-05-30T12:58:31Z</time>
      </trkpt>
      <trkpt lat="45.8027" lon="5.85635">
        <ele>306.45416</ele>
        <time>2013-05-30T12:58:34Z</time>
      </trkpt>
      <trkpt lat="45.80287" lon="5.85611">
        <ele>305.6119</ele>
        <time>2013-05-30T12:58:37Z</time>
      </trkpt>
      <trkpt lat="45.80307" lon="5.85586">
        <ele>304.05814</ele>
        <time>2013-05-30T12:58:40Z</time>
      </trkpt>
      <trkpt lat="45.80327" lon="5.85565">
        <ele>302.76202</ele>
        <time>2013-05-30T12:58:43Z</time>
      </trkpt>
      <trkpt lat="45.80348" lon="5.85544">
        <ele>301.03397</ele>
        <time>2013-05-30T12:58:46Z</time>
      </trkpt>
      <trkpt lat="45.80371" lon="5.85528">
        <ele>299.91434</ele>
        <time>2013-05-30T12:58:49Z</time>
      </trkpt>
      <trkpt lat="45.80394" lon="5.8551">
        <ele>298.37323</ele>
        <time>2013-05-30T12:58:52Z</time>
      </trkpt>
      <trkpt lat="45.80412" lon="5.85498">
        <ele>297.70993</ele>
        <time>2013-05-30T12:58:54Z</time>
      </trkpt>
      <trkpt lat="45.80434" lon="5.85491">
        <ele>296.68387</ele>
        <time>2013-05-30T12:58:57Z</time>
      </trkpt>
      <trkpt lat="45.80454" lon="5.85481">
        <ele>294.97916</ele>
        <time>2013-05-30T12:59:00Z</time>
      </trkpt>
      <trkpt lat="45.80474" lon="5.85473">
        <ele>294.00684</ele>
        <time>2013-05-30T12:59:03Z</time>
      </trkpt>
      <trkpt lat="45.80493" lon="5.85465">
        <ele>293.59665</ele>
        <time>2013-05-30T12:59:06Z</time>
      </trkpt>
      <trkpt lat="45.80514" lon="5.85454">
        <ele>293.66028</ele>
        <time>2013-05-30T12:59:10Z</time>
      </trkpt>
      <trkpt lat="45.80534" lon="5.85443">
        <ele>293.95148</ele>
        <time>2013-05-30T12:59:14Z</time>
      </trkpt>
      <trkpt lat="45.80552" lon="5.85432">
        <ele>294.3159</ele>
        <time>2013-05-30T12:59:18Z</time>
      </trkpt>
      <trkpt lat="45.80571" lon="5.85416">
        <ele>295.00113</ele>
        <time>2013-05-30T12:59:23Z</time>
      </trkpt>
      <trkpt lat="45.80588" lon="5.85397">
        <ele>294.26532</ele>
        <time>2013-05-30T12:59:28Z</time>
      </trkpt>
      <trkpt lat="45.80604" lon="5.85382">
        <ele>293.89606</ele>
        <time>2013-05-30T12:59:32Z</time>
      </trkpt>
      <trkpt lat="45.80622" lon="5.85366">
        <ele>293.03714</ele>
        <time>2013-05-30T12:59:37Z</time>
      </trkpt>
      <trkpt lat="45.8064" lon="5.85356">
        <ele>293.19455</ele>
        <time>2013-05-30T12:59:41Z</time>
      </trkpt>
      <trkpt lat="45.80661" lon="5.85352">
        <ele>293.8166</ele>
        <time>2013-05-30T12:59:46Z</time>
      </trkpt>
      <trkpt lat="45.80679" lon="5.85348">
        <ele>294.0658</ele>
        <time>2013-05-30T12:59:50Z</time>
      </trkpt>
      <trkpt lat="45.80698" lon="5.85345">
        <ele>294.47928</ele>
        <time>2013-05-30T12:59:55Z</time>
      </trkpt>
      <trkpt lat="45.80716" lon="5.85341">
        <ele>293.9951</ele>
        <time>2013-05-30T13:00:00Z</time>
      </trkpt>
      <trkpt lat="45.80736" lon="5.85337">
        <ele>293.84894</ele>
        <time>2013-05-30T13:00:05Z</time>
      </trkpt>
      <trkpt lat="45.80756" lon="5.85333">
        <ele>293.52188</ele>
        <time>2013-05-30T13:00:11Z</time>
      </trkpt>
      <trkpt lat="45.80778" lon="5.85327">
        <ele>293.93033</ele>
        <time>2013-05-30T13:00:17Z</time>
      </trkpt>
      <trkpt lat="45.80795" lon="5.85319">
        <ele>294.63562</ele>
        <time>2013-05-30T13:00:22Z</time>
      </trkpt>
      <trkpt lat="45.80812" lon="5.85306">
        <ele>295.2692</ele>
        <time>2013-05-30T13:00:27Z</time>
      </trkpt>
      <trkpt lat="45.8083" lon="5.85294">
        <ele>295.91095</ele>
        <time>2013-05-30T13:00:32Z</time>
      </trkpt>
      <trkpt lat="45.80847" lon="5.8528">
        <ele>295.52545</ele>
        <time>2013-05-30T13:00:37Z</time>
      </trkpt>
      <trkpt lat="45.80864" lon="5.85266">
        <ele>293.6793</ele>
        <time>2013-05-30T13:00:42Z</time>
      </trkpt>
      <trkpt lat="45.8088" lon="5.85252">
        <ele>293.11667</ele>
        <time>2013-05-30T13:00:47Z</time>
      </trkpt>
      <trkpt lat="45.80897" lon="5.85238">
        <ele>293.29468</ele>
        <time>2013-05-30T13:00:52Z</time>
      </trkpt>
      <trkpt lat="45.80913" lon="5.85223">
        <ele>294.2915</ele>
        <time>2013-05-30T13:00:57Z</time>
      </trkpt>
      <trkpt lat="45.80928" lon="5.85208">
        <ele>295.0941</ele>
        <time>2013-05-30T13:01:02Z</time>
      </trkpt>
      <trkpt lat="45.80944" lon="5.85194">
        <ele>295.67358</ele>
        <time>2013-05-30T13:01:07Z</time>
      </trkpt>
      <trkpt lat="45.80961" lon="5.85177">
        <ele>294.85004</ele>
        <time>2013-05-30T13:01:13Z</time>
      </trkpt>
      <trkpt lat="45.80978" lon="5.8516">
        <ele>294.99118</ele>
        <time>2013-05-30T13:01:19Z</time>
      </trkpt>
      <trkpt lat="45.80993" lon="5.85146">
        <ele>295.25034</ele>
        <time>2013-05-30T13:01:24Z</time>
      </trkpt>
      <trkpt lat="45.81009" lon="5.85131">
        <ele>296.1555</ele>
        <time>2013-05-30T13:01:29Z</time>
      </trkpt>
      <trkpt lat="45.81026" lon="5.85116">
        <ele>297.16757</ele>
        <time>2013-05-30T13:01:34Z</time>
      </trkpt>
      <trkpt lat="45.81041" lon="5.85102">
        <ele>297.80606</ele>
        <time>2013-05-30T13:01:39Z</time>
      </trkpt>
      <trkpt lat="45.81058" lon="5.85093">
        <ele>298.3233</ele>
        <time>2013-05-30T13:01:44Z</time>
      </trkpt>
      <trkpt lat="45.81077" lon="5.85085">
        <ele>297.90225</ele>
        <time>2013-05-30T13:01:51Z</time>
      </trkpt>
      <trkpt lat="45.81088" lon="5.85059">
        <ele>296.67108</ele>
        <time>2013-05-30T13:01:57Z</time>
      </trkpt>
      <trkpt lat="45.81105" lon="5.85044">
        <ele>297.03122</ele>
        <time>2013-05-30T13:02:02Z</time>
      </trkpt>
      <trkpt lat="45.81122" lon="5.85029">
        <ele>297.15652</ele>
        <time>2013-05-30T13:02:07Z</time>
      </trkpt>
      <trkpt lat="45.81139" lon="5.85015">
        <ele>298.01343</ele>
        <time>2013-05-30T13:02:12Z</time>
      </trkpt>
      <trkpt lat="45.81158" lon="5.85005">
        <ele>299.83063</ele>
        <time>2013-05-30T13:02:18Z</time>
      </trkpt>
      <trkpt lat="45.81179" lon="5.85">
        <ele>301.55643</ele>
        <time>2013-05-30T13:02:24Z</time>
      </trkpt>
      <trkpt lat="45.81197" lon="5.8499">
        <ele>301.48474</ele>
        <time>2013-05-30T13:02:27Z</time>
      </trkpt>
      <trkpt lat="45.81217" lon="5.84983">
        <ele>301.3299</ele>
        <time>2013-05-30T13:02:32Z</time>
      </trkpt>
      <trkpt lat="45.81235" lon="5.84981">
        <ele>301.03122</ele>
        <time>2013-05-30T13:02:37Z</time>
      </trkpt>
      <trkpt lat="45.81257" lon="5.84977">
        <ele>300.41684</ele>
        <time>2013-05-30T13:02:43Z</time>
      </trkpt>
      <trkpt lat="45.81276" lon="5.84976">
        <ele>300.5866</ele>
        <time>2013-05-30T13:02:48Z</time>
      </trkpt>
      <trkpt lat="45.81297" lon="5.8497">
        <ele>300.5144</ele>
        <time>2013-05-30T13:02:53Z</time>
      </trkpt>
      <trkpt lat="45.81318" lon="5.84965">
        <ele>299.3624</ele>
        <time>2013-05-30T13:02:58Z</time>
      </trkpt>
      <trkpt lat="45.81339" lon="5.8496">
        <ele>298.94556</ele>
        <time>2013-05-30T13:03:03Z</time>
      </trkpt>
      <trkpt lat="45.81359" lon="5.84957">
        <ele>298.3493</ele>
        <time>2013-05-30T13:03:08Z</time>
      </trkpt>
      <trkpt lat="45.81378" lon="5.84951">
        <ele>299.36813</ele>
        <time>2013-05-30T13:03:13Z</time>
      </trkpt>
      <trkpt lat="45.81398" lon="5.84947">
        <ele>300.0329</ele>
        <time>2013-05-30T13:03:18Z</time>
      </trkpt>
      <trkpt lat="45.81418" lon="5.84943">
        <ele>301.0186</ele>
        <time>2013-05-30T13:03:24Z</time>
      </trkpt>
      <trkpt lat="45.81437" lon="5.84939">
        <ele>302.20297</ele>
        <time>2013-05-30T13:03:31Z</time>
      </trkpt>
      <trkpt lat="45.81455" lon="5.84937">
        <ele>303.59473</ele>
        <time>2013-05-30T13:03:38Z</time>
      </trkpt>
      <trkpt lat="45.81473" lon="5.84937">
        <ele>305.34122</ele>
        <time>2013-05-30T13:03:44Z</time>
      </trkpt>
      <trkpt lat="45.81492" lon="5.84939">
        <ele>306.55463</ele>
        <time>2013-05-30T13:03:51Z</time>
      </trkpt>
      <trkpt lat="45.81511" lon="5.84945">
        <ele>304.93726</ele>
        <time>2013-05-30T13:03:58Z</time>
      </trkpt>
      <trkpt lat="45.81531" lon="5.8495">
        <ele>302.5791</ele>
        <time>2013-05-30T13:04:06Z</time>
      </trkpt>
      <trkpt lat="45.81551" lon="5.84953">
        <ele>303.94962</ele>
        <time>2013-05-30T13:04:14Z</time>
      </trkpt>
      <trkpt lat="45.81569" lon="5.84958">
        <ele>304.77658</ele>
        <time>2013-05-30T13:04:21Z</time>
      </trkpt>
      <trkpt lat="45.81587" lon="5.84962">
        <ele>305.96436</ele>
        <time>2013-05-30T13:04:28Z</time>
      </trkpt>
      <trkpt lat="45.81605" lon="5.84963">
        <ele>307.08203</ele>
        <time>2013-05-30T13:04:36Z</time>
      </trkpt>
      <trkpt lat="45.81624" lon="5.84959">
        <ele>308.8921</ele>
        <time>2013-05-30T13:04:44Z</time>
      </trkpt>
      <trkpt lat="45.81642" lon="5.84955">
        <ele>309.0308</ele>
        <time>2013-05-30T13:04:52Z</time>
      </trkpt>
      <trkpt lat="45.81662" lon="5.84949">
        <ele>310.14633</ele>
        <time>2013-05-30T13:05:01Z</time>
      </trkpt>
      <trkpt lat="45.8168" lon="5.84943">
        <ele>311.26437</ele>
        <time>2013-05-30T13:05:09Z</time>
      </trkpt>
      <trkpt lat="45.817" lon="5.84936">
        <ele>312.68997</ele>
        <time>2013-05-30T13:05:17Z</time>
      </trkpt>
      <trkpt lat="45.81719" lon="5.84928">
        <ele>315.52444</ele>
        <time>2013-05-30T13:05:25Z</time>
      </trkpt>
      <trkpt lat="45.81738" lon="5.84921">
        <ele>317.74152</ele>
        <time>2013-05-30T13:05:33Z</time>
      </trkpt>
      <trkpt lat="45.81757" lon="5.84916">
        <ele>318.48453</ele>
        <time>2013-05-30T13:05:41Z</time>
      </trkpt>
      <trkpt lat="45.81775" lon="5.84908">
        <ele>318.37756</ele>
        <time>2013-05-30T13:05:49Z</time>
      </trkpt>
      <trkpt lat="45.81794" lon="5.84897">
        <ele>318.79126</ele>
        <time>2013-05-30T13:05:58Z</time>
      </trkpt>
      <trkpt lat="45.8181" lon="5.8488">
        <ele>322.30685</ele>
        <time>2013-05-30T13:06:06Z</time>
      </trkpt>
      <trkpt lat="45.81826" lon="5.84862">
        <ele>322.63104</ele>
        <time>2013-05-30T13:06:14Z</time>
      </trkpt>
      <trkpt lat="45.81842" lon="5.84848">
        <ele>322.53317</ele>
        <time>2013-05-30T13:06:22Z</time>
      </trkpt>
      <trkpt lat="45.81861" lon="5.8484">
        <ele>320.87534</ele>
        <time>2013-05-30T13:06:30Z</time>
      </trkpt>
      <trkpt lat="45.81879" lon="5.84832">
        <ele>322.609</ele>
        <time>2013-05-30T13:06:37Z</time>
      </trkpt>
      <trkpt lat="45.81898" lon="5.84823">
        <ele>326.49417</ele>
        <time>2013-05-30T13:06:44Z</time>
      </trkpt>
      <trkpt lat="45.81918" lon="5.84815">
        <ele>331.18863</ele>
        <time>2013-05-30T13:06:51Z</time>
      </trkpt>
      <trkpt lat="45.81937" lon="5.84805">
        <ele>331.63177</ele>
        <time>2013-05-30T13:06:57Z</time>
      </trkpt>
      <trkpt lat="45.81955" lon="5.84801">
        <ele>330.47702</ele>
        <time>2013-05-30T13:07:04Z</time>
      </trkpt>
      <trkpt lat="45.81972" lon="5.84791">
        <ele>331.89288</ele>
        <time>2013-05-30T13:07:10Z</time>
      </trkpt>
      <trkpt lat="45.81992" lon="5.84785">
        <ele>332.5595</ele>
        <time>2013-05-30T13:07:18Z</time>
      </trkpt>
      <trkpt lat="45.8201" lon="5.84774">
        <ele>334.08392</ele>
        <time>2013-05-30T13:07:24Z</time>
      </trkpt>
      <trkpt lat="45.82028" lon="5.84766">
        <ele>335.1476</ele>
        <time>2013-05-30T13:07:30Z</time>
      </trkpt>
      <trkpt lat="45.82046" lon="5.84755">
        <ele>336.7313</ele>
        <time>2013-05-30T13:07:37Z</time>
      </trkpt>
      <trkpt lat="45.82065" lon="5.84756">
        <ele>341.19336</ele>
        <time>2013-05-30T13:15:11Z</time>
      </trkpt>
      <trkpt lat="45.82084" lon="5.84752">
        <ele>336.27853</ele>
        <time>2013-05-30T13:15:17Z</time>
      </trkpt>
      <trkpt lat="45.82104" lon="5.84749">
        <ele>334.1749</ele>
        <time>2013-05-30T13:15:23Z</time>
      </trkpt>
      <trkpt lat="45.82124" lon="5.84744">
        <ele>336.09702</ele>
        <time>2013-05-30T13:15:30Z</time>
      </trkpt>
      <trkpt lat="45.82144" lon="5.84741">
        <ele>335.36673</ele>
        <time>2013-05-30T13:15:37Z</time>
      </trkpt>
      <trkpt lat="45.82164" lon="5.84733">
        <ele>335.14447</ele>
        <time>2013-05-30T13:15:44Z</time>
      </trkpt>
      <trkpt lat="45.82183" lon="5.84726">
        <ele>334.4824</ele>
        <time>2013-05-30T13:15:50Z</time>
      </trkpt>
      <trkpt lat="45.82203" lon="5.8472">
        <ele>335.05276</ele>
        <time>2013-05-30T13:15:56Z</time>
      </trkpt>
      <trkpt lat="45.82221" lon="5.84713">
        <ele>335.81445</ele>
        <time>2013-05-30T13:16:01Z</time>
      </trkpt>
      <trkpt lat="45.82242" lon="5.84702">
        <ele>336.66965</ele>
        <time>2013-05-30T13:16:06Z</time>
      </trkpt>
      <trkpt lat="45.82261" lon="5.84688">
        <ele>337.38452</ele>
        <time>2013-05-30T13:16:10Z</time>
      </trkpt>
      <trkpt lat="45.82277" lon="5.84677">
        <ele>337.7947</ele>
        <time>2013-05-30T13:16:14Z</time>
      </trkpt>
      <trkpt lat="45.82296" lon="5.84663">
        <ele>336.29016</ele>
        <time>2013-05-30T13:16:19Z</time>
      </trkpt>
      <trkpt lat="45.82313" lon="5.8465">
        <ele>336.04337</ele>
        <time>2013-05-30T13:16:23Z</time>
      </trkpt>
      <trkpt lat="45.82328" lon="5.84635">
        <ele>334.57504</ele>
        <time>2013-05-30T13:16:27Z</time>
      </trkpt>
      <trkpt lat="45.82345" lon="5.84615">
        <ele>333.01318</ele>
        <time>2013-05-30T13:16:31Z</time>
      </trkpt>
      <trkpt lat="45.8236" lon="5.84598">
        <ele>331.68994</ele>
        <time>2013-05-30T13:16:34Z</time>
      </trkpt>
      <trkpt lat="45.82374" lon="5.8458">
        <ele>330.9192</ele>
        <time>2013-05-30T13:16:37Z</time>
      </trkpt>
      <trkpt lat="45.8239" lon="5.84562">
        <ele>329.80652</ele>
        <time>2013-05-30T13:16:40Z</time>
      </trkpt>
      <trkpt lat="45.82406" lon="5.84542">
        <ele>328.28714</ele>
        <time>2013-05-30T13:16:43Z</time>
      </trkpt>
      <trkpt lat="45.82424" lon="5.8452">
        <ele>327.40082</ele>
        <time>2013-05-30T13:16:46Z</time>
      </trkpt>
      <trkpt lat="45.82443" lon="5.845">
        <ele>326.12378</ele>
        <time>2013-05-30T13:16:49Z</time>
      </trkpt>
      <trkpt lat="45.82462" lon="5.84476">
        <ele>325.00064</ele>
        <time>2013-05-30T13:16:52Z</time>
      </trkpt>
      <trkpt lat="45.82476" lon="5.84458">
        <ele>324.21286</ele>
        <time>2013-05-30T13:16:54Z</time>
      </trkpt>
      <trkpt lat="45.82497" lon="5.84436">
        <ele>322.87106</ele>
        <time>2013-05-30T13:16:57Z</time>
      </trkpt>
      <trkpt lat="45.82514" lon="5.84424">
        <ele>321.57123</ele>
        <time>2013-05-30T13:16:59Z</time>
      </trkpt>
      <trkpt lat="45.82532" lon="5.84414">
        <ele>319.84006</ele>
        <time>2013-05-30T13:17:01Z</time>
      </trkpt>
      <trkpt lat="45.82551" lon="5.84407">
        <ele>318.18503</ele>
        <time>2013-05-30T13:17:03Z</time>
      </trkpt>
      <trkpt lat="45.8257" lon="5.84401">
        <ele>316.66034</ele>
        <time>2013-05-30T13:17:05Z</time>
      </trkpt>
      <trkpt lat="45.82588" lon="5.84393">
        <ele>315.78394</ele>
        <time>2013-05-30T13:17:07Z</time>
      </trkpt>
      <trkpt lat="45.82607" lon="5.84385">
        <ele>315.66595</ele>
        <time>2013-05-30T13:17:09Z</time>
      </trkpt>
      <trkpt lat="45.82626" lon="5.84379">
        <ele>315.13086</ele>
        <time>2013-05-30T13:17:11Z</time>
      </trkpt>
      <trkpt lat="45.82646" lon="5.84371">
        <ele>314.29236</ele>
        <time>2013-05-30T13:17:13Z</time>
      </trkpt>
      <trkpt lat="45.82665" lon="5.84363">
        <ele>313.95193</ele>
        <time>2013-05-30T13:17:15Z</time>
      </trkpt>
      <trkpt lat="45.82685" lon="5.84355">
        <ele>313.57297</ele>
        <time>2013-05-30T13:17:17Z</time>
      </trkpt>
      <trkpt lat="45.82705" lon="5.84345">
        <ele>312.8473</ele>
        <time>2013-05-30T13:17:19Z</time>
      </trkpt>
      <trkpt lat="45.82724" lon="5.84333">
        <ele>311.9891</ele>
        <time>2013-05-30T13:17:21Z</time>
      </trkpt>
      <trkpt lat="45.82742" lon="5.8432">
        <ele>311.10013</ele>
        <time>2013-05-30T13:17:23Z</time>
      </trkpt>
      <trkpt lat="45.82761" lon="5.84307">
        <ele>309.6563</ele>
        <time>2013-05-30T13:17:25Z</time>
      </trkpt>
      <trkpt lat="45.82778" lon="5.84294">
        <ele>308.50668</ele>
        <time>2013-05-30T13:17:27Z</time>
      </trkpt>
      <trkpt lat="45.82796" lon="5.84285">
        <ele>307.42877</ele>
        <time>2013-05-30T13:17:29Z</time>
      </trkpt>
      <trkpt lat="45.82814" lon="5.84276">
        <ele>307.44742</ele>
        <time>2013-05-30T13:17:31Z</time>
      </trkpt>
      <trkpt lat="45.82833" lon="5.84271">
        <ele>307.88293</ele>
        <time>2013-05-30T13:17:33Z</time>
      </trkpt>
      <trkpt lat="45.82861" lon="5.8427">
        <ele>307.0522</ele>
        <time>2013-05-30T13:17:36Z</time>
      </trkpt>
      <trkpt lat="45.82879" lon="5.84272">
        <ele>306.1356</ele>
        <time>2013-05-30T13:17:38Z</time>
      </trkpt>
      <trkpt lat="45.82905" lon="5.84272">
        <ele>305.03378</ele>
        <time>2013-05-30T13:17:41Z</time>
      </trkpt>
      <trkpt lat="45.82924" lon="5.84276">
        <ele>302.70026</ele>
        <time>2013-05-30T13:17:43Z</time>
      </trkpt>
      <trkpt lat="45.82942" lon="5.84275">
        <ele>300.82513</ele>
        <time>2013-05-30T13:17:45Z</time>
      </trkpt>
      <trkpt lat="45.82966" lon="5.84278">
        <ele>299.99585</ele>
        <time>2013-05-30T13:17:49Z</time>
      </trkpt>
      <trkpt lat="45.82988" lon="5.8428">
        <ele>300.00607</ele>
        <time>2013-05-30T13:17:52Z</time>
      </trkpt>
      <trkpt lat="45.83012" lon="5.84284">
        <ele>300.63434</ele>
        <time>2013-05-30T13:17:56Z</time>
      </trkpt>
      <trkpt lat="45.83037" lon="5.84284">
        <ele>300.70383</ele>
        <time>2013-05-30T13:18:00Z</time>
      </trkpt>
      <trkpt lat="45.8306" lon="5.84286">
        <ele>300.70786</ele>
        <time>2013-05-30T13:18:04Z</time>
      </trkpt>
      <trkpt lat="45.83078" lon="5.84277">
        <ele>300.43146</ele>
        <time>2013-05-30T13:18:07Z</time>
      </trkpt>
      <trkpt lat="45.83097" lon="5.84269">
        <ele>300.4586</ele>
        <time>2013-05-30T13:18:10Z</time>
      </trkpt>
      <trkpt lat="45.83117" lon="5.84262">
        <ele>301.06378</ele>
        <time>2013-05-30T13:18:13Z</time>
      </trkpt>
      <trkpt lat="45.83139" lon="5.84252">
        <ele>300.5987</ele>
        <time>2013-05-30T13:18:17Z</time>
      </trkpt>
      <trkpt lat="45.83157" lon="5.84243">
        <ele>300.33383</ele>
        <time>2013-05-30T13:18:20Z</time>
      </trkpt>
      <trkpt lat="45.83174" lon="5.84236">
        <ele>300.85178</ele>
        <time>2013-05-30T13:18:23Z</time>
      </trkpt>
      <trkpt lat="45.83196" lon="5.84227">
        <ele>301.24957</ele>
        <time>2013-05-30T13:18:27Z</time>
      </trkpt>
      <trkpt lat="45.83217" lon="5.84224">
        <ele>300.09732</ele>
        <time>2013-05-30T13:18:31Z</time>
      </trkpt>
      <trkpt lat="45.83237" lon="5.84217">
        <ele>299.34213</ele>
        <time>2013-05-30T13:18:35Z</time>
      </trkpt>
      <trkpt lat="45.83257" lon="5.84211">
        <ele>298.46997</ele>
        <time>2013-05-30T13:18:39Z</time>
      </trkpt>
      <trkpt lat="45.83278" lon="5.84206">
        <ele>297.86002</ele>
        <time>2013-05-30T13:18:43Z</time>
      </trkpt>
      <trkpt lat="45.83297" lon="5.84197">
        <ele>297.4678</ele>
        <time>2013-05-30T13:18:47Z</time>
      </trkpt>
      <trkpt lat="45.83317" lon="5.84183">
        <ele>298.02673</ele>
        <time>2013-05-30T13:18:52Z</time>
      </trkpt>
      <trkpt lat="45.83333" lon="5.84172">
        <ele>296.1441</ele>
        <time>2013-05-30T13:18:55Z</time>
      </trkpt>
      <trkpt lat="45.8335" lon="5.84158">
        <ele>293.02606</ele>
        <time>2013-05-30T13:18:59Z</time>
      </trkpt>
      <trkpt lat="45.83365" lon="5.84144">
        <ele>290.8641</ele>
        <time>2013-05-30T13:19:03Z</time>
      </trkpt>
      <trkpt lat="45.83383" lon="5.84126">
        <ele>290.50974</ele>
        <time>2013-05-30T13:19:07Z</time>
      </trkpt>
      <trkpt lat="45.83401" lon="5.84107">
        <ele>290.87106</ele>
        <time>2013-05-30T13:19:11Z</time>
      </trkpt>
      <trkpt lat="45.8342" lon="5.84091">
        <ele>291.36584</ele>
        <time>2013-05-30T13:19:15Z</time>
      </trkpt>
      <trkpt lat="45.83436" lon="5.84078">
        <ele>291.74496</ele>
        <time>2013-05-30T13:19:18Z</time>
      </trkpt>
      <trkpt lat="45.83454" lon="5.84065">
        <ele>291.97476</ele>
        <time>2013-05-30T13:19:22Z</time>
      </trkpt>
      <trkpt lat="45.83472" lon="5.84054">
        <ele>292.26077</ele>
        <time>2013-05-30T13:19:26Z</time>
      </trkpt>
      <trkpt lat="45.8349" lon="5.84044">
        <ele>292.66962</ele>
        <time>2013-05-30T13:19:30Z</time>
      </trkpt>
      <trkpt lat="45.8351" lon="5.84034">
        <ele>293.24298</ele>
        <time>2013-05-30T13:19:35Z</time>
      </trkpt>
      <trkpt lat="45.83528" lon="5.84024">
        <ele>293.96967</ele>
        <time>2013-05-30T13:19:40Z</time>
      </trkpt>
      <trkpt lat="45.83547" lon="5.84015">
        <ele>294.54163</ele>
        <time>2013-05-30T13:19:45Z</time>
      </trkpt>
      <trkpt lat="45.83566" lon="5.84004">
        <ele>295.42087</ele>
        <time>2013-05-30T13:19:51Z</time>
      </trkpt>
      <trkpt lat="45.83585" lon="5.83995">
        <ele>295.53903</ele>
        <time>2013-05-30T13:19:57Z</time>
      </trkpt>
      <trkpt lat="45.83602" lon="5.83987">
        <ele>295.72287</ele>
        <time>2013-05-30T13:20:03Z</time>
      </trkpt>
      <trkpt lat="45.8362" lon="5.83981">
        <ele>296.3394</ele>
        <time>2013-05-30T13:20:09Z</time>
      </trkpt>
      <trkpt lat="45.83638" lon="5.83973">
        <ele>298.701</ele>
        <time>2013-05-30T13:20:17Z</time>
      </trkpt>
      <trkpt lat="45.83656" lon="5.83963">
        <ele>300.15033</ele>
        <time>2013-05-30T13:20:24Z</time>
      </trkpt>
      <trkpt lat="45.83676" lon="5.83953">
        <ele>299.83368</ele>
        <time>2013-05-30T13:20:31Z</time>
      </trkpt>
      <trkpt lat="45.83696" lon="5.83945">
        <ele>299.98682</ele>
        <time>2013-05-30T13:20:38Z</time>
      </trkpt>
      <trkpt lat="45.83714" lon="5.83937">
        <ele>300.1198</ele>
        <time>2013-05-30T13:20:45Z</time>
      </trkpt>
      <trkpt lat="45.83734" lon="5.83933">
        <ele>300.258</ele>
        <time>2013-05-30T13:20:53Z</time>
      </trkpt>
      <trkpt lat="45.83756" lon="5.83931">
        <ele>299.44608</ele>
        <time>2013-05-30T13:20:59Z</time>
      </trkpt>
      <trkpt lat="45.83775" lon="5.83927">
        <ele>299.82578</ele>
        <time>2013-05-30T13:21:04Z</time>
      </trkpt>
      <trkpt lat="45.83795" lon="5.83925">
        <ele>300.87878</ele>
        <time>2013-05-30T13:21:09Z</time>
      </trkpt>
      <trkpt lat="45.83814" lon="5.83925">
        <ele>301.56165</ele>
        <time>2013-05-30T13:21:13Z</time>
      </trkpt>
      <trkpt lat="45.83833" lon="5.83933">
        <ele>300.84763</ele>
        <time>2013-05-30T13:21:17Z</time>
      </trkpt>
      <trkpt lat="45.83853" lon="5.83946">
        <ele>299.32443</ele>
        <time>2013-05-30T13:21:21Z</time>
      </trkpt>
      <trkpt lat="45.83869" lon="5.83956">
        <ele>298.0322</ele>
        <time>2013-05-30T13:21:24Z</time>
      </trkpt>
      <trkpt lat="45.83889" lon="5.83963">
        <ele>297.3589</ele>
        <time>2013-05-30T13:21:27Z</time>
      </trkpt>
      <trkpt lat="45.83908" lon="5.83965">
        <ele>296.86392</ele>
        <time>2013-05-30T13:21:30Z</time>
      </trkpt>
      <trkpt lat="45.8393" lon="5.83964">
        <ele>296.42853</ele>
        <time>2013-05-30T13:21:33Z</time>
      </trkpt>
      <trkpt lat="45.83953" lon="5.83962">
        <ele>295.44016</ele>
        <time>2013-05-30T13:21:36Z</time>
      </trkpt>
      <trkpt lat="45.83975" lon="5.8396">
        <ele>294.02945</ele>
        <time>2013-05-30T13:21:39Z</time>
      </trkpt>
      <trkpt lat="45.83998" lon="5.83957">
        <ele>293.20462</ele>
        <time>2013-05-30T13:21:42Z</time>
      </trkpt>
      <trkpt lat="45.84022" lon="5.83954">
        <ele>293.61758</ele>
        <time>2013-05-30T13:21:45Z</time>
      </trkpt>
      <trkpt lat="45.84043" lon="5.83952">
        <ele>293.85742</ele>
        <time>2013-05-30T13:21:48Z</time>
      </trkpt>
      <trkpt lat="45.84063" lon="5.8395">
        <ele>293.48047</ele>
        <time>2013-05-30T13:21:51Z</time>
      </trkpt>
      <trkpt lat="45.84083" lon="5.83949">
        <ele>293.61206</ele>
        <time>2013-05-30T13:21:54Z</time>
      </trkpt>
      <trkpt lat="45.84103" lon="5.83945">
        <ele>293.91602</ele>
        <time>2013-05-30T13:21:57Z</time>
      </trkpt>
      <trkpt lat="45.84126" lon="5.83943">
        <ele>293.81522</ele>
        <time>2013-05-30T13:22:01Z</time>
      </trkpt>
      <trkpt lat="45.84149" lon="5.8394">
        <ele>293.91382</ele>
        <time>2013-05-30T13:22:05Z</time>
      </trkpt>
      <trkpt lat="45.84169" lon="5.83939">
        <ele>294.2527</ele>
        <time>2013-05-30T13:22:08Z</time>
      </trkpt>
      <trkpt lat="45.84187" lon="5.83938">
        <ele>294.83316</ele>
        <time>2013-05-30T13:22:11Z</time>
      </trkpt>
      <trkpt lat="45.84209" lon="5.83936">
        <ele>295.50424</ele>
        <time>2013-05-30T13:22:15Z</time>
      </trkpt>
      <trkpt lat="45.84232" lon="5.83932">
        <ele>296.3166</ele>
        <time>2013-05-30T13:22:19Z</time>
      </trkpt>
      <trkpt lat="45.84254" lon="5.83926">
        <ele>296.1568</ele>
        <time>2013-05-30T13:22:23Z</time>
      </trkpt>
      <trkpt lat="45.84275" lon="5.83919">
        <ele>295.62656</ele>
        <time>2013-05-30T13:22:27Z</time>
      </trkpt>
      <trkpt lat="45.84297" lon="5.8391">
        <ele>295.9924</ele>
        <time>2013-05-30T13:22:31Z</time>
      </trkpt>
      <trkpt lat="45.84317" lon="5.839">
        <ele>295.77533</ele>
        <time>2013-05-30T13:22:35Z</time>
      </trkpt>
      <trkpt lat="45.84338" lon="5.83888">
        <ele>295.60703</ele>
        <time>2013-05-30T13:22:39Z</time>
      </trkpt>
      <trkpt lat="45.8436" lon="5.83878">
        <ele>296.1659</ele>
        <time>2013-05-30T13:22:43Z</time>
      </trkpt>
      <trkpt lat="45.8438" lon="5.83868">
        <ele>296.29272</ele>
        <time>2013-05-30T13:22:47Z</time>
      </trkpt>
      <trkpt lat="45.84397" lon="5.83859">
        <ele>296.22507</ele>
        <time>2013-05-30T13:22:50Z</time>
      </trkpt>
      <trkpt lat="45.84415" lon="5.8385">
        <ele>295.8465</ele>
        <time>2013-05-30T13:22:53Z</time>
      </trkpt>
      <trkpt lat="45.84433" lon="5.83841">
        <ele>295.7618</ele>
        <time>2013-05-30T13:22:56Z</time>
      </trkpt>
      <trkpt lat="45.84454" lon="5.83831">
        <ele>296.16684</ele>
        <time>2013-05-30T13:23:00Z</time>
      </trkpt>
      <trkpt lat="45.84475" lon="5.83821">
        <ele>296.67545</ele>
        <time>2013-05-30T13:23:04Z</time>
      </trkpt>
      <trkpt lat="45.84495" lon="5.83809">
        <ele>296.9301</ele>
        <time>2013-05-30T13:23:08Z</time>
      </trkpt>
      <trkpt lat="45.84516" lon="5.83799">
        <ele>296.9603</ele>
        <time>2013-05-30T13:23:12Z</time>
      </trkpt>
      <trkpt lat="45.84534" lon="5.83788">
        <ele>296.48276</ele>
        <time>2013-05-30T13:23:16Z</time>
      </trkpt>
      <trkpt lat="45.84554" lon="5.83779">
        <ele>295.61838</ele>
        <time>2013-05-30T13:23:20Z</time>
      </trkpt>
      <trkpt lat="45.84571" lon="5.83769">
        <ele>295.3593</ele>
        <time>2013-05-30T13:23:24Z</time>
      </trkpt>
      <trkpt lat="45.84592" lon="5.83759">
        <ele>295.48206</ele>
        <time>2013-05-30T13:23:29Z</time>
      </trkpt>
      <trkpt lat="45.84609" lon="5.83749">
        <ele>295.17517</ele>
        <time>2013-05-30T13:23:33Z</time>
      </trkpt>
      <trkpt lat="45.84628" lon="5.83741">
        <ele>295.56677</ele>
        <time>2013-05-30T13:23:37Z</time>
      </trkpt>
      <trkpt lat="45.84647" lon="5.83734">
        <ele>295.7645</ele>
        <time>2013-05-30T13:23:41Z</time>
      </trkpt>
      <trkpt lat="45.84667" lon="5.83727">
        <ele>296.0122</ele>
        <time>2013-05-30T13:23:45Z</time>
      </trkpt>
      <trkpt lat="45.84688" lon="5.83723">
        <ele>296.3062</ele>
        <time>2013-05-30T13:23:49Z</time>
      </trkpt>
      <trkpt lat="45.84708" lon="5.83723">
        <ele>296.06094</ele>
        <time>2013-05-30T13:23:53Z</time>
      </trkpt>
      <trkpt lat="45.84731" lon="5.83724">
        <ele>295.0529</ele>
        <time>2013-05-30T13:23:57Z</time>
      </trkpt>
      <trkpt lat="45.84752" lon="5.83727">
        <ele>294.04877</ele>
        <time>2013-05-30T13:24:01Z</time>
      </trkpt>
      <trkpt lat="45.84774" lon="5.83732">
        <ele>293.40878</ele>
        <time>2013-05-30T13:24:05Z</time>
      </trkpt>
      <trkpt lat="45.84797" lon="5.8373">
        <ele>295.6141</ele>
        <time>2013-05-30T13:24:09Z</time>
      </trkpt>
      <trkpt lat="45.84814" lon="5.8374">
        <ele>297.57986</ele>
        <time>2013-05-30T13:24:13Z</time>
      </trkpt>
      <trkpt lat="45.84833" lon="5.83746">
        <ele>298.23868</ele>
        <time>2013-05-30T13:24:18Z</time>
      </trkpt>
      <trkpt lat="45.84852" lon="5.83752">
        <ele>298.53256</ele>
        <time>2013-05-30T13:24:22Z</time>
      </trkpt>
      <trkpt lat="45.84873" lon="5.83764">
        <ele>297.77197</ele>
        <time>2013-05-30T13:24:28Z</time>
      </trkpt>
      <trkpt lat="45.84891" lon="5.8377">
        <ele>297.66415</ele>
        <time>2013-05-30T13:24:33Z</time>
      </trkpt>
      <trkpt lat="45.8491" lon="5.83775">
        <ele>298.3247</ele>
        <time>2013-05-30T13:24:38Z</time>
      </trkpt>
      <trkpt lat="45.84931" lon="5.83777">
        <ele>299.87167</ele>
        <time>2013-05-30T13:24:43Z</time>
      </trkpt>
      <trkpt lat="45.84952" lon="5.83783">
        <ele>299.866</ele>
        <time>2013-05-30T13:24:49Z</time>
      </trkpt>
      <trkpt lat="45.84972" lon="5.8379">
        <ele>300.17526</ele>
        <time>2013-05-30T13:24:55Z</time>
      </trkpt>
      <trkpt lat="45.8499" lon="5.838">
        <ele>301.01166</ele>
        <time>2013-05-30T13:25:01Z</time>
      </trkpt>
      <trkpt lat="45.85009" lon="5.83807">
        <ele>301.93375</ele>
        <time>2013-05-30T13:25:07Z</time>
      </trkpt>
      <trkpt lat="45.85027" lon="5.83817">
        <ele>301.65756</ele>
        <time>2013-05-30T13:25:13Z</time>
      </trkpt>
      <trkpt lat="45.85045" lon="5.83827">
        <ele>301.99512</ele>
        <time>2013-05-30T13:25:19Z</time>
      </trkpt>
      <trkpt lat="45.8506" lon="5.83844">
        <ele>302.11432</ele>
        <time>2013-05-30T13:25:25Z</time>
      </trkpt>
      <trkpt lat="45.8508" lon="5.83834">
        <ele>302.17615</ele>
        <time>2013-05-30T13:25:31Z</time>
      </trkpt>
      <trkpt lat="45.85099" lon="5.83836">
        <ele>302.5479</ele>
        <time>2013-05-30T13:25:35Z</time>
      </trkpt>
      <trkpt lat="45.85121" lon="5.83839">
        <ele>302.22455</ele>
        <time>2013-05-30T13:25:39Z</time>
      </trkpt>
      <trkpt lat="45.8514" lon="5.83843">
        <ele>301.7541</ele>
        <time>2013-05-30T13:25:42Z</time>
      </trkpt>
      <trkpt lat="45.8516" lon="5.83849">
        <ele>301.02127</ele>
        <time>2013-05-30T13:25:45Z</time>
      </trkpt>
      <trkpt lat="45.85179" lon="5.83854">
        <ele>300.1371</ele>
        <time>2013-05-30T13:25:48Z</time>
      </trkpt>
      <trkpt lat="45.852" lon="5.8386">
        <ele>299.12973</ele>
        <time>2013-05-30T13:25:51Z</time>
      </trkpt>
      <trkpt lat="45.85222" lon="5.83867">
        <ele>298.1344</ele>
        <time>2013-05-30T13:25:54Z</time>
      </trkpt>
      <trkpt lat="45.85243" lon="5.83875">
        <ele>297.2145</ele>
        <time>2013-05-30T13:25:57Z</time>
      </trkpt>
      <trkpt lat="45.85265" lon="5.83882">
        <ele>297.12955</ele>
        <time>2013-05-30T13:26:00Z</time>
      </trkpt>
      <trkpt lat="45.85284" lon="5.83891">
        <ele>296.68903</ele>
        <time>2013-05-30T13:26:03Z</time>
      </trkpt>
      <trkpt lat="45.85304" lon="5.83899">
        <ele>296.1235</ele>
        <time>2013-05-30T13:26:06Z</time>
      </trkpt>
      <trkpt lat="45.85322" lon="5.83907">
        <ele>295.39117</ele>
        <time>2013-05-30T13:26:09Z</time>
      </trkpt>
      <trkpt lat="45.85345" lon="5.83916">
        <ele>294.92142</ele>
        <time>2013-05-30T13:26:13Z</time>
      </trkpt>
      <trkpt lat="45.85365" lon="5.83925">
        <ele>294.53763</ele>
        <time>2013-05-30T13:26:17Z</time>
      </trkpt>
      <trkpt lat="45.85384" lon="5.83935">
        <ele>294.233</ele>
        <time>2013-05-30T13:26:21Z</time>
      </trkpt>
      <trkpt lat="45.85405" lon="5.83948">
        <ele>292.87527</ele>
        <time>2013-05-30T13:26:25Z</time>
      </trkpt>
      <trkpt lat="45.85427" lon="5.8395">
        <ele>293.11368</ele>
        <time>2013-05-30T13:26:29Z</time>
      </trkpt>
      <trkpt lat="45.85445" lon="5.8396">
        <ele>293.62073</ele>
        <time>2013-05-30T13:26:33Z</time>
      </trkpt>
      <trkpt lat="45.85466" lon="5.83966">
        <ele>293.99014</ele>
        <time>2013-05-30T13:26:37Z</time>
      </trkpt>
      <trkpt lat="45.85484" lon="5.83972">
        <ele>294.43555</ele>
        <time>2013-05-30T13:26:41Z</time>
      </trkpt>
      <trkpt lat="45.85504" lon="5.83978">
        <ele>295.98468</ele>
        <time>2013-05-30T13:26:45Z</time>
      </trkpt>
      <trkpt lat="45.85524" lon="5.83986">
        <ele>296.06506</ele>
        <time>2013-05-30T13:26:49Z</time>
      </trkpt>
      <trkpt lat="45.85543" lon="5.83993">
        <ele>294.62762</ele>
        <time>2013-05-30T13:26:53Z</time>
      </trkpt>
      <trkpt lat="45.85562" lon="5.84001">
        <ele>293.7814</ele>
        <time>2013-05-30T13:26:57Z</time>
      </trkpt>
      <trkpt lat="45.85581" lon="5.84007">
        <ele>293.90506</ele>
        <time>2013-05-30T13:27:01Z</time>
      </trkpt>
      <trkpt lat="45.85602" lon="5.84016">
        <ele>295.59653</ele>
        <time>2013-05-30T13:27:05Z</time>
      </trkpt>
      <trkpt lat="45.8562" lon="5.84024">
        <ele>296.9356</ele>
        <time>2013-05-30T13:27:09Z</time>
      </trkpt>
      <trkpt lat="45.85642" lon="5.84035">
        <ele>297.61752</ele>
        <time>2013-05-30T13:27:13Z</time>
      </trkpt>
      <trkpt lat="45.85662" lon="5.84045">
        <ele>298.51648</ele>
        <time>2013-05-30T13:27:17Z</time>
      </trkpt>
      <trkpt lat="45.85682" lon="5.84055">
        <ele>298.04233</ele>
        <time>2013-05-30T13:27:21Z</time>
      </trkpt>
      <trkpt lat="45.85702" lon="5.84064">
        <ele>297.76144</ele>
        <time>2013-05-30T13:27:25Z</time>
      </trkpt>
      <trkpt lat="45.85724" lon="5.84075">
        <ele>297.4706</ele>
        <time>2013-05-30T13:27:29Z</time>
      </trkpt>
      <trkpt lat="45.85744" lon="5.84085">
        <ele>298.0407</ele>
        <time>2013-05-30T13:27:33Z</time>
      </trkpt>
      <trkpt lat="45.85763" lon="5.84093">
        <ele>299.2535</ele>
        <time>2013-05-30T13:27:37Z</time>
      </trkpt>
      <trkpt lat="45.85782" lon="5.84103">
        <ele>299.2802</ele>
        <time>2013-05-30T13:27:41Z</time>
      </trkpt>
      <trkpt lat="45.85801" lon="5.84114">
        <ele>298.70428</ele>
        <time>2013-05-30T13:27:45Z</time>
      </trkpt>
      <trkpt lat="45.85819" lon="5.84124">
        <ele>298.8826</ele>
        <time>2013-05-30T13:27:49Z</time>
      </trkpt>
      <trkpt lat="45.85838" lon="5.84133">
        <ele>299.24957</ele>
        <time>2013-05-30T13:27:53Z</time>
      </trkpt>
      <trkpt lat="45.85859" lon="5.84142">
        <ele>298.87115</ele>
        <time>2013-05-30T13:27:57Z</time>
      </trkpt>
      <trkpt lat="45.85878" lon="5.84153">
        <ele>298.37604</ele>
        <time>2013-05-30T13:28:01Z</time>
      </trkpt>
      <trkpt lat="45.85897" lon="5.8416">
        <ele>298.44925</ele>
        <time>2013-05-30T13:28:04Z</time>
      </trkpt>
      <trkpt lat="45.85914" lon="5.84169">
        <ele>300.1286</ele>
        <time>2013-05-30T13:28:07Z</time>
      </trkpt>
      <trkpt lat="45.8593" lon="5.84181">
        <ele>300.3079</ele>
        <time>2013-05-30T13:28:11Z</time>
      </trkpt>
      <trkpt lat="45.85948" lon="5.84191">
        <ele>299.10522</ele>
        <time>2013-05-30T13:28:15Z</time>
      </trkpt>
      <trkpt lat="45.85966" lon="5.84199">
        <ele>298.10867</ele>
        <time>2013-05-30T13:28:19Z</time>
      </trkpt>
      <trkpt lat="45.85984" lon="5.8421">
        <ele>297.92813</ele>
        <time>2013-05-30T13:28:23Z</time>
      </trkpt>
      <trkpt lat="45.86005" lon="5.84219">
        <ele>297.855</ele>
        <time>2013-05-30T13:28:27Z</time>
      </trkpt>
      <trkpt lat="45.86025" lon="5.84227">
        <ele>296.9881</ele>
        <time>2013-05-30T13:28:31Z</time>
      </trkpt>
      <trkpt lat="45.86044" lon="5.84238">
        <ele>297.62357</ele>
        <time>2013-05-30T13:28:35Z</time>
      </trkpt>
      <trkpt lat="45.86066" lon="5.84247">
        <ele>298.08286</ele>
        <time>2013-05-30T13:28:39Z</time>
      </trkpt>
      <trkpt lat="45.86085" lon="5.84258">
        <ele>297.50122</ele>
        <time>2013-05-30T13:28:43Z</time>
      </trkpt>
      <trkpt lat="45.86105" lon="5.84267">
        <ele>298.20468</ele>
        <time>2013-05-30T13:28:47Z</time>
      </trkpt>
      <trkpt lat="45.86122" lon="5.84277">
        <ele>298.2273</ele>
        <time>2013-05-30T13:28:52Z</time>
      </trkpt>
      <trkpt lat="45.86141" lon="5.8428">
        <ele>297.97583</ele>
        <time>2013-05-30T13:28:56Z</time>
      </trkpt>
      <trkpt lat="45.86161" lon="5.84282">
        <ele>298.32242</ele>
        <time>2013-05-30T13:29:00Z</time>
      </trkpt>
      <trkpt lat="45.86179" lon="5.8428">
        <ele>298.71802</ele>
        <time>2013-05-30T13:29:04Z</time>
      </trkpt>
      <trkpt lat="45.86198" lon="5.84279">
        <ele>298.92407</ele>
        <time>2013-05-30T13:29:08Z</time>
      </trkpt>
      <trkpt lat="45.86217" lon="5.84274">
        <ele>298.9041</ele>
        <time>2013-05-30T13:29:12Z</time>
      </trkpt>
      <trkpt lat="45.86238" lon="5.84265">
        <ele>299.00714</ele>
        <time>2013-05-30T13:29:16Z</time>
      </trkpt>
      <trkpt lat="45.86257" lon="5.84258">
        <ele>299.2843</ele>
        <time>2013-05-30T13:29:20Z</time>
      </trkpt>
      <trkpt lat="45.86279" lon="5.84252">
        <ele>298.88397</ele>
        <time>2013-05-30T13:29:25Z</time>
      </trkpt>
      <trkpt lat="45.863" lon="5.84245">
        <ele>297.70352</ele>
        <time>2013-05-30T13:29:29Z</time>
      </trkpt>
      <trkpt lat="45.8632" lon="5.8424">
        <ele>297.2265</ele>
        <time>2013-05-30T13:29:33Z</time>
      </trkpt>
      <trkpt lat="45.86339" lon="5.84234">
        <ele>297.25214</ele>
        <time>2013-05-30T13:29:37Z</time>
      </trkpt>
      <trkpt lat="45.86358" lon="5.84229">
        <ele>296.13986</ele>
        <time>2013-05-30T13:30:38Z</time>
      </trkpt>
      <trkpt lat="45.86377" lon="5.84222">
        <ele>295.9572</ele>
        <time>2013-05-30T13:30:45Z</time>
      </trkpt>
      <trkpt lat="45.86398" lon="5.84216">
        <ele>296.17267</ele>
        <time>2013-05-30T13:30:51Z</time>
      </trkpt>
      <trkpt lat="45.86418" lon="5.8421">
        <ele>297.24167</ele>
        <time>2013-05-30T13:30:56Z</time>
      </trkpt>
      <trkpt lat="45.86436" lon="5.84208">
        <ele>297.23895</ele>
        <time>2013-05-30T13:31:00Z</time>
      </trkpt>
      <trkpt lat="45.86458" lon="5.84207">
        <ele>297.72516</ele>
        <time>2013-05-30T13:31:05Z</time>
      </trkpt>
      <trkpt lat="45.86478" lon="5.84211">
        <ele>298.44522</ele>
        <time>2013-05-30T13:31:10Z</time>
      </trkpt>
      <trkpt lat="45.865" lon="5.84214">
        <ele>298.40732</ele>
        <time>2013-05-30T13:31:15Z</time>
      </trkpt>
      <trkpt lat="45.8652" lon="5.84222">
        <ele>297.56003</ele>
        <time>2013-05-30T13:31:20Z</time>
      </trkpt>
      <trkpt lat="45.86538" lon="5.84228">
        <ele>297.20532</ele>
        <time>2013-05-30T13:31:24Z</time>
      </trkpt>
      <trkpt lat="45.86557" lon="5.84234">
        <ele>297.78644</ele>
        <time>2013-05-30T13:31:28Z</time>
      </trkpt>
      <trkpt lat="45.86577" lon="5.8424">
        <ele>297.68088</ele>
        <time>2013-05-30T13:31:32Z</time>
      </trkpt>
      <trkpt lat="45.86599" lon="5.84247">
        <ele>298.46933</ele>
        <time>2013-05-30T13:31:36Z</time>
      </trkpt>
      <trkpt lat="45.87187" lon="5.84328">
        <ele>303.32327</ele>
        <time>2013-05-30T13:33:44Z</time>
      </trkpt>
      <trkpt lat="45.87208" lon="5.84333">
        <ele>303.29565</ele>
        <time>2013-05-30T13:33:48Z</time>
      </trkpt>
      <trkpt lat="45.87227" lon="5.84339">
        <ele>303.7658</ele>
        <time>2013-05-30T13:33:52Z</time>
      </trkpt>
      <trkpt lat="45.87246" lon="5.84345">
        <ele>302.77902</ele>
        <time>2013-05-30T13:33:56Z</time>
      </trkpt>
      <trkpt lat="45.87266" lon="5.8435">
        <ele>302.6578</ele>
        <time>2013-05-30T13:34:00Z</time>
      </trkpt>
      <trkpt lat="45.87289" lon="5.84355">
        <ele>302.37064</ele>
        <time>2013-05-30T13:34:04Z</time>
      </trkpt>
      <trkpt lat="45.8731" lon="5.84361">
        <ele>301.9368</ele>
        <time>2013-05-30T13:34:08Z</time>
      </trkpt>
      <trkpt lat="45.87332" lon="5.84367">
        <ele>301.32297</ele>
        <time>2013-05-30T13:34:12Z</time>
      </trkpt>
      <trkpt lat="45.87355" lon="5.84369">
        <ele>301.05844</ele>
        <time>2013-05-30T13:34:16Z</time>
      </trkpt>
      <trkpt lat="45.87378" lon="5.84372">
        <ele>300.20364</ele>
        <time>2013-05-30T13:34:20Z</time>
      </trkpt>
      <trkpt lat="45.87402" lon="5.84376">
        <ele>300.4027</ele>
        <time>2013-05-30T13:34:24Z</time>
      </trkpt>
      <trkpt lat="45.87421" lon="5.84378">
        <ele>300.29333</ele>
        <time>2013-05-30T13:34:27Z</time>
      </trkpt>
      <trkpt lat="45.87439" lon="5.84381">
        <ele>300.44562</ele>
        <time>2013-05-30T13:34:30Z</time>
      </trkpt>
      <trkpt lat="45.87462" lon="5.84386">
        <ele>301.47888</ele>
        <time>2013-05-30T13:34:34Z</time>
      </trkpt>
      <trkpt lat="45.87486" lon="5.84392">
        <ele>301.07068</ele>
        <time>2013-05-30T13:34:38Z</time>
      </trkpt>
      <trkpt lat="45.87509" lon="5.84397">
        <ele>300.17157</ele>
        <time>2013-05-30T13:34:42Z</time>
      </trkpt>
      <trkpt lat="45.87527" lon="5.844">
        <ele>299.81613</ele>
        <time>2013-05-30T13:34:45Z</time>
      </trkpt>
      <trkpt lat="45.87545" lon="5.84405">
        <ele>298.8568</ele>
        <time>2013-05-30T13:34:48Z</time>
      </trkpt>
      <trkpt lat="45.87563" lon="5.84407">
        <ele>298.6552</ele>
        <time>2013-05-30T13:34:51Z</time>
      </trkpt>
      <trkpt lat="45.87587" lon="5.84409">
        <ele>300.22412</ele>
        <time>2013-05-30T13:34:55Z</time>
      </trkpt>
      <trkpt lat="45.87611" lon="5.84413">
        <ele>299.926</ele>
        <time>2013-05-30T13:34:59Z</time>
      </trkpt>
      <trkpt lat="45.87631" lon="5.84419">
        <ele>300.39767</ele>
        <time>2013-05-30T13:35:03Z</time>
      </trkpt>
      <trkpt lat="45.87653" lon="5.84424">
        <ele>300.84262</ele>
        <time>2013-05-30T13:35:07Z</time>
      </trkpt>
      <trkpt lat="45.87672" lon="5.84423">
        <ele>300.05548</ele>
        <time>2013-05-30T13:35:10Z</time>
      </trkpt>
      <trkpt lat="45.87695" lon="5.84426">
        <ele>299.22342</ele>
        <time>2013-05-30T13:35:14Z</time>
      </trkpt>
      <trkpt lat="45.87717" lon="5.8443">
        <ele>299.04843</ele>
        <time>2013-05-30T13:35:18Z</time>
      </trkpt>
      <trkpt lat="45.87739" lon="5.84431">
        <ele>298.84305</ele>
        <time>2013-05-30T13:35:22Z</time>
      </trkpt>
      <trkpt lat="45.87757" lon="5.8443">
        <ele>298.1088</ele>
        <time>2013-05-30T13:35:25Z</time>
      </trkpt>
      <trkpt lat="45.87776" lon="5.84431">
        <ele>297.2959</ele>
        <time>2013-05-30T13:35:28Z</time>
      </trkpt>
      <trkpt lat="45.878" lon="5.84431">
        <ele>296.44244</ele>
        <time>2013-05-30T13:35:32Z</time>
      </trkpt>
      <trkpt lat="45.87823" lon="5.84425">
        <ele>296.79352</ele>
        <time>2013-05-30T13:35:36Z</time>
      </trkpt>
      <trkpt lat="45.87845" lon="5.84424">
        <ele>296.64716</ele>
        <time>2013-05-30T13:35:40Z</time>
      </trkpt>
      <trkpt lat="45.87864" lon="5.84422">
        <ele>296.2528</ele>
        <time>2013-05-30T13:35:44Z</time>
      </trkpt>
      <trkpt lat="45.87882" lon="5.84419">
        <ele>297.21475</ele>
        <time>2013-05-30T13:35:48Z</time>
      </trkpt>
      <trkpt lat="45.879" lon="5.84418">
        <ele>298.48593</ele>
        <time>2013-05-30T13:35:52Z</time>
      </trkpt>
      <trkpt lat="45.87919" lon="5.84415">
        <ele>299.62048</ele>
        <time>2013-05-30T13:35:57Z</time>
      </trkpt>
      <trkpt lat="45.87937" lon="5.8441">
        <ele>301.85526</ele>
        <time>2013-05-30T13:36:02Z</time>
      </trkpt>
      <trkpt lat="45.8796" lon="5.84409">
        <ele>301.6671</ele>
        <time>2013-05-30T13:36:07Z</time>
      </trkpt>
      <trkpt lat="45.87978" lon="5.84414">
        <ele>302.1841</ele>
        <time>2013-05-30T13:36:11Z</time>
      </trkpt>
      <trkpt lat="45.88" lon="5.84417">
        <ele>304.6105</ele>
        <time>2013-05-30T13:36:17Z</time>
      </trkpt>
      <trkpt lat="45.88018" lon="5.84415">
        <ele>304.42014</ele>
        <time>2013-05-30T13:36:21Z</time>
      </trkpt>
      <trkpt lat="45.88037" lon="5.84399">
        <ele>303.85165</ele>
        <time>2013-05-30T13:36:26Z</time>
      </trkpt>
      <trkpt lat="45.88054" lon="5.84386">
        <ele>302.67026</ele>
        <time>2013-05-30T13:36:30Z</time>
      </trkpt>
      <trkpt lat="45.88074" lon="5.84372">
        <ele>301.4824</ele>
        <time>2013-05-30T13:36:35Z</time>
      </trkpt>
      <trkpt lat="45.88094" lon="5.84358">
        <ele>300.32327</ele>
        <time>2013-05-30T13:36:40Z</time>
      </trkpt>
      <trkpt lat="45.8811" lon="5.84345">
        <ele>299.14212</ele>
        <time>2013-05-30T13:36:44Z</time>
      </trkpt>
      <trkpt lat="45.88129" lon="5.84332">
        <ele>299.1641</ele>
        <time>2013-05-30T13:36:49Z</time>
      </trkpt>
      <trkpt lat="45.88149" lon="5.84321">
        <ele>299.5363</ele>
        <time>2013-05-30T13:36:53Z</time>
      </trkpt>
      <trkpt lat="45.88168" lon="5.84316">
        <ele>300.09976</ele>
        <time>2013-05-30T13:36:57Z</time>
      </trkpt>
      <trkpt lat="45.88187" lon="5.84319">
        <ele>299.50458</ele>
        <time>2013-05-30T13:37:00Z</time>
      </trkpt>
      <trkpt lat="45.88209" lon="5.84328">
        <ele>298.81238</ele>
        <time>2013-05-30T13:37:04Z</time>
      </trkpt>
      <trkpt lat="45.88229" lon="5.84326">
        <ele>298.7543</ele>
        <time>2013-05-30T13:37:08Z</time>
      </trkpt>
      <trkpt lat="45.8825" lon="5.84326">
        <ele>298.5664</ele>
        <time>2013-05-30T13:37:12Z</time>
      </trkpt>
      <trkpt lat="45.8827" lon="5.84324">
        <ele>298.4378</ele>
        <time>2013-05-30T13:37:16Z</time>
      </trkpt>
      <trkpt lat="45.8829" lon="5.84321">
        <ele>298.61978</ele>
        <time>2013-05-30T13:37:20Z</time>
      </trkpt>
      <trkpt lat="45.8831" lon="5.84321">
        <ele>297.92657</ele>
        <time>2013-05-30T13:37:24Z</time>
      </trkpt>
      <trkpt lat="45.88331" lon="5.84322">
        <ele>297.91232</ele>
        <time>2013-05-30T13:37:28Z</time>
      </trkpt>
      <trkpt lat="45.88351" lon="5.8432">
        <ele>297.9285</ele>
        <time>2013-05-30T13:37:32Z</time>
      </trkpt>
      <trkpt lat="45.8837" lon="5.84321">
        <ele>297.8387</ele>
        <time>2013-05-30T13:37:36Z</time>
      </trkpt>
      <trkpt lat="45.8839" lon="5.84319">
        <ele>298.12375</ele>
        <time>2013-05-30T13:37:41Z</time>
      </trkpt>
      <trkpt lat="45.88411" lon="5.84318">
        <ele>299.48172</ele>
        <time>2013-05-30T13:37:45Z</time>
      </trkpt>
      <trkpt lat="45.88429" lon="5.84315">
        <ele>302.11884</ele>
        <time>2013-05-30T13:37:49Z</time>
      </trkpt>
      <trkpt lat="45.8845" lon="5.84313">
        <ele>303.2583</ele>
        <time>2013-05-30T13:37:53Z</time>
      </trkpt>
      <trkpt lat="45.88472" lon="5.84314">
        <ele>302.87314</ele>
        <time>2013-05-30T13:37:57Z</time>
      </trkpt>
      <trkpt lat="45.88495" lon="5.84315">
        <ele>302.15594</ele>
        <time>2013-05-30T13:38:01Z</time>
      </trkpt>
      <trkpt lat="45.88514" lon="5.84312">
        <ele>300.77982</ele>
        <time>2013-05-30T13:38:05Z</time>
      </trkpt>
      <trkpt lat="45.88536" lon="5.8431">
        <ele>299.45532</ele>
        <time>2013-05-30T13:38:09Z</time>
      </trkpt>
      <trkpt lat="45.88559" lon="5.84308">
        <ele>297.74097</ele>
        <time>2013-05-30T13:38:14Z</time>
      </trkpt>
      <trkpt lat="45.88578" lon="5.84307">
        <ele>297.0325</ele>
        <time>2013-05-30T13:38:18Z</time>
      </trkpt>
      <trkpt lat="45.88597" lon="5.84307">
        <ele>295.91107</ele>
        <time>2013-05-30T13:38:22Z</time>
      </trkpt>
      <trkpt lat="45.88618" lon="5.84306">
        <ele>295.55936</ele>
        <time>2013-05-30T13:38:26Z</time>
      </trkpt>
      <trkpt lat="45.88641" lon="5.84308">
        <ele>294.81604</ele>
        <time>2013-05-30T13:38:30Z</time>
      </trkpt>
      <trkpt lat="45.8866" lon="5.8431">
        <ele>295.15</ele>
        <time>2013-05-30T13:38:34Z</time>
      </trkpt>
      <trkpt lat="45.8868" lon="5.8431">
        <ele>294.8713</ele>
        <time>2013-05-30T13:38:38Z</time>
      </trkpt>
      <trkpt lat="45.88698" lon="5.84311">
        <ele>296.3753</ele>
        <time>2013-05-30T13:38:42Z</time>
      </trkpt>
      <trkpt lat="45.88718" lon="5.84312">
        <ele>296.91504</ele>
        <time>2013-05-30T13:38:47Z</time>
      </trkpt>
      <trkpt lat="45.88739" lon="5.84315">
        <ele>297.44342</ele>
        <time>2013-05-30T13:38:53Z</time>
      </trkpt>
      <trkpt lat="45.88758" lon="5.84316">
        <ele>298.16977</ele>
        <time>2013-05-30T13:38:58Z</time>
      </trkpt>
      <trkpt lat="45.88779" lon="5.84317">
        <ele>298.47946</ele>
        <time>2013-05-30T13:39:03Z</time>
      </trkpt>
      <trkpt lat="45.88799" lon="5.84321">
        <ele>298.77823</ele>
        <time>2013-05-30T13:39:08Z</time>
      </trkpt>
      <trkpt lat="45.88818" lon="5.84323">
        <ele>298.4724</ele>
        <time>2013-05-30T13:39:12Z</time>
      </trkpt>
      <trkpt lat="45.88839" lon="5.84326">
        <ele>296.99597</ele>
        <time>2013-05-30T13:39:16Z</time>
      </trkpt>
      <trkpt lat="45.88861" lon="5.84329">
        <ele>296.52255</ele>
        <time>2013-05-30T13:39:20Z</time>
      </trkpt>
      <trkpt lat="45.88883" lon="5.8433">
        <ele>296.70636</ele>
        <time>2013-05-30T13:39:24Z</time>
      </trkpt>
      <trkpt lat="45.88904" lon="5.84331">
        <ele>296.6727</ele>
        <time>2013-05-30T13:39:28Z</time>
      </trkpt>
      <trkpt lat="45.88925" lon="5.8433">
        <ele>297.00113</ele>
        <time>2013-05-30T13:39:32Z</time>
      </trkpt>
      <trkpt lat="45.88945" lon="5.84322">
        <ele>297.88474</ele>
        <time>2013-05-30T13:39:36Z</time>
      </trkpt>
      <trkpt lat="45.88965" lon="5.84316">
        <ele>298.81198</ele>
        <time>2013-05-30T13:39:40Z</time>
      </trkpt>
      <trkpt lat="45.88984" lon="5.84304">
        <ele>298.9522</ele>
        <time>2013-05-30T13:39:44Z</time>
      </trkpt>
      <trkpt lat="45.89004" lon="5.84301">
        <ele>299.69037</ele>
        <time>2013-05-30T13:39:48Z</time>
      </trkpt>
      <trkpt lat="45.89024" lon="5.84302">
        <ele>299.9958</ele>
        <time>2013-05-30T13:39:52Z</time>
      </trkpt>
      <trkpt lat="45.89044" lon="5.84302">
        <ele>300.08817</ele>
        <time>2013-05-30T13:39:57Z</time>
      </trkpt>
      <trkpt lat="45.89061" lon="5.84312">
        <ele>299.4075</ele>
        <time>2013-05-30T13:40:00Z</time>
      </trkpt>
      <trkpt lat="45.8908" lon="5.84319">
        <ele>297.85666</ele>
        <time>2013-05-30T13:40:04Z</time>
      </trkpt>
      <trkpt lat="45.89099" lon="5.84323">
        <ele>297.66638</ele>
        <time>2013-05-30T13:40:08Z</time>
      </trkpt>
      <trkpt lat="45.89118" lon="5.84331">
        <ele>298.4145</ele>
        <time>2013-05-30T13:40:13Z</time>
      </trkpt>
      <trkpt lat="45.89137" lon="5.84338">
        <ele>298.1702</ele>
        <time>2013-05-30T13:40:17Z</time>
      </trkpt>
      <trkpt lat="45.89157" lon="5.84343">
        <ele>298.67075</ele>
        <time>2013-05-30T13:40:22Z</time>
      </trkpt>
      <trkpt lat="45.89177" lon="5.84342">
        <ele>299.49893</ele>
        <time>2013-05-30T13:40:27Z</time>
      </trkpt>
      <trkpt lat="45.89196" lon="5.84335">
        <ele>301.18997</ele>
        <time>2013-05-30T13:40:32Z</time>
      </trkpt>
      <trkpt lat="45.89217" lon="5.84329">
        <ele>301.54214</ele>
        <time>2013-05-30T13:40:36Z</time>
      </trkpt>
      <trkpt lat="45.89237" lon="5.84323">
        <ele>302.32504</ele>
        <time>2013-05-30T13:40:40Z</time>
      </trkpt>
      <trkpt lat="45.89258" lon="5.84317">
        <ele>302.78644</ele>
        <time>2013-05-30T13:40:44Z</time>
      </trkpt>
      <trkpt lat="45.89278" lon="5.84312">
        <ele>302.8801</ele>
        <time>2013-05-30T13:40:48Z</time>
      </trkpt>
      <trkpt lat="45.89299" lon="5.84306">
        <ele>302.86362</ele>
        <time>2013-05-30T13:40:52Z</time>
      </trkpt>
      <trkpt lat="45.89321" lon="5.84299">
        <ele>302.62207</ele>
        <time>2013-05-30T13:40:56Z</time>
      </trkpt>
      <trkpt lat="45.89343" lon="5.84292">
        <ele>302.86948</ele>
        <time>2013-05-30T13:41:00Z</time>
      </trkpt>
      <trkpt lat="45.89366" lon="5.84286">
        <ele>302.53174</ele>
        <time>2013-05-30T13:41:04Z</time>
      </trkpt>
      <trkpt lat="45.89383" lon="5.84281">
        <ele>302.44153</ele>
        <time>2013-05-30T13:41:07Z</time>
      </trkpt>
      <trkpt lat="45.89407" lon="5.84277">
        <ele>301.75296</ele>
        <time>2013-05-30T13:41:11Z</time>
      </trkpt>
      <trkpt lat="45.8943" lon="5.84269">
        <ele>301.6726</ele>
        <time>2013-05-30T13:41:15Z</time>
      </trkpt>
      <trkpt lat="45.89453" lon="5.84262">
        <ele>301.4171</ele>
        <time>2013-05-30T13:41:19Z</time>
      </trkpt>
      <trkpt lat="45.89476" lon="5.84255">
        <ele>301.02728</ele>
        <time>2013-05-30T13:41:23Z</time>
      </trkpt>
      <trkpt lat="45.895" lon="5.84249">
        <ele>300.50317</ele>
        <time>2013-05-30T13:41:27Z</time>
      </trkpt>
      <trkpt lat="45.89518" lon="5.84243">
        <ele>300.06384</ele>
        <time>2013-05-30T13:41:30Z</time>
      </trkpt>
      <trkpt lat="45.89536" lon="5.84238">
        <ele>299.73785</ele>
        <time>2013-05-30T13:41:33Z</time>
      </trkpt>
      <trkpt lat="45.89554" lon="5.84234">
        <ele>299.68787</ele>
        <time>2013-05-30T13:41:36Z</time>
      </trkpt>
      <trkpt lat="45.89572" lon="5.84228">
        <ele>299.68393</ele>
        <time>2013-05-30T13:41:39Z</time>
      </trkpt>
      <trkpt lat="45.8959" lon="5.84223">
        <ele>299.59167</ele>
        <time>2013-05-30T13:41:42Z</time>
      </trkpt>
      <trkpt lat="45.89608" lon="5.84218">
        <ele>299.53555</ele>
        <time>2013-05-30T13:41:45Z</time>
      </trkpt>
      <trkpt lat="45.89629" lon="5.84212">
        <ele>299.79248</ele>
        <time>2013-05-30T13:41:49Z</time>
      </trkpt>
      <trkpt lat="45.89651" lon="5.84206">
        <ele>299.69373</ele>
        <time>2013-05-30T13:41:53Z</time>
      </trkpt>
      <trkpt lat="45.89672" lon="5.842">
        <ele>299.91794</ele>
        <time>2013-05-30T13:41:57Z</time>
      </trkpt>
      <trkpt lat="45.89694" lon="5.84194">
        <ele>300.28693</ele>
        <time>2013-05-30T13:42:01Z</time>
      </trkpt>
      <trkpt lat="45.89716" lon="5.84187">
        <ele>300.7439</ele>
        <time>2013-05-30T13:42:05Z</time>
      </trkpt>
      <trkpt lat="45.89737" lon="5.84181">
        <ele>301.05334</ele>
        <time>2013-05-30T13:42:09Z</time>
      </trkpt>
      <trkpt lat="45.89759" lon="5.84175">
        <ele>301.00827</ele>
        <time>2013-05-30T13:42:13Z</time>
      </trkpt>
      <trkpt lat="45.8978" lon="5.84169">
        <ele>300.81863</ele>
        <time>2013-05-30T13:42:17Z</time>
      </trkpt>
      <trkpt lat="45.89802" lon="5.84164">
        <ele>300.74066</ele>
        <time>2013-05-30T13:42:21Z</time>
      </trkpt>
      <trkpt lat="45.89823" lon="5.84158">
        <ele>300.666</ele>
        <time>2013-05-30T13:42:25Z</time>
      </trkpt>
      <trkpt lat="45.89845" lon="5.84152">
        <ele>300.50565</ele>
        <time>2013-05-30T13:42:29Z</time>
      </trkpt>
      <trkpt lat="45.89866" lon="5.84146">
        <ele>300.33304</ele>
        <time>2013-05-30T13:42:33Z</time>
      </trkpt>
      <trkpt lat="45.89886" lon="5.8414">
        <ele>300.30576</ele>
        <time>2013-05-30T13:42:37Z</time>
      </trkpt>
      <trkpt lat="45.89908" lon="5.84135">
        <ele>299.7866</ele>
        <time>2013-05-30T13:42:41Z</time>
      </trkpt>
      <trkpt lat="45.89928" lon="5.84127">
        <ele>299.15436</ele>
        <time>2013-05-30T13:42:45Z</time>
      </trkpt>
      <trkpt lat="45.89947" lon="5.84124">
        <ele>298.987</ele>
        <time>2013-05-30T13:42:48Z</time>
      </trkpt>
      <trkpt lat="45.89968" lon="5.84117">
        <ele>298.90292</ele>
        <time>2013-05-30T13:42:52Z</time>
      </trkpt>
      <trkpt lat="45.89989" lon="5.84113">
        <ele>297.91302</ele>
        <time>2013-05-30T13:42:56Z</time>
      </trkpt>
      <trkpt lat="45.9001" lon="5.84108">
        <ele>297.76898</ele>
        <time>2013-05-30T13:43:00Z</time>
      </trkpt>
      <trkpt lat="45.90033" lon="5.84103">
        <ele>297.2976</ele>
        <time>2013-05-30T13:43:04Z</time>
      </trkpt>
      <trkpt lat="45.90055" lon="5.84098">
        <ele>297.4391</ele>
        <time>2013-05-30T13:43:08Z</time>
      </trkpt>
      <trkpt lat="45.90078" lon="5.84092">
        <ele>297.58817</ele>
        <time>2013-05-30T13:43:12Z</time>
      </trkpt>
      <trkpt lat="45.90099" lon="5.84086">
        <ele>298.256</ele>
        <time>2013-05-30T13:43:16Z</time>
      </trkpt>
      <trkpt lat="45.90121" lon="5.84079">
        <ele>298.4736</ele>
        <time>2013-05-30T13:43:20Z</time>
      </trkpt>
      <trkpt lat="45.90144" lon="5.84073">
        <ele>298.84555</ele>
        <time>2013-05-30T13:43:24Z</time>
      </trkpt>
      <trkpt lat="45.90167" lon="5.84066">
        <ele>299.15463</ele>
        <time>2013-05-30T13:43:28Z</time>
      </trkpt>
      <trkpt lat="45.90188" lon="5.8406">
        <ele>299.61533</ele>
        <time>2013-05-30T13:43:32Z</time>
      </trkpt>
      <trkpt lat="45.90209" lon="5.84054">
        <ele>300.21112</ele>
        <time>2013-05-30T13:43:36Z</time>
      </trkpt>
      <trkpt lat="45.90231" lon="5.84048">
        <ele>300.48788</ele>
        <time>2013-05-30T13:43:40Z</time>
      </trkpt>
      <trkpt lat="45.90253" lon="5.84041">
        <ele>301.0579</ele>
        <time>2013-05-30T13:43:44Z</time>
      </trkpt>
      <trkpt lat="45.90276" lon="5.84034">
        <ele>301.45856</ele>
        <time>2013-05-30T13:43:48Z</time>
      </trkpt>
      <trkpt lat="45.90298" lon="5.84027">
        <ele>301.42984</ele>
        <time>2013-05-30T13:43:52Z</time>
      </trkpt>
      <trkpt lat="45.90321" lon="5.84019">
        <ele>301.61725</ele>
        <time>2013-05-30T13:43:56Z</time>
      </trkpt>
      <trkpt lat="45.90342" lon="5.84013">
        <ele>301.66016</ele>
        <time>2013-05-30T13:44:00Z</time>
      </trkpt>
      <trkpt lat="45.90364" lon="5.84007">
        <ele>301.2866</ele>
        <time>2013-05-30T13:44:04Z</time>
      </trkpt>
      <trkpt lat="45.90385" lon="5.84001">
        <ele>301.03326</ele>
        <time>2013-05-30T13:44:08Z</time>
      </trkpt>
      <trkpt lat="45.90407" lon="5.83997">
        <ele>301.52106</ele>
        <time>2013-05-30T13:44:12Z</time>
      </trkpt>
      <trkpt lat="45.90427" lon="5.8399">
        <ele>302.1313</ele>
        <time>2013-05-30T13:44:16Z</time>
      </trkpt>
      <trkpt lat="45.90447" lon="5.83988">
        <ele>302.4275</ele>
        <time>2013-05-30T13:44:20Z</time>
      </trkpt>
      <trkpt lat="45.90466" lon="5.83986">
        <ele>301.95633</ele>
        <time>2013-05-30T13:44:24Z</time>
      </trkpt>
      <trkpt lat="45.90485" lon="5.83984">
        <ele>302.18268</ele>
        <time>2013-05-30T13:44:28Z</time>
      </trkpt>
      <trkpt lat="45.90503" lon="5.83983">
        <ele>302.48593</ele>
        <time>2013-05-30T13:44:32Z</time>
      </trkpt>
      <trkpt lat="45.90523" lon="5.83982">
        <ele>302.62485</ele>
        <time>2013-05-30T13:44:36Z</time>
      </trkpt>
      <trkpt lat="45.90541" lon="5.83981">
        <ele>303.03677</ele>
        <time>2013-05-30T13:44:40Z</time>
      </trkpt>
      <trkpt lat="45.90563" lon="5.83979">
        <ele>303.96225</ele>
        <time>2013-05-30T13:44:45Z</time>
      </trkpt>
      <trkpt lat="45.90584" lon="5.83977">
        <ele>305.338</ele>
        <time>2013-05-30T13:44:50Z</time>
      </trkpt>
      <trkpt lat="45.90604" lon="5.83975">
        <ele>306.3345</ele>
        <time>2013-05-30T13:44:55Z</time>
      </trkpt>
      <trkpt lat="45.90625" lon="5.83974">
        <ele>307.61288</ele>
        <time>2013-05-30T13:45:01Z</time>
      </trkpt>
      <trkpt lat="45.90644" lon="5.83973">
        <ele>309.0995</ele>
        <time>2013-05-30T13:45:07Z</time>
      </trkpt>
      <trkpt lat="45.90663" lon="5.8397">
        <ele>311.21655</ele>
        <time>2013-05-30T13:45:14Z</time>
      </trkpt>
      <trkpt lat="45.90682" lon="5.83968">
        <ele>312.77466</ele>
        <time>2013-05-30T13:45:20Z</time>
      </trkpt>
      <trkpt lat="45.90701" lon="5.83966">
        <ele>315.20004</ele>
        <time>2013-05-30T13:45:26Z</time>
      </trkpt>
      <trkpt lat="45.9072" lon="5.83963">
        <ele>317.04602</ele>
        <time>2013-05-30T13:45:32Z</time>
      </trkpt>
      <trkpt lat="45.90738" lon="5.8396">
        <ele>318.20953</ele>
        <time>2013-05-30T13:45:38Z</time>
      </trkpt>
      <trkpt lat="45.90757" lon="5.83959">
        <ele>318.9803</ele>
        <time>2013-05-30T13:45:43Z</time>
      </trkpt>
      <trkpt lat="45.90777" lon="5.83957">
        <ele>319.27423</ele>
        <time>2013-05-30T13:45:49Z</time>
      </trkpt>
      <trkpt lat="45.90798" lon="5.83956">
        <ele>319.23846</ele>
        <time>2013-05-30T13:45:55Z</time>
      </trkpt>
      <trkpt lat="45.90817" lon="5.83954">
        <ele>319.51062</ele>
        <time>2013-05-30T13:46:01Z</time>
      </trkpt>
      <trkpt lat="45.90835" lon="5.83953">
        <ele>320.00296</ele>
        <time>2013-05-30T13:46:07Z</time>
      </trkpt>
      <trkpt lat="45.90854" lon="5.8395">
        <ele>322.18396</ele>
        <time>2013-05-30T13:46:14Z</time>
      </trkpt>
      <trkpt lat="45.90874" lon="5.8395">
        <ele>323.0047</ele>
        <time>2013-05-30T13:46:21Z</time>
      </trkpt>
      <trkpt lat="45.90965" lon="5.83954">
        <ele>325.41925</ele>
        <time>2013-05-30T13:46:57Z</time>
      </trkpt>
      <trkpt lat="45.90983" lon="5.83961">
        <ele>332.70703</ele>
        <time>2013-05-30T13:47:04Z</time>
      </trkpt>
      <trkpt lat="45.91001" lon="5.83966">
        <ele>333.96332</ele>
        <time>2013-05-30T13:47:11Z</time>
      </trkpt>
      <trkpt lat="45.91019" lon="5.83967">
        <ele>332.36884</ele>
        <time>2013-05-30T13:47:19Z</time>
      </trkpt>
      <trkpt lat="45.91038" lon="5.83968">
        <ele>334.58392</ele>
        <time>2013-05-30T13:47:27Z</time>
      </trkpt>
      <trkpt lat="45.91056" lon="5.83971">
        <ele>336.28278</ele>
        <time>2013-05-30T13:47:34Z</time>
      </trkpt>
      <trkpt lat="45.91075" lon="5.83975">
        <ele>336.2026</ele>
        <time>2013-05-30T13:47:41Z</time>
      </trkpt>
      <trkpt lat="45.91095" lon="5.83977">
        <ele>337.00253</ele>
        <time>2013-05-30T13:47:48Z</time>
      </trkpt>
      <trkpt lat="45.91115" lon="5.83978">
        <ele>339.09186</ele>
        <time>2013-05-30T13:47:55Z</time>
      </trkpt>
      <trkpt lat="45.91133" lon="5.83974">
        <ele>342.96945</ele>
        <time>2013-05-30T13:48:03Z</time>
      </trkpt>
      <trkpt lat="45.9115" lon="5.83964">
        <ele>346.13004</ele>
        <time>2013-05-30T13:48:10Z</time>
      </trkpt>
      <trkpt lat="45.91167" lon="5.83952">
        <ele>346.06955</ele>
        <time>2013-05-30T13:48:16Z</time>
      </trkpt>
      <trkpt lat="45.91185" lon="5.83939">
        <ele>346.8694</ele>
        <time>2013-05-30T13:48:23Z</time>
      </trkpt>
      <trkpt lat="45.91205" lon="5.83933">
        <ele>346.0834</ele>
        <time>2013-05-30T13:48:30Z</time>
      </trkpt>
      <trkpt lat="45.91224" lon="5.83932">
        <ele>345.51974</ele>
        <time>2013-05-30T13:48:36Z</time>
      </trkpt>
      <trkpt lat="45.91245" lon="5.83934">
        <ele>345.12048</ele>
        <time>2013-05-30T13:48:43Z</time>
      </trkpt>
      <trkpt lat="45.91263" lon="5.83938">
        <ele>344.2977</ele>
        <time>2013-05-30T13:48:49Z</time>
      </trkpt>
      <trkpt lat="45.91281" lon="5.83942">
        <ele>343.33295</ele>
        <time>2013-05-30T13:48:54Z</time>
      </trkpt>
      <trkpt lat="45.91299" lon="5.83946">
        <ele>343.1087</ele>
        <time>2013-05-30T13:48:59Z</time>
      </trkpt>
      <trkpt lat="45.91319" lon="5.83947">
        <ele>342.9466</ele>
        <time>2013-05-30T13:49:04Z</time>
      </trkpt>
      <trkpt lat="45.9134" lon="5.83948">
        <ele>342.42004</ele>
        <time>2013-05-30T13:49:09Z</time>
      </trkpt>
      <trkpt lat="45.91361" lon="5.8395">
        <ele>340.7368</ele>
        <time>2013-05-30T13:49:14Z</time>
      </trkpt>
      <trkpt lat="45.91381" lon="5.83954">
        <ele>339.95187</ele>
        <time>2013-05-30T13:49:18Z</time>
      </trkpt>
      <trkpt lat="45.91399" lon="5.83955">
        <ele>338.99844</ele>
        <time>2013-05-30T13:49:22Z</time>
      </trkpt>
      <trkpt lat="45.91419" lon="5.83956">
        <ele>338.28177</ele>
        <time>2013-05-30T13:49:27Z</time>
      </trkpt>
      <trkpt lat="45.91439" lon="5.83955">
        <ele>337.36884</ele>
        <time>2013-05-30T13:49:31Z</time>
      </trkpt>
      <trkpt lat="45.91459" lon="5.83952">
        <ele>336.8628</ele>
        <time>2013-05-30T13:49:35Z</time>
      </trkpt>
      <trkpt lat="45.91478" lon="5.8395">
        <ele>336.498</ele>
        <time>2013-05-30T13:49:39Z</time>
      </trkpt>
      <trkpt lat="45.91499" lon="5.83946">
        <ele>336.5935</ele>
        <time>2013-05-30T13:49:43Z</time>
      </trkpt>
      <trkpt lat="45.91519" lon="5.83942">
        <ele>336.9655</ele>
        <time>2013-05-30T13:49:47Z</time>
      </trkpt>
      <trkpt lat="45.91539" lon="5.83937">
        <ele>337.2922</ele>
        <time>2013-05-30T13:49:51Z</time>
      </trkpt>
      <trkpt lat="45.91561" lon="5.83932">
        <ele>337.28464</ele>
        <time>2013-05-30T13:49:55Z</time>
      </trkpt>
      <trkpt lat="45.91581" lon="5.83928">
        <ele>337.38928</ele>
        <time>2013-05-30T13:49:59Z</time>
      </trkpt>
      <trkpt lat="45.91601" lon="5.83924">
        <ele>338.0099</ele>
        <time>2013-05-30T13:50:03Z</time>
      </trkpt>
      <trkpt lat="45.91623" lon="5.8392">
        <ele>338.13907</ele>
        <time>2013-05-30T13:50:07Z</time>
      </trkpt>
      <trkpt lat="45.91646" lon="5.83915">
        <ele>337.7225</ele>
        <time>2013-05-30T13:50:11Z</time>
      </trkpt>
      <trkpt lat="45.91664" lon="5.83911">
        <ele>337.37668</ele>
        <time>2013-05-30T13:50:14Z</time>
      </trkpt>
      <trkpt lat="45.91683" lon="5.83907">
        <ele>336.6277</ele>
        <time>2013-05-30T13:50:17Z</time>
      </trkpt>
      <trkpt lat="45.91702" lon="5.83903">
        <ele>335.6726</ele>
        <time>2013-05-30T13:50:20Z</time>
      </trkpt>
      <trkpt lat="45.91722" lon="5.839">
        <ele>335.14</ele>
        <time>2013-05-30T13:50:23Z</time>
      </trkpt>
      <trkpt lat="45.91742" lon="5.83894">
        <ele>335.81064</ele>
        <time>2013-05-30T13:50:26Z</time>
      </trkpt>
      <trkpt lat="45.91766" lon="5.83888">
        <ele>337.06625</ele>
        <time>2013-05-30T13:50:30Z</time>
      </trkpt>
      <trkpt lat="45.91791" lon="5.83885">
        <ele>338.5026</ele>
        <time>2013-05-30T13:50:34Z</time>
      </trkpt>
      <trkpt lat="45.91816" lon="5.83881">
        <ele>338.65424</ele>
        <time>2013-05-30T13:50:37Z</time>
      </trkpt>
      <trkpt lat="45.91841" lon="5.83877">
        <ele>340.2807</ele>
        <time>2013-05-30T13:50:40Z</time>
      </trkpt>
      <trkpt lat="45.91862" lon="5.83866">
        <ele>340.63403</ele>
        <time>2013-05-30T13:50:43Z</time>
      </trkpt>
      <trkpt lat="45.9188" lon="5.83855">
        <ele>341.07217</ele>
        <time>2013-05-30T13:50:46Z</time>
      </trkpt>
      <trkpt lat="45.91898" lon="5.83844">
        <ele>341.03513</ele>
        <time>2013-05-30T13:50:49Z</time>
      </trkpt>
      <trkpt lat="45.91919" lon="5.83836">
        <ele>340.34003</ele>
        <time>2013-05-30T13:50:53Z</time>
      </trkpt>
      <trkpt lat="45.91939" lon="5.8383">
        <ele>339.699</ele>
        <time>2013-05-30T13:50:57Z</time>
      </trkpt>
      <trkpt lat="45.91959" lon="5.83826">
        <ele>338.8692</ele>
        <time>2013-05-30T13:51:01Z</time>
      </trkpt>
      <trkpt lat="45.91977" lon="5.83823">
        <ele>337.90863</ele>
        <time>2013-05-30T13:51:05Z</time>
      </trkpt>
      <trkpt lat="45.91996" lon="5.83818">
        <ele>337.68164</ele>
        <time>2013-05-30T13:51:09Z</time>
      </trkpt>
      <trkpt lat="45.92016" lon="5.83813">
        <ele>337.42114</ele>
        <time>2013-05-30T13:51:13Z</time>
      </trkpt>
      <trkpt lat="45.92036" lon="5.83809">
        <ele>337.13052</ele>
        <time>2013-05-30T13:51:17Z</time>
      </trkpt>
      <trkpt lat="45.92055" lon="5.83805">
        <ele>337.37097</ele>
        <time>2013-05-30T13:51:21Z</time>
      </trkpt>
      <trkpt lat="45.92074" lon="5.838">
        <ele>337.23615</ele>
        <time>2013-05-30T13:51:25Z</time>
      </trkpt>
      <trkpt lat="45.92206" lon="5.83767">
        <ele>338.77618</ele>
        <time>2013-05-30T13:51:56Z</time>
      </trkpt>
      <trkpt lat="45.92226" lon="5.83764">
        <ele>339.74738</ele>
        <time>2013-05-30T13:52:02Z</time>
      </trkpt>
      <trkpt lat="45.92244" lon="5.8376">
        <ele>340.90704</ele>
        <time>2013-05-30T13:52:07Z</time>
      </trkpt>
      <trkpt lat="45.92264" lon="5.83747">
        <ele>341.38742</ele>
        <time>2013-05-30T13:52:13Z</time>
      </trkpt>
      <trkpt lat="45.92282" lon="5.83729">
        <ele>341.99478</ele>
        <time>2013-05-30T13:52:18Z</time>
      </trkpt>
      <trkpt lat="45.92294" lon="5.83707">
        <ele>343.61603</ele>
        <time>2013-05-30T13:52:23Z</time>
      </trkpt>
      <trkpt lat="45.92303" lon="5.83683">
        <ele>343.77753</ele>
        <time>2013-05-30T13:52:28Z</time>
      </trkpt>
      <trkpt lat="45.9231" lon="5.83658">
        <ele>343.14594</ele>
        <time>2013-05-30T13:52:33Z</time>
      </trkpt>
      <trkpt lat="45.92314" lon="5.83632">
        <ele>343.31256</ele>
        <time>2013-05-30T13:52:38Z</time>
      </trkpt>
      <trkpt lat="45.92319" lon="5.83607">
        <ele>343.03806</ele>
        <time>2013-05-30T13:52:43Z</time>
      </trkpt>
      <trkpt lat="45.92324" lon="5.83581">
        <ele>342.12494</ele>
        <time>2013-05-30T13:52:48Z</time>
      </trkpt>
      <trkpt lat="45.92328" lon="5.83555">
        <ele>341.52612</ele>
        <time>2013-05-30T13:52:53Z</time>
      </trkpt>
      <trkpt lat="45.92334" lon="5.83531">
        <ele>340.64163</ele>
        <time>2013-05-30T13:52:58Z</time>
      </trkpt>
      <trkpt lat="45.92346" lon="5.83511">
        <ele>341.18732</ele>
        <time>2013-05-30T13:53:03Z</time>
      </trkpt>
      <trkpt lat="45.92362" lon="5.83497">
        <ele>340.65656</ele>
        <time>2013-05-30T13:53:08Z</time>
      </trkpt>
      <trkpt lat="45.92379" lon="5.83488">
        <ele>340.52396</ele>
        <time>2013-05-30T13:53:13Z</time>
      </trkpt>
      <trkpt lat="45.924" lon="5.83481">
        <ele>340.37863</ele>
        <time>2013-05-30T13:53:19Z</time>
      </trkpt>
      <trkpt lat="45.92418" lon="5.83474">
        <ele>340.15048</ele>
        <time>2013-05-30T13:53:24Z</time>
      </trkpt>
      <trkpt lat="45.92438" lon="5.83466">
        <ele>340.9325</ele>
        <time>2013-05-30T13:53:29Z</time>
      </trkpt>
      <trkpt lat="45.92458" lon="5.83458">
        <ele>341.2124</ele>
        <time>2013-05-30T13:53:34Z</time>
      </trkpt>
      <trkpt lat="45.92476" lon="5.83449">
        <ele>340.82532</ele>
        <time>2013-05-30T13:53:39Z</time>
      </trkpt>
      <trkpt lat="45.92496" lon="5.83442">
        <ele>339.53775</ele>
        <time>2013-05-30T13:53:44Z</time>
      </trkpt>
      <trkpt lat="45.92515" lon="5.83433">
        <ele>339.83484</ele>
        <time>2013-05-30T13:53:49Z</time>
      </trkpt>
      <trkpt lat="45.92535" lon="5.83425">
        <ele>340.3824</ele>
        <time>2013-05-30T13:53:54Z</time>
      </trkpt>
      <trkpt lat="45.92555" lon="5.83419">
        <ele>339.9374</ele>
        <time>2013-05-30T13:53:59Z</time>
      </trkpt>
      <trkpt lat="45.92575" lon="5.83415">
        <ele>340.1243</ele>
        <time>2013-05-30T13:54:04Z</time>
      </trkpt>
      <trkpt lat="45.92595" lon="5.83414">
        <ele>339.7706</ele>
        <time>2013-05-30T13:54:09Z</time>
      </trkpt>
      <trkpt lat="45.92614" lon="5.83417">
        <ele>340.17212</ele>
        <time>2013-05-30T13:54:14Z</time>
      </trkpt>
      <trkpt lat="45.92634" lon="5.8342">
        <ele>341.6356</ele>
        <time>2013-05-30T13:54:19Z</time>
      </trkpt>
      <trkpt lat="45.92654" lon="5.83424">
        <ele>341.8975</ele>
        <time>2013-05-30T13:54:24Z</time>
      </trkpt>
      <trkpt lat="45.92674" lon="5.83427">
        <ele>341.8987</ele>
        <time>2013-05-30T13:54:29Z</time>
      </trkpt>
      <trkpt lat="45.92692" lon="5.83427">
        <ele>344.0792</ele>
        <time>2013-05-30T13:54:34Z</time>
      </trkpt>
      <trkpt lat="45.92712" lon="5.83417">
        <ele>347.34753</ele>
        <time>2013-05-30T13:54:40Z</time>
      </trkpt>
      <trkpt lat="45.92728" lon="5.83399">
        <ele>348.16705</ele>
        <time>2013-05-30T13:54:45Z</time>
      </trkpt>
      <trkpt lat="45.92741" lon="5.83377">
        <ele>349.03046</ele>
        <time>2013-05-30T13:54:50Z</time>
      </trkpt>
      <trkpt lat="45.92752" lon="5.83354">
        <ele>348.8912</ele>
        <time>2013-05-30T13:54:55Z</time>
      </trkpt>
      <trkpt lat="45.92762" lon="5.83331">
        <ele>349.3312</ele>
        <time>2013-05-30T13:55:00Z</time>
      </trkpt>
      <trkpt lat="45.92773" lon="5.83307">
        <ele>349.77283</ele>
        <time>2013-05-30T13:55:05Z</time>
      </trkpt>
      <trkpt lat="45.92784" lon="5.83283">
        <ele>349.86356</ele>
        <time>2013-05-30T13:55:10Z</time>
      </trkpt>
      <trkpt lat="45.92795" lon="5.83259">
        <ele>349.29938</ele>
        <time>2013-05-30T13:55:15Z</time>
      </trkpt>
      <trkpt lat="45.92806" lon="5.83233">
        <ele>348.84085</ele>
        <time>2013-05-30T13:55:20Z</time>
      </trkpt>
      <trkpt lat="45.92817" lon="5.83208">
        <ele>349.49457</ele>
        <time>2013-05-30T13:55:25Z</time>
      </trkpt>
      <trkpt lat="45.92828" lon="5.83187">
        <ele>349.48343</ele>
        <time>2013-05-30T13:55:29Z</time>
      </trkpt>
      <trkpt lat="45.92839" lon="5.8316">
        <ele>349.72693</ele>
        <time>2013-05-30T13:55:34Z</time>
      </trkpt>
      <trkpt lat="45.92852" lon="5.83137">
        <ele>350.1057</ele>
        <time>2013-05-30T13:55:39Z</time>
      </trkpt>
      <trkpt lat="45.92868" lon="5.83115">
        <ele>350.1112</ele>
        <time>2013-05-30T13:55:44Z</time>
      </trkpt>
      <trkpt lat="45.92885" lon="5.83102">
        <ele>350.21448</ele>
        <time>2013-05-30T13:55:48Z</time>
      </trkpt>
      <trkpt lat="45.92905" lon="5.83089">
        <ele>349.7172</ele>
        <time>2013-05-30T13:55:53Z</time>
      </trkpt>
      <trkpt lat="45.92921" lon="5.83077">
        <ele>348.87027</ele>
        <time>2013-05-30T13:55:57Z</time>
      </trkpt>
      <trkpt lat="45.92939" lon="5.83064">
        <ele>348.14334</ele>
        <time>2013-05-30T13:56:01Z</time>
      </trkpt>
      <trkpt lat="45.92958" lon="5.83053">
        <ele>347.82425</ele>
        <time>2013-05-30T13:56:05Z</time>
      </trkpt>
      <trkpt lat="45.92976" lon="5.83042">
        <ele>348.30026</ele>
        <time>2013-05-30T13:56:09Z</time>
      </trkpt>
      <trkpt lat="45.92993" lon="5.8303">
        <ele>348.55673</ele>
        <time>2013-05-30T13:56:13Z</time>
      </trkpt>
      <trkpt lat="45.93011" lon="5.83019">
        <ele>348.67694</ele>
        <time>2013-05-30T13:56:17Z</time>
      </trkpt>
      <trkpt lat="45.93029" lon="5.83007">
        <ele>348.2728</ele>
        <time>2013-05-30T13:56:21Z</time>
      </trkpt>
      <trkpt lat="45.93048" lon="5.82995">
        <ele>348.0242</ele>
        <time>2013-05-30T13:56:25Z</time>
      </trkpt>
      <trkpt lat="45.93194" lon="5.83014">
        <ele>345.15396</ele>
        <time>2013-05-30T13:56:56Z</time>
      </trkpt>
      <trkpt lat="45.93201" lon="5.83041">
        <ele>343.50534</ele>
        <time>2013-05-30T13:56:59Z</time>
      </trkpt>
      <trkpt lat="45.9321" lon="5.83071">
        <ele>342.7655</ele>
        <time>2013-05-30T13:57:01Z</time>
      </trkpt>
      <trkpt lat="45.93225" lon="5.83093">
        <ele>339.96185</ele>
        <time>2013-05-30T13:57:03Z</time>
      </trkpt>
      <trkpt lat="45.93243" lon="5.831">
        <ele>337.74103</ele>
        <time>2013-05-30T13:57:05Z</time>
      </trkpt>
      <trkpt lat="45.93263" lon="5.83103">
        <ele>336.35434</ele>
        <time>2013-05-30T13:57:07Z</time>
      </trkpt>
      <trkpt lat="45.93283" lon="5.83121">
        <ele>334.28387</ele>
        <time>2013-05-30T13:57:10Z</time>
      </trkpt>
      <trkpt lat="45.93283" lon="5.83152">
        <ele>332.25412</ele>
        <time>2013-05-30T13:57:13Z</time>
      </trkpt>
      <trkpt lat="45.93268" lon="5.83169">
        <ele>331.03046</ele>
        <time>2013-05-30T13:57:15Z</time>
      </trkpt>
      <trkpt lat="45.93253" lon="5.83193">
        <ele>329.90347</ele>
        <time>2013-05-30T13:57:18Z</time>
      </trkpt>
      <trkpt lat="45.93238" lon="5.83219">
        <ele>329.47958</ele>
        <time>2013-05-30T13:57:21Z</time>
      </trkpt>
      <trkpt lat="45.93227" lon="5.83239">
        <ele>329.26352</ele>
        <time>2013-05-30T13:57:23Z</time>
      </trkpt>
      <trkpt lat="45.93216" lon="5.8326">
        <ele>328.8795</ele>
        <time>2013-05-30T13:57:25Z</time>
      </trkpt>
      <trkpt lat="45.93207" lon="5.83282">
        <ele>328.2697</ele>
        <time>2013-05-30T13:57:27Z</time>
      </trkpt>
      <trkpt lat="45.932" lon="5.83308">
        <ele>327.7142</ele>
        <time>2013-05-30T13:57:29Z</time>
      </trkpt>
      <trkpt lat="45.93196" lon="5.83345">
        <ele>327.32474</ele>
        <time>2013-05-30T13:57:32Z</time>
      </trkpt>
      <trkpt lat="45.93192" lon="5.83384">
        <ele>326.45886</ele>
        <time>2013-05-30T13:57:35Z</time>
      </trkpt>
      <trkpt lat="45.9319" lon="5.83422">
        <ele>325.81235</ele>
        <time>2013-05-30T13:57:38Z</time>
      </trkpt>
      <trkpt lat="45.93189" lon="5.83449">
        <ele>325.8132</ele>
        <time>2013-05-30T13:57:40Z</time>
      </trkpt>
      <trkpt lat="45.93191" lon="5.83477">
        <ele>326.04492</ele>
        <time>2013-05-30T13:57:42Z</time>
      </trkpt>
      <trkpt lat="45.93195" lon="5.83505">
        <ele>325.87527</ele>
        <time>2013-05-30T13:57:44Z</time>
      </trkpt>
      <trkpt lat="45.93198" lon="5.83536">
        <ele>325.76733</ele>
        <time>2013-05-30T13:57:46Z</time>
      </trkpt>
      <trkpt lat="45.932" lon="5.83566">
        <ele>325.98163</ele>
        <time>2013-05-30T13:57:48Z</time>
      </trkpt>
      <trkpt lat="45.93207" lon="5.83603">
        <ele>326.37506</ele>
        <time>2013-05-30T13:57:51Z</time>
      </trkpt>
      <trkpt lat="45.93227" lon="5.83625">
        <ele>326.1176</ele>
        <time>2013-05-30T13:57:54Z</time>
      </trkpt>
      <trkpt lat="45.93246" lon="5.83638">
        <ele>324.82462</ele>
        <time>2013-05-30T13:57:57Z</time>
      </trkpt>
      <trkpt lat="45.93268" lon="5.8365">
        <ele>323.19412</ele>
        <time>2013-05-30T13:58:01Z</time>
      </trkpt>
      <trkpt lat="45.93286" lon="5.83661">
        <ele>322.1661</ele>
        <time>2013-05-30T13:58:05Z</time>
      </trkpt>
      <trkpt lat="45.93306" lon="5.83673">
        <ele>321.19812</ele>
        <time>2013-05-30T13:58:10Z</time>
      </trkpt>
      <trkpt lat="45.93324" lon="5.8368">
        <ele>319.80176</ele>
        <time>2013-05-30T13:58:14Z</time>
      </trkpt>
      <trkpt lat="45.93348" lon="5.83682">
        <ele>317.14432</ele>
        <time>2013-05-30T13:58:18Z</time>
      </trkpt>
      <trkpt lat="45.93367" lon="5.83681">
        <ele>315.4484</ele>
        <time>2013-05-30T13:58:21Z</time>
      </trkpt>
      <trkpt lat="45.93386" lon="5.83678">
        <ele>314.4751</ele>
        <time>2013-05-30T13:58:24Z</time>
      </trkpt>
      <trkpt lat="45.93406" lon="5.83675">
        <ele>313.68948</ele>
        <time>2013-05-30T13:58:27Z</time>
      </trkpt>
      <trkpt lat="45.93425" lon="5.83674">
        <ele>312.9362</ele>
        <time>2013-05-30T13:58:30Z</time>
      </trkpt>
      <trkpt lat="45.93443" lon="5.83672">
        <ele>312.3012</ele>
        <time>2013-05-30T13:58:33Z</time>
      </trkpt>
      <trkpt lat="45.93466" lon="5.8367">
        <ele>311.25156</ele>
        <time>2013-05-30T13:58:37Z</time>
      </trkpt>
      <trkpt lat="45.93489" lon="5.83667">
        <ele>310.8038</ele>
        <time>2013-05-30T13:58:41Z</time>
      </trkpt>
      <trkpt lat="45.9351" lon="5.83665">
        <ele>308.99847</ele>
        <time>2013-05-30T13:58:45Z</time>
      </trkpt>
      <trkpt lat="45.93534" lon="5.83664">
        <ele>308.41357</ele>
        <time>2013-05-30T13:58:49Z</time>
      </trkpt>
      <trkpt lat="45.93556" lon="5.83662">
        <ele>308.40195</ele>
        <time>2013-05-30T13:58:53Z</time>
      </trkpt>
      <trkpt lat="45.93578" lon="5.8366">
        <ele>308.2182</ele>
        <time>2013-05-30T13:58:57Z</time>
      </trkpt>
      <trkpt lat="45.936" lon="5.83658">
        <ele>307.88934</ele>
        <time>2013-05-30T13:59:01Z</time>
      </trkpt>
      <trkpt lat="45.93622" lon="5.83656">
        <ele>307.73453</ele>
        <time>2013-05-30T13:59:05Z</time>
      </trkpt>
      <trkpt lat="45.93645" lon="5.83654">
        <ele>307.94687</ele>
        <time>2013-05-30T13:59:09Z</time>
      </trkpt>
      <trkpt lat="45.93668" lon="5.83651">
        <ele>308.0367</ele>
        <time>2013-05-30T13:59:13Z</time>
      </trkpt>
      <trkpt lat="45.93689" lon="5.83648">
        <ele>307.84207</ele>
        <time>2013-05-30T13:59:17Z</time>
      </trkpt>
      <trkpt lat="45.93711" lon="5.83647">
        <ele>307.06293</ele>
        <time>2013-05-30T13:59:21Z</time>
      </trkpt>
      <trkpt lat="45.93733" lon="5.83645">
        <ele>306.35583</ele>
        <time>2013-05-30T13:59:25Z</time>
      </trkpt>
      <trkpt lat="45.93754" lon="5.83643">
        <ele>306.20126</ele>
        <time>2013-05-30T13:59:29Z</time>
      </trkpt>
      <trkpt lat="45.93776" lon="5.83641">
        <ele>305.6582</ele>
        <time>2013-05-30T13:59:33Z</time>
      </trkpt>
      <trkpt lat="45.93798" lon="5.83637">
        <ele>305.72583</ele>
        <time>2013-05-30T13:59:37Z</time>
      </trkpt>
      <trkpt lat="45.93817" lon="5.83631">
        <ele>306.22067</ele>
        <time>2013-05-30T13:59:41Z</time>
      </trkpt>
      <trkpt lat="45.9384" lon="5.83632">
        <ele>307.4714</ele>
        <time>2013-05-30T13:59:45Z</time>
      </trkpt>
      <trkpt lat="45.93863" lon="5.83631">
        <ele>307.2765</ele>
        <time>2013-05-30T13:59:49Z</time>
      </trkpt>
      <trkpt lat="45.93886" lon="5.83628">
        <ele>306.40076</ele>
        <time>2013-05-30T13:59:53Z</time>
      </trkpt>
      <trkpt lat="45.93907" lon="5.83626">
        <ele>305.86548</ele>
        <time>2013-05-30T13:59:57Z</time>
      </trkpt>
      <trkpt lat="45.93926" lon="5.83624">
        <ele>305.75314</ele>
        <time>2013-05-30T14:00:01Z</time>
      </trkpt>
      <trkpt lat="45.93947" lon="5.8362">
        <ele>306.5633</ele>
        <time>2013-05-30T14:00:05Z</time>
      </trkpt>
      <trkpt lat="45.93969" lon="5.8362">
        <ele>307.31143</ele>
        <time>2013-05-30T14:00:09Z</time>
      </trkpt>
      <trkpt lat="45.9399" lon="5.83618">
        <ele>308.05283</ele>
        <time>2013-05-30T14:00:13Z</time>
      </trkpt>
      <trkpt lat="45.94012" lon="5.83618">
        <ele>308.1593</ele>
        <time>2013-05-30T14:00:17Z</time>
      </trkpt>
      <trkpt lat="45.94033" lon="5.83618">
        <ele>308.18634</ele>
        <time>2013-05-30T14:00:21Z</time>
      </trkpt>
      <trkpt lat="45.94054" lon="5.83618">
        <ele>308.541</ele>
        <time>2013-05-30T14:00:25Z</time>
      </trkpt>
      <trkpt lat="45.94074" lon="5.83619">
        <ele>308.67078</ele>
        <time>2013-05-30T14:00:29Z</time>
      </trkpt>
      <trkpt lat="45.94095" lon="5.8362">
        <ele>309.18372</ele>
        <time>2013-05-30T14:00:33Z</time>
      </trkpt>
      <trkpt lat="45.94117" lon="5.83622">
        <ele>309.85773</ele>
        <time>2013-05-30T14:00:37Z</time>
      </trkpt>
      <trkpt lat="45.94138" lon="5.83625">
        <ele>310.0663</ele>
        <time>2013-05-30T14:00:41Z</time>
      </trkpt>
      <trkpt lat="45.9416" lon="5.83628">
        <ele>310.1948</ele>
        <time>2013-05-30T14:00:45Z</time>
      </trkpt>
      <trkpt lat="45.9418" lon="5.8363">
        <ele>310.39603</ele>
        <time>2013-05-30T14:00:49Z</time>
      </trkpt>
      <trkpt lat="45.94203" lon="5.83634">
        <ele>310.85727</ele>
        <time>2013-05-30T14:00:54Z</time>
      </trkpt>
      <trkpt lat="45.94222" lon="5.83638">
        <ele>311.34625</ele>
        <time>2013-05-30T14:00:58Z</time>
      </trkpt>
      <trkpt lat="45.94242" lon="5.8364">
        <ele>312.1041</ele>
        <time>2013-05-30T14:01:02Z</time>
      </trkpt>
      <trkpt lat="45.94262" lon="5.83647">
        <ele>313.03137</ele>
        <time>2013-05-30T14:01:06Z</time>
      </trkpt>
      <trkpt lat="45.94284" lon="5.83654">
        <ele>313.43024</ele>
        <time>2013-05-30T14:01:10Z</time>
      </trkpt>
      <trkpt lat="45.94304" lon="5.83662">
        <ele>313.24902</ele>
        <time>2013-05-30T14:01:14Z</time>
      </trkpt>
      <trkpt lat="45.94326" lon="5.8367">
        <ele>313.2077</ele>
        <time>2013-05-30T14:01:18Z</time>
      </trkpt>
      <trkpt lat="45.94348" lon="5.83679">
        <ele>312.70752</ele>
        <time>2013-05-30T14:01:22Z</time>
      </trkpt>
      <trkpt lat="45.94368" lon="5.83689">
        <ele>312.22934</ele>
        <time>2013-05-30T14:01:26Z</time>
      </trkpt>
      <trkpt lat="45.94388" lon="5.837">
        <ele>312.11435</ele>
        <time>2013-05-30T14:01:30Z</time>
      </trkpt>
      <trkpt lat="45.94409" lon="5.8371">
        <ele>312.30298</ele>
        <time>2013-05-30T14:01:34Z</time>
      </trkpt>
      <trkpt lat="45.94429" lon="5.83722">
        <ele>312.01968</ele>
        <time>2013-05-30T14:01:38Z</time>
      </trkpt>
      <trkpt lat="45.9445" lon="5.83735">
        <ele>311.7535</ele>
        <time>2013-05-30T14:01:42Z</time>
      </trkpt>
      <trkpt lat="45.9447" lon="5.83749">
        <ele>311.7716</ele>
        <time>2013-05-30T14:01:46Z</time>
      </trkpt>
      <trkpt lat="45.94491" lon="5.83763">
        <ele>311.90314</ele>
        <time>2013-05-30T14:01:50Z</time>
      </trkpt>
      <trkpt lat="45.9451" lon="5.83776">
        <ele>312.24982</ele>
        <time>2013-05-30T14:01:54Z</time>
      </trkpt>
      <trkpt lat="45.94531" lon="5.8379">
        <ele>312.31497</ele>
        <time>2013-05-30T14:01:58Z</time>
      </trkpt>
      <trkpt lat="45.94551" lon="5.83804">
        <ele>312.57858</ele>
        <time>2013-05-30T14:02:02Z</time>
      </trkpt>
      <trkpt lat="45.94572" lon="5.83817">
        <ele>312.5647</ele>
        <time>2013-05-30T14:02:06Z</time>
      </trkpt>
      <trkpt lat="45.94592" lon="5.83831">
        <ele>312.16345</ele>
        <time>2013-05-30T14:02:10Z</time>
      </trkpt>
      <trkpt lat="45.94613" lon="5.83844">
        <ele>311.82166</ele>
        <time>2013-05-30T14:02:14Z</time>
      </trkpt>
      <trkpt lat="45.94633" lon="5.83857">
        <ele>311.46387</ele>
        <time>2013-05-30T14:02:18Z</time>
      </trkpt>
      <trkpt lat="45.94652" lon="5.8387">
        <ele>311.96786</ele>
        <time>2013-05-30T14:02:22Z</time>
      </trkpt>
      <trkpt lat="45.94671" lon="5.83882">
        <ele>312.57733</ele>
        <time>2013-05-30T14:02:26Z</time>
      </trkpt>
      <trkpt lat="45.94692" lon="5.83896">
        <ele>312.9159</ele>
        <time>2013-05-30T14:02:30Z</time>
      </trkpt>
      <trkpt lat="45.94712" lon="5.83907">
        <ele>314.2566</ele>
        <time>2013-05-30T14:02:34Z</time>
      </trkpt>
      <trkpt lat="45.94733" lon="5.83921">
        <ele>315.09134</ele>
        <time>2013-05-30T14:02:38Z</time>
      </trkpt>
      <trkpt lat="45.94753" lon="5.83934">
        <ele>315.3125</ele>
        <time>2013-05-30T14:02:42Z</time>
      </trkpt>
      <trkpt lat="45.94772" lon="5.83946">
        <ele>315.68637</ele>
        <time>2013-05-30T14:02:46Z</time>
      </trkpt>
      <trkpt lat="45.94792" lon="5.83956">
        <ele>315.63397</ele>
        <time>2013-05-30T14:02:50Z</time>
      </trkpt>
      <trkpt lat="45.94812" lon="5.83965">
        <ele>315.38654</ele>
        <time>2013-05-30T14:02:54Z</time>
      </trkpt>
      <trkpt lat="45.94833" lon="5.83972">
        <ele>315.10315</ele>
        <time>2013-05-30T14:02:58Z</time>
      </trkpt>
      <trkpt lat="45.94854" lon="5.83977">
        <ele>314.7303</ele>
        <time>2013-05-30T14:03:02Z</time>
      </trkpt>
      <trkpt lat="45.94875" lon="5.8398">
        <ele>314.6842</ele>
        <time>2013-05-30T14:03:06Z</time>
      </trkpt>
      <trkpt lat="45.94897" lon="5.8398">
        <ele>314.7739</ele>
        <time>2013-05-30T14:03:10Z</time>
      </trkpt>
      <trkpt lat="45.94919" lon="5.83979">
        <ele>314.17847</ele>
        <time>2013-05-30T14:03:14Z</time>
      </trkpt>
      <trkpt lat="45.94939" lon="5.83974">
        <ele>314.19708</ele>
        <time>2013-05-30T14:03:18Z</time>
      </trkpt>
      <trkpt lat="45.9496" lon="5.83969">
        <ele>313.45807</ele>
        <time>2013-05-30T14:03:22Z</time>
      </trkpt>
      <trkpt lat="45.9498" lon="5.83961">
        <ele>312.14493</ele>
        <time>2013-05-30T14:03:26Z</time>
      </trkpt>
      <trkpt lat="45.95001" lon="5.83952">
        <ele>311.29117</ele>
        <time>2013-05-30T14:03:30Z</time>
      </trkpt>
      <trkpt lat="45.95023" lon="5.83945">
        <ele>310.49527</ele>
        <time>2013-05-30T14:03:34Z</time>
      </trkpt>
      <trkpt lat="45.95042" lon="5.83936">
        <ele>310.27585</ele>
        <time>2013-05-30T14:03:38Z</time>
      </trkpt>
      <trkpt lat="45.95061" lon="5.83928">
        <ele>310.67557</ele>
        <time>2013-05-30T14:03:42Z</time>
      </trkpt>
      <trkpt lat="45.95079" lon="5.83921">
        <ele>311.01727</ele>
        <time>2013-05-30T14:03:46Z</time>
      </trkpt>
      <trkpt lat="45.95097" lon="5.83912">
        <ele>311.54608</ele>
        <time>2013-05-30T14:03:50Z</time>
      </trkpt>
      <trkpt lat="45.95116" lon="5.83905">
        <ele>311.97668</ele>
        <time>2013-05-30T14:03:54Z</time>
      </trkpt>
      <trkpt lat="45.95137" lon="5.83898">
        <ele>311.85278</ele>
        <time>2013-05-30T14:03:58Z</time>
      </trkpt>
      <trkpt lat="45.95155" lon="5.83891">
        <ele>311.7507</ele>
        <time>2013-05-30T14:04:02Z</time>
      </trkpt>
      <trkpt lat="45.95174" lon="5.83885">
        <ele>311.65433</ele>
        <time>2013-05-30T14:04:06Z</time>
      </trkpt>
      <trkpt lat="45.95191" lon="5.83877">
        <ele>311.31876</ele>
        <time>2013-05-30T14:04:10Z</time>
      </trkpt>
      <trkpt lat="45.95212" lon="5.83868">
        <ele>311.37302</ele>
        <time>2013-05-30T14:04:15Z</time>
      </trkpt>
      <trkpt lat="45.95234" lon="5.83859">
        <ele>310.95062</ele>
        <time>2013-05-30T14:04:20Z</time>
      </trkpt>
      <trkpt lat="45.95252" lon="5.83852">
        <ele>310.4383</ele>
        <time>2013-05-30T14:04:24Z</time>
      </trkpt>
      <trkpt lat="45.95269" lon="5.83844">
        <ele>310.04025</ele>
        <time>2013-05-30T14:04:28Z</time>
      </trkpt>
      <trkpt lat="45.95289" lon="5.83832">
        <ele>309.86307</ele>
        <time>2013-05-30T14:04:33Z</time>
      </trkpt>
      <trkpt lat="45.95308" lon="5.83819">
        <ele>309.85333</ele>
        <time>2013-05-30T14:04:38Z</time>
      </trkpt>
      <trkpt lat="45.95326" lon="5.83805">
        <ele>309.64478</ele>
        <time>2013-05-30T14:04:43Z</time>
      </trkpt>
      <trkpt lat="45.95344" lon="5.83793">
        <ele>308.79022</ele>
        <time>2013-05-30T14:04:48Z</time>
      </trkpt>
      <trkpt lat="45.95363" lon="5.83778">
        <ele>307.67865</ele>
        <time>2013-05-30T14:04:53Z</time>
      </trkpt>
      <trkpt lat="45.95384" lon="5.83769">
        <ele>307.15167</ele>
        <time>2013-05-30T14:04:58Z</time>
      </trkpt>
      <trkpt lat="45.95402" lon="5.83776">
        <ele>307.1153</ele>
        <time>2013-05-30T14:05:03Z</time>
      </trkpt>
      <trkpt lat="45.95421" lon="5.83766">
        <ele>304.55115</ele>
        <time>2013-05-30T14:09:51Z</time>
      </trkpt>
      <trkpt lat="45.95426" lon="5.83739">
        <ele>304.18097</ele>
        <time>2013-05-30T14:09:58Z</time>
      </trkpt>
      <trkpt lat="45.95435" lon="5.83714">
        <ele>304.5583</ele>
        <time>2013-05-30T14:10:08Z</time>
      </trkpt>
      <trkpt lat="45.95448" lon="5.83692">
        <ele>303.30453</ele>
        <time>2013-05-30T14:10:15Z</time>
      </trkpt>
      <trkpt lat="45.95462" lon="5.83672">
        <ele>302.1414</ele>
        <time>2013-05-30T14:10:23Z</time>
      </trkpt>
      <trkpt lat="45.95479" lon="5.83655">
        <ele>302.55396</ele>
        <time>2013-05-30T14:10:30Z</time>
      </trkpt>
      <trkpt lat="45.95496" lon="5.83638">
        <ele>303.90753</ele>
        <time>2013-05-30T14:10:37Z</time>
      </trkpt>
      <trkpt lat="45.95476" lon="5.83646">
        <ele>309.41135</ele>
        <time>2013-05-30T14:10:57Z</time>
      </trkpt>
      <trkpt lat="45.95456" lon="5.8364">
        <ele>308.81094</ele>
        <time>2013-05-30T14:11:03Z</time>
      </trkpt>
      <trkpt lat="45.95438" lon="5.83637">
        <ele>307.65936</ele>
        <time>2013-05-30T14:11:09Z</time>
      </trkpt>
      <trkpt lat="45.95423" lon="5.83618">
        <ele>308.61584</ele>
        <time>2013-05-30T14:11:16Z</time>
      </trkpt>
      <trkpt lat="45.95417" lon="5.83589">
        <ele>309.207</ele>
        <time>2013-05-30T14:11:23Z</time>
      </trkpt>
      <trkpt lat="45.95412" lon="5.83561">
        <ele>309.64258</ele>
        <time>2013-05-30T14:11:31Z</time>
      </trkpt>
      <trkpt lat="45.95406" lon="5.83536">
        <ele>310.08368</ele>
        <time>2013-05-30T14:11:43Z</time>
      </trkpt>
      <trkpt lat="45.95423" lon="5.83525">
        <ele>310.2437</ele>
        <time>2013-05-30T14:11:50Z</time>
      </trkpt>
      <trkpt lat="45.95443" lon="5.83519">
        <ele>310.28516</ele>
        <time>2013-05-30T14:11:56Z</time>
      </trkpt>
      <trkpt lat="45.95461" lon="5.83513">
        <ele>309.30438</ele>
        <time>2013-05-30T14:12:01Z</time>
      </trkpt>
      <trkpt lat="45.95479" lon="5.83506">
        <ele>306.2129</ele>
        <time>2013-05-30T14:13:26Z</time>
      </trkpt>
      <trkpt lat="45.955" lon="5.83497">
        <ele>306.43155</ele>
        <time>2013-05-30T14:13:33Z</time>
      </trkpt>
      <trkpt lat="45.95518" lon="5.8349">
        <ele>306.10202</ele>
        <time>2013-05-30T14:13:38Z</time>
      </trkpt>
      <trkpt lat="45.95536" lon="5.83481">
        <ele>304.75946</ele>
        <time>2013-05-30T14:13:43Z</time>
      </trkpt>
      <trkpt lat="45.95551" lon="5.83469">
        <ele>304.31833</ele>
        <time>2013-05-30T14:13:48Z</time>
      </trkpt>
      <trkpt lat="45.95569" lon="5.83454">
        <ele>304.52814</ele>
        <time>2013-05-30T14:13:54Z</time>
      </trkpt>
      <trkpt lat="45.95586" lon="5.83445">
        <ele>303.7975</ele>
        <time>2013-05-30T14:13:59Z</time>
      </trkpt>
      <trkpt lat="45.95604" lon="5.83434">
        <ele>304.72253</ele>
        <time>2013-05-30T14:14:05Z</time>
      </trkpt>
      <trkpt lat="45.95622" lon="5.83424">
        <ele>306.15588</ele>
        <time>2013-05-30T14:14:11Z</time>
      </trkpt>
      <trkpt lat="45.9564" lon="5.83411">
        <ele>306.66153</ele>
        <time>2013-05-30T14:14:17Z</time>
      </trkpt>
      <trkpt lat="45.95657" lon="5.83403">
        <ele>304.3747</ele>
        <time>2013-05-30T14:14:23Z</time>
      </trkpt>
      <trkpt lat="45.95677" lon="5.83398">
        <ele>303.55472</ele>
        <time>2013-05-30T14:15:24Z</time>
      </trkpt>
      <trkpt lat="45.95695" lon="5.8339">
        <ele>305.50458</ele>
        <time>2013-05-30T14:15:32Z</time>
      </trkpt>
      <trkpt lat="45.95715" lon="5.83382">
        <ele>304.15344</ele>
        <time>2013-05-30T14:15:38Z</time>
      </trkpt>
      <trkpt lat="45.95732" lon="5.83371">
        <ele>303.6792</ele>
        <time>2013-05-30T14:15:46Z</time>
      </trkpt>
      <trkpt lat="45.95751" lon="5.83362">
        <ele>305.96094</ele>
        <time>2013-05-30T14:15:54Z</time>
      </trkpt>
      <trkpt lat="45.95768" lon="5.83371">
        <ele>307.78326</ele>
        <time>2013-05-30T14:16:03Z</time>
      </trkpt>
      <trkpt lat="45.95785" lon="5.83358">
        <ele>307.1837</ele>
        <time>2013-05-30T14:16:12Z</time>
      </trkpt>
      <trkpt lat="45.958" lon="5.83339">
        <ele>311.5562</ele>
        <time>2013-05-30T14:16:22Z</time>
      </trkpt>
      <trkpt lat="45.9582" lon="5.83329">
        <ele>314.30576</ele>
        <time>2013-05-30T14:16:30Z</time>
      </trkpt>
      <trkpt lat="45.95839" lon="5.83334">
        <ele>315.53772</ele>
        <time>2013-05-30T14:16:38Z</time>
      </trkpt>
      <trkpt lat="45.9585" lon="5.83356">
        <ele>315.94702</ele>
        <time>2013-05-30T14:17:05Z</time>
      </trkpt>
      <trkpt lat="45.95848" lon="5.83328">
        <ele>316.27744</ele>
        <time>2013-05-30T14:20:36Z</time>
      </trkpt>
      <trkpt lat="45.95854" lon="5.83302">
        <ele>315.97556</ele>
        <time>2013-05-30T14:20:43Z</time>
      </trkpt>
      <trkpt lat="45.95863" lon="5.83279">
        <ele>313.33853</ele>
        <time>2013-05-30T14:20:52Z</time>
      </trkpt>
      <trkpt lat="45.95865" lon="5.83252">
        <ele>311.426</ele>
        <time>2013-05-30T14:20:58Z</time>
      </trkpt>
      <trkpt lat="45.95866" lon="5.83225">
        <ele>312.5287</ele>
        <time>2013-05-30T14:21:04Z</time>
      </trkpt>
      <trkpt lat="45.95883" lon="5.83212">
        <ele>313.46243</ele>
        <time>2013-05-30T14:21:12Z</time>
      </trkpt>
      <trkpt lat="45.95902" lon="5.83211">
        <ele>311.9615</ele>
        <time>2013-05-30T14:21:17Z</time>
      </trkpt>
      <trkpt lat="45.95923" lon="5.83208">
        <ele>311.78598</ele>
        <time>2013-05-30T14:21:22Z</time>
      </trkpt>
      <trkpt lat="45.95943" lon="5.83205">
        <ele>312.01865</ele>
        <time>2013-05-30T14:21:27Z</time>
      </trkpt>
      <trkpt lat="45.95963" lon="5.832">
        <ele>310.90454</ele>
        <time>2013-05-30T14:21:33Z</time>
      </trkpt>
      <trkpt lat="45.95983" lon="5.83198">
        <ele>311.05627</ele>
        <time>2013-05-30T14:21:39Z</time>
      </trkpt>
      <trkpt lat="45.96003" lon="5.83196">
        <ele>312.794</ele>
        <time>2013-05-30T14:21:45Z</time>
      </trkpt>
      <trkpt lat="45.96024" lon="5.83191">
        <ele>315.3306</ele>
        <time>2013-05-30T14:21:52Z</time>
      </trkpt>
      <trkpt lat="45.96042" lon="5.83189">
        <ele>316.11676</ele>
        <time>2013-05-30T14:21:59Z</time>
      </trkpt>
      <trkpt lat="45.9606" lon="5.83184">
        <ele>316.70993</ele>
        <time>2013-05-30T14:22:06Z</time>
      </trkpt>
      <trkpt lat="45.96078" lon="5.83182">
        <ele>316.09042</ele>
        <time>2013-05-30T14:22:12Z</time>
      </trkpt>
      <trkpt lat="45.96097" lon="5.83179">
        <ele>314.66025</ele>
        <time>2013-05-30T14:22:18Z</time>
      </trkpt>
      <trkpt lat="45.96117" lon="5.83176">
        <ele>314.30603</ele>
        <time>2013-05-30T14:22:24Z</time>
      </trkpt>
      <trkpt lat="45.96139" lon="5.83173">
        <ele>312.94772</ele>
        <time>2013-05-30T14:22:30Z</time>
      </trkpt>
      <trkpt lat="45.96159" lon="5.83172">
        <ele>311.82892</ele>
        <time>2013-05-30T14:22:36Z</time>
      </trkpt>
      <trkpt lat="45.96179" lon="5.83174">
        <ele>311.6912</ele>
        <time>2013-05-30T14:22:42Z</time>
      </trkpt>
      <trkpt lat="45.96199" lon="5.83175">
        <ele>312.42365</ele>
        <time>2013-05-30T14:22:48Z</time>
      </trkpt>
      <trkpt lat="45.96218" lon="5.83176">
        <ele>312.93484</ele>
        <time>2013-05-30T14:22:54Z</time>
      </trkpt>
      <trkpt lat="45.96236" lon="5.83168">
        <ele>313.03598</ele>
        <time>2013-05-30T14:23:02Z</time>
      </trkpt>
      <trkpt lat="45.96242" lon="5.83142">
        <ele>307.4678</ele>
        <time>2013-05-30T14:23:11Z</time>
      </trkpt>
      <trkpt lat="45.96241" lon="5.83115">
        <ele>307.128</ele>
        <time>2013-05-30T14:23:18Z</time>
      </trkpt>
      <trkpt lat="45.96236" lon="5.83087">
        <ele>308.67593</ele>
        <time>2013-05-30T14:23:26Z</time>
      </trkpt>
      <trkpt lat="45.96229" lon="5.83061">
        <ele>310.39813</ele>
        <time>2013-05-30T14:23:36Z</time>
      </trkpt>
      <trkpt lat="45.9622" lon="5.83037">
        <ele>314.01553</ele>
        <time>2013-05-30T14:23:46Z</time>
      </trkpt>
      <trkpt lat="45.96208" lon="5.83015">
        <ele>316.35498</ele>
        <time>2013-05-30T14:23:57Z</time>
      </trkpt>
      <trkpt lat="45.96198" lon="5.82992">
        <ele>315.5909</ele>
        <time>2013-05-30T14:24:05Z</time>
      </trkpt>
      <trkpt lat="45.96197" lon="5.82966">
        <ele>314.7614</ele>
        <time>2013-05-30T14:24:14Z</time>
      </trkpt>
      <trkpt lat="45.96205" lon="5.82942">
        <ele>314.0593</ele>
        <time>2013-05-30T14:24:23Z</time>
      </trkpt>
      <trkpt lat="45.96208" lon="5.82917">
        <ele>315.4482</ele>
        <time>2013-05-30T14:24:32Z</time>
      </trkpt>
      <trkpt lat="45.96203" lon="5.82888">
        <ele>316.81842</ele>
        <time>2013-05-30T14:24:41Z</time>
      </trkpt>
      <trkpt lat="45.96204" lon="5.82862">
        <ele>319.18768</ele>
        <time>2013-05-30T14:24:50Z</time>
      </trkpt>
      <trkpt lat="45.96208" lon="5.82835">
        <ele>320.96872</ele>
        <time>2013-05-30T14:25:00Z</time>
      </trkpt>
      <trkpt lat="45.96217" lon="5.82811">
        <ele>321.3665</ele>
        <time>2013-05-30T14:25:10Z</time>
      </trkpt>
      <trkpt lat="45.96228" lon="5.82789">
        <ele>324.6632</ele>
        <time>2013-05-30T14:25:20Z</time>
      </trkpt>
      <trkpt lat="45.96236" lon="5.82765">
        <ele>328.5221</ele>
        <time>2013-05-30T14:25:30Z</time>
      </trkpt>
      <trkpt lat="45.96242" lon="5.8274">
        <ele>329.84903</ele>
        <time>2013-05-30T14:25:40Z</time>
      </trkpt>
      <trkpt lat="45.96245" lon="5.82713">
        <ele>327.08878</ele>
        <time>2013-05-30T14:25:51Z</time>
      </trkpt>
      <trkpt lat="45.9625" lon="5.82686">
        <ele>327.40808</ele>
        <time>2013-05-30T14:26:00Z</time>
      </trkpt>
      <trkpt lat="45.96256" lon="5.82661">
        <ele>328.7907</ele>
        <time>2013-05-30T14:26:09Z</time>
      </trkpt>
      <trkpt lat="45.96268" lon="5.8264">
        <ele>329.54996</ele>
        <time>2013-05-30T14:26:19Z</time>
      </trkpt>
      <trkpt lat="45.96276" lon="5.82615">
        <ele>333.78943</ele>
        <time>2013-05-30T14:26:29Z</time>
      </trkpt>
      <trkpt lat="45.96276" lon="5.82588">
        <ele>334.6664</ele>
        <time>2013-05-30T14:26:37Z</time>
      </trkpt>
      <trkpt lat="45.96265" lon="5.82565">
        <ele>332.01385</ele>
        <time>2013-05-30T14:26:48Z</time>
      </trkpt>
      <trkpt lat="45.9625" lon="5.8255">
        <ele>334.96588</ele>
        <time>2013-05-30T14:26:59Z</time>
      </trkpt>
      <trkpt lat="45.96238" lon="5.82529">
        <ele>339.97095</ele>
        <time>2013-05-30T14:27:08Z</time>
      </trkpt>
      <trkpt lat="45.96227" lon="5.82507">
        <ele>345.9447</ele>
        <time>2013-05-30T14:27:18Z</time>
      </trkpt>
      <trkpt lat="45.96228" lon="5.82481">
        <ele>348.5638</ele>
        <time>2013-05-30T14:27:27Z</time>
      </trkpt>
      <trkpt lat="45.9623" lon="5.82453">
        <ele>344.62912</ele>
        <time>2013-05-30T14:27:38Z</time>
      </trkpt>
      <trkpt lat="45.96228" lon="5.82426">
        <ele>343.72885</ele>
        <time>2013-05-30T14:27:48Z</time>
      </trkpt>
      <trkpt lat="45.96226" lon="5.824">
        <ele>344.86426</ele>
        <time>2013-05-30T14:27:59Z</time>
      </trkpt>
      <trkpt lat="45.96232" lon="5.82374">
        <ele>346.03156</ele>
        <time>2013-05-30T14:28:10Z</time>
      </trkpt>
      <trkpt lat="45.96235" lon="5.82348">
        <ele>352.39084</ele>
        <time>2013-05-30T14:28:22Z</time>
      </trkpt>
      <trkpt lat="45.96242" lon="5.82324">
        <ele>353.73904</ele>
        <time>2013-05-30T14:28:33Z</time>
      </trkpt>
      <trkpt lat="45.96247" lon="5.82297">
        <ele>357.34595</ele>
        <time>2013-05-30T14:28:42Z</time>
      </trkpt>
      <trkpt lat="45.96255" lon="5.82272">
        <ele>356.04538</ele>
        <time>2013-05-30T14:28:52Z</time>
      </trkpt>
      <trkpt lat="45.96256" lon="5.82245">
        <ele>359.43338</ele>
        <time>2013-05-30T14:29:02Z</time>
      </trkpt>
      <trkpt lat="45.96267" lon="5.82221">
        <ele>358.02332</ele>
        <time>2013-05-30T14:29:13Z</time>
      </trkpt>
      <trkpt lat="45.96274" lon="5.82196">
        <ele>358.59375</ele>
        <time>2013-05-30T14:29:22Z</time>
      </trkpt>
      <trkpt lat="45.96283" lon="5.82172">
        <ele>360.92435</ele>
        <time>2013-05-30T14:29:32Z</time>
      </trkpt>
      <trkpt lat="45.96296" lon="5.82151">
        <ele>363.71872</ele>
        <time>2013-05-30T14:29:42Z</time>
      </trkpt>
      <trkpt lat="45.96311" lon="5.82134">
        <ele>365.0735</ele>
        <time>2013-05-30T14:29:52Z</time>
      </trkpt>
      <trkpt lat="45.96331" lon="5.82129">
        <ele>376.87454</ele>
        <time>2013-05-30T14:30:05Z</time>
      </trkpt>
      <trkpt lat="45.96349" lon="5.82128">
        <ele>374.26724</ele>
        <time>2013-05-30T14:30:13Z</time>
      </trkpt>
      <trkpt lat="45.96365" lon="5.82112">
        <ele>372.80865</ele>
        <time>2013-05-30T14:30:22Z</time>
      </trkpt>
      <trkpt lat="45.96379" lon="5.82093">
        <ele>369.6347</ele>
        <time>2013-05-30T14:30:30Z</time>
      </trkpt>
      <trkpt lat="45.96393" lon="5.82078">
        <ele>368.34708</ele>
        <time>2013-05-30T14:30:38Z</time>
      </trkpt>
      <trkpt lat="45.96411" lon="5.82066">
        <ele>369.3813</ele>
        <time>2013-05-30T14:30:47Z</time>
      </trkpt>
      <trkpt lat="45.9643" lon="5.82059">
        <ele>371.31528</ele>
        <time>2013-05-30T14:30:56Z</time>
      </trkpt>
      <trkpt lat="45.96449" lon="5.82055">
        <ele>371.45886</ele>
        <time>2013-05-30T14:31:04Z</time>
      </trkpt>
      <trkpt lat="45.96469" lon="5.82047">
        <ele>371.90768</ele>
        <time>2013-05-30T14:31:13Z</time>
      </trkpt>
      <trkpt lat="45.96487" lon="5.82036">
        <ele>374.04315</ele>
        <time>2013-05-30T14:31:21Z</time>
      </trkpt>
      <trkpt lat="45.96505" lon="5.82024">
        <ele>375.20703</ele>
        <time>2013-05-30T14:31:29Z</time>
      </trkpt>
      <trkpt lat="45.9652" lon="5.82004">
        <ele>376.108</ele>
        <time>2013-05-30T14:31:37Z</time>
      </trkpt>
      <trkpt lat="45.96534" lon="5.81984">
        <ele>376.32907</ele>
        <time>2013-05-30T14:31:45Z</time>
      </trkpt>
      <trkpt lat="45.96543" lon="5.81959">
        <ele>377.18448</ele>
        <time>2013-05-30T14:31:53Z</time>
      </trkpt>
      <trkpt lat="45.96546" lon="5.81933">
        <ele>376.22678</ele>
        <time>2013-05-30T14:32:00Z</time>
      </trkpt>
      <trkpt lat="45.96553" lon="5.81908">
        <ele>378.03452</ele>
        <time>2013-05-30T14:32:08Z</time>
      </trkpt>
      <trkpt lat="45.96555" lon="5.81882">
        <ele>380.46255</ele>
        <time>2013-05-30T14:32:16Z</time>
      </trkpt>
      <trkpt lat="45.96559" lon="5.81854">
        <ele>381.9634</ele>
        <time>2013-05-30T14:32:25Z</time>
      </trkpt>
      <trkpt lat="45.96561" lon="5.81828">
        <ele>382.9261</ele>
        <time>2013-05-30T14:32:33Z</time>
      </trkpt>
      <trkpt lat="45.9656" lon="5.81801">
        <ele>383.83563</ele>
        <time>2013-05-30T14:32:42Z</time>
      </trkpt>
      <trkpt lat="45.96553" lon="5.81776">
        <ele>384.0737</ele>
        <time>2013-05-30T14:32:50Z</time>
      </trkpt>
      <trkpt lat="45.96546" lon="5.81753">
        <ele>382.83795</ele>
        <time>2013-05-30T14:32:58Z</time>
      </trkpt>
      <trkpt lat="45.96537" lon="5.81728">
        <ele>382.779</ele>
        <time>2013-05-30T14:33:07Z</time>
      </trkpt>
      <trkpt lat="45.96526" lon="5.81704">
        <ele>383.70224</ele>
        <time>2013-05-30T14:33:16Z</time>
      </trkpt>
      <trkpt lat="45.96518" lon="5.81681">
        <ele>384.42416</ele>
        <time>2013-05-30T14:33:24Z</time>
      </trkpt>
      <trkpt lat="45.9651" lon="5.81654">
        <ele>384.74518</ele>
        <time>2013-05-30T14:33:33Z</time>
      </trkpt>
      <trkpt lat="45.96501" lon="5.8163">
        <ele>385.97464</ele>
        <time>2013-05-30T14:33:41Z</time>
      </trkpt>
      <trkpt lat="45.96489" lon="5.8161">
        <ele>387.48932</ele>
        <time>2013-05-30T14:33:50Z</time>
      </trkpt>
      <trkpt lat="45.96476" lon="5.81592">
        <ele>388.12012</ele>
        <time>2013-05-30T14:33:59Z</time>
      </trkpt>
      <trkpt lat="45.9646" lon="5.81574">
        <ele>387.73083</ele>
        <time>2013-05-30T14:34:09Z</time>
      </trkpt>
      <trkpt lat="45.96446" lon="5.81555">
        <ele>388.6407</ele>
        <time>2013-05-30T14:34:18Z</time>
      </trkpt>
      <trkpt lat="45.96433" lon="5.81534">
        <ele>390.40765</ele>
        <time>2013-05-30T14:34:27Z</time>
      </trkpt>
      <trkpt lat="45.96428" lon="5.81508">
        <ele>391.75235</ele>
        <time>2013-05-30T14:34:36Z</time>
      </trkpt>
      <trkpt lat="45.9643" lon="5.81482">
        <ele>392.2852</ele>
        <time>2013-05-30T14:34:45Z</time>
      </trkpt>
      <trkpt lat="45.96438" lon="5.81459">
        <ele>391.67987</ele>
        <time>2013-05-30T14:34:54Z</time>
      </trkpt>
      <trkpt lat="45.96445" lon="5.81433">
        <ele>394.19644</ele>
        <time>2013-05-30T14:35:03Z</time>
      </trkpt>
      <trkpt lat="45.96451" lon="5.81409">
        <ele>396.15234</ele>
        <time>2013-05-30T14:35:12Z</time>
      </trkpt>
      <trkpt lat="45.96456" lon="5.81383">
        <ele>395.14896</ele>
        <time>2013-05-30T14:35:21Z</time>
      </trkpt>
      <trkpt lat="45.96465" lon="5.8136">
        <ele>397.17493</ele>
        <time>2013-05-30T14:35:30Z</time>
      </trkpt>
      <trkpt lat="45.96473" lon="5.81335">
        <ele>395.98734</ele>
        <time>2013-05-30T14:35:39Z</time>
      </trkpt>
      <trkpt lat="45.96482" lon="5.81311">
        <ele>398.13458</ele>
        <time>2013-05-30T14:35:48Z</time>
      </trkpt>
      <trkpt lat="45.96494" lon="5.8129">
        <ele>398.1617</ele>
        <time>2013-05-30T14:35:56Z</time>
      </trkpt>
      <trkpt lat="45.9651" lon="5.81275">
        <ele>397.86124</ele>
        <time>2013-05-30T14:36:05Z</time>
      </trkpt>
      <trkpt lat="45.96527" lon="5.81262">
        <ele>400.7313</ele>
        <time>2013-05-30T14:36:15Z</time>
      </trkpt>
      <trkpt lat="45.96545" lon="5.81252">
        <ele>403.50046</ele>
        <time>2013-05-30T14:36:25Z</time>
      </trkpt>
      <trkpt lat="45.96563" lon="5.81241">
        <ele>403.96365</ele>
        <time>2013-05-30T14:36:34Z</time>
      </trkpt>
      <trkpt lat="45.9658" lon="5.81228">
        <ele>405.62338</ele>
        <time>2013-05-30T14:36:43Z</time>
      </trkpt>
      <trkpt lat="45.96595" lon="5.81212">
        <ele>408.0888</ele>
        <time>2013-05-30T14:36:53Z</time>
      </trkpt>
      <trkpt lat="45.96604" lon="5.81189">
        <ele>411.48682</ele>
        <time>2013-05-30T14:37:02Z</time>
      </trkpt>
      <trkpt lat="45.96613" lon="5.81165">
        <ele>412.4183</ele>
        <time>2013-05-30T14:37:11Z</time>
      </trkpt>
      <trkpt lat="45.9662" lon="5.81137">
        <ele>412.91238</ele>
        <time>2013-05-30T14:37:20Z</time>
      </trkpt>
      <trkpt lat="45.96628" lon="5.81114">
        <ele>414.7967</ele>
        <time>2013-05-30T14:37:28Z</time>
      </trkpt>
      <trkpt lat="45.96636" lon="5.8109">
        <ele>416.1719</ele>
        <time>2013-05-30T14:37:37Z</time>
      </trkpt>
      <trkpt lat="45.96646" lon="5.81067">
        <ele>417.09705</ele>
        <time>2013-05-30T14:37:46Z</time>
      </trkpt>
      <trkpt lat="45.96658" lon="5.81046">
        <ele>417.59906</ele>
        <time>2013-05-30T14:37:55Z</time>
      </trkpt>
      <trkpt lat="45.96674" lon="5.81032">
        <ele>417.50085</ele>
        <time>2013-05-30T14:38:04Z</time>
      </trkpt>
      <trkpt lat="45.96693" lon="5.81025">
        <ele>416.52084</ele>
        <time>2013-05-30T14:38:12Z</time>
      </trkpt>
      <trkpt lat="45.9671" lon="5.81016">
        <ele>416.8229</ele>
        <time>2013-05-30T14:38:20Z</time>
      </trkpt>
      <trkpt lat="45.96729" lon="5.81008">
        <ele>417.71735</ele>
        <time>2013-05-30T14:38:28Z</time>
      </trkpt>
      <trkpt lat="45.96746" lon="5.81">
        <ele>418.8216</ele>
        <time>2013-05-30T14:38:34Z</time>
      </trkpt>
      <trkpt lat="45.96764" lon="5.80991">
        <ele>417.8907</ele>
        <time>2013-05-30T14:38:39Z</time>
      </trkpt>
      <trkpt lat="45.96783" lon="5.80979">
        <ele>417.61557</ele>
        <time>2013-05-30T14:38:44Z</time>
      </trkpt>
      <trkpt lat="45.96802" lon="5.80977">
        <ele>417.27744</ele>
        <time>2013-05-30T14:38:49Z</time>
      </trkpt>
      <trkpt lat="45.9682" lon="5.80983">
        <ele>418.83243</ele>
        <time>2013-05-30T14:38:55Z</time>
      </trkpt>
      <trkpt lat="45.96839" lon="5.80991">
        <ele>420.9842</ele>
        <time>2013-05-30T14:39:03Z</time>
      </trkpt>
      <trkpt lat="45.96858" lon="5.80999">
        <ele>422.27026</ele>
        <time>2013-05-30T14:39:12Z</time>
      </trkpt>
      <trkpt lat="45.96877" lon="5.81009">
        <ele>427.20276</ele>
        <time>2013-05-30T14:50:19Z</time>
      </trkpt>
      <trkpt lat="45.96897" lon="5.81009">
        <ele>425.85446</ele>
        <time>2013-05-30T14:50:26Z</time>
      </trkpt>
      <trkpt lat="45.96916" lon="5.81009">
        <ele>423.12772</ele>
        <time>2013-05-30T14:50:32Z</time>
      </trkpt>
      <trkpt lat="45.96936" lon="5.81007">
        <ele>423.1564</ele>
        <time>2013-05-30T14:50:39Z</time>
      </trkpt>
      <trkpt lat="45.96956" lon="5.81006">
        <ele>423.1015</ele>
        <time>2013-05-30T14:50:46Z</time>
      </trkpt>
      <trkpt lat="45.96974" lon="5.81005">
        <ele>423.51093</ele>
        <time>2013-05-30T14:50:52Z</time>
      </trkpt>
      <trkpt lat="45.96993" lon="5.81003">
        <ele>422.83914</ele>
        <time>2013-05-30T14:50:58Z</time>
      </trkpt>
      <trkpt lat="45.97011" lon="5.80999">
        <ele>423.1161</ele>
        <time>2013-05-30T14:51:04Z</time>
      </trkpt>
      <trkpt lat="45.97103" lon="5.80953">
        <ele>422.8528</ele>
        <time>2013-05-30T14:51:36Z</time>
      </trkpt>
      <trkpt lat="45.97112" lon="5.8093">
        <ele>435.68155</ele>
        <time>2013-05-30T14:51:42Z</time>
      </trkpt>
      <trkpt lat="45.97126" lon="5.8091">
        <ele>441.7329</ele>
        <time>2013-05-30T14:51:49Z</time>
      </trkpt>
      <trkpt lat="45.97144" lon="5.80898">
        <ele>435.10168</ele>
        <time>2013-05-30T14:53:47Z</time>
      </trkpt>
      <trkpt lat="45.9716" lon="5.80885">
        <ele>433.23178</ele>
        <time>2013-05-30T14:53:51Z</time>
      </trkpt>
      <trkpt lat="45.97179" lon="5.8087">
        <ele>429.646</ele>
        <time>2013-05-30T14:53:55Z</time>
      </trkpt>
      <trkpt lat="45.97198" lon="5.80865">
        <ele>427.5423</ele>
        <time>2013-05-30T14:53:59Z</time>
      </trkpt>
      <trkpt lat="45.97217" lon="5.80866">
        <ele>426.82135</ele>
        <time>2013-05-30T14:54:04Z</time>
      </trkpt>
      <trkpt lat="45.97237" lon="5.80868">
        <ele>426.66364</ele>
        <time>2013-05-30T14:54:10Z</time>
      </trkpt>
      <trkpt lat="45.97257" lon="5.80868">
        <ele>425.7304</ele>
        <time>2013-05-30T14:54:17Z</time>
      </trkpt>
      <trkpt lat="45.97276" lon="5.80865">
        <ele>426.29218</ele>
        <time>2013-05-30T14:54:24Z</time>
      </trkpt>
      <trkpt lat="45.97295" lon="5.80862">
        <ele>427.1361</ele>
        <time>2013-05-30T14:54:31Z</time>
      </trkpt>
      <trkpt lat="45.97314" lon="5.80858">
        <ele>426.66675</ele>
        <time>2013-05-30T14:54:37Z</time>
      </trkpt>
      <trkpt lat="45.97332" lon="5.80852">
        <ele>428.23404</ele>
        <time>2013-05-30T14:54:43Z</time>
      </trkpt>
      <trkpt lat="45.97352" lon="5.80845">
        <ele>427.08636</ele>
        <time>2013-05-30T14:54:49Z</time>
      </trkpt>
      <trkpt lat="45.97373" lon="5.80837">
        <ele>425.36298</ele>
        <time>2013-05-30T14:54:54Z</time>
      </trkpt>
      <trkpt lat="45.97393" lon="5.80828">
        <ele>424.09296</ele>
        <time>2013-05-30T14:54:59Z</time>
      </trkpt>
      <trkpt lat="45.97414" lon="5.80819">
        <ele>421.16074</ele>
        <time>2013-05-30T14:55:04Z</time>
      </trkpt>
      <trkpt lat="45.97436" lon="5.80811">
        <ele>420.3276</ele>
        <time>2013-05-30T14:55:09Z</time>
      </trkpt>
      <trkpt lat="45.97457" lon="5.808">
        <ele>420.32333</ele>
        <time>2013-05-30T14:55:14Z</time>
      </trkpt>
      <trkpt lat="45.97475" lon="5.80791">
        <ele>419.88004</ele>
        <time>2013-05-30T14:55:18Z</time>
      </trkpt>
      <trkpt lat="45.97494" lon="5.80781">
        <ele>419.93118</ele>
        <time>2013-05-30T14:55:22Z</time>
      </trkpt>
      <trkpt lat="45.97511" lon="5.80772">
        <ele>419.30792</ele>
        <time>2013-05-30T14:55:26Z</time>
      </trkpt>
      <trkpt lat="45.97531" lon="5.80763">
        <ele>418.65063</ele>
        <time>2013-05-30T14:55:32Z</time>
      </trkpt>
      <trkpt lat="45.97549" lon="5.80754">
        <ele>418.3133</ele>
        <time>2013-05-30T14:55:37Z</time>
      </trkpt>
      <trkpt lat="45.97567" lon="5.80747">
        <ele>419.85974</ele>
        <time>2013-05-30T14:55:43Z</time>
      </trkpt>
      <trkpt lat="45.97587" lon="5.80747">
        <ele>420.343</ele>
        <time>2013-05-30T14:55:49Z</time>
      </trkpt>
      <trkpt lat="45.97605" lon="5.80749">
        <ele>421.32758</ele>
        <time>2013-05-30T14:55:55Z</time>
      </trkpt>
      <trkpt lat="45.97624" lon="5.80751">
        <ele>422.6428</ele>
        <time>2013-05-30T14:56:02Z</time>
      </trkpt>
      <trkpt lat="45.97723" lon="5.80729">
        <ele>425.29257</ele>
        <time>2013-05-30T14:56:35Z</time>
      </trkpt>
      <trkpt lat="45.97744" lon="5.80723">
        <ele>432.39294</ele>
        <time>2013-05-30T14:56:42Z</time>
      </trkpt>
      <trkpt lat="45.97764" lon="5.80716">
        <ele>434.08435</ele>
        <time>2013-05-30T14:56:48Z</time>
      </trkpt>
      <trkpt lat="45.97784" lon="5.80709">
        <ele>434.48755</ele>
        <time>2013-05-30T14:56:54Z</time>
      </trkpt>
      <trkpt lat="45.97805" lon="5.80702">
        <ele>435.02466</ele>
        <time>2013-05-30T14:57:00Z</time>
      </trkpt>
      <trkpt lat="45.97825" lon="5.80695">
        <ele>434.97382</ele>
        <time>2013-05-30T14:57:06Z</time>
      </trkpt>
      <trkpt lat="45.97845" lon="5.8069">
        <ele>434.77966</ele>
        <time>2013-05-30T14:57:12Z</time>
      </trkpt>
      <trkpt lat="45.97864" lon="5.80685">
        <ele>435.13446</ele>
        <time>2013-05-30T14:57:18Z</time>
      </trkpt>
      <trkpt lat="45.97884" lon="5.80681">
        <ele>436.14014</ele>
        <time>2013-05-30T14:57:25Z</time>
      </trkpt>
      <trkpt lat="45.97903" lon="5.80677">
        <ele>436.8806</ele>
        <time>2013-05-30T14:57:32Z</time>
      </trkpt>
      <trkpt lat="45.97923" lon="5.80674">
        <ele>437.42218</ele>
        <time>2013-05-30T14:57:39Z</time>
      </trkpt>
      <trkpt lat="45.97942" lon="5.80669">
        <ele>437.73956</ele>
        <time>2013-05-30T14:57:46Z</time>
      </trkpt>
      <trkpt lat="45.97961" lon="5.80664">
        <ele>438.34854</ele>
        <time>2013-05-30T14:57:53Z</time>
      </trkpt>
      <trkpt lat="45.9798" lon="5.80655">
        <ele>438.57214</ele>
        <time>2013-05-30T14:58:00Z</time>
      </trkpt>
      <trkpt lat="45.97999" lon="5.80643">
        <ele>439.12427</ele>
        <time>2013-05-30T14:58:07Z</time>
      </trkpt>
      <trkpt lat="45.98016" lon="5.80629">
        <ele>439.5752</ele>
        <time>2013-05-30T14:58:14Z</time>
      </trkpt>
      <trkpt lat="45.98034" lon="5.80616">
        <ele>440.91837</ele>
        <time>2013-05-30T14:58:21Z</time>
      </trkpt>
      <trkpt lat="45.9805" lon="5.80604">
        <ele>442.34863</ele>
        <time>2013-05-30T14:58:28Z</time>
      </trkpt>
      <trkpt lat="45.98068" lon="5.80592">
        <ele>444.10345</ele>
        <time>2013-05-30T14:58:36Z</time>
      </trkpt>
      <trkpt lat="45.98085" lon="5.80582">
        <ele>443.96143</ele>
        <time>2013-05-30T14:58:42Z</time>
      </trkpt>
      <trkpt lat="45.98103" lon="5.8057">
        <ele>444.62732</ele>
        <time>2013-05-30T14:58:48Z</time>
      </trkpt>
      <trkpt lat="45.9812" lon="5.80558">
        <ele>446.65356</ele>
        <time>2013-05-30T14:58:54Z</time>
      </trkpt>
      <trkpt lat="45.98136" lon="5.80541">
        <ele>450.53287</ele>
        <time>2013-05-30T14:59:01Z</time>
      </trkpt>
      <trkpt lat="45.98141" lon="5.80514">
        <ele>452.61945</ele>
        <time>2013-05-30T14:59:08Z</time>
      </trkpt>
      <trkpt lat="45.98131" lon="5.80487">
        <ele>451.24652</ele>
        <time>2013-05-30T14:59:14Z</time>
      </trkpt>
      <trkpt lat="45.98117" lon="5.80464">
        <ele>450.02734</ele>
        <time>2013-05-30T14:59:19Z</time>
      </trkpt>
      <trkpt lat="45.98103" lon="5.80438">
        <ele>447.61362</ele>
        <time>2013-05-30T14:59:24Z</time>
      </trkpt>
      <trkpt lat="45.98093" lon="5.80414">
        <ele>446.80392</ele>
        <time>2013-05-30T14:59:28Z</time>
      </trkpt>
      <trkpt lat="45.98087" lon="5.80384">
        <ele>445.78757</ele>
        <time>2013-05-30T14:59:33Z</time>
      </trkpt>
      <trkpt lat="45.98085" lon="5.80358">
        <ele>444.53983</ele>
        <time>2013-05-30T14:59:37Z</time>
      </trkpt>
      <trkpt lat="45.98082" lon="5.80327">
        <ele>442.96454</ele>
        <time>2013-05-30T14:59:42Z</time>
      </trkpt>
      <trkpt lat="45.9808" lon="5.80298">
        <ele>442.23093</ele>
        <time>2013-05-30T14:59:47Z</time>
      </trkpt>
      <trkpt lat="45.98081" lon="5.80266">
        <ele>440.57257</ele>
        <time>2013-05-30T14:59:52Z</time>
      </trkpt>
      <trkpt lat="45.98084" lon="5.8024">
        <ele>440.94873</ele>
        <time>2013-05-30T14:59:56Z</time>
      </trkpt>
      <trkpt lat="45.98092" lon="5.8021">
        <ele>440.923</ele>
        <time>2013-05-30T15:00:01Z</time>
      </trkpt>
      <trkpt lat="45.98107" lon="5.80188">
        <ele>440.63623</ele>
        <time>2013-05-30T15:00:06Z</time>
      </trkpt>
      <trkpt lat="45.98127" lon="5.8018">
        <ele>441.3758</ele>
        <time>2013-05-30T15:00:11Z</time>
      </trkpt>
      <trkpt lat="45.98146" lon="5.80174">
        <ele>441.79883</ele>
        <time>2013-05-30T15:00:16Z</time>
      </trkpt>
      <trkpt lat="45.98164" lon="5.8017">
        <ele>441.98782</ele>
        <time>2013-05-30T15:00:21Z</time>
      </trkpt>
      <trkpt lat="45.98184" lon="5.80168">
        <ele>442.16135</ele>
        <time>2013-05-30T15:00:27Z</time>
      </trkpt>
      <trkpt lat="45.98202" lon="5.80165">
        <ele>443.58902</ele>
        <time>2013-05-30T15:00:33Z</time>
      </trkpt>
      <trkpt lat="45.9822" lon="5.80157">
        <ele>444.2592</ele>
        <time>2013-05-30T15:00:39Z</time>
      </trkpt>
      <trkpt lat="45.98237" lon="5.80145">
        <ele>444.55722</ele>
        <time>2013-05-30T15:00:46Z</time>
      </trkpt>
      <trkpt lat="45.98253" lon="5.80129">
        <ele>447.0252</ele>
        <time>2013-05-30T15:00:53Z</time>
      </trkpt>
      <trkpt lat="45.9827" lon="5.80114">
        <ele>447.22464</ele>
        <time>2013-05-30T15:01:00Z</time>
      </trkpt>
      <trkpt lat="45.98286" lon="5.80103">
        <ele>447.38593</ele>
        <time>2013-05-30T15:01:07Z</time>
      </trkpt>
      <trkpt lat="45.98303" lon="5.80094">
        <ele>448.50372</ele>
        <time>2013-05-30T15:01:14Z</time>
      </trkpt>
      <trkpt lat="45.98322" lon="5.80088">
        <ele>450.664</ele>
        <time>2013-05-30T15:01:21Z</time>
      </trkpt>
      <trkpt lat="45.98341" lon="5.80082">
        <ele>453.52002</ele>
        <time>2013-05-30T15:01:29Z</time>
      </trkpt>
      <trkpt lat="45.98359" lon="5.80075">
        <ele>453.28528</ele>
        <time>2013-05-30T15:01:37Z</time>
      </trkpt>
      <trkpt lat="45.98376" lon="5.80066">
        <ele>452.69513</ele>
        <time>2013-05-30T15:01:45Z</time>
      </trkpt>
      <trkpt lat="45.98391" lon="5.8005">
        <ele>454.19092</ele>
        <time>2013-05-30T15:01:52Z</time>
      </trkpt>
      <trkpt lat="45.98403" lon="5.80029">
        <ele>455.3362</ele>
        <time>2013-05-30T15:01:58Z</time>
      </trkpt>
      <trkpt lat="45.98415" lon="5.80006">
        <ele>455.9444</ele>
        <time>2013-05-30T15:02:04Z</time>
      </trkpt>
      <trkpt lat="45.98428" lon="5.79984">
        <ele>455.08936</ele>
        <time>2013-05-30T15:02:10Z</time>
      </trkpt>
      <trkpt lat="45.98442" lon="5.79963">
        <ele>454.8433</ele>
        <time>2013-05-30T15:02:16Z</time>
      </trkpt>
      <trkpt lat="45.98455" lon="5.79943">
        <ele>454.66507</ele>
        <time>2013-05-30T15:02:22Z</time>
      </trkpt>
      <trkpt lat="45.98468" lon="5.79923">
        <ele>454.73465</ele>
        <time>2013-05-30T15:02:28Z</time>
      </trkpt>
      <trkpt lat="45.9848" lon="5.79901">
        <ele>454.8149</ele>
        <time>2013-05-30T15:02:34Z</time>
      </trkpt>
      <trkpt lat="45.9849" lon="5.79877">
        <ele>454.937</ele>
        <time>2013-05-30T15:02:41Z</time>
      </trkpt>
      <trkpt lat="45.98499" lon="5.7985">
        <ele>456.31805</ele>
        <time>2013-05-30T15:02:48Z</time>
      </trkpt>
      <trkpt lat="45.98508" lon="5.79826">
        <ele>455.84302</ele>
        <time>2013-05-30T15:02:55Z</time>
      </trkpt>
      <trkpt lat="45.9852" lon="5.79807">
        <ele>456.41785</ele>
        <time>2013-05-30T15:03:01Z</time>
      </trkpt>
      <trkpt lat="45.98538" lon="5.79792">
        <ele>457.3423</ele>
        <time>2013-05-30T15:03:07Z</time>
      </trkpt>
      <trkpt lat="45.98555" lon="5.79783">
        <ele>460.56577</ele>
        <time>2013-05-30T15:03:13Z</time>
      </trkpt>
      <trkpt lat="45.98574" lon="5.79774">
        <ele>461.81915</ele>
        <time>2013-05-30T15:03:19Z</time>
      </trkpt>
      <trkpt lat="45.98593" lon="5.79765">
        <ele>460.7303</ele>
        <time>2013-05-30T15:03:25Z</time>
      </trkpt>
      <trkpt lat="45.98612" lon="5.79756">
        <ele>460.19553</ele>
        <time>2013-05-30T15:03:31Z</time>
      </trkpt>
      <trkpt lat="45.98632" lon="5.79749">
        <ele>460.00897</ele>
        <time>2013-05-30T15:03:38Z</time>
      </trkpt>
      <trkpt lat="45.9865" lon="5.79742">
        <ele>461.43207</ele>
        <time>2013-05-30T15:03:44Z</time>
      </trkpt>
      <trkpt lat="45.98668" lon="5.79732">
        <ele>462.12228</ele>
        <time>2013-05-30T15:03:50Z</time>
      </trkpt>
      <trkpt lat="45.98685" lon="5.79719">
        <ele>462.47827</ele>
        <time>2013-05-30T15:03:56Z</time>
      </trkpt>
      <trkpt lat="45.98704" lon="5.79704">
        <ele>462.75626</ele>
        <time>2013-05-30T15:04:02Z</time>
      </trkpt>
      <trkpt lat="45.98721" lon="5.79689">
        <ele>464.56216</ele>
        <time>2013-05-30T15:04:08Z</time>
      </trkpt>
      <trkpt lat="45.98737" lon="5.79676">
        <ele>463.38663</ele>
        <time>2013-05-30T15:04:13Z</time>
      </trkpt>
      <trkpt lat="45.98753" lon="5.79662">
        <ele>462.34937</ele>
        <time>2013-05-30T15:04:18Z</time>
      </trkpt>
      <trkpt lat="45.98767" lon="5.79646">
        <ele>462.9788</ele>
        <time>2013-05-30T15:04:23Z</time>
      </trkpt>
      <trkpt lat="45.98781" lon="5.79626">
        <ele>462.88303</ele>
        <time>2013-05-30T15:04:29Z</time>
      </trkpt>
      <trkpt lat="45.98795" lon="5.79605">
        <ele>461.59537</ele>
        <time>2013-05-30T15:04:35Z</time>
      </trkpt>
      <trkpt lat="45.98809" lon="5.79583">
        <ele>459.83612</ele>
        <time>2013-05-30T15:04:41Z</time>
      </trkpt>
      <trkpt lat="45.98822" lon="5.79562">
        <ele>459.1924</ele>
        <time>2013-05-30T15:04:47Z</time>
      </trkpt>
      <trkpt lat="45.98836" lon="5.79543">
        <ele>460.1303</ele>
        <time>2013-05-30T15:04:53Z</time>
      </trkpt>
      <trkpt lat="45.9885" lon="5.79523">
        <ele>462.46405</ele>
        <time>2013-05-30T15:05:01Z</time>
      </trkpt>
      <trkpt lat="45.98863" lon="5.79505">
        <ele>463.50238</ele>
        <time>2013-05-30T15:05:09Z</time>
      </trkpt>
      <trkpt lat="45.98876" lon="5.79483">
        <ele>465.371</ele>
        <time>2013-05-30T15:05:17Z</time>
      </trkpt>
      <trkpt lat="45.98887" lon="5.79463">
        <ele>466.3209</ele>
        <time>2013-05-30T15:05:24Z</time>
      </trkpt>
      <trkpt lat="45.98899" lon="5.79439">
        <ele>466.4277</ele>
        <time>2013-05-30T15:05:32Z</time>
      </trkpt>
      <trkpt lat="45.98911" lon="5.79416">
        <ele>466.22556</ele>
        <time>2013-05-30T15:05:40Z</time>
      </trkpt>
      <trkpt lat="45.98923" lon="5.79394">
        <ele>466.98178</ele>
        <time>2013-05-30T15:05:47Z</time>
      </trkpt>
      <trkpt lat="45.98936" lon="5.79373">
        <ele>468.24298</ele>
        <time>2013-05-30T15:05:54Z</time>
      </trkpt>
      <trkpt lat="45.98949" lon="5.79354">
        <ele>467.98697</ele>
        <time>2013-05-30T15:06:00Z</time>
      </trkpt>
      <trkpt lat="45.98964" lon="5.79338">
        <ele>467.89285</ele>
        <time>2013-05-30T15:06:06Z</time>
      </trkpt>
      <trkpt lat="45.98981" lon="5.79325">
        <ele>467.2858</ele>
        <time>2013-05-30T15:06:12Z</time>
      </trkpt>
      <trkpt lat="45.98999" lon="5.7931">
        <ele>466.87485</ele>
        <time>2013-05-30T15:06:18Z</time>
      </trkpt>
      <trkpt lat="45.99018" lon="5.79299">
        <ele>469.76703</ele>
        <time>2013-05-30T15:06:25Z</time>
      </trkpt>
      <trkpt lat="45.99035" lon="5.79287">
        <ele>474.11115</ele>
        <time>2013-05-30T15:06:31Z</time>
      </trkpt>
      <trkpt lat="45.99053" lon="5.7928">
        <ele>475.92065</ele>
        <time>2013-05-30T15:06:38Z</time>
      </trkpt>
      <trkpt lat="45.99069" lon="5.79267">
        <ele>479.96527</ele>
        <time>2013-05-30T15:06:47Z</time>
      </trkpt>
      <trkpt lat="45.99085" lon="5.79254">
        <ele>478.96167</ele>
        <time>2013-05-30T15:06:52Z</time>
      </trkpt>
      <trkpt lat="45.99103" lon="5.7924">
        <ele>478.0118</ele>
        <time>2013-05-30T15:06:57Z</time>
      </trkpt>
      <trkpt lat="45.99119" lon="5.79228">
        <ele>479.1481</ele>
        <time>2013-05-30T15:07:02Z</time>
      </trkpt>
      <trkpt lat="45.99138" lon="5.79217">
        <ele>478.91815</ele>
        <time>2013-05-30T15:07:08Z</time>
      </trkpt>
      <trkpt lat="45.99154" lon="5.79206">
        <ele>476.97314</ele>
        <time>2013-05-30T15:07:13Z</time>
      </trkpt>
      <trkpt lat="45.99171" lon="5.79195">
        <ele>477.06757</ele>
        <time>2013-05-30T15:07:19Z</time>
      </trkpt>
      <trkpt lat="45.9919" lon="5.79181">
        <ele>476.34204</ele>
        <time>2013-05-30T15:07:26Z</time>
      </trkpt>
      <trkpt lat="45.99205" lon="5.79167">
        <ele>476.6394</ele>
        <time>2013-05-30T15:07:32Z</time>
      </trkpt>
      <trkpt lat="45.99222" lon="5.7915">
        <ele>477.41684</ele>
        <time>2013-05-30T15:07:38Z</time>
      </trkpt>
      <trkpt lat="45.99238" lon="5.79134">
        <ele>478.87195</ele>
        <time>2013-05-30T15:07:44Z</time>
      </trkpt>
      <trkpt lat="45.99256" lon="5.79119">
        <ele>480.14572</ele>
        <time>2013-05-30T15:07:50Z</time>
      </trkpt>
      <trkpt lat="45.99275" lon="5.79109">
        <ele>479.6018</ele>
        <time>2013-05-30T15:07:56Z</time>
      </trkpt>
      <trkpt lat="45.99295" lon="5.79106">
        <ele>479.1981</ele>
        <time>2013-05-30T15:08:02Z</time>
      </trkpt>
      <trkpt lat="45.99316" lon="5.79111">
        <ele>479.52927</ele>
        <time>2013-05-30T15:08:08Z</time>
      </trkpt>
      <trkpt lat="45.99333" lon="5.79128">
        <ele>479.50937</ele>
        <time>2013-05-30T15:08:14Z</time>
      </trkpt>
      <trkpt lat="45.99344" lon="5.79151">
        <ele>479.0799</ele>
        <time>2013-05-30T15:08:20Z</time>
      </trkpt>
      <trkpt lat="45.99352" lon="5.79179">
        <ele>479.6966</ele>
        <time>2013-05-30T15:08:27Z</time>
      </trkpt>
      <trkpt lat="45.99365" lon="5.79201">
        <ele>480.05997</ele>
        <time>2013-05-30T15:08:34Z</time>
      </trkpt>
      <trkpt lat="45.99385" lon="5.79209">
        <ele>481.5856</ele>
        <time>2013-05-30T15:08:41Z</time>
      </trkpt>
      <trkpt lat="45.99406" lon="5.79203">
        <ele>482.05222</ele>
        <time>2013-05-30T15:08:48Z</time>
      </trkpt>
      <trkpt lat="45.99425" lon="5.79197">
        <ele>480.99875</ele>
        <time>2013-05-30T15:08:54Z</time>
      </trkpt>
      <trkpt lat="45.99442" lon="5.79187">
        <ele>489.9359</ele>
        <time>2013-05-30T15:09:03Z</time>
      </trkpt>
      <trkpt lat="45.9946" lon="5.79168">
        <ele>491.73257</ele>
        <time>2013-05-30T15:09:10Z</time>
      </trkpt>
      <trkpt lat="45.99475" lon="5.79149">
        <ele>487.16028</ele>
        <time>2013-05-30T15:09:15Z</time>
      </trkpt>
      <trkpt lat="45.99489" lon="5.7913">
        <ele>483.83148</ele>
        <time>2013-05-30T15:09:21Z</time>
      </trkpt>
      <trkpt lat="45.99503" lon="5.7911">
        <ele>482.74893</ele>
        <time>2013-05-30T15:09:28Z</time>
      </trkpt>
      <trkpt lat="45.99514" lon="5.79086">
        <ele>484.11667</ele>
        <time>2013-05-30T15:09:35Z</time>
      </trkpt>
      <trkpt lat="45.9952" lon="5.79061">
        <ele>487.10983</ele>
        <time>2013-05-30T15:09:41Z</time>
      </trkpt>
      <trkpt lat="45.99526" lon="5.79035">
        <ele>487.71155</ele>
        <time>2013-05-30T15:09:47Z</time>
      </trkpt>
      <trkpt lat="45.99532" lon="5.7901">
        <ele>483.92242</ele>
        <time>2013-05-30T15:09:53Z</time>
      </trkpt>
      <trkpt lat="45.99537" lon="5.78982">
        <ele>480.99738</ele>
        <time>2013-05-30T15:10:00Z</time>
      </trkpt>
      <trkpt lat="45.9954" lon="5.78956">
        <ele>480.50696</ele>
        <time>2013-05-30T15:10:06Z</time>
      </trkpt>
      <trkpt lat="45.99539" lon="5.78929">
        <ele>482.6464</ele>
        <time>2013-05-30T15:10:12Z</time>
      </trkpt>
      <trkpt lat="45.99537" lon="5.78899">
        <ele>482.08365</ele>
        <time>2013-05-30T15:10:19Z</time>
      </trkpt>
      <trkpt lat="45.99533" lon="5.78871">
        <ele>481.18008</ele>
        <time>2013-05-30T15:10:26Z</time>
      </trkpt>
      <trkpt lat="45.99534" lon="5.78843">
        <ele>481.74878</ele>
        <time>2013-05-30T15:10:32Z</time>
      </trkpt>
      <trkpt lat="45.99539" lon="5.78817">
        <ele>480.43594</ele>
        <time>2013-05-30T15:10:38Z</time>
      </trkpt>
      <trkpt lat="45.99546" lon="5.78789">
        <ele>478.4249</ele>
        <time>2013-05-30T15:10:44Z</time>
      </trkpt>
      <trkpt lat="45.99549" lon="5.78763">
        <ele>479.68567</ele>
        <time>2013-05-30T15:10:50Z</time>
      </trkpt>
      <trkpt lat="45.9955" lon="5.78736">
        <ele>482.70786</ele>
        <time>2013-05-30T15:10:56Z</time>
      </trkpt>
      <trkpt lat="45.99555" lon="5.78707">
        <ele>483.62314</ele>
        <time>2013-05-30T15:11:02Z</time>
      </trkpt>
      <trkpt lat="45.99561" lon="5.78681">
        <ele>483.37723</ele>
        <time>2013-05-30T15:11:08Z</time>
      </trkpt>
      <trkpt lat="45.99565" lon="5.78655">
        <ele>483.02304</ele>
        <time>2013-05-30T15:11:14Z</time>
      </trkpt>
      <trkpt lat="45.99562" lon="5.78627">
        <ele>484.8357</ele>
        <time>2013-05-30T15:11:20Z</time>
      </trkpt>
      <trkpt lat="45.99556" lon="5.78597">
        <ele>487.74982</ele>
        <time>2013-05-30T15:11:26Z</time>
      </trkpt>
      <trkpt lat="45.99555" lon="5.78567">
        <ele>488.57608</ele>
        <time>2013-05-30T15:11:32Z</time>
      </trkpt>
      <trkpt lat="45.99563" lon="5.78538">
        <ele>487.37854</ele>
        <time>2013-05-30T15:11:38Z</time>
      </trkpt>
      <trkpt lat="45.99574" lon="5.78518">
        <ele>487.69882</ele>
        <time>2013-05-30T15:11:43Z</time>
      </trkpt>
      <trkpt lat="45.99592" lon="5.78502">
        <ele>490.95712</ele>
        <time>2013-05-30T15:11:49Z</time>
      </trkpt>
      <trkpt lat="45.9961" lon="5.78499">
        <ele>490.16132</ele>
        <time>2013-05-30T15:11:54Z</time>
      </trkpt>
      <trkpt lat="45.9963" lon="5.78493">
        <ele>488.57648</ele>
        <time>2013-05-30T15:12:16Z</time>
      </trkpt>
      <trkpt lat="45.9965" lon="5.785">
        <ele>488.8219</ele>
        <time>2013-05-30T15:12:23Z</time>
      </trkpt>
      <trkpt lat="45.99662" lon="5.7852">
        <ele>489.72717</ele>
        <time>2013-05-30T15:12:29Z</time>
      </trkpt>
      <trkpt lat="45.99666" lon="5.78546">
        <ele>490.486</ele>
        <time>2013-05-30T15:12:35Z</time>
      </trkpt>
      <trkpt lat="45.99675" lon="5.7857">
        <ele>490.9483</ele>
        <time>2013-05-30T15:12:42Z</time>
      </trkpt>
      <trkpt lat="45.99695" lon="5.78578">
        <ele>491.77838</ele>
        <time>2013-05-30T15:12:49Z</time>
      </trkpt>
      <trkpt lat="45.99713" lon="5.78568">
        <ele>493.4653</ele>
        <time>2013-05-30T15:12:57Z</time>
      </trkpt>
      <trkpt lat="45.99727" lon="5.78546">
        <ele>495.18002</ele>
        <time>2013-05-30T15:13:05Z</time>
      </trkpt>
      <trkpt lat="45.99738" lon="5.78523">
        <ele>495.84662</ele>
        <time>2013-05-30T15:13:13Z</time>
      </trkpt>
      <trkpt lat="45.99749" lon="5.78501">
        <ele>496.6017</ele>
        <time>2013-05-30T15:13:21Z</time>
      </trkpt>
      <trkpt lat="45.9976" lon="5.78478">
        <ele>497.86935</ele>
        <time>2013-05-30T15:13:29Z</time>
      </trkpt>
      <trkpt lat="45.99773" lon="5.7846">
        <ele>498.74283</ele>
        <time>2013-05-30T15:13:36Z</time>
      </trkpt>
      <trkpt lat="45.99788" lon="5.78444">
        <ele>498.41348</ele>
        <time>2013-05-30T15:13:44Z</time>
      </trkpt>
      <trkpt lat="45.99804" lon="5.78428">
        <ele>501.1246</ele>
        <time>2013-05-30T15:13:53Z</time>
      </trkpt>
      <trkpt lat="45.99819" lon="5.78412">
        <ele>504.64624</ele>
        <time>2013-05-30T15:14:02Z</time>
      </trkpt>
      <trkpt lat="45.99837" lon="5.78399">
        <ele>506.416</ele>
        <time>2013-05-30T15:14:11Z</time>
      </trkpt>
      <trkpt lat="45.99852" lon="5.78385">
        <ele>507.49203</ele>
        <time>2013-05-30T15:14:19Z</time>
      </trkpt>
      <trkpt lat="45.99868" lon="5.78371">
        <ele>509.495</ele>
        <time>2013-05-30T15:14:27Z</time>
      </trkpt>
      <trkpt lat="45.99884" lon="5.78357">
        <ele>514.89246</ele>
        <time>2013-05-30T15:14:35Z</time>
      </trkpt>
      <trkpt lat="45.99899" lon="5.78341">
        <ele>517.62885</ele>
        <time>2013-05-30T15:14:44Z</time>
      </trkpt>
      <trkpt lat="45.99915" lon="5.78326">
        <ele>518.7923</ele>
        <time>2013-05-30T15:14:52Z</time>
      </trkpt>
      <trkpt lat="45.99933" lon="5.78313">
        <ele>516.6141</ele>
        <time>2013-05-30T15:14:59Z</time>
      </trkpt>
      <trkpt lat="45.9995" lon="5.78301">
        <ele>515.02905</ele>
        <time>2013-05-30T15:15:07Z</time>
      </trkpt>
      <trkpt lat="45.99968" lon="5.78291">
        <ele>515.2572</ele>
        <time>2013-05-30T15:15:15Z</time>
      </trkpt>
      <trkpt lat="45.99988" lon="5.78293">
        <ele>516.17426</ele>
        <time>2013-05-30T15:15:23Z</time>
      </trkpt>
      <trkpt lat="46.00007" lon="5.78301">
        <ele>518.12555</ele>
        <time>2013-05-30T15:15:32Z</time>
      </trkpt>
      <trkpt lat="46.00025" lon="5.78302">
        <ele>518.2504</ele>
        <time>2013-05-30T15:15:40Z</time>
      </trkpt>
      <trkpt lat="46.00044" lon="5.78294">
        <ele>519.09393</ele>
        <time>2013-05-30T15:15:50Z</time>
      </trkpt>
      <trkpt lat="46.00061" lon="5.78279">
        <ele>520.4417</ele>
        <time>2013-05-30T15:16:00Z</time>
      </trkpt>
      <trkpt lat="46.00077" lon="5.78264">
        <ele>519.9698</ele>
        <time>2013-05-30T15:16:09Z</time>
      </trkpt>
      <trkpt lat="46.00093" lon="5.78247">
        <ele>522.6446</ele>
        <time>2013-05-30T15:16:19Z</time>
      </trkpt>
      <trkpt lat="46.00108" lon="5.78231">
        <ele>525.3176</ele>
        <time>2013-05-30T15:16:28Z</time>
      </trkpt>
      <trkpt lat="46.00124" lon="5.78217">
        <ele>526.29895</ele>
        <time>2013-05-30T15:16:37Z</time>
      </trkpt>
      <trkpt lat="46.00139" lon="5.78202">
        <ele>527.4533</ele>
        <time>2013-05-30T15:16:46Z</time>
      </trkpt>
      <trkpt lat="46.00154" lon="5.78186">
        <ele>526.403</ele>
        <time>2013-05-30T15:16:55Z</time>
      </trkpt>
      <trkpt lat="46.00169" lon="5.78169">
        <ele>524.81226</ele>
        <time>2013-05-30T15:17:04Z</time>
      </trkpt>
      <trkpt lat="46.00185" lon="5.78154">
        <ele>526.67377</ele>
        <time>2013-05-30T15:17:13Z</time>
      </trkpt>
      <trkpt lat="46.00204" lon="5.78153">
        <ele>530.1717</ele>
        <time>2013-05-30T15:17:22Z</time>
      </trkpt>
      <trkpt lat="46.00218" lon="5.78173">
        <ele>531.19696</ele>
        <time>2013-05-30T15:17:31Z</time>
      </trkpt>
      <trkpt lat="46.00221" lon="5.78201">
        <ele>530.9602</ele>
        <time>2013-05-30T15:17:40Z</time>
      </trkpt>
      <trkpt lat="46.00213" lon="5.78225">
        <ele>527.66284</ele>
        <time>2013-05-30T15:17:49Z</time>
      </trkpt>
      <trkpt lat="46.002" lon="5.78244">
        <ele>531.4653</ele>
        <time>2013-05-30T15:17:58Z</time>
      </trkpt>
      <trkpt lat="46.00187" lon="5.78263">
        <ele>532.65814</ele>
        <time>2013-05-30T15:18:07Z</time>
      </trkpt>
      <trkpt lat="46.00173" lon="5.78283">
        <ele>533.0615</ele>
        <time>2013-05-30T15:18:16Z</time>
      </trkpt>
      <trkpt lat="46.0016" lon="5.78305">
        <ele>534.5045</ele>
        <time>2013-05-30T15:18:24Z</time>
      </trkpt>
      <trkpt lat="46.00151" lon="5.7833">
        <ele>535.7848</ele>
        <time>2013-05-30T15:18:31Z</time>
      </trkpt>
      <trkpt lat="46.00153" lon="5.78356">
        <ele>536.8114</ele>
        <time>2013-05-30T15:18:38Z</time>
      </trkpt>
      <trkpt lat="46.00163" lon="5.78381">
        <ele>537.3582</ele>
        <time>2013-05-30T15:18:46Z</time>
      </trkpt>
      <trkpt lat="46.0018" lon="5.78393">
        <ele>538.4218</ele>
        <time>2013-05-30T15:18:54Z</time>
      </trkpt>
      <trkpt lat="46.002" lon="5.78393">
        <ele>538.6103</ele>
        <time>2013-05-30T15:19:02Z</time>
      </trkpt>
      <trkpt lat="46.00218" lon="5.78392">
        <ele>538.55865</ele>
        <time>2013-05-30T15:19:09Z</time>
      </trkpt>
      <trkpt lat="46.00237" lon="5.78393">
        <ele>540.54834</ele>
        <time>2013-05-30T15:19:16Z</time>
      </trkpt>
      <trkpt lat="46.00257" lon="5.78397">
        <ele>540.9634</ele>
        <time>2013-05-30T15:19:23Z</time>
      </trkpt>
      <trkpt lat="46.00276" lon="5.78399">
        <ele>541.0219</ele>
        <time>2013-05-30T15:19:29Z</time>
      </trkpt>
      <trkpt lat="46.00295" lon="5.78403">
        <ele>540.44666</ele>
        <time>2013-05-30T15:19:36Z</time>
      </trkpt>
      <trkpt lat="46.00314" lon="5.78406">
        <ele>541.3928</ele>
        <time>2013-05-30T15:19:43Z</time>
      </trkpt>
      <trkpt lat="46.00331" lon="5.78414">
        <ele>541.567</ele>
        <time>2013-05-30T15:19:49Z</time>
      </trkpt>
      <trkpt lat="46.00347" lon="5.7843">
        <ele>544.498</ele>
        <time>2013-05-30T15:19:56Z</time>
      </trkpt>
      <trkpt lat="46.00363" lon="5.78445">
        <ele>545.3539</ele>
        <time>2013-05-30T15:20:02Z</time>
      </trkpt>
      <trkpt lat="46.00379" lon="5.78459">
        <ele>544.4459</ele>
        <time>2013-05-30T15:20:08Z</time>
      </trkpt>
      <trkpt lat="46.00399" lon="5.78468">
        <ele>542.24426</ele>
        <time>2013-05-30T15:20:15Z</time>
      </trkpt>
      <trkpt lat="46.00418" lon="5.78471">
        <ele>540.9285</ele>
        <time>2013-05-30T15:20:21Z</time>
      </trkpt>
      <trkpt lat="46.00437" lon="5.78475">
        <ele>541.3711</ele>
        <time>2013-05-30T15:20:27Z</time>
      </trkpt>
      <trkpt lat="46.00456" lon="5.78481">
        <ele>543.3245</ele>
        <time>2013-05-30T15:20:33Z</time>
      </trkpt>
      <trkpt lat="46.00476" lon="5.78486">
        <ele>544.1081</ele>
        <time>2013-05-30T15:20:41Z</time>
      </trkpt>
      <trkpt lat="46.00496" lon="5.78489">
        <ele>546.01056</ele>
        <time>2013-05-30T15:20:49Z</time>
      </trkpt>
      <trkpt lat="46.0051" lon="5.78473">
        <ele>547.6972</ele>
        <time>2013-05-30T15:21:01Z</time>
      </trkpt>
      <trkpt lat="46.00503" lon="5.78445">
        <ele>548.2215</ele>
        <time>2013-05-30T15:21:29Z</time>
      </trkpt>
      <trkpt lat="46.00499" lon="5.78416">
        <ele>548.9152</ele>
        <time>2013-05-30T15:21:36Z</time>
      </trkpt>
      <trkpt lat="46.00498" lon="5.78388">
        <ele>549.3111</ele>
        <time>2013-05-30T15:21:43Z</time>
      </trkpt>
      <trkpt lat="46.00501" lon="5.78361">
        <ele>549.6061</ele>
        <time>2013-05-30T15:21:51Z</time>
      </trkpt>
      <trkpt lat="46.00505" lon="5.78335">
        <ele>553.0264</ele>
        <time>2013-05-30T15:21:59Z</time>
      </trkpt>
      <trkpt lat="46.00505" lon="5.78309">
        <ele>554.28326</ele>
        <time>2013-05-30T15:22:06Z</time>
      </trkpt>
      <trkpt lat="46.0049" lon="5.78293">
        <ele>553.7949</ele>
        <time>2013-05-30T15:22:13Z</time>
      </trkpt>
      <trkpt lat="46.00474" lon="5.78279">
        <ele>552.5462</ele>
        <time>2013-05-30T15:22:20Z</time>
      </trkpt>
      <trkpt lat="46.00463" lon="5.78254">
        <ele>553.14655</ele>
        <time>2013-05-30T15:22:27Z</time>
      </trkpt>
      <trkpt lat="46.0045" lon="5.78234">
        <ele>550.39386</ele>
        <time>2013-05-30T15:22:32Z</time>
      </trkpt>
      <trkpt lat="46.00438" lon="5.78211">
        <ele>546.4269</ele>
        <time>2013-05-30T15:22:38Z</time>
      </trkpt>
      <trkpt lat="46.0042" lon="5.78208">
        <ele>548.1185</ele>
        <time>2013-05-30T15:22:49Z</time>
      </trkpt>
      <trkpt lat="46.00402" lon="5.78223">
        <ele>537.5201</ele>
        <time>2013-05-30T15:23:01Z</time>
      </trkpt>
      <trkpt lat="46.00382" lon="5.78229">
        <ele>537.4597</ele>
        <time>2013-05-30T15:23:08Z</time>
      </trkpt>
      <trkpt lat="46.00364" lon="5.78232">
        <ele>539.8665</ele>
        <time>2013-05-30T15:23:14Z</time>
      </trkpt>
      <trkpt lat="46.00347" lon="5.7824">
        <ele>553.0977</ele>
        <time>2013-05-30T15:29:19Z</time>
      </trkpt>
      <trkpt lat="46.00332" lon="5.78255">
        <ele>549.1268</ele>
        <time>2013-05-30T15:29:33Z</time>
      </trkpt>
    </trkseg>
  </trk>
</gpx>